<?xml version="1.0" encoding="UTF-8" standalone="no" ?>
<gpx xmlns="http://www.topografix.com/GPX/1/1" xmlns:xsi="http://www.w3.org/2001/XMLSchema-instance" xsi:schemaLocation="http://www.topografix.com/GPX/1/1 http://www.topografix.com/GPX/1/1/gpx.xsd" version="1.1" creator="VisuGPX - https://www.visugpx.com">
  <metadata>
    <name>ahuy parking milles clubs</name>
    <desc><![CDATA[sortie vtt de décembre au départ du parking des milles clubs
Sortie agréable mais exigeante]]></desc>
  </metadata>
  <trk>
    <name><![CDATA[Current Track: 15 OCT 2016 14:57]]></name>
    <trkseg>
      <trkpt lat="47.18983" lon="5.29006">
        <ele>195.28</ele>
        <time>2016-10-15T13:57:31Z</time>
      </trkpt>
      <trkpt lat="47.18984" lon="5.29007">
        <ele>197.21</ele>
        <time>2016-10-15T13:57:53Z</time>
      </trkpt>
      <trkpt lat="47.18984" lon="5.29007">
        <ele>197.69</ele>
        <time>2016-10-15T13:58:06Z</time>
      </trkpt>
    </trkseg>
  </trk>
  <trk>
    <name><![CDATA[Current Track: 16 OCT 2016 06:59]]></name>
    <trkseg>
      <trkpt lat="47.2972" lon="5.00293">
        <ele>277</ele>
        <time>2016-10-16T05:59:03Z</time>
      </trkpt>
      <trkpt lat="47.29724" lon="5.00298">
        <ele>290.94</ele>
        <time>2016-10-16T05:59:38Z</time>
      </trkpt>
      <trkpt lat="47.29723" lon="5.00296">
        <ele>281.8</ele>
        <time>2016-10-16T06:00:18Z</time>
      </trkpt>
      <trkpt lat="47.29723" lon="5.00296">
        <ele>281.8</ele>
        <time>2016-10-16T06:00:34Z</time>
      </trkpt>
      <trkpt lat="47.29717" lon="5.00298">
        <ele>276.52</ele>
        <time>2016-10-16T06:00:51Z</time>
      </trkpt>
      <trkpt lat="47.29722" lon="5.00292">
        <ele>274.59</ele>
        <time>2016-10-16T06:01:26Z</time>
      </trkpt>
      <trkpt lat="47.29727" lon="5.00296">
        <ele>276.52</ele>
        <time>2016-10-16T06:01:39Z</time>
      </trkpt>
      <trkpt lat="47.29725" lon="5.00296">
        <ele>276.52</ele>
        <time>2016-10-16T06:02:09Z</time>
      </trkpt>
      <trkpt lat="47.29725" lon="5.00294">
        <ele>276.52</ele>
        <time>2016-10-16T06:02:24Z</time>
      </trkpt>
      <trkpt lat="47.29726" lon="5.00296">
        <ele>275.56</ele>
        <time>2016-10-16T06:02:53Z</time>
      </trkpt>
      <trkpt lat="47.29724" lon="5.00295">
        <ele>275.56</ele>
        <time>2016-10-16T06:02:58Z</time>
      </trkpt>
      <trkpt lat="47.29719" lon="5.00292">
        <ele>275.56</ele>
        <time>2016-10-16T06:03:08Z</time>
      </trkpt>
      <trkpt lat="47.29723" lon="5.00292">
        <ele>276.04</ele>
        <time>2016-10-16T06:03:14Z</time>
      </trkpt>
      <trkpt lat="47.29727" lon="5.00295">
        <ele>277</ele>
        <time>2016-10-16T06:03:28Z</time>
      </trkpt>
      <trkpt lat="47.29727" lon="5.00295">
        <ele>277</ele>
        <time>2016-10-16T06:03:49Z</time>
      </trkpt>
      <trkpt lat="47.29727" lon="5.00295">
        <ele>277</ele>
        <time>2016-10-16T06:04:10Z</time>
      </trkpt>
      <trkpt lat="47.29727" lon="5.00295">
        <ele>277.96</ele>
        <time>2016-10-16T06:04:40Z</time>
      </trkpt>
      <trkpt lat="47.29727" lon="5.00295">
        <ele>278.92</ele>
        <time>2016-10-16T06:05:12Z</time>
      </trkpt>
      <trkpt lat="47.29727" lon="5.00294">
        <ele>278.44</ele>
        <time>2016-10-16T06:05:35Z</time>
      </trkpt>
      <trkpt lat="47.29727" lon="5.00295">
        <ele>277.48</ele>
        <time>2016-10-16T06:05:58Z</time>
      </trkpt>
      <trkpt lat="47.29728" lon="5.00295">
        <ele>277</ele>
        <time>2016-10-16T06:06:18Z</time>
      </trkpt>
      <trkpt lat="47.29728" lon="5.00294">
        <ele>277</ele>
        <time>2016-10-16T06:06:33Z</time>
      </trkpt>
      <trkpt lat="47.29739" lon="5.00298">
        <ele>277.48</ele>
        <time>2016-10-16T06:06:41Z</time>
      </trkpt>
      <trkpt lat="47.29768" lon="5.00312">
        <ele>277</ele>
        <time>2016-10-16T06:06:55Z</time>
      </trkpt>
      <trkpt lat="47.29815" lon="5.00344">
        <ele>278.44</ele>
        <time>2016-10-16T06:07:09Z</time>
      </trkpt>
      <trkpt lat="47.29863" lon="5.00385">
        <ele>278.92</ele>
        <time>2016-10-16T06:07:27Z</time>
      </trkpt>
      <trkpt lat="47.29879" lon="5.00379">
        <ele>280.36</ele>
        <time>2016-10-16T06:07:36Z</time>
      </trkpt>
      <trkpt lat="47.29891" lon="5.00306">
        <ele>279.4</ele>
        <time>2016-10-16T06:07:55Z</time>
      </trkpt>
      <trkpt lat="47.29905" lon="5.00259">
        <ele>281.32</ele>
        <time>2016-10-16T06:08:10Z</time>
      </trkpt>
      <trkpt lat="47.29908" lon="5.00226">
        <ele>283.25</ele>
        <time>2016-10-16T06:08:22Z</time>
      </trkpt>
      <trkpt lat="47.29913" lon="5.00201">
        <ele>286.13</ele>
        <time>2016-10-16T06:08:34Z</time>
      </trkpt>
      <trkpt lat="47.2992" lon="5.00164">
        <ele>288.05</ele>
        <time>2016-10-16T06:08:50Z</time>
      </trkpt>
      <trkpt lat="47.29924" lon="5.0013">
        <ele>290.46</ele>
        <time>2016-10-16T06:09:07Z</time>
      </trkpt>
      <trkpt lat="47.29924" lon="5.00128">
        <ele>290.46</ele>
        <time>2016-10-16T06:09:09Z</time>
      </trkpt>
      <trkpt lat="47.29916" lon="5.00108">
        <ele>291.9</ele>
        <time>2016-10-16T06:09:20Z</time>
      </trkpt>
      <trkpt lat="47.29913" lon="5.00101">
        <ele>293.34</ele>
        <time>2016-10-16T06:09:24Z</time>
      </trkpt>
      <trkpt lat="47.29911" lon="5.00092">
        <ele>295.74</ele>
        <time>2016-10-16T06:09:30Z</time>
      </trkpt>
      <trkpt lat="47.2991" lon="5.00061">
        <ele>298.15</ele>
        <time>2016-10-16T06:09:47Z</time>
      </trkpt>
      <trkpt lat="47.29911" lon="5.00057">
        <ele>298.63</ele>
        <time>2016-10-16T06:09:50Z</time>
      </trkpt>
      <trkpt lat="47.29916" lon="5.00026">
        <ele>301.51</ele>
        <time>2016-10-16T06:10:08Z</time>
      </trkpt>
      <trkpt lat="47.29925" lon="4.99998">
        <ele>305.36</ele>
        <time>2016-10-16T06:10:26Z</time>
      </trkpt>
      <trkpt lat="47.2993" lon="4.9999">
        <ele>305.84</ele>
        <time>2016-10-16T06:10:36Z</time>
      </trkpt>
      <trkpt lat="47.29943" lon="4.99976">
        <ele>305.84</ele>
        <time>2016-10-16T06:10:48Z</time>
      </trkpt>
      <trkpt lat="47.29947" lon="4.99975">
        <ele>305.84</ele>
        <time>2016-10-16T06:10:52Z</time>
      </trkpt>
      <trkpt lat="47.29959" lon="4.99951">
        <ele>306.32</ele>
        <time>2016-10-16T06:11:03Z</time>
      </trkpt>
      <trkpt lat="47.2996" lon="4.99946">
        <ele>306.32</ele>
        <time>2016-10-16T06:11:05Z</time>
      </trkpt>
      <trkpt lat="47.29963" lon="4.99936">
        <ele>306.8</ele>
        <time>2016-10-16T06:11:09Z</time>
      </trkpt>
      <trkpt lat="47.29976" lon="4.99907">
        <ele>309.2</ele>
        <time>2016-10-16T06:11:21Z</time>
      </trkpt>
      <trkpt lat="47.29976" lon="4.99903">
        <ele>309.2</ele>
        <time>2016-10-16T06:11:23Z</time>
      </trkpt>
      <trkpt lat="47.29979" lon="4.99886">
        <ele>311.6</ele>
        <time>2016-10-16T06:11:30Z</time>
      </trkpt>
      <trkpt lat="47.29978" lon="4.99871">
        <ele>312.09</ele>
        <time>2016-10-16T06:11:37Z</time>
      </trkpt>
      <trkpt lat="47.29978" lon="4.99857">
        <ele>313.05</ele>
        <time>2016-10-16T06:11:44Z</time>
      </trkpt>
      <trkpt lat="47.29982" lon="4.99848">
        <ele>314.97</ele>
        <time>2016-10-16T06:11:49Z</time>
      </trkpt>
      <trkpt lat="47.29985" lon="4.99824">
        <ele>321.22</ele>
        <time>2016-10-16T06:12:03Z</time>
      </trkpt>
      <trkpt lat="47.29983" lon="4.99807">
        <ele>328.43</ele>
        <time>2016-10-16T06:12:17Z</time>
      </trkpt>
      <trkpt lat="47.2998" lon="4.99792">
        <ele>329.87</ele>
        <time>2016-10-16T06:12:29Z</time>
      </trkpt>
      <trkpt lat="47.29978" lon="4.99788">
        <ele>331.31</ele>
        <time>2016-10-16T06:12:44Z</time>
      </trkpt>
      <trkpt lat="47.29976" lon="4.99781">
        <ele>332.75</ele>
        <time>2016-10-16T06:13:00Z</time>
      </trkpt>
      <trkpt lat="47.29975" lon="4.99775">
        <ele>332.27</ele>
        <time>2016-10-16T06:13:13Z</time>
      </trkpt>
      <trkpt lat="47.29974" lon="4.9977">
        <ele>331.79</ele>
        <time>2016-10-16T06:13:28Z</time>
      </trkpt>
      <trkpt lat="47.29971" lon="4.99766">
        <ele>331.31</ele>
        <time>2016-10-16T06:13:42Z</time>
      </trkpt>
      <trkpt lat="47.2997" lon="4.99763">
        <ele>332.75</ele>
        <time>2016-10-16T06:13:58Z</time>
      </trkpt>
      <trkpt lat="47.29971" lon="4.99759">
        <ele>334.68</ele>
        <time>2016-10-16T06:14:08Z</time>
      </trkpt>
      <trkpt lat="47.29975" lon="4.99745">
        <ele>336.12</ele>
        <time>2016-10-16T06:14:21Z</time>
      </trkpt>
      <trkpt lat="47.2998" lon="4.99733">
        <ele>338.04</ele>
        <time>2016-10-16T06:14:34Z</time>
      </trkpt>
      <trkpt lat="47.29986" lon="4.99723">
        <ele>342.37</ele>
        <time>2016-10-16T06:14:48Z</time>
      </trkpt>
      <trkpt lat="47.2999" lon="4.99716">
        <ele>342.85</ele>
        <time>2016-10-16T06:15:02Z</time>
      </trkpt>
      <trkpt lat="47.29993" lon="4.99707">
        <ele>344.77</ele>
        <time>2016-10-16T06:15:17Z</time>
      </trkpt>
      <trkpt lat="47.29994" lon="4.99694">
        <ele>345.25</ele>
        <time>2016-10-16T06:15:33Z</time>
      </trkpt>
      <trkpt lat="47.29999" lon="4.99683">
        <ele>347.17</ele>
        <time>2016-10-16T06:15:48Z</time>
      </trkpt>
      <trkpt lat="47.30009" lon="4.9966">
        <ele>346.69</ele>
        <time>2016-10-16T06:16:00Z</time>
      </trkpt>
      <trkpt lat="47.30012" lon="4.99647">
        <ele>347.65</ele>
        <time>2016-10-16T06:16:06Z</time>
      </trkpt>
      <trkpt lat="47.3002" lon="4.99619">
        <ele>349.1</ele>
        <time>2016-10-16T06:16:18Z</time>
      </trkpt>
      <trkpt lat="47.30028" lon="4.99593">
        <ele>351.98</ele>
        <time>2016-10-16T06:16:30Z</time>
      </trkpt>
      <trkpt lat="47.30025" lon="4.99572">
        <ele>353.9</ele>
        <time>2016-10-16T06:16:43Z</time>
      </trkpt>
      <trkpt lat="47.30023" lon="4.99568">
        <ele>353.42</ele>
        <time>2016-10-16T06:17:01Z</time>
      </trkpt>
      <trkpt lat="47.30024" lon="4.99568">
        <ele>353.9</ele>
        <time>2016-10-16T06:17:21Z</time>
      </trkpt>
      <trkpt lat="47.30025" lon="4.99566">
        <ele>353.9</ele>
        <time>2016-10-16T06:17:39Z</time>
      </trkpt>
      <trkpt lat="47.30031" lon="4.99537">
        <ele>356.31</ele>
        <time>2016-10-16T06:17:52Z</time>
      </trkpt>
      <trkpt lat="47.30035" lon="4.99529">
        <ele>357.75</ele>
        <time>2016-10-16T06:17:56Z</time>
      </trkpt>
      <trkpt lat="47.30036" lon="4.99511">
        <ele>360.63</ele>
        <time>2016-10-16T06:18:03Z</time>
      </trkpt>
      <trkpt lat="47.30046" lon="4.99487">
        <ele>362.55</ele>
        <time>2016-10-16T06:18:12Z</time>
      </trkpt>
      <trkpt lat="47.30048" lon="4.99485">
        <ele>362.55</ele>
        <time>2016-10-16T06:18:13Z</time>
      </trkpt>
      <trkpt lat="47.30059" lon="4.99456">
        <ele>361.59</ele>
        <time>2016-10-16T06:18:25Z</time>
      </trkpt>
      <trkpt lat="47.30068" lon="4.99422">
        <ele>360.15</ele>
        <time>2016-10-16T06:18:38Z</time>
      </trkpt>
      <trkpt lat="47.30071" lon="4.99401">
        <ele>361.59</ele>
        <time>2016-10-16T06:18:46Z</time>
      </trkpt>
      <trkpt lat="47.30075" lon="4.99362">
        <ele>360.15</ele>
        <time>2016-10-16T06:18:59Z</time>
      </trkpt>
      <trkpt lat="47.30076" lon="4.9936">
        <ele>359.67</ele>
        <time>2016-10-16T06:19:00Z</time>
      </trkpt>
      <trkpt lat="47.30078" lon="4.99347">
        <ele>359.67</ele>
        <time>2016-10-16T06:19:06Z</time>
      </trkpt>
      <trkpt lat="47.30079" lon="4.9934">
        <ele>360.63</ele>
        <time>2016-10-16T06:19:11Z</time>
      </trkpt>
      <trkpt lat="47.30078" lon="4.99324">
        <ele>362.07</ele>
        <time>2016-10-16T06:19:24Z</time>
      </trkpt>
      <trkpt lat="47.30076" lon="4.99319">
        <ele>359.19</ele>
        <time>2016-10-16T06:19:52Z</time>
      </trkpt>
      <trkpt lat="47.30076" lon="4.99315">
        <ele>359.19</ele>
        <time>2016-10-16T06:20:28Z</time>
      </trkpt>
      <trkpt lat="47.30075" lon="4.99311">
        <ele>358.23</ele>
        <time>2016-10-16T06:20:55Z</time>
      </trkpt>
      <trkpt lat="47.30061" lon="4.99302">
        <ele>363.04</ele>
        <time>2016-10-16T06:21:08Z</time>
      </trkpt>
      <trkpt lat="47.30039" lon="4.99297">
        <ele>367.84</ele>
        <time>2016-10-16T06:21:20Z</time>
      </trkpt>
      <trkpt lat="47.3001" lon="4.9928">
        <ele>369.76</ele>
        <time>2016-10-16T06:21:33Z</time>
      </trkpt>
      <trkpt lat="47.29985" lon="4.99261">
        <ele>369.28</ele>
        <time>2016-10-16T06:21:47Z</time>
      </trkpt>
      <trkpt lat="47.29977" lon="4.99238">
        <ele>372.65</ele>
        <time>2016-10-16T06:21:59Z</time>
      </trkpt>
      <trkpt lat="47.29977" lon="4.99234">
        <ele>374.09</ele>
        <time>2016-10-16T06:22:02Z</time>
      </trkpt>
      <trkpt lat="47.29976" lon="4.99194">
        <ele>376.49</ele>
        <time>2016-10-16T06:22:16Z</time>
      </trkpt>
      <trkpt lat="47.29974" lon="4.99179">
        <ele>377.45</ele>
        <time>2016-10-16T06:22:22Z</time>
      </trkpt>
      <trkpt lat="47.29975" lon="4.99158">
        <ele>377.45</ele>
        <time>2016-10-16T06:22:27Z</time>
      </trkpt>
      <trkpt lat="47.29986" lon="4.99112">
        <ele>378.42</ele>
        <time>2016-10-16T06:22:40Z</time>
      </trkpt>
      <trkpt lat="47.30009" lon="4.99074">
        <ele>378.42</ele>
        <time>2016-10-16T06:22:56Z</time>
      </trkpt>
      <trkpt lat="47.30021" lon="4.99033">
        <ele>379.38</ele>
        <time>2016-10-16T06:23:10Z</time>
      </trkpt>
      <trkpt lat="47.30019" lon="4.99">
        <ele>378.9</ele>
        <time>2016-10-16T06:23:20Z</time>
      </trkpt>
      <trkpt lat="47.30007" lon="4.98992">
        <ele>379.86</ele>
        <time>2016-10-16T06:23:27Z</time>
      </trkpt>
      <trkpt lat="47.29988" lon="4.98966">
        <ele>380.82</ele>
        <time>2016-10-16T06:23:39Z</time>
      </trkpt>
      <trkpt lat="47.29957" lon="4.98952">
        <ele>382.26</ele>
        <time>2016-10-16T06:23:55Z</time>
      </trkpt>
      <trkpt lat="47.29941" lon="4.98938">
        <ele>382.74</ele>
        <time>2016-10-16T06:24:06Z</time>
      </trkpt>
      <trkpt lat="47.29921" lon="4.98931">
        <ele>382.74</ele>
        <time>2016-10-16T06:24:15Z</time>
      </trkpt>
      <trkpt lat="47.29915" lon="4.98923">
        <ele>382.74</ele>
        <time>2016-10-16T06:24:19Z</time>
      </trkpt>
      <trkpt lat="47.29893" lon="4.98891">
        <ele>383.7</ele>
        <time>2016-10-16T06:24:31Z</time>
      </trkpt>
      <trkpt lat="47.29861" lon="4.9886">
        <ele>385.63</ele>
        <time>2016-10-16T06:24:46Z</time>
      </trkpt>
      <trkpt lat="47.29824" lon="4.98823">
        <ele>386.11</ele>
        <time>2016-10-16T06:25:00Z</time>
      </trkpt>
      <trkpt lat="47.29787" lon="4.98793">
        <ele>387.07</ele>
        <time>2016-10-16T06:25:13Z</time>
      </trkpt>
      <trkpt lat="47.29752" lon="4.98763">
        <ele>388.03</ele>
        <time>2016-10-16T06:25:25Z</time>
      </trkpt>
      <trkpt lat="47.29704" lon="4.98713">
        <ele>388.03</ele>
        <time>2016-10-16T06:25:41Z</time>
      </trkpt>
      <trkpt lat="47.29679" lon="4.98643">
        <ele>387.55</ele>
        <time>2016-10-16T06:25:55Z</time>
      </trkpt>
      <trkpt lat="47.29656" lon="4.98577">
        <ele>387.55</ele>
        <time>2016-10-16T06:26:07Z</time>
      </trkpt>
      <trkpt lat="47.2965" lon="4.98566">
        <ele>387.55</ele>
        <time>2016-10-16T06:26:09Z</time>
      </trkpt>
      <trkpt lat="47.29626" lon="4.98514">
        <ele>388.03</ele>
        <time>2016-10-16T06:26:19Z</time>
      </trkpt>
      <trkpt lat="47.29609" lon="4.98469">
        <ele>388.51</ele>
        <time>2016-10-16T06:26:28Z</time>
      </trkpt>
      <trkpt lat="47.29606" lon="4.98449">
        <ele>388.99</ele>
        <time>2016-10-16T06:26:35Z</time>
      </trkpt>
      <trkpt lat="47.296" lon="4.98443">
        <ele>389.47</ele>
        <time>2016-10-16T06:26:41Z</time>
      </trkpt>
      <trkpt lat="47.29589" lon="4.98437">
        <ele>389.47</ele>
        <time>2016-10-16T06:26:46Z</time>
      </trkpt>
      <trkpt lat="47.29587" lon="4.98435">
        <ele>388.99</ele>
        <time>2016-10-16T06:27:01Z</time>
      </trkpt>
      <trkpt lat="47.29581" lon="4.98427">
        <ele>388.51</ele>
        <time>2016-10-16T06:27:14Z</time>
      </trkpt>
      <trkpt lat="47.29547" lon="4.98405">
        <ele>387.55</ele>
        <time>2016-10-16T06:27:25Z</time>
      </trkpt>
      <trkpt lat="47.29543" lon="4.98388">
        <ele>386.59</ele>
        <time>2016-10-16T06:27:34Z</time>
      </trkpt>
      <trkpt lat="47.29542" lon="4.98385">
        <ele>386.59</ele>
        <time>2016-10-16T06:27:35Z</time>
      </trkpt>
      <trkpt lat="47.29529" lon="4.9836">
        <ele>383.22</ele>
        <time>2016-10-16T06:27:42Z</time>
      </trkpt>
      <trkpt lat="47.2952" lon="4.98353">
        <ele>382.74</ele>
        <time>2016-10-16T06:27:44Z</time>
      </trkpt>
      <trkpt lat="47.29507" lon="4.98343">
        <ele>382.26</ele>
        <time>2016-10-16T06:27:47Z</time>
      </trkpt>
      <trkpt lat="47.29473" lon="4.98324">
        <ele>381.3</ele>
        <time>2016-10-16T06:27:56Z</time>
      </trkpt>
      <trkpt lat="47.29444" lon="4.9829">
        <ele>380.34</ele>
        <time>2016-10-16T06:28:04Z</time>
      </trkpt>
      <trkpt lat="47.29431" lon="4.98283">
        <ele>380.34</ele>
        <time>2016-10-16T06:28:08Z</time>
      </trkpt>
      <trkpt lat="47.29419" lon="4.98279">
        <ele>379.86</ele>
        <time>2016-10-16T06:28:11Z</time>
      </trkpt>
      <trkpt lat="47.29408" lon="4.98245">
        <ele>381.78</ele>
        <time>2016-10-16T06:28:19Z</time>
      </trkpt>
      <trkpt lat="47.29402" lon="4.98238">
        <ele>382.26</ele>
        <time>2016-10-16T06:28:21Z</time>
      </trkpt>
      <trkpt lat="47.29388" lon="4.9822">
        <ele>381.78</ele>
        <time>2016-10-16T06:28:25Z</time>
      </trkpt>
      <trkpt lat="47.29381" lon="4.9821">
        <ele>381.3</ele>
        <time>2016-10-16T06:28:27Z</time>
      </trkpt>
      <trkpt lat="47.29374" lon="4.98201">
        <ele>381.3</ele>
        <time>2016-10-16T06:28:29Z</time>
      </trkpt>
      <trkpt lat="47.29367" lon="4.98179">
        <ele>382.26</ele>
        <time>2016-10-16T06:28:33Z</time>
      </trkpt>
      <trkpt lat="47.29365" lon="4.98168">
        <ele>382.74</ele>
        <time>2016-10-16T06:28:35Z</time>
      </trkpt>
      <trkpt lat="47.29328" lon="4.98126">
        <ele>381.3</ele>
        <time>2016-10-16T06:28:48Z</time>
      </trkpt>
      <trkpt lat="47.29322" lon="4.98116">
        <ele>380.82</ele>
        <time>2016-10-16T06:28:50Z</time>
      </trkpt>
      <trkpt lat="47.29289" lon="4.98045">
        <ele>381.78</ele>
        <time>2016-10-16T06:29:03Z</time>
      </trkpt>
      <trkpt lat="47.29264" lon="4.97993">
        <ele>383.22</ele>
        <time>2016-10-16T06:29:15Z</time>
      </trkpt>
      <trkpt lat="47.29242" lon="4.97938">
        <ele>386.59</ele>
        <time>2016-10-16T06:29:27Z</time>
      </trkpt>
      <trkpt lat="47.29244" lon="4.97912">
        <ele>387.55</ele>
        <time>2016-10-16T06:29:32Z</time>
      </trkpt>
      <trkpt lat="47.29259" lon="4.97888">
        <ele>388.03</ele>
        <time>2016-10-16T06:29:40Z</time>
      </trkpt>
      <trkpt lat="47.293" lon="4.97863">
        <ele>386.11</ele>
        <time>2016-10-16T06:29:50Z</time>
      </trkpt>
      <trkpt lat="47.29343" lon="4.97863">
        <ele>386.59</ele>
        <time>2016-10-16T06:30:02Z</time>
      </trkpt>
      <trkpt lat="47.29357" lon="4.97858">
        <ele>387.55</ele>
        <time>2016-10-16T06:30:12Z</time>
      </trkpt>
      <trkpt lat="47.29358" lon="4.97859">
        <ele>386.11</ele>
        <time>2016-10-16T06:30:34Z</time>
      </trkpt>
      <trkpt lat="47.29371" lon="4.97849">
        <ele>385.63</ele>
        <time>2016-10-16T06:30:52Z</time>
      </trkpt>
      <trkpt lat="47.29386" lon="4.97813">
        <ele>385.63</ele>
        <time>2016-10-16T06:31:02Z</time>
      </trkpt>
      <trkpt lat="47.29396" lon="4.97761">
        <ele>387.07</ele>
        <time>2016-10-16T06:31:12Z</time>
      </trkpt>
      <trkpt lat="47.29417" lon="4.97689">
        <ele>387.55</ele>
        <time>2016-10-16T06:31:26Z</time>
      </trkpt>
      <trkpt lat="47.29413" lon="4.97662">
        <ele>388.03</ele>
        <time>2016-10-16T06:31:31Z</time>
      </trkpt>
      <trkpt lat="47.29408" lon="4.97653">
        <ele>388.03</ele>
        <time>2016-10-16T06:31:33Z</time>
      </trkpt>
      <trkpt lat="47.29371" lon="4.97576">
        <ele>389.47</ele>
        <time>2016-10-16T06:31:49Z</time>
      </trkpt>
      <trkpt lat="47.29348" lon="4.97531">
        <ele>391.87</ele>
        <time>2016-10-16T06:32:03Z</time>
      </trkpt>
      <trkpt lat="47.29315" lon="4.97487">
        <ele>392.36</ele>
        <time>2016-10-16T06:32:20Z</time>
      </trkpt>
      <trkpt lat="47.29309" lon="4.97477">
        <ele>391.87</ele>
        <time>2016-10-16T06:32:24Z</time>
      </trkpt>
      <trkpt lat="47.29313" lon="4.97466">
        <ele>390.91</ele>
        <time>2016-10-16T06:32:30Z</time>
      </trkpt>
      <trkpt lat="47.29343" lon="4.97434">
        <ele>392.84</ele>
        <time>2016-10-16T06:32:44Z</time>
      </trkpt>
      <trkpt lat="47.29381" lon="4.97433">
        <ele>392.84</ele>
        <time>2016-10-16T06:32:56Z</time>
      </trkpt>
      <trkpt lat="47.29397" lon="4.97419">
        <ele>392.36</ele>
        <time>2016-10-16T06:33:02Z</time>
      </trkpt>
      <trkpt lat="47.29404" lon="4.97401">
        <ele>392.84</ele>
        <time>2016-10-16T06:33:07Z</time>
      </trkpt>
      <trkpt lat="47.29415" lon="4.97398">
        <ele>393.32</ele>
        <time>2016-10-16T06:33:11Z</time>
      </trkpt>
      <trkpt lat="47.29422" lon="4.97401">
        <ele>393.32</ele>
        <time>2016-10-16T06:33:13Z</time>
      </trkpt>
      <trkpt lat="47.29436" lon="4.97397">
        <ele>393.32</ele>
        <time>2016-10-16T06:33:17Z</time>
      </trkpt>
      <trkpt lat="47.29462" lon="4.97366">
        <ele>392.84</ele>
        <time>2016-10-16T06:33:28Z</time>
      </trkpt>
      <trkpt lat="47.29465" lon="4.97362">
        <ele>392.84</ele>
        <time>2016-10-16T06:33:30Z</time>
      </trkpt>
      <trkpt lat="47.29479" lon="4.97353">
        <ele>392.84</ele>
        <time>2016-10-16T06:33:38Z</time>
      </trkpt>
      <trkpt lat="47.29497" lon="4.9735">
        <ele>392.84</ele>
        <time>2016-10-16T06:33:48Z</time>
      </trkpt>
      <trkpt lat="47.29503" lon="4.97337">
        <ele>392.84</ele>
        <time>2016-10-16T06:33:52Z</time>
      </trkpt>
      <trkpt lat="47.29522" lon="4.97308">
        <ele>391.87</ele>
        <time>2016-10-16T06:33:59Z</time>
      </trkpt>
      <trkpt lat="47.29538" lon="4.97292">
        <ele>391.39</ele>
        <time>2016-10-16T06:34:03Z</time>
      </trkpt>
      <trkpt lat="47.29555" lon="4.97271">
        <ele>391.87</ele>
        <time>2016-10-16T06:34:08Z</time>
      </trkpt>
      <trkpt lat="47.29569" lon="4.97244">
        <ele>391.87</ele>
        <time>2016-10-16T06:34:13Z</time>
      </trkpt>
      <trkpt lat="47.296" lon="4.97218">
        <ele>392.84</ele>
        <time>2016-10-16T06:34:21Z</time>
      </trkpt>
      <trkpt lat="47.29655" lon="4.97217">
        <ele>392.36</ele>
        <time>2016-10-16T06:34:33Z</time>
      </trkpt>
      <trkpt lat="47.29663" lon="4.97216">
        <ele>391.87</ele>
        <time>2016-10-16T06:34:35Z</time>
      </trkpt>
      <trkpt lat="47.29685" lon="4.972">
        <ele>390.91</ele>
        <time>2016-10-16T06:34:41Z</time>
      </trkpt>
      <trkpt lat="47.297" lon="4.97192">
        <ele>390.43</ele>
        <time>2016-10-16T06:34:45Z</time>
      </trkpt>
      <trkpt lat="47.29734" lon="4.97177">
        <ele>391.39</ele>
        <time>2016-10-16T06:34:54Z</time>
      </trkpt>
      <trkpt lat="47.29774" lon="4.97191">
        <ele>390.43</ele>
        <time>2016-10-16T06:35:05Z</time>
      </trkpt>
      <trkpt lat="47.29804" lon="4.97187">
        <ele>389.95</ele>
        <time>2016-10-16T06:35:17Z</time>
      </trkpt>
      <trkpt lat="47.29828" lon="4.97181">
        <ele>388.99</ele>
        <time>2016-10-16T06:35:32Z</time>
      </trkpt>
      <trkpt lat="47.29835" lon="4.97176">
        <ele>387.55</ele>
        <time>2016-10-16T06:35:40Z</time>
      </trkpt>
      <trkpt lat="47.29842" lon="4.9717">
        <ele>387.55</ele>
        <time>2016-10-16T06:35:47Z</time>
      </trkpt>
      <trkpt lat="47.29835" lon="4.97086">
        <ele>384.66</ele>
        <time>2016-10-16T06:36:00Z</time>
      </trkpt>
      <trkpt lat="47.29833" lon="4.97071">
        <ele>384.66</ele>
        <time>2016-10-16T06:36:02Z</time>
      </trkpt>
      <trkpt lat="47.29833" lon="4.97055">
        <ele>384.66</ele>
        <time>2016-10-16T06:36:04Z</time>
      </trkpt>
      <trkpt lat="47.29842" lon="4.9697">
        <ele>386.59</ele>
        <time>2016-10-16T06:36:18Z</time>
      </trkpt>
      <trkpt lat="47.29854" lon="4.96908">
        <ele>389.95</ele>
        <time>2016-10-16T06:36:32Z</time>
      </trkpt>
      <trkpt lat="47.29875" lon="4.96845">
        <ele>391.39</ele>
        <time>2016-10-16T06:36:47Z</time>
      </trkpt>
      <trkpt lat="47.29899" lon="4.96785">
        <ele>392.84</ele>
        <time>2016-10-16T06:37:01Z</time>
      </trkpt>
      <trkpt lat="47.29935" lon="4.96707">
        <ele>392.36</ele>
        <time>2016-10-16T06:37:20Z</time>
      </trkpt>
      <trkpt lat="47.29965" lon="4.96648">
        <ele>395.72</ele>
        <time>2016-10-16T06:37:39Z</time>
      </trkpt>
      <trkpt lat="47.29976" lon="4.96596">
        <ele>400.53</ele>
        <time>2016-10-16T06:37:56Z</time>
      </trkpt>
      <trkpt lat="47.2999" lon="4.96573">
        <ele>401.97</ele>
        <time>2016-10-16T06:38:08Z</time>
      </trkpt>
      <trkpt lat="47.30004" lon="4.96564">
        <ele>400.53</ele>
        <time>2016-10-16T06:38:20Z</time>
      </trkpt>
      <trkpt lat="47.3002" lon="4.96562">
        <ele>403.89</ele>
        <time>2016-10-16T06:38:35Z</time>
      </trkpt>
      <trkpt lat="47.30034" lon="4.96561">
        <ele>406.29</ele>
        <time>2016-10-16T06:38:49Z</time>
      </trkpt>
      <trkpt lat="47.30049" lon="4.96559">
        <ele>413.5</ele>
        <time>2016-10-16T06:39:04Z</time>
      </trkpt>
      <trkpt lat="47.3006" lon="4.96555">
        <ele>422.16</ele>
        <time>2016-10-16T06:39:21Z</time>
      </trkpt>
      <trkpt lat="47.30079" lon="4.9655">
        <ele>424.56</ele>
        <time>2016-10-16T06:39:34Z</time>
      </trkpt>
      <trkpt lat="47.30092" lon="4.96549">
        <ele>422.64</ele>
        <time>2016-10-16T06:39:45Z</time>
      </trkpt>
      <trkpt lat="47.30093" lon="4.9655">
        <ele>420.23</ele>
        <time>2016-10-16T06:39:59Z</time>
      </trkpt>
      <trkpt lat="47.30094" lon="4.96549">
        <ele>419.27</ele>
        <time>2016-10-16T06:40:23Z</time>
      </trkpt>
      <trkpt lat="47.30093" lon="4.96549">
        <ele>419.27</ele>
        <time>2016-10-16T06:40:45Z</time>
      </trkpt>
      <trkpt lat="47.30093" lon="4.96547">
        <ele>419.27</ele>
        <time>2016-10-16T06:40:47Z</time>
      </trkpt>
      <trkpt lat="47.30089" lon="4.96525">
        <ele>420.23</ele>
        <time>2016-10-16T06:40:56Z</time>
      </trkpt>
      <trkpt lat="47.30073" lon="4.96475">
        <ele>422.16</ele>
        <time>2016-10-16T06:41:10Z</time>
      </trkpt>
      <trkpt lat="47.30054" lon="4.96409">
        <ele>421.68</ele>
        <time>2016-10-16T06:41:23Z</time>
      </trkpt>
      <trkpt lat="47.3004" lon="4.96355">
        <ele>420.23</ele>
        <time>2016-10-16T06:41:35Z</time>
      </trkpt>
      <trkpt lat="47.30022" lon="4.96294">
        <ele>418.79</ele>
        <time>2016-10-16T06:41:48Z</time>
      </trkpt>
      <trkpt lat="47.30018" lon="4.96281">
        <ele>418.79</ele>
        <time>2016-10-16T06:41:51Z</time>
      </trkpt>
      <trkpt lat="47.30026" lon="4.9626">
        <ele>420.23</ele>
        <time>2016-10-16T06:41:56Z</time>
      </trkpt>
      <trkpt lat="47.30036" lon="4.96244">
        <ele>421.68</ele>
        <time>2016-10-16T06:42:01Z</time>
      </trkpt>
      <trkpt lat="47.3002" lon="4.96198">
        <ele>422.16</ele>
        <time>2016-10-16T06:42:13Z</time>
      </trkpt>
      <trkpt lat="47.30006" lon="4.96178">
        <ele>421.19</ele>
        <time>2016-10-16T06:42:20Z</time>
      </trkpt>
      <trkpt lat="47.29986" lon="4.96193">
        <ele>421.68</ele>
        <time>2016-10-16T06:42:32Z</time>
      </trkpt>
      <trkpt lat="47.29967" lon="4.96177">
        <ele>422.16</ele>
        <time>2016-10-16T06:42:42Z</time>
      </trkpt>
      <trkpt lat="47.29945" lon="4.96132">
        <ele>422.64</ele>
        <time>2016-10-16T06:42:55Z</time>
      </trkpt>
      <trkpt lat="47.2992" lon="4.9609">
        <ele>422.64</ele>
        <time>2016-10-16T06:43:06Z</time>
      </trkpt>
      <trkpt lat="47.29888" lon="4.96032">
        <ele>423.12</ele>
        <time>2016-10-16T06:43:18Z</time>
      </trkpt>
      <trkpt lat="47.29835" lon="4.95932">
        <ele>421.19</ele>
        <time>2016-10-16T06:43:37Z</time>
      </trkpt>
      <trkpt lat="47.29833" lon="4.95927">
        <ele>421.19</ele>
        <time>2016-10-16T06:43:38Z</time>
      </trkpt>
      <trkpt lat="47.29788" lon="4.9584">
        <ele>421.19</ele>
        <time>2016-10-16T06:43:55Z</time>
      </trkpt>
      <trkpt lat="47.29748" lon="4.95758">
        <ele>423.12</ele>
        <time>2016-10-16T06:44:12Z</time>
      </trkpt>
      <trkpt lat="47.29704" lon="4.95672">
        <ele>425.04</ele>
        <time>2016-10-16T06:44:30Z</time>
      </trkpt>
      <trkpt lat="47.29675" lon="4.95616">
        <ele>426.48</ele>
        <time>2016-10-16T06:44:43Z</time>
      </trkpt>
      <trkpt lat="47.29644" lon="4.95565">
        <ele>426.48</ele>
        <time>2016-10-16T06:44:57Z</time>
      </trkpt>
      <trkpt lat="47.2962" lon="4.95528">
        <ele>426.96</ele>
        <time>2016-10-16T06:45:06Z</time>
      </trkpt>
      <trkpt lat="47.29579" lon="4.95466">
        <ele>426.96</ele>
        <time>2016-10-16T06:45:21Z</time>
      </trkpt>
      <trkpt lat="47.29577" lon="4.95461">
        <ele>426.96</ele>
        <time>2016-10-16T06:45:22Z</time>
      </trkpt>
      <trkpt lat="47.29566" lon="4.95442">
        <ele>427.44</ele>
        <time>2016-10-16T06:45:26Z</time>
      </trkpt>
      <trkpt lat="47.29511" lon="4.95376">
        <ele>426.96</ele>
        <time>2016-10-16T06:45:43Z</time>
      </trkpt>
      <trkpt lat="47.29481" lon="4.95336">
        <ele>427.44</ele>
        <time>2016-10-16T06:45:54Z</time>
      </trkpt>
      <trkpt lat="47.2945" lon="4.95296">
        <ele>426.96</ele>
        <time>2016-10-16T06:46:05Z</time>
      </trkpt>
      <trkpt lat="47.29446" lon="4.95293">
        <ele>427.44</ele>
        <time>2016-10-16T06:46:20Z</time>
      </trkpt>
      <trkpt lat="47.29433" lon="4.95271">
        <ele>427.44</ele>
        <time>2016-10-16T06:46:31Z</time>
      </trkpt>
      <trkpt lat="47.29404" lon="4.95225">
        <ele>426.48</ele>
        <time>2016-10-16T06:46:44Z</time>
      </trkpt>
      <trkpt lat="47.29369" lon="4.9517">
        <ele>426.48</ele>
        <time>2016-10-16T06:46:58Z</time>
      </trkpt>
      <trkpt lat="47.29327" lon="4.95109">
        <ele>425.52</ele>
        <time>2016-10-16T06:47:12Z</time>
      </trkpt>
      <trkpt lat="47.29285" lon="4.95044">
        <ele>425.04</ele>
        <time>2016-10-16T06:47:27Z</time>
      </trkpt>
      <trkpt lat="47.29261" lon="4.95006">
        <ele>425.04</ele>
        <time>2016-10-16T06:47:35Z</time>
      </trkpt>
      <trkpt lat="47.29213" lon="4.94938">
        <ele>426</ele>
        <time>2016-10-16T06:47:52Z</time>
      </trkpt>
      <trkpt lat="47.29196" lon="4.94909">
        <ele>426.96</ele>
        <time>2016-10-16T06:48:04Z</time>
      </trkpt>
      <trkpt lat="47.29192" lon="4.94905">
        <ele>426.96</ele>
        <time>2016-10-16T06:48:08Z</time>
      </trkpt>
      <trkpt lat="47.29173" lon="4.94897">
        <ele>426.96</ele>
        <time>2016-10-16T06:48:21Z</time>
      </trkpt>
      <trkpt lat="47.29154" lon="4.94883">
        <ele>426.96</ele>
        <time>2016-10-16T06:48:34Z</time>
      </trkpt>
      <trkpt lat="47.29148" lon="4.94881">
        <ele>426.48</ele>
        <time>2016-10-16T06:48:47Z</time>
      </trkpt>
      <trkpt lat="47.29148" lon="4.9488">
        <ele>426</ele>
        <time>2016-10-16T06:48:58Z</time>
      </trkpt>
      <trkpt lat="47.29141" lon="4.94874">
        <ele>426</ele>
        <time>2016-10-16T06:49:03Z</time>
      </trkpt>
      <trkpt lat="47.29105" lon="4.94855">
        <ele>428.89</ele>
        <time>2016-10-16T06:49:21Z</time>
      </trkpt>
      <trkpt lat="47.29075" lon="4.94827">
        <ele>431.77</ele>
        <time>2016-10-16T06:49:37Z</time>
      </trkpt>
      <trkpt lat="47.29048" lon="4.94801">
        <ele>436.1</ele>
        <time>2016-10-16T06:49:51Z</time>
      </trkpt>
      <trkpt lat="47.29026" lon="4.9477">
        <ele>438.02</ele>
        <time>2016-10-16T06:50:06Z</time>
      </trkpt>
      <trkpt lat="47.28995" lon="4.94743">
        <ele>440.42</ele>
        <time>2016-10-16T06:50:22Z</time>
      </trkpt>
      <trkpt lat="47.28959" lon="4.94713">
        <ele>442.82</ele>
        <time>2016-10-16T06:50:40Z</time>
      </trkpt>
      <trkpt lat="47.28921" lon="4.94681">
        <ele>447.15</ele>
        <time>2016-10-16T06:50:59Z</time>
      </trkpt>
      <trkpt lat="47.28885" lon="4.94647">
        <ele>449.55</ele>
        <time>2016-10-16T06:51:17Z</time>
      </trkpt>
      <trkpt lat="47.28854" lon="4.94608">
        <ele>452.92</ele>
        <time>2016-10-16T06:51:36Z</time>
      </trkpt>
      <trkpt lat="47.28831" lon="4.94573">
        <ele>455.32</ele>
        <time>2016-10-16T06:51:49Z</time>
      </trkpt>
      <trkpt lat="47.2881" lon="4.94549">
        <ele>457.24</ele>
        <time>2016-10-16T06:52:00Z</time>
      </trkpt>
      <trkpt lat="47.28785" lon="4.94515">
        <ele>459.65</ele>
        <time>2016-10-16T06:52:14Z</time>
      </trkpt>
      <trkpt lat="47.28753" lon="4.94476">
        <ele>461.09</ele>
        <time>2016-10-16T06:52:31Z</time>
      </trkpt>
      <trkpt lat="47.28722" lon="4.94444">
        <ele>463.01</ele>
        <time>2016-10-16T06:52:46Z</time>
      </trkpt>
      <trkpt lat="47.28688" lon="4.94403">
        <ele>465.42</ele>
        <time>2016-10-16T06:53:04Z</time>
      </trkpt>
      <trkpt lat="47.28659" lon="4.94376">
        <ele>467.82</ele>
        <time>2016-10-16T06:53:18Z</time>
      </trkpt>
      <trkpt lat="47.28632" lon="4.94345">
        <ele>469.74</ele>
        <time>2016-10-16T06:53:33Z</time>
      </trkpt>
      <trkpt lat="47.28611" lon="4.94317">
        <ele>472.63</ele>
        <time>2016-10-16T06:53:47Z</time>
      </trkpt>
      <trkpt lat="47.28594" lon="4.94287">
        <ele>474.07</ele>
        <time>2016-10-16T06:53:59Z</time>
      </trkpt>
      <trkpt lat="47.28573" lon="4.94243">
        <ele>475.99</ele>
        <time>2016-10-16T06:54:15Z</time>
      </trkpt>
      <trkpt lat="47.28551" lon="4.94218">
        <ele>476.95</ele>
        <time>2016-10-16T06:54:28Z</time>
      </trkpt>
      <trkpt lat="47.28527" lon="4.94181">
        <ele>479.35</ele>
        <time>2016-10-16T06:54:43Z</time>
      </trkpt>
      <trkpt lat="47.28506" lon="4.9414">
        <ele>481.28</ele>
        <time>2016-10-16T06:54:58Z</time>
      </trkpt>
      <trkpt lat="47.28487" lon="4.94103">
        <ele>482.72</ele>
        <time>2016-10-16T06:55:11Z</time>
      </trkpt>
      <trkpt lat="47.2846" lon="4.94078">
        <ele>484.64</ele>
        <time>2016-10-16T06:55:25Z</time>
      </trkpt>
      <trkpt lat="47.28431" lon="4.94052">
        <ele>486.56</ele>
        <time>2016-10-16T06:55:39Z</time>
      </trkpt>
      <trkpt lat="47.28395" lon="4.94009">
        <ele>488.49</ele>
        <time>2016-10-16T06:55:57Z</time>
      </trkpt>
      <trkpt lat="47.28368" lon="4.93989">
        <ele>489.93</ele>
        <time>2016-10-16T06:56:10Z</time>
      </trkpt>
      <trkpt lat="47.28357" lon="4.93987">
        <ele>489.93</ele>
        <time>2016-10-16T06:56:23Z</time>
      </trkpt>
      <trkpt lat="47.28356" lon="4.93987">
        <ele>489.45</ele>
        <time>2016-10-16T06:56:52Z</time>
      </trkpt>
      <trkpt lat="47.28356" lon="4.93987">
        <ele>489.93</ele>
        <time>2016-10-16T06:57:24Z</time>
      </trkpt>
      <trkpt lat="47.28357" lon="4.93987">
        <ele>490.41</ele>
        <time>2016-10-16T06:57:53Z</time>
      </trkpt>
      <trkpt lat="47.28357" lon="4.93987">
        <ele>490.89</ele>
        <time>2016-10-16T06:58:23Z</time>
      </trkpt>
      <trkpt lat="47.28356" lon="4.93987">
        <ele>490.89</ele>
        <time>2016-10-16T06:58:56Z</time>
      </trkpt>
      <trkpt lat="47.28353" lon="4.93989">
        <ele>490.41</ele>
        <time>2016-10-16T06:59:13Z</time>
      </trkpt>
      <trkpt lat="47.28326" lon="4.93983">
        <ele>491.37</ele>
        <time>2016-10-16T06:59:26Z</time>
      </trkpt>
      <trkpt lat="47.28269" lon="4.93955">
        <ele>490.89</ele>
        <time>2016-10-16T06:59:44Z</time>
      </trkpt>
      <trkpt lat="47.28241" lon="4.9394">
        <ele>490.41</ele>
        <time>2016-10-16T06:59:51Z</time>
      </trkpt>
      <trkpt lat="47.28232" lon="4.93937">
        <ele>489.93</ele>
        <time>2016-10-16T06:59:53Z</time>
      </trkpt>
      <trkpt lat="47.28216" lon="4.93929">
        <ele>489.45</ele>
        <time>2016-10-16T06:59:57Z</time>
      </trkpt>
      <trkpt lat="47.28168" lon="4.93903">
        <ele>488.01</ele>
        <time>2016-10-16T07:00:10Z</time>
      </trkpt>
      <trkpt lat="47.28157" lon="4.93898">
        <ele>487.05</ele>
        <time>2016-10-16T07:00:13Z</time>
      </trkpt>
      <trkpt lat="47.28102" lon="4.93869">
        <ele>485.6</ele>
        <time>2016-10-16T07:00:25Z</time>
      </trkpt>
      <trkpt lat="47.28088" lon="4.93863">
        <ele>485.6</ele>
        <time>2016-10-16T07:00:28Z</time>
      </trkpt>
      <trkpt lat="47.28044" lon="4.93846">
        <ele>486.56</ele>
        <time>2016-10-16T07:00:38Z</time>
      </trkpt>
      <trkpt lat="47.28028" lon="4.9384">
        <ele>486.56</ele>
        <time>2016-10-16T07:00:41Z</time>
      </trkpt>
      <trkpt lat="47.27953" lon="4.93812">
        <ele>485.6</ele>
        <time>2016-10-16T07:00:55Z</time>
      </trkpt>
      <trkpt lat="47.27941" lon="4.93809">
        <ele>485.12</ele>
        <time>2016-10-16T07:00:57Z</time>
      </trkpt>
      <trkpt lat="47.27904" lon="4.93795">
        <ele>483.68</ele>
        <time>2016-10-16T07:01:03Z</time>
      </trkpt>
      <trkpt lat="47.27885" lon="4.93787">
        <ele>483.2</ele>
        <time>2016-10-16T07:01:06Z</time>
      </trkpt>
      <trkpt lat="47.2785" lon="4.93782">
        <ele>481.76</ele>
        <time>2016-10-16T07:01:11Z</time>
      </trkpt>
      <trkpt lat="47.27814" lon="4.93807">
        <ele>479.84</ele>
        <time>2016-10-16T07:01:19Z</time>
      </trkpt>
      <trkpt lat="47.27812" lon="4.93817">
        <ele>478.39</ele>
        <time>2016-10-16T07:01:23Z</time>
      </trkpt>
      <trkpt lat="47.27815" lon="4.93829">
        <ele>475.03</ele>
        <time>2016-10-16T07:01:32Z</time>
      </trkpt>
      <trkpt lat="47.27815" lon="4.93838">
        <ele>473.59</ele>
        <time>2016-10-16T07:01:36Z</time>
      </trkpt>
      <trkpt lat="47.2783" lon="4.93892">
        <ele>469.26</ele>
        <time>2016-10-16T07:01:48Z</time>
      </trkpt>
      <trkpt lat="47.27838" lon="4.93934">
        <ele>465.9</ele>
        <time>2016-10-16T07:02:00Z</time>
      </trkpt>
      <trkpt lat="47.27842" lon="4.93961">
        <ele>463.97</ele>
        <time>2016-10-16T07:02:06Z</time>
      </trkpt>
      <trkpt lat="47.2785" lon="4.94021">
        <ele>460.61</ele>
        <time>2016-10-16T07:02:19Z</time>
      </trkpt>
      <trkpt lat="47.27854" lon="4.94091">
        <ele>456.76</ele>
        <time>2016-10-16T07:02:32Z</time>
      </trkpt>
      <trkpt lat="47.27859" lon="4.94162">
        <ele>461.57</ele>
        <time>2016-10-16T07:02:44Z</time>
      </trkpt>
      <trkpt lat="47.27859" lon="4.94172">
        <ele>463.49</ele>
        <time>2016-10-16T07:02:46Z</time>
      </trkpt>
      <trkpt lat="47.27861" lon="4.94188">
        <ele>474.55</ele>
        <time>2016-10-16T07:03:00Z</time>
      </trkpt>
      <trkpt lat="47.27863" lon="4.94196">
        <ele>475.51</ele>
        <time>2016-10-16T07:03:13Z</time>
      </trkpt>
      <trkpt lat="47.27877" lon="4.94196">
        <ele>475.99</ele>
        <time>2016-10-16T07:03:22Z</time>
      </trkpt>
      <trkpt lat="47.27887" lon="4.94198">
        <ele>475.99</ele>
        <time>2016-10-16T07:03:27Z</time>
      </trkpt>
      <trkpt lat="47.27915" lon="4.94201">
        <ele>474.07</ele>
        <time>2016-10-16T07:03:39Z</time>
      </trkpt>
      <trkpt lat="47.2792" lon="4.94203">
        <ele>472.14</ele>
        <time>2016-10-16T07:03:58Z</time>
      </trkpt>
      <trkpt lat="47.27928" lon="4.94202">
        <ele>472.14</ele>
        <time>2016-10-16T07:04:10Z</time>
      </trkpt>
      <trkpt lat="47.27934" lon="4.94219">
        <ele>472.14</ele>
        <time>2016-10-16T07:04:17Z</time>
      </trkpt>
      <trkpt lat="47.27932" lon="4.94248">
        <ele>472.14</ele>
        <time>2016-10-16T07:04:28Z</time>
      </trkpt>
      <trkpt lat="47.27928" lon="4.94288">
        <ele>474.55</ele>
        <time>2016-10-16T07:04:40Z</time>
      </trkpt>
      <trkpt lat="47.27925" lon="4.94302">
        <ele>473.59</ele>
        <time>2016-10-16T07:04:53Z</time>
      </trkpt>
      <trkpt lat="47.27925" lon="4.9431">
        <ele>472.63</ele>
        <time>2016-10-16T07:05:04Z</time>
      </trkpt>
      <trkpt lat="47.27924" lon="4.94318">
        <ele>472.63</ele>
        <time>2016-10-16T07:05:08Z</time>
      </trkpt>
      <trkpt lat="47.27921" lon="4.94351">
        <ele>473.11</ele>
        <time>2016-10-16T07:05:17Z</time>
      </trkpt>
      <trkpt lat="47.27905" lon="4.94401">
        <ele>476.47</ele>
        <time>2016-10-16T07:05:31Z</time>
      </trkpt>
      <trkpt lat="47.27899" lon="4.94427">
        <ele>478.87</ele>
        <time>2016-10-16T07:05:38Z</time>
      </trkpt>
      <trkpt lat="47.27889" lon="4.94464">
        <ele>478.39</ele>
        <time>2016-10-16T07:05:50Z</time>
      </trkpt>
      <trkpt lat="47.27888" lon="4.94469">
        <ele>477.91</ele>
        <time>2016-10-16T07:05:52Z</time>
      </trkpt>
      <trkpt lat="47.27884" lon="4.94493">
        <ele>478.87</ele>
        <time>2016-10-16T07:06:02Z</time>
      </trkpt>
      <trkpt lat="47.27899" lon="4.94497">
        <ele>476.95</ele>
        <time>2016-10-16T07:06:09Z</time>
      </trkpt>
      <trkpt lat="47.27926" lon="4.94491">
        <ele>475.03</ele>
        <time>2016-10-16T07:06:19Z</time>
      </trkpt>
      <trkpt lat="47.27935" lon="4.94491">
        <ele>474.55</ele>
        <time>2016-10-16T07:06:27Z</time>
      </trkpt>
      <trkpt lat="47.27947" lon="4.94503">
        <ele>474.55</ele>
        <time>2016-10-16T07:06:34Z</time>
      </trkpt>
      <trkpt lat="47.27953" lon="4.94525">
        <ele>472.63</ele>
        <time>2016-10-16T07:06:40Z</time>
      </trkpt>
      <trkpt lat="47.27964" lon="4.94578">
        <ele>470.7</ele>
        <time>2016-10-16T07:06:52Z</time>
      </trkpt>
      <trkpt lat="47.27965" lon="4.94597">
        <ele>469.26</ele>
        <time>2016-10-16T07:06:56Z</time>
      </trkpt>
      <trkpt lat="47.27968" lon="4.94625">
        <ele>468.3</ele>
        <time>2016-10-16T07:07:01Z</time>
      </trkpt>
      <trkpt lat="47.27969" lon="4.94655">
        <ele>468.78</ele>
        <time>2016-10-16T07:07:06Z</time>
      </trkpt>
      <trkpt lat="47.27974" lon="4.94681">
        <ele>469.26</ele>
        <time>2016-10-16T07:07:10Z</time>
      </trkpt>
      <trkpt lat="47.27978" lon="4.94716">
        <ele>469.26</ele>
        <time>2016-10-16T07:07:15Z</time>
      </trkpt>
      <trkpt lat="47.27976" lon="4.94786">
        <ele>466.38</ele>
        <time>2016-10-16T07:07:26Z</time>
      </trkpt>
      <trkpt lat="47.27963" lon="4.94853">
        <ele>470.22</ele>
        <time>2016-10-16T07:07:38Z</time>
      </trkpt>
      <trkpt lat="47.27953" lon="4.94923">
        <ele>473.59</ele>
        <time>2016-10-16T07:07:50Z</time>
      </trkpt>
      <trkpt lat="47.2794" lon="4.94986">
        <ele>474.55</ele>
        <time>2016-10-16T07:08:02Z</time>
      </trkpt>
      <trkpt lat="47.27928" lon="4.95038">
        <ele>476.47</ele>
        <time>2016-10-16T07:08:12Z</time>
      </trkpt>
      <trkpt lat="47.27913" lon="4.95098">
        <ele>477.43</ele>
        <time>2016-10-16T07:08:24Z</time>
      </trkpt>
      <trkpt lat="47.27909" lon="4.95117">
        <ele>476.47</ele>
        <time>2016-10-16T07:08:28Z</time>
      </trkpt>
      <trkpt lat="47.2789" lon="4.9518">
        <ele>473.59</ele>
        <time>2016-10-16T07:08:39Z</time>
      </trkpt>
      <trkpt lat="47.27889" lon="4.95188">
        <ele>473.59</ele>
        <time>2016-10-16T07:08:40Z</time>
      </trkpt>
      <trkpt lat="47.27885" lon="4.95214">
        <ele>471.66</ele>
        <time>2016-10-16T07:08:44Z</time>
      </trkpt>
      <trkpt lat="47.27878" lon="4.95254">
        <ele>468.78</ele>
        <time>2016-10-16T07:08:50Z</time>
      </trkpt>
      <trkpt lat="47.27874" lon="4.95273">
        <ele>467.34</ele>
        <time>2016-10-16T07:08:53Z</time>
      </trkpt>
      <trkpt lat="47.27871" lon="4.95287">
        <ele>466.38</ele>
        <time>2016-10-16T07:08:55Z</time>
      </trkpt>
      <trkpt lat="47.27862" lon="4.95312">
        <ele>463.97</ele>
        <time>2016-10-16T07:08:59Z</time>
      </trkpt>
      <trkpt lat="47.2784" lon="4.95374">
        <ele>458.69</ele>
        <time>2016-10-16T07:09:11Z</time>
      </trkpt>
      <trkpt lat="47.27833" lon="4.95401">
        <ele>455.32</ele>
        <time>2016-10-16T07:09:22Z</time>
      </trkpt>
      <trkpt lat="47.27832" lon="4.95411">
        <ele>454.84</ele>
        <time>2016-10-16T07:09:35Z</time>
      </trkpt>
      <trkpt lat="47.27831" lon="4.95418">
        <ele>453.4</ele>
        <time>2016-10-16T07:09:45Z</time>
      </trkpt>
      <trkpt lat="47.2783" lon="4.95424">
        <ele>452.92</ele>
        <time>2016-10-16T07:10:00Z</time>
      </trkpt>
      <trkpt lat="47.27827" lon="4.95433">
        <ele>448.11</ele>
        <time>2016-10-16T07:10:14Z</time>
      </trkpt>
      <trkpt lat="47.27824" lon="4.95432">
        <ele>447.63</ele>
        <time>2016-10-16T07:10:28Z</time>
      </trkpt>
      <trkpt lat="47.27822" lon="4.9543">
        <ele>447.63</ele>
        <time>2016-10-16T07:10:34Z</time>
      </trkpt>
      <trkpt lat="47.27815" lon="4.95428">
        <ele>448.11</ele>
        <time>2016-10-16T07:10:38Z</time>
      </trkpt>
      <trkpt lat="47.27811" lon="4.95425">
        <ele>448.11</ele>
        <time>2016-10-16T07:10:40Z</time>
      </trkpt>
      <trkpt lat="47.27801" lon="4.95421">
        <ele>448.59</ele>
        <time>2016-10-16T07:10:50Z</time>
      </trkpt>
      <trkpt lat="47.27796" lon="4.95418">
        <ele>448.59</ele>
        <time>2016-10-16T07:11:04Z</time>
      </trkpt>
      <trkpt lat="47.27792" lon="4.95414">
        <ele>449.07</ele>
        <time>2016-10-16T07:11:16Z</time>
      </trkpt>
      <trkpt lat="47.27788" lon="4.9541">
        <ele>449.07</ele>
        <time>2016-10-16T07:11:26Z</time>
      </trkpt>
      <trkpt lat="47.27772" lon="4.95394">
        <ele>450.52</ele>
        <time>2016-10-16T07:11:35Z</time>
      </trkpt>
      <trkpt lat="47.27773" lon="4.95385">
        <ele>450.03</ele>
        <time>2016-10-16T07:11:44Z</time>
      </trkpt>
      <trkpt lat="47.27772" lon="4.95382">
        <ele>449.55</ele>
        <time>2016-10-16T07:11:46Z</time>
      </trkpt>
      <trkpt lat="47.27748" lon="4.95373">
        <ele>450.03</ele>
        <time>2016-10-16T07:11:58Z</time>
      </trkpt>
      <trkpt lat="47.27739" lon="4.95368">
        <ele>449.07</ele>
        <time>2016-10-16T07:12:08Z</time>
      </trkpt>
      <trkpt lat="47.27734" lon="4.95364">
        <ele>449.07</ele>
        <time>2016-10-16T07:12:17Z</time>
      </trkpt>
      <trkpt lat="47.27731" lon="4.95362">
        <ele>448.59</ele>
        <time>2016-10-16T07:12:21Z</time>
      </trkpt>
      <trkpt lat="47.27724" lon="4.95356">
        <ele>449.07</ele>
        <time>2016-10-16T07:12:26Z</time>
      </trkpt>
      <trkpt lat="47.2772" lon="4.95354">
        <ele>449.07</ele>
        <time>2016-10-16T07:12:28Z</time>
      </trkpt>
      <trkpt lat="47.2771" lon="4.95347">
        <ele>449.55</ele>
        <time>2016-10-16T07:12:33Z</time>
      </trkpt>
      <trkpt lat="47.27686" lon="4.95333">
        <ele>450.03</ele>
        <time>2016-10-16T07:12:43Z</time>
      </trkpt>
      <trkpt lat="47.27673" lon="4.95322">
        <ele>451.96</ele>
        <time>2016-10-16T07:12:54Z</time>
      </trkpt>
      <trkpt lat="47.27667" lon="4.95317">
        <ele>451.48</ele>
        <time>2016-10-16T07:13:17Z</time>
      </trkpt>
      <trkpt lat="47.27654" lon="4.95308">
        <ele>451.48</ele>
        <time>2016-10-16T07:13:23Z</time>
      </trkpt>
      <trkpt lat="47.2765" lon="4.95301">
        <ele>452.44</ele>
        <time>2016-10-16T07:13:27Z</time>
      </trkpt>
      <trkpt lat="47.27641" lon="4.95294">
        <ele>452.92</ele>
        <time>2016-10-16T07:13:33Z</time>
      </trkpt>
      <trkpt lat="47.27635" lon="4.95289">
        <ele>454.36</ele>
        <time>2016-10-16T07:13:45Z</time>
      </trkpt>
      <trkpt lat="47.27635" lon="4.95287">
        <ele>454.36</ele>
        <time>2016-10-16T07:13:49Z</time>
      </trkpt>
      <trkpt lat="47.27633" lon="4.95279">
        <ele>453.4</ele>
        <time>2016-10-16T07:13:55Z</time>
      </trkpt>
      <trkpt lat="47.27626" lon="4.95263">
        <ele>453.88</ele>
        <time>2016-10-16T07:14:02Z</time>
      </trkpt>
      <trkpt lat="47.2761" lon="4.95242">
        <ele>453.4</ele>
        <time>2016-10-16T07:14:12Z</time>
      </trkpt>
      <trkpt lat="47.27609" lon="4.95237">
        <ele>452.92</ele>
        <time>2016-10-16T07:14:16Z</time>
      </trkpt>
      <trkpt lat="47.27599" lon="4.95227">
        <ele>452.44</ele>
        <time>2016-10-16T07:14:25Z</time>
      </trkpt>
      <trkpt lat="47.27597" lon="4.95225">
        <ele>452.92</ele>
        <time>2016-10-16T07:14:45Z</time>
      </trkpt>
      <trkpt lat="47.27597" lon="4.95225">
        <ele>452.92</ele>
        <time>2016-10-16T07:14:51Z</time>
      </trkpt>
      <trkpt lat="47.27589" lon="4.95219">
        <ele>451.96</ele>
        <time>2016-10-16T07:14:56Z</time>
      </trkpt>
      <trkpt lat="47.27586" lon="4.95209">
        <ele>451.48</ele>
        <time>2016-10-16T07:15:08Z</time>
      </trkpt>
      <trkpt lat="47.27584" lon="4.95205">
        <ele>451.48</ele>
        <time>2016-10-16T07:15:11Z</time>
      </trkpt>
      <trkpt lat="47.27575" lon="4.95191">
        <ele>453.4</ele>
        <time>2016-10-16T07:15:17Z</time>
      </trkpt>
      <trkpt lat="47.27567" lon="4.95188">
        <ele>453.4</ele>
        <time>2016-10-16T07:15:22Z</time>
      </trkpt>
      <trkpt lat="47.27564" lon="4.95188">
        <ele>452.92</ele>
        <time>2016-10-16T07:15:24Z</time>
      </trkpt>
      <trkpt lat="47.27562" lon="4.95163">
        <ele>452.92</ele>
        <time>2016-10-16T07:15:32Z</time>
      </trkpt>
      <trkpt lat="47.27561" lon="4.95102">
        <ele>453.88</ele>
        <time>2016-10-16T07:15:47Z</time>
      </trkpt>
      <trkpt lat="47.27562" lon="4.95052">
        <ele>459.65</ele>
        <time>2016-10-16T07:16:00Z</time>
      </trkpt>
      <trkpt lat="47.27561" lon="4.95007">
        <ele>466.86</ele>
        <time>2016-10-16T07:16:13Z</time>
      </trkpt>
      <trkpt lat="47.27558" lon="4.94968">
        <ele>471.66</ele>
        <time>2016-10-16T07:16:26Z</time>
      </trkpt>
      <trkpt lat="47.27556" lon="4.94962">
        <ele>474.55</ele>
        <time>2016-10-16T07:16:42Z</time>
      </trkpt>
      <trkpt lat="47.27555" lon="4.9496">
        <ele>475.03</ele>
        <time>2016-10-16T07:17:15Z</time>
      </trkpt>
      <trkpt lat="47.27555" lon="4.9496">
        <ele>473.59</ele>
        <time>2016-10-16T07:17:44Z</time>
      </trkpt>
      <trkpt lat="47.27554" lon="4.94957">
        <ele>471.18</ele>
        <time>2016-10-16T07:18:13Z</time>
      </trkpt>
      <trkpt lat="47.27554" lon="4.94955">
        <ele>470.7</ele>
        <time>2016-10-16T07:18:21Z</time>
      </trkpt>
      <trkpt lat="47.27556" lon="4.94941">
        <ele>471.66</ele>
        <time>2016-10-16T07:18:28Z</time>
      </trkpt>
      <trkpt lat="47.2754" lon="4.94952">
        <ele>470.7</ele>
        <time>2016-10-16T07:18:39Z</time>
      </trkpt>
      <trkpt lat="47.27528" lon="4.94956">
        <ele>469.26</ele>
        <time>2016-10-16T07:18:49Z</time>
      </trkpt>
      <trkpt lat="47.27514" lon="4.94962">
        <ele>468.78</ele>
        <time>2016-10-16T07:18:58Z</time>
      </trkpt>
      <trkpt lat="47.27512" lon="4.94964">
        <ele>468.78</ele>
        <time>2016-10-16T07:19:01Z</time>
      </trkpt>
      <trkpt lat="47.27503" lon="4.94964">
        <ele>468.78</ele>
        <time>2016-10-16T07:19:07Z</time>
      </trkpt>
      <trkpt lat="47.27497" lon="4.94956">
        <ele>467.82</ele>
        <time>2016-10-16T07:19:11Z</time>
      </trkpt>
      <trkpt lat="47.27487" lon="4.94937">
        <ele>467.34</ele>
        <time>2016-10-16T07:19:16Z</time>
      </trkpt>
      <trkpt lat="47.27474" lon="4.94908">
        <ele>464.93</ele>
        <time>2016-10-16T07:19:25Z</time>
      </trkpt>
      <trkpt lat="47.27475" lon="4.94901">
        <ele>464.93</ele>
        <time>2016-10-16T07:19:29Z</time>
      </trkpt>
      <trkpt lat="47.27463" lon="4.94865">
        <ele>464.45</ele>
        <time>2016-10-16T07:19:43Z</time>
      </trkpt>
      <trkpt lat="47.27459" lon="4.94859">
        <ele>464.45</ele>
        <time>2016-10-16T07:19:57Z</time>
      </trkpt>
      <trkpt lat="47.27458" lon="4.94858">
        <ele>464.93</ele>
        <time>2016-10-16T07:20:19Z</time>
      </trkpt>
      <trkpt lat="47.27458" lon="4.94859">
        <ele>464.45</ele>
        <time>2016-10-16T07:20:33Z</time>
      </trkpt>
      <trkpt lat="47.27464" lon="4.94868">
        <ele>464.45</ele>
        <time>2016-10-16T07:20:39Z</time>
      </trkpt>
      <trkpt lat="47.27471" lon="4.94912">
        <ele>462.53</ele>
        <time>2016-10-16T07:20:52Z</time>
      </trkpt>
      <trkpt lat="47.27474" lon="4.94937">
        <ele>462.53</ele>
        <time>2016-10-16T07:21:04Z</time>
      </trkpt>
      <trkpt lat="47.27478" lon="4.94955">
        <ele>462.05</ele>
        <time>2016-10-16T07:21:16Z</time>
      </trkpt>
      <trkpt lat="47.27472" lon="4.94967">
        <ele>464.45</ele>
        <time>2016-10-16T07:21:30Z</time>
      </trkpt>
      <trkpt lat="47.2747" lon="4.9498">
        <ele>468.3</ele>
        <time>2016-10-16T07:21:42Z</time>
      </trkpt>
      <trkpt lat="47.27469" lon="4.94984">
        <ele>469.74</ele>
        <time>2016-10-16T07:21:57Z</time>
      </trkpt>
      <trkpt lat="47.27464" lon="4.94995">
        <ele>470.22</ele>
        <time>2016-10-16T07:22:10Z</time>
      </trkpt>
      <trkpt lat="47.27458" lon="4.95007">
        <ele>472.63</ele>
        <time>2016-10-16T07:22:23Z</time>
      </trkpt>
      <trkpt lat="47.27451" lon="4.95019">
        <ele>475.03</ele>
        <time>2016-10-16T07:22:37Z</time>
      </trkpt>
      <trkpt lat="47.27448" lon="4.95023">
        <ele>475.51</ele>
        <time>2016-10-16T07:22:47Z</time>
      </trkpt>
      <trkpt lat="47.27447" lon="4.95032">
        <ele>477.43</ele>
        <time>2016-10-16T07:22:52Z</time>
      </trkpt>
      <trkpt lat="47.27446" lon="4.95036">
        <ele>477.43</ele>
        <time>2016-10-16T07:22:55Z</time>
      </trkpt>
      <trkpt lat="47.2745" lon="4.95046">
        <ele>477.91</ele>
        <time>2016-10-16T07:23:01Z</time>
      </trkpt>
      <trkpt lat="47.27452" lon="4.95053">
        <ele>477.43</ele>
        <time>2016-10-16T07:23:05Z</time>
      </trkpt>
      <trkpt lat="47.27453" lon="4.95074">
        <ele>475.99</ele>
        <time>2016-10-16T07:23:15Z</time>
      </trkpt>
      <trkpt lat="47.27457" lon="4.95086">
        <ele>474.55</ele>
        <time>2016-10-16T07:23:22Z</time>
      </trkpt>
      <trkpt lat="47.27462" lon="4.95125">
        <ele>471.66</ele>
        <time>2016-10-16T07:23:32Z</time>
      </trkpt>
      <trkpt lat="47.27454" lon="4.95137">
        <ele>469.74</ele>
        <time>2016-10-16T07:23:37Z</time>
      </trkpt>
      <trkpt lat="47.27429" lon="4.95146">
        <ele>469.74</ele>
        <time>2016-10-16T07:23:50Z</time>
      </trkpt>
      <trkpt lat="47.27412" lon="4.95148">
        <ele>473.59</ele>
        <time>2016-10-16T07:24:02Z</time>
      </trkpt>
      <trkpt lat="47.27392" lon="4.95148">
        <ele>475.03</ele>
        <time>2016-10-16T07:24:14Z</time>
      </trkpt>
      <trkpt lat="47.27367" lon="4.9515">
        <ele>477.91</ele>
        <time>2016-10-16T07:24:27Z</time>
      </trkpt>
      <trkpt lat="47.27341" lon="4.95153">
        <ele>475.99</ele>
        <time>2016-10-16T07:24:39Z</time>
      </trkpt>
      <trkpt lat="47.27317" lon="4.95149">
        <ele>475.03</ele>
        <time>2016-10-16T07:24:50Z</time>
      </trkpt>
      <trkpt lat="47.27293" lon="4.95147">
        <ele>474.55</ele>
        <time>2016-10-16T07:25:00Z</time>
      </trkpt>
      <trkpt lat="47.27282" lon="4.95138">
        <ele>473.59</ele>
        <time>2016-10-16T07:25:12Z</time>
      </trkpt>
      <trkpt lat="47.27279" lon="4.95142">
        <ele>473.59</ele>
        <time>2016-10-16T07:25:25Z</time>
      </trkpt>
      <trkpt lat="47.27276" lon="4.95146">
        <ele>473.59</ele>
        <time>2016-10-16T07:25:41Z</time>
      </trkpt>
      <trkpt lat="47.27275" lon="4.95147">
        <ele>472.63</ele>
        <time>2016-10-16T07:26:08Z</time>
      </trkpt>
      <trkpt lat="47.27274" lon="4.95147">
        <ele>472.63</ele>
        <time>2016-10-16T07:26:13Z</time>
      </trkpt>
      <trkpt lat="47.27272" lon="4.95154">
        <ele>471.66</ele>
        <time>2016-10-16T07:26:17Z</time>
      </trkpt>
      <trkpt lat="47.27278" lon="4.95188">
        <ele>473.59</ele>
        <time>2016-10-16T07:26:29Z</time>
      </trkpt>
      <trkpt lat="47.27297" lon="4.9523">
        <ele>472.63</ele>
        <time>2016-10-16T07:26:42Z</time>
      </trkpt>
      <trkpt lat="47.27319" lon="4.95283">
        <ele>470.22</ele>
        <time>2016-10-16T07:26:56Z</time>
      </trkpt>
      <trkpt lat="47.27324" lon="4.95292">
        <ele>469.74</ele>
        <time>2016-10-16T07:26:58Z</time>
      </trkpt>
      <trkpt lat="47.27335" lon="4.95312">
        <ele>469.74</ele>
        <time>2016-10-16T07:27:02Z</time>
      </trkpt>
      <trkpt lat="47.27364" lon="4.95366">
        <ele>469.74</ele>
        <time>2016-10-16T07:27:12Z</time>
      </trkpt>
      <trkpt lat="47.2737" lon="4.95377">
        <ele>469.74</ele>
        <time>2016-10-16T07:27:14Z</time>
      </trkpt>
      <trkpt lat="47.27385" lon="4.95405">
        <ele>468.78</ele>
        <time>2016-10-16T07:27:19Z</time>
      </trkpt>
      <trkpt lat="47.27392" lon="4.95423">
        <ele>468.3</ele>
        <time>2016-10-16T07:27:22Z</time>
      </trkpt>
      <trkpt lat="47.27412" lon="4.95463">
        <ele>468.3</ele>
        <time>2016-10-16T07:27:29Z</time>
      </trkpt>
      <trkpt lat="47.27438" lon="4.95518">
        <ele>467.82</ele>
        <time>2016-10-16T07:27:39Z</time>
      </trkpt>
      <trkpt lat="47.27474" lon="4.95594">
        <ele>466.38</ele>
        <time>2016-10-16T07:27:54Z</time>
      </trkpt>
      <trkpt lat="47.27494" lon="4.95633">
        <ele>465.9</ele>
        <time>2016-10-16T07:28:02Z</time>
      </trkpt>
      <trkpt lat="47.27504" lon="4.95653">
        <ele>465.9</ele>
        <time>2016-10-16T07:28:06Z</time>
      </trkpt>
      <trkpt lat="47.27537" lon="4.95719">
        <ele>465.42</ele>
        <time>2016-10-16T07:28:18Z</time>
      </trkpt>
      <trkpt lat="47.2758" lon="4.95807">
        <ele>463.97</ele>
        <time>2016-10-16T07:28:35Z</time>
      </trkpt>
      <trkpt lat="47.27592" lon="4.95825">
        <ele>462.53</ele>
        <time>2016-10-16T07:28:44Z</time>
      </trkpt>
      <trkpt lat="47.27639" lon="4.95851">
        <ele>460.13</ele>
        <time>2016-10-16T07:28:57Z</time>
      </trkpt>
      <trkpt lat="47.27677" lon="4.95872">
        <ele>460.61</ele>
        <time>2016-10-16T07:29:08Z</time>
      </trkpt>
      <trkpt lat="47.27697" lon="4.95885">
        <ele>460.61</ele>
        <time>2016-10-16T07:29:15Z</time>
      </trkpt>
      <trkpt lat="47.277" lon="4.95899">
        <ele>460.13</ele>
        <time>2016-10-16T07:29:19Z</time>
      </trkpt>
      <trkpt lat="47.27685" lon="4.95965">
        <ele>461.57</ele>
        <time>2016-10-16T07:29:32Z</time>
      </trkpt>
      <trkpt lat="47.27668" lon="4.96023">
        <ele>462.53</ele>
        <time>2016-10-16T07:29:44Z</time>
      </trkpt>
      <trkpt lat="47.27651" lon="4.96081">
        <ele>463.49</ele>
        <time>2016-10-16T07:29:56Z</time>
      </trkpt>
      <trkpt lat="47.27637" lon="4.96134">
        <ele>466.38</ele>
        <time>2016-10-16T07:30:08Z</time>
      </trkpt>
      <trkpt lat="47.27619" lon="4.96194">
        <ele>469.26</ele>
        <time>2016-10-16T07:30:21Z</time>
      </trkpt>
      <trkpt lat="47.27604" lon="4.9626">
        <ele>470.22</ele>
        <time>2016-10-16T07:30:33Z</time>
      </trkpt>
      <trkpt lat="47.27586" lon="4.96331">
        <ele>474.07</ele>
        <time>2016-10-16T07:30:46Z</time>
      </trkpt>
      <trkpt lat="47.27572" lon="4.964">
        <ele>475.51</ele>
        <time>2016-10-16T07:30:58Z</time>
      </trkpt>
      <trkpt lat="47.27571" lon="4.96408">
        <ele>475.99</ele>
        <time>2016-10-16T07:30:59Z</time>
      </trkpt>
      <trkpt lat="47.27564" lon="4.96449">
        <ele>473.59</ele>
        <time>2016-10-16T07:31:05Z</time>
      </trkpt>
      <trkpt lat="47.27561" lon="4.96472">
        <ele>473.11</ele>
        <time>2016-10-16T07:31:08Z</time>
      </trkpt>
      <trkpt lat="47.27556" lon="4.96489">
        <ele>472.14</ele>
        <time>2016-10-16T07:31:10Z</time>
      </trkpt>
      <trkpt lat="47.27545" lon="4.96513">
        <ele>470.22</ele>
        <time>2016-10-16T07:31:13Z</time>
      </trkpt>
      <trkpt lat="47.2753" lon="4.96562">
        <ele>467.82</ele>
        <time>2016-10-16T07:31:19Z</time>
      </trkpt>
      <trkpt lat="47.27518" lon="4.96599">
        <ele>465.42</ele>
        <time>2016-10-16T07:31:24Z</time>
      </trkpt>
      <trkpt lat="47.27502" lon="4.96647">
        <ele>461.57</ele>
        <time>2016-10-16T07:31:33Z</time>
      </trkpt>
      <trkpt lat="47.275" lon="4.96656">
        <ele>459.17</ele>
        <time>2016-10-16T07:31:44Z</time>
      </trkpt>
      <trkpt lat="47.27501" lon="4.9666">
        <ele>458.69</ele>
        <time>2016-10-16T07:31:46Z</time>
      </trkpt>
      <trkpt lat="47.27533" lon="4.96685">
        <ele>456.76</ele>
        <time>2016-10-16T07:32:00Z</time>
      </trkpt>
      <trkpt lat="47.27568" lon="4.96707">
        <ele>454.36</ele>
        <time>2016-10-16T07:32:12Z</time>
      </trkpt>
      <trkpt lat="47.27612" lon="4.96731">
        <ele>452.92</ele>
        <time>2016-10-16T07:32:25Z</time>
      </trkpt>
      <trkpt lat="47.27655" lon="4.96754">
        <ele>449.55</ele>
        <time>2016-10-16T07:32:39Z</time>
      </trkpt>
      <trkpt lat="47.27709" lon="4.96785">
        <ele>445.71</ele>
        <time>2016-10-16T07:32:55Z</time>
      </trkpt>
      <trkpt lat="47.2775" lon="4.96807">
        <ele>443.31</ele>
        <time>2016-10-16T07:33:08Z</time>
      </trkpt>
      <trkpt lat="47.27786" lon="4.96828">
        <ele>442.82</ele>
        <time>2016-10-16T07:33:19Z</time>
      </trkpt>
      <trkpt lat="47.27814" lon="4.96844">
        <ele>442.34</ele>
        <time>2016-10-16T07:33:26Z</time>
      </trkpt>
      <trkpt lat="47.27842" lon="4.96858">
        <ele>438.5</ele>
        <time>2016-10-16T07:33:36Z</time>
      </trkpt>
      <trkpt lat="47.27843" lon="4.96859">
        <ele>438.5</ele>
        <time>2016-10-16T07:33:37Z</time>
      </trkpt>
      <trkpt lat="47.2787" lon="4.96872">
        <ele>436.1</ele>
        <time>2016-10-16T07:33:48Z</time>
      </trkpt>
      <trkpt lat="47.27896" lon="4.96888">
        <ele>434.17</ele>
        <time>2016-10-16T07:33:57Z</time>
      </trkpt>
      <trkpt lat="47.27917" lon="4.96901">
        <ele>430.33</ele>
        <time>2016-10-16T07:34:06Z</time>
      </trkpt>
      <trkpt lat="47.27919" lon="4.96902">
        <ele>430.33</ele>
        <time>2016-10-16T07:34:07Z</time>
      </trkpt>
      <trkpt lat="47.27921" lon="4.96913">
        <ele>430.33</ele>
        <time>2016-10-16T07:34:12Z</time>
      </trkpt>
      <trkpt lat="47.27903" lon="4.96967">
        <ele>425.52</ele>
        <time>2016-10-16T07:34:25Z</time>
      </trkpt>
      <trkpt lat="47.27897" lon="4.96982">
        <ele>423.6</ele>
        <time>2016-10-16T07:34:28Z</time>
      </trkpt>
      <trkpt lat="47.27882" lon="4.97029">
        <ele>419.75</ele>
        <time>2016-10-16T07:34:36Z</time>
      </trkpt>
      <trkpt lat="47.27878" lon="4.97041">
        <ele>419.27</ele>
        <time>2016-10-16T07:34:38Z</time>
      </trkpt>
      <trkpt lat="47.27861" lon="4.97108">
        <ele>416.87</ele>
        <time>2016-10-16T07:34:51Z</time>
      </trkpt>
      <trkpt lat="47.27857" lon="4.97119">
        <ele>416.87</ele>
        <time>2016-10-16T07:34:53Z</time>
      </trkpt>
      <trkpt lat="47.27851" lon="4.97137">
        <ele>416.39</ele>
        <time>2016-10-16T07:34:56Z</time>
      </trkpt>
      <trkpt lat="47.27846" lon="4.97158">
        <ele>416.39</ele>
        <time>2016-10-16T07:34:59Z</time>
      </trkpt>
      <trkpt lat="47.27832" lon="4.97214">
        <ele>415.43</ele>
        <time>2016-10-16T07:35:07Z</time>
      </trkpt>
      <trkpt lat="47.27817" lon="4.97265">
        <ele>412.54</ele>
        <time>2016-10-16T07:35:18Z</time>
      </trkpt>
      <trkpt lat="47.27806" lon="4.973">
        <ele>410.14</ele>
        <time>2016-10-16T07:35:27Z</time>
      </trkpt>
      <trkpt lat="47.27784" lon="4.97373">
        <ele>404.37</ele>
        <time>2016-10-16T07:35:39Z</time>
      </trkpt>
      <trkpt lat="47.27771" lon="4.97412">
        <ele>401.49</ele>
        <time>2016-10-16T07:35:46Z</time>
      </trkpt>
      <trkpt lat="47.27757" lon="4.97464">
        <ele>397.16</ele>
        <time>2016-10-16T07:35:55Z</time>
      </trkpt>
      <trkpt lat="47.27733" lon="4.9754">
        <ele>391.39</ele>
        <time>2016-10-16T07:36:06Z</time>
      </trkpt>
      <trkpt lat="47.27716" lon="4.97593">
        <ele>384.66</ele>
        <time>2016-10-16T07:36:15Z</time>
      </trkpt>
      <trkpt lat="47.27704" lon="4.97632">
        <ele>379.86</ele>
        <time>2016-10-16T07:36:22Z</time>
      </trkpt>
      <trkpt lat="47.27692" lon="4.97672">
        <ele>376.01</ele>
        <time>2016-10-16T07:36:31Z</time>
      </trkpt>
      <trkpt lat="47.27686" lon="4.97695">
        <ele>373.61</ele>
        <time>2016-10-16T07:36:35Z</time>
      </trkpt>
      <trkpt lat="47.27671" lon="4.97742">
        <ele>367.36</ele>
        <time>2016-10-16T07:36:42Z</time>
      </trkpt>
      <trkpt lat="47.27665" lon="4.97765">
        <ele>363.52</ele>
        <time>2016-10-16T07:36:46Z</time>
      </trkpt>
      <trkpt lat="47.27643" lon="4.97836">
        <ele>354.86</ele>
        <time>2016-10-16T07:36:58Z</time>
      </trkpt>
      <trkpt lat="47.27639" lon="4.97846">
        <ele>353.9</ele>
        <time>2016-10-16T07:37:00Z</time>
      </trkpt>
      <trkpt lat="47.27619" lon="4.97857">
        <ele>350.06</ele>
        <time>2016-10-16T07:37:07Z</time>
      </trkpt>
      <trkpt lat="47.27602" lon="4.97863">
        <ele>347.65</ele>
        <time>2016-10-16T07:37:10Z</time>
      </trkpt>
      <trkpt lat="47.2759" lon="4.97868">
        <ele>346.69</ele>
        <time>2016-10-16T07:37:12Z</time>
      </trkpt>
      <trkpt lat="47.27562" lon="4.97885">
        <ele>343.81</ele>
        <time>2016-10-16T07:37:21Z</time>
      </trkpt>
      <trkpt lat="47.27557" lon="4.97887">
        <ele>343.33</ele>
        <time>2016-10-16T07:37:33Z</time>
      </trkpt>
      <trkpt lat="47.27559" lon="4.97887">
        <ele>343.33</ele>
        <time>2016-10-16T07:37:52Z</time>
      </trkpt>
      <trkpt lat="47.27557" lon="4.97886">
        <ele>343.33</ele>
        <time>2016-10-16T07:37:55Z</time>
      </trkpt>
      <trkpt lat="47.2753" lon="4.97861">
        <ele>345.73</ele>
        <time>2016-10-16T07:38:08Z</time>
      </trkpt>
      <trkpt lat="47.27502" lon="4.97819">
        <ele>348.62</ele>
        <time>2016-10-16T07:38:20Z</time>
      </trkpt>
      <trkpt lat="47.27501" lon="4.97814">
        <ele>349.1</ele>
        <time>2016-10-16T07:38:21Z</time>
      </trkpt>
      <trkpt lat="47.27481" lon="4.97813">
        <ele>351.5</ele>
        <time>2016-10-16T07:38:26Z</time>
      </trkpt>
      <trkpt lat="47.27443" lon="4.97819">
        <ele>353.42</ele>
        <time>2016-10-16T07:38:35Z</time>
      </trkpt>
      <trkpt lat="47.2744" lon="4.97821">
        <ele>353.42</ele>
        <time>2016-10-16T07:38:36Z</time>
      </trkpt>
      <trkpt lat="47.27434" lon="4.97825">
        <ele>352.94</ele>
        <time>2016-10-16T07:38:38Z</time>
      </trkpt>
      <trkpt lat="47.27387" lon="4.97815">
        <ele>354.86</ele>
        <time>2016-10-16T07:38:50Z</time>
      </trkpt>
      <trkpt lat="47.27376" lon="4.97814">
        <ele>355.34</ele>
        <time>2016-10-16T07:38:53Z</time>
      </trkpt>
      <trkpt lat="47.27335" lon="4.97814">
        <ele>359.67</ele>
        <time>2016-10-16T07:39:03Z</time>
      </trkpt>
      <trkpt lat="47.27328" lon="4.97816">
        <ele>360.63</ele>
        <time>2016-10-16T07:39:05Z</time>
      </trkpt>
      <trkpt lat="47.27314" lon="4.97818">
        <ele>361.11</ele>
        <time>2016-10-16T07:39:09Z</time>
      </trkpt>
      <trkpt lat="47.27278" lon="4.97811">
        <ele>362.07</ele>
        <time>2016-10-16T07:39:19Z</time>
      </trkpt>
      <trkpt lat="47.27249" lon="4.97799">
        <ele>360.63</ele>
        <time>2016-10-16T07:39:26Z</time>
      </trkpt>
      <trkpt lat="47.27196" lon="4.97767">
        <ele>354.38</ele>
        <time>2016-10-16T07:39:37Z</time>
      </trkpt>
      <trkpt lat="47.27191" lon="4.97764">
        <ele>353.42</ele>
        <time>2016-10-16T07:39:38Z</time>
      </trkpt>
      <trkpt lat="47.27132" lon="4.97724">
        <ele>343.33</ele>
        <time>2016-10-16T07:39:50Z</time>
      </trkpt>
      <trkpt lat="47.27111" lon="4.9771">
        <ele>343.81</ele>
        <time>2016-10-16T07:39:56Z</time>
      </trkpt>
      <trkpt lat="47.27061" lon="4.97691">
        <ele>339.48</ele>
        <time>2016-10-16T07:40:09Z</time>
      </trkpt>
      <trkpt lat="47.27055" lon="4.97667">
        <ele>339.48</ele>
        <time>2016-10-16T07:40:17Z</time>
      </trkpt>
      <trkpt lat="47.2705" lon="4.97664">
        <ele>339.96</ele>
        <time>2016-10-16T07:40:19Z</time>
      </trkpt>
      <trkpt lat="47.27" lon="4.97655">
        <ele>337.56</ele>
        <time>2016-10-16T07:40:31Z</time>
      </trkpt>
      <trkpt lat="47.26987" lon="4.97647">
        <ele>335.64</ele>
        <time>2016-10-16T07:40:34Z</time>
      </trkpt>
      <trkpt lat="47.26968" lon="4.97636">
        <ele>334.2</ele>
        <time>2016-10-16T07:40:39Z</time>
      </trkpt>
      <trkpt lat="47.26966" lon="4.97621">
        <ele>333.71</ele>
        <time>2016-10-16T07:40:43Z</time>
      </trkpt>
      <trkpt lat="47.26969" lon="4.97612">
        <ele>334.2</ele>
        <time>2016-10-16T07:40:46Z</time>
      </trkpt>
      <trkpt lat="47.2696" lon="4.97598">
        <ele>334.68</ele>
        <time>2016-10-16T07:40:50Z</time>
      </trkpt>
      <trkpt lat="47.26935" lon="4.97584">
        <ele>334.68</ele>
        <time>2016-10-16T07:40:55Z</time>
      </trkpt>
      <trkpt lat="47.26903" lon="4.97569">
        <ele>332.27</ele>
        <time>2016-10-16T07:41:05Z</time>
      </trkpt>
      <trkpt lat="47.26902" lon="4.9757">
        <ele>332.75</ele>
        <time>2016-10-16T07:41:16Z</time>
      </trkpt>
      <trkpt lat="47.26901" lon="4.97571">
        <ele>333.23</ele>
        <time>2016-10-16T07:41:42Z</time>
      </trkpt>
      <trkpt lat="47.26901" lon="4.97569">
        <ele>332.27</ele>
        <time>2016-10-16T07:42:04Z</time>
      </trkpt>
      <trkpt lat="47.26901" lon="4.97568">
        <ele>332.27</ele>
        <time>2016-10-16T07:42:31Z</time>
      </trkpt>
      <trkpt lat="47.26901" lon="4.97567">
        <ele>332.27</ele>
        <time>2016-10-16T07:42:57Z</time>
      </trkpt>
      <trkpt lat="47.26902" lon="4.97565">
        <ele>332.75</ele>
        <time>2016-10-16T07:43:23Z</time>
      </trkpt>
      <trkpt lat="47.26902" lon="4.97567">
        <ele>332.75</ele>
        <time>2016-10-16T07:43:45Z</time>
      </trkpt>
      <trkpt lat="47.26902" lon="4.97568">
        <ele>333.23</ele>
        <time>2016-10-16T07:44:12Z</time>
      </trkpt>
      <trkpt lat="47.26902" lon="4.9757">
        <ele>332.27</ele>
        <time>2016-10-16T07:44:26Z</time>
      </trkpt>
      <trkpt lat="47.269" lon="4.9757">
        <ele>331.79</ele>
        <time>2016-10-16T07:44:54Z</time>
      </trkpt>
      <trkpt lat="47.269" lon="4.9757">
        <ele>334.2</ele>
        <time>2016-10-16T07:45:33Z</time>
      </trkpt>
      <trkpt lat="47.26897" lon="4.97567">
        <ele>333.71</ele>
        <time>2016-10-16T07:45:52Z</time>
      </trkpt>
      <trkpt lat="47.26857" lon="4.97546">
        <ele>333.23</ele>
        <time>2016-10-16T07:46:04Z</time>
      </trkpt>
      <trkpt lat="47.26842" lon="4.97535">
        <ele>332.27</ele>
        <time>2016-10-16T07:46:08Z</time>
      </trkpt>
      <trkpt lat="47.26822" lon="4.97511">
        <ele>332.27</ele>
        <time>2016-10-16T07:46:17Z</time>
      </trkpt>
      <trkpt lat="47.26816" lon="4.97515">
        <ele>331.79</ele>
        <time>2016-10-16T07:46:21Z</time>
      </trkpt>
      <trkpt lat="47.26793" lon="4.97562">
        <ele>323.14</ele>
        <time>2016-10-16T07:46:31Z</time>
      </trkpt>
      <trkpt lat="47.26787" lon="4.97556">
        <ele>321.7</ele>
        <time>2016-10-16T07:46:35Z</time>
      </trkpt>
      <trkpt lat="47.26779" lon="4.97505">
        <ele>324.58</ele>
        <time>2016-10-16T07:46:50Z</time>
      </trkpt>
      <trkpt lat="47.2678" lon="4.97505">
        <ele>324.1</ele>
        <time>2016-10-16T07:47:11Z</time>
      </trkpt>
      <trkpt lat="47.26781" lon="4.97505">
        <ele>325.54</ele>
        <time>2016-10-16T07:47:31Z</time>
      </trkpt>
      <trkpt lat="47.26782" lon="4.97528">
        <ele>324.58</ele>
        <time>2016-10-16T07:47:42Z</time>
      </trkpt>
      <trkpt lat="47.2679" lon="4.97562">
        <ele>323.62</ele>
        <time>2016-10-16T07:47:54Z</time>
      </trkpt>
      <trkpt lat="47.26789" lon="4.97561">
        <ele>324.1</ele>
        <time>2016-10-16T07:48:25Z</time>
      </trkpt>
      <trkpt lat="47.26789" lon="4.97562">
        <ele>324.58</ele>
        <time>2016-10-16T07:48:46Z</time>
      </trkpt>
      <trkpt lat="47.26789" lon="4.97564">
        <ele>325.06</ele>
        <time>2016-10-16T07:49:16Z</time>
      </trkpt>
      <trkpt lat="47.2679" lon="4.97565">
        <ele>324.1</ele>
        <time>2016-10-16T07:49:39Z</time>
      </trkpt>
      <trkpt lat="47.26789" lon="4.97562">
        <ele>322.18</ele>
        <time>2016-10-16T07:50:11Z</time>
      </trkpt>
      <trkpt lat="47.26789" lon="4.97561">
        <ele>321.7</ele>
        <time>2016-10-16T07:50:18Z</time>
      </trkpt>
      <trkpt lat="47.26785" lon="4.97538">
        <ele>322.66</ele>
        <time>2016-10-16T07:50:28Z</time>
      </trkpt>
      <trkpt lat="47.26781" lon="4.97527">
        <ele>323.14</ele>
        <time>2016-10-16T07:50:33Z</time>
      </trkpt>
      <trkpt lat="47.2678" lon="4.9751">
        <ele>324.1</ele>
        <time>2016-10-16T07:50:40Z</time>
      </trkpt>
      <trkpt lat="47.26776" lon="4.9749">
        <ele>328.43</ele>
        <time>2016-10-16T07:50:54Z</time>
      </trkpt>
      <trkpt lat="47.26774" lon="4.97476">
        <ele>329.39</ele>
        <time>2016-10-16T07:51:05Z</time>
      </trkpt>
      <trkpt lat="47.2677" lon="4.97441">
        <ele>330.35</ele>
        <time>2016-10-16T07:51:15Z</time>
      </trkpt>
      <trkpt lat="47.2676" lon="4.97399">
        <ele>334.68</ele>
        <time>2016-10-16T07:51:26Z</time>
      </trkpt>
      <trkpt lat="47.26764" lon="4.97385">
        <ele>337.08</ele>
        <time>2016-10-16T07:51:30Z</time>
      </trkpt>
      <trkpt lat="47.26765" lon="4.97326">
        <ele>340.44</ele>
        <time>2016-10-16T07:51:43Z</time>
      </trkpt>
      <trkpt lat="47.2677" lon="4.9728">
        <ele>339.48</ele>
        <time>2016-10-16T07:51:56Z</time>
      </trkpt>
      <trkpt lat="47.2677" lon="4.9727">
        <ele>339.96</ele>
        <time>2016-10-16T07:52:01Z</time>
      </trkpt>
      <trkpt lat="47.26758" lon="4.97265">
        <ele>343.33</ele>
        <time>2016-10-16T07:52:12Z</time>
      </trkpt>
      <trkpt lat="47.26743" lon="4.97257">
        <ele>344.77</ele>
        <time>2016-10-16T07:52:26Z</time>
      </trkpt>
      <trkpt lat="47.26725" lon="4.97255">
        <ele>347.17</ele>
        <time>2016-10-16T07:52:38Z</time>
      </trkpt>
      <trkpt lat="47.26711" lon="4.97252">
        <ele>347.65</ele>
        <time>2016-10-16T07:52:50Z</time>
      </trkpt>
      <trkpt lat="47.267" lon="4.97259">
        <ele>349.1</ele>
        <time>2016-10-16T07:53:00Z</time>
      </trkpt>
      <trkpt lat="47.26695" lon="4.97266">
        <ele>349.1</ele>
        <time>2016-10-16T07:53:05Z</time>
      </trkpt>
      <trkpt lat="47.26681" lon="4.9729">
        <ele>350.06</ele>
        <time>2016-10-16T07:53:18Z</time>
      </trkpt>
      <trkpt lat="47.26679" lon="4.97293">
        <ele>350.06</ele>
        <time>2016-10-16T07:53:20Z</time>
      </trkpt>
      <trkpt lat="47.26663" lon="4.97286">
        <ele>347.65</ele>
        <time>2016-10-16T07:53:33Z</time>
      </trkpt>
      <trkpt lat="47.2666" lon="4.97284">
        <ele>347.17</ele>
        <time>2016-10-16T07:53:36Z</time>
      </trkpt>
      <trkpt lat="47.26638" lon="4.97282">
        <ele>351.02</ele>
        <time>2016-10-16T07:53:55Z</time>
      </trkpt>
      <trkpt lat="47.26628" lon="4.97281">
        <ele>352.94</ele>
        <time>2016-10-16T07:54:08Z</time>
      </trkpt>
      <trkpt lat="47.26627" lon="4.97281">
        <ele>353.9</ele>
        <time>2016-10-16T07:54:32Z</time>
      </trkpt>
      <trkpt lat="47.26627" lon="4.97281">
        <ele>353.9</ele>
        <time>2016-10-16T07:54:49Z</time>
      </trkpt>
      <trkpt lat="47.26619" lon="4.97273">
        <ele>355.83</ele>
        <time>2016-10-16T07:55:05Z</time>
      </trkpt>
      <trkpt lat="47.2661" lon="4.97269">
        <ele>359.67</ele>
        <time>2016-10-16T07:55:20Z</time>
      </trkpt>
      <trkpt lat="47.26609" lon="4.97269">
        <ele>359.67</ele>
        <time>2016-10-16T07:55:26Z</time>
      </trkpt>
      <trkpt lat="47.26603" lon="4.97268">
        <ele>360.63</ele>
        <time>2016-10-16T07:55:30Z</time>
      </trkpt>
      <trkpt lat="47.26585" lon="4.97261">
        <ele>361.11</ele>
        <time>2016-10-16T07:55:42Z</time>
      </trkpt>
      <trkpt lat="47.26572" lon="4.97254">
        <ele>362.07</ele>
        <time>2016-10-16T07:55:50Z</time>
      </trkpt>
      <trkpt lat="47.26568" lon="4.97236">
        <ele>363.52</ele>
        <time>2016-10-16T07:55:58Z</time>
      </trkpt>
      <trkpt lat="47.26562" lon="4.97222">
        <ele>364.48</ele>
        <time>2016-10-16T07:56:11Z</time>
      </trkpt>
      <trkpt lat="47.26562" lon="4.97221">
        <ele>364.96</ele>
        <time>2016-10-16T07:56:34Z</time>
      </trkpt>
      <trkpt lat="47.26562" lon="4.97221">
        <ele>365.44</ele>
        <time>2016-10-16T07:56:39Z</time>
      </trkpt>
      <trkpt lat="47.26557" lon="4.97226">
        <ele>364.96</ele>
        <time>2016-10-16T07:56:43Z</time>
      </trkpt>
      <trkpt lat="47.26534" lon="4.97245">
        <ele>364.48</ele>
        <time>2016-10-16T07:56:48Z</time>
      </trkpt>
      <trkpt lat="47.26493" lon="4.97256">
        <ele>360.63</ele>
        <time>2016-10-16T07:56:55Z</time>
      </trkpt>
      <trkpt lat="47.26463" lon="4.97264">
        <ele>357.75</ele>
        <time>2016-10-16T07:56:59Z</time>
      </trkpt>
      <trkpt lat="47.26429" lon="4.97283">
        <ele>352.94</ele>
        <time>2016-10-16T07:57:03Z</time>
      </trkpt>
      <trkpt lat="47.26364" lon="4.97288">
        <ele>342.85</ele>
        <time>2016-10-16T07:57:12Z</time>
      </trkpt>
      <trkpt lat="47.26346" lon="4.97291">
        <ele>339.48</ele>
        <time>2016-10-16T07:57:19Z</time>
      </trkpt>
      <trkpt lat="47.26346" lon="4.97293">
        <ele>341.41</ele>
        <time>2016-10-16T07:57:44Z</time>
      </trkpt>
      <trkpt lat="47.26347" lon="4.97295">
        <ele>340.92</ele>
        <time>2016-10-16T07:58:04Z</time>
      </trkpt>
      <trkpt lat="47.26347" lon="4.97294">
        <ele>341.41</ele>
        <time>2016-10-16T07:58:32Z</time>
      </trkpt>
      <trkpt lat="47.26348" lon="4.97294">
        <ele>342.37</ele>
        <time>2016-10-16T07:59:08Z</time>
      </trkpt>
      <trkpt lat="47.26347" lon="4.97294">
        <ele>341.89</ele>
        <time>2016-10-16T07:59:33Z</time>
      </trkpt>
      <trkpt lat="47.26346" lon="4.97294">
        <ele>342.37</ele>
        <time>2016-10-16T07:59:56Z</time>
      </trkpt>
      <trkpt lat="47.26346" lon="4.97295">
        <ele>341.41</ele>
        <time>2016-10-16T08:00:25Z</time>
      </trkpt>
      <trkpt lat="47.26346" lon="4.97295">
        <ele>339.96</ele>
        <time>2016-10-16T08:00:52Z</time>
      </trkpt>
      <trkpt lat="47.26346" lon="4.97293">
        <ele>339</ele>
        <time>2016-10-16T08:01:22Z</time>
      </trkpt>
      <trkpt lat="47.26345" lon="4.97294">
        <ele>338.52</ele>
        <time>2016-10-16T08:02:00Z</time>
      </trkpt>
      <trkpt lat="47.26345" lon="4.97294">
        <ele>338.52</ele>
        <time>2016-10-16T08:02:22Z</time>
      </trkpt>
      <trkpt lat="47.26346" lon="4.97294">
        <ele>339.48</ele>
        <time>2016-10-16T08:02:51Z</time>
      </trkpt>
      <trkpt lat="47.26346" lon="4.97293">
        <ele>338.52</ele>
        <time>2016-10-16T08:03:25Z</time>
      </trkpt>
      <trkpt lat="47.26346" lon="4.97292">
        <ele>338.52</ele>
        <time>2016-10-16T08:03:56Z</time>
      </trkpt>
      <trkpt lat="47.26347" lon="4.97292">
        <ele>339.48</ele>
        <time>2016-10-16T08:04:26Z</time>
      </trkpt>
      <trkpt lat="47.26347" lon="4.97294">
        <ele>339.96</ele>
        <time>2016-10-16T08:05:05Z</time>
      </trkpt>
      <trkpt lat="47.26346" lon="4.97294">
        <ele>339.48</ele>
        <time>2016-10-16T08:05:35Z</time>
      </trkpt>
      <trkpt lat="47.26347" lon="4.97295">
        <ele>340.92</ele>
        <time>2016-10-16T08:06:10Z</time>
      </trkpt>
      <trkpt lat="47.26344" lon="4.97291">
        <ele>339.96</ele>
        <time>2016-10-16T08:06:27Z</time>
      </trkpt>
      <trkpt lat="47.26344" lon="4.9729">
        <ele>339.96</ele>
        <time>2016-10-16T08:06:41Z</time>
      </trkpt>
      <trkpt lat="47.26343" lon="4.9729">
        <ele>339.96</ele>
        <time>2016-10-16T08:07:02Z</time>
      </trkpt>
      <trkpt lat="47.26332" lon="4.9729">
        <ele>339</ele>
        <time>2016-10-16T08:07:11Z</time>
      </trkpt>
      <trkpt lat="47.26263" lon="4.97292">
        <ele>335.16</ele>
        <time>2016-10-16T08:07:22Z</time>
      </trkpt>
      <trkpt lat="47.2622" lon="4.97306">
        <ele>330.35</ele>
        <time>2016-10-16T08:07:29Z</time>
      </trkpt>
      <trkpt lat="47.26213" lon="4.97308">
        <ele>328.91</ele>
        <time>2016-10-16T08:07:31Z</time>
      </trkpt>
      <trkpt lat="47.26206" lon="4.97295">
        <ele>326.99</ele>
        <time>2016-10-16T08:07:39Z</time>
      </trkpt>
      <trkpt lat="47.26206" lon="4.97271">
        <ele>328.43</ele>
        <time>2016-10-16T08:07:51Z</time>
      </trkpt>
      <trkpt lat="47.26205" lon="4.97227">
        <ele>330.83</ele>
        <time>2016-10-16T08:08:04Z</time>
      </trkpt>
      <trkpt lat="47.26188" lon="4.97173">
        <ele>333.23</ele>
        <time>2016-10-16T08:08:19Z</time>
      </trkpt>
      <trkpt lat="47.26163" lon="4.9719">
        <ele>333.23</ele>
        <time>2016-10-16T08:08:29Z</time>
      </trkpt>
      <trkpt lat="47.26133" lon="4.97199">
        <ele>335.16</ele>
        <time>2016-10-16T08:08:43Z</time>
      </trkpt>
      <trkpt lat="47.26111" lon="4.97203">
        <ele>337.56</ele>
        <time>2016-10-16T08:08:56Z</time>
      </trkpt>
      <trkpt lat="47.26106" lon="4.97201">
        <ele>338.04</ele>
        <time>2016-10-16T08:08:59Z</time>
      </trkpt>
      <trkpt lat="47.26097" lon="4.97191">
        <ele>339.96</ele>
        <time>2016-10-16T08:09:07Z</time>
      </trkpt>
      <trkpt lat="47.26085" lon="4.97165">
        <ele>340.92</ele>
        <time>2016-10-16T08:09:21Z</time>
      </trkpt>
      <trkpt lat="47.26081" lon="4.97153">
        <ele>341.41</ele>
        <time>2016-10-16T08:09:27Z</time>
      </trkpt>
      <trkpt lat="47.26075" lon="4.97126">
        <ele>343.33</ele>
        <time>2016-10-16T08:09:39Z</time>
      </trkpt>
      <trkpt lat="47.26065" lon="4.97097">
        <ele>343.81</ele>
        <time>2016-10-16T08:09:52Z</time>
      </trkpt>
      <trkpt lat="47.26046" lon="4.97071">
        <ele>344.29</ele>
        <time>2016-10-16T08:10:05Z</time>
      </trkpt>
      <trkpt lat="47.26034" lon="4.97066">
        <ele>345.25</ele>
        <time>2016-10-16T08:10:11Z</time>
      </trkpt>
      <trkpt lat="47.26015" lon="4.9709">
        <ele>346.69</ele>
        <time>2016-10-16T08:10:22Z</time>
      </trkpt>
      <trkpt lat="47.25982" lon="4.97118">
        <ele>347.65</ele>
        <time>2016-10-16T08:10:35Z</time>
      </trkpt>
      <trkpt lat="47.25952" lon="4.97129">
        <ele>347.65</ele>
        <time>2016-10-16T08:10:46Z</time>
      </trkpt>
      <trkpt lat="47.2593" lon="4.97139">
        <ele>348.13</ele>
        <time>2016-10-16T08:10:52Z</time>
      </trkpt>
      <trkpt lat="47.2589" lon="4.9714">
        <ele>348.62</ele>
        <time>2016-10-16T08:11:03Z</time>
      </trkpt>
      <trkpt lat="47.25841" lon="4.97132">
        <ele>350.06</ele>
        <time>2016-10-16T08:11:19Z</time>
      </trkpt>
      <trkpt lat="47.2579" lon="4.97123">
        <ele>351.98</ele>
        <time>2016-10-16T08:11:33Z</time>
      </trkpt>
      <trkpt lat="47.25754" lon="4.9712">
        <ele>353.42</ele>
        <time>2016-10-16T08:11:45Z</time>
      </trkpt>
      <trkpt lat="47.25716" lon="4.97114">
        <ele>353.42</ele>
        <time>2016-10-16T08:11:55Z</time>
      </trkpt>
      <trkpt lat="47.25703" lon="4.97143">
        <ele>351.02</ele>
        <time>2016-10-16T08:12:00Z</time>
      </trkpt>
      <trkpt lat="47.25689" lon="4.9723">
        <ele>341.89</ele>
        <time>2016-10-16T08:12:10Z</time>
      </trkpt>
      <trkpt lat="47.25679" lon="4.97232">
        <ele>339.48</ele>
        <time>2016-10-16T08:12:14Z</time>
      </trkpt>
      <trkpt lat="47.25651" lon="4.97207">
        <ele>339</ele>
        <time>2016-10-16T08:12:23Z</time>
      </trkpt>
      <trkpt lat="47.256" lon="4.97146">
        <ele>343.33</ele>
        <time>2016-10-16T08:12:39Z</time>
      </trkpt>
      <trkpt lat="47.25541" lon="4.97118">
        <ele>340.92</ele>
        <time>2016-10-16T08:12:52Z</time>
      </trkpt>
      <trkpt lat="47.25511" lon="4.97086">
        <ele>339.96</ele>
        <time>2016-10-16T08:12:59Z</time>
      </trkpt>
      <trkpt lat="47.25502" lon="4.97065">
        <ele>340.44</ele>
        <time>2016-10-16T08:13:03Z</time>
      </trkpt>
      <trkpt lat="47.25484" lon="4.96988">
        <ele>344.77</ele>
        <time>2016-10-16T08:13:18Z</time>
      </trkpt>
      <trkpt lat="47.25466" lon="4.96946">
        <ele>346.21</ele>
        <time>2016-10-16T08:13:30Z</time>
      </trkpt>
      <trkpt lat="47.25427" lon="4.96882">
        <ele>345.25</ele>
        <time>2016-10-16T08:13:47Z</time>
      </trkpt>
      <trkpt lat="47.25402" lon="4.9682">
        <ele>346.69</ele>
        <time>2016-10-16T08:14:01Z</time>
      </trkpt>
      <trkpt lat="47.2538" lon="4.96745">
        <ele>347.65</ele>
        <time>2016-10-16T08:14:19Z</time>
      </trkpt>
      <trkpt lat="47.25368" lon="4.967">
        <ele>347.65</ele>
        <time>2016-10-16T08:14:29Z</time>
      </trkpt>
      <trkpt lat="47.25359" lon="4.96647">
        <ele>347.65</ele>
        <time>2016-10-16T08:14:40Z</time>
      </trkpt>
      <trkpt lat="47.25359" lon="4.96621">
        <ele>350.06</ele>
        <time>2016-10-16T08:14:47Z</time>
      </trkpt>
      <trkpt lat="47.25356" lon="4.96589">
        <ele>352.46</ele>
        <time>2016-10-16T08:14:56Z</time>
      </trkpt>
      <trkpt lat="47.25355" lon="4.96584">
        <ele>350.54</ele>
        <time>2016-10-16T08:15:09Z</time>
      </trkpt>
      <trkpt lat="47.25354" lon="4.96578">
        <ele>350.06</ele>
        <time>2016-10-16T08:15:13Z</time>
      </trkpt>
      <trkpt lat="47.25356" lon="4.96569">
        <ele>349.1</ele>
        <time>2016-10-16T08:15:24Z</time>
      </trkpt>
      <trkpt lat="47.25356" lon="4.96566">
        <ele>349.1</ele>
        <time>2016-10-16T08:15:28Z</time>
      </trkpt>
      <trkpt lat="47.25353" lon="4.96559">
        <ele>349.58</ele>
        <time>2016-10-16T08:15:38Z</time>
      </trkpt>
      <trkpt lat="47.25353" lon="4.96558">
        <ele>349.1</ele>
        <time>2016-10-16T08:15:44Z</time>
      </trkpt>
      <trkpt lat="47.25352" lon="4.96543">
        <ele>351.5</ele>
        <time>2016-10-16T08:15:49Z</time>
      </trkpt>
      <trkpt lat="47.2534" lon="4.96515">
        <ele>353.9</ele>
        <time>2016-10-16T08:15:57Z</time>
      </trkpt>
      <trkpt lat="47.25315" lon="4.96501">
        <ele>352.46</ele>
        <time>2016-10-16T08:16:04Z</time>
      </trkpt>
      <trkpt lat="47.25311" lon="4.965">
        <ele>352.46</ele>
        <time>2016-10-16T08:16:05Z</time>
      </trkpt>
      <trkpt lat="47.25291" lon="4.96512">
        <ele>351.98</ele>
        <time>2016-10-16T08:16:15Z</time>
      </trkpt>
      <trkpt lat="47.25282" lon="4.9653">
        <ele>353.9</ele>
        <time>2016-10-16T08:16:23Z</time>
      </trkpt>
      <trkpt lat="47.25275" lon="4.96541">
        <ele>353.9</ele>
        <time>2016-10-16T08:16:27Z</time>
      </trkpt>
      <trkpt lat="47.25253" lon="4.96597">
        <ele>354.86</ele>
        <time>2016-10-16T08:16:39Z</time>
      </trkpt>
      <trkpt lat="47.25225" lon="4.96656">
        <ele>353.9</ele>
        <time>2016-10-16T08:16:51Z</time>
      </trkpt>
      <trkpt lat="47.25223" lon="4.9666">
        <ele>353.42</ele>
        <time>2016-10-16T08:16:52Z</time>
      </trkpt>
      <trkpt lat="47.25209" lon="4.9668">
        <ele>352.46</ele>
        <time>2016-10-16T08:16:56Z</time>
      </trkpt>
      <trkpt lat="47.25176" lon="4.9677">
        <ele>353.42</ele>
        <time>2016-10-16T08:17:09Z</time>
      </trkpt>
      <trkpt lat="47.25172" lon="4.96792">
        <ele>352.94</ele>
        <time>2016-10-16T08:17:19Z</time>
      </trkpt>
      <trkpt lat="47.25173" lon="4.96795">
        <ele>351.5</ele>
        <time>2016-10-16T08:17:25Z</time>
      </trkpt>
      <trkpt lat="47.25169" lon="4.96812">
        <ele>354.86</ele>
        <time>2016-10-16T08:17:39Z</time>
      </trkpt>
      <trkpt lat="47.25169" lon="4.96812">
        <ele>353.9</ele>
        <time>2016-10-16T08:18:02Z</time>
      </trkpt>
      <trkpt lat="47.25169" lon="4.96812">
        <ele>349.58</ele>
        <time>2016-10-16T08:18:24Z</time>
      </trkpt>
      <trkpt lat="47.25168" lon="4.96815">
        <ele>348.13</ele>
        <time>2016-10-16T08:18:38Z</time>
      </trkpt>
      <trkpt lat="47.25167" lon="4.96815">
        <ele>344.29</ele>
        <time>2016-10-16T08:19:10Z</time>
      </trkpt>
      <trkpt lat="47.25167" lon="4.96816">
        <ele>344.29</ele>
        <time>2016-10-16T08:19:12Z</time>
      </trkpt>
      <trkpt lat="47.25164" lon="4.96815">
        <ele>343.81</ele>
        <time>2016-10-16T08:19:24Z</time>
      </trkpt>
      <trkpt lat="47.25153" lon="4.96808">
        <ele>344.77</ele>
        <time>2016-10-16T08:19:36Z</time>
      </trkpt>
      <trkpt lat="47.25144" lon="4.96803">
        <ele>346.69</ele>
        <time>2016-10-16T08:19:49Z</time>
      </trkpt>
      <trkpt lat="47.25133" lon="4.96795">
        <ele>346.69</ele>
        <time>2016-10-16T08:20:03Z</time>
      </trkpt>
      <trkpt lat="47.25128" lon="4.96789">
        <ele>346.21</ele>
        <time>2016-10-16T08:20:12Z</time>
      </trkpt>
      <trkpt lat="47.25125" lon="4.96778">
        <ele>347.17</ele>
        <time>2016-10-16T08:20:19Z</time>
      </trkpt>
      <trkpt lat="47.25115" lon="4.96762">
        <ele>352.46</ele>
        <time>2016-10-16T08:20:33Z</time>
      </trkpt>
      <trkpt lat="47.2511" lon="4.9675">
        <ele>354.38</ele>
        <time>2016-10-16T08:20:48Z</time>
      </trkpt>
      <trkpt lat="47.25103" lon="4.96745">
        <ele>354.86</ele>
        <time>2016-10-16T08:20:58Z</time>
      </trkpt>
      <trkpt lat="47.25089" lon="4.96739">
        <ele>354.86</ele>
        <time>2016-10-16T08:21:05Z</time>
      </trkpt>
      <trkpt lat="47.25062" lon="4.96735">
        <ele>354.38</ele>
        <time>2016-10-16T08:21:14Z</time>
      </trkpt>
      <trkpt lat="47.25049" lon="4.96741">
        <ele>353.42</ele>
        <time>2016-10-16T08:21:18Z</time>
      </trkpt>
      <trkpt lat="47.25038" lon="4.96757">
        <ele>352.94</ele>
        <time>2016-10-16T08:21:22Z</time>
      </trkpt>
      <trkpt lat="47.25022" lon="4.9678">
        <ele>351.02</ele>
        <time>2016-10-16T08:21:26Z</time>
      </trkpt>
      <trkpt lat="47.25005" lon="4.96803">
        <ele>345.73</ele>
        <time>2016-10-16T08:21:33Z</time>
      </trkpt>
      <trkpt lat="47.25004" lon="4.96803">
        <ele>340.92</ele>
        <time>2016-10-16T08:22:00Z</time>
      </trkpt>
      <trkpt lat="47.25003" lon="4.96803">
        <ele>340.92</ele>
        <time>2016-10-16T08:22:02Z</time>
      </trkpt>
      <trkpt lat="47.24999" lon="4.96803">
        <ele>339.96</ele>
        <time>2016-10-16T08:22:05Z</time>
      </trkpt>
      <trkpt lat="47.24991" lon="4.96792">
        <ele>339</ele>
        <time>2016-10-16T08:22:11Z</time>
      </trkpt>
      <trkpt lat="47.24973" lon="4.96763">
        <ele>339.96</ele>
        <time>2016-10-16T08:22:28Z</time>
      </trkpt>
      <trkpt lat="47.24967" lon="4.96752">
        <ele>340.92</ele>
        <time>2016-10-16T08:22:34Z</time>
      </trkpt>
      <trkpt lat="47.24957" lon="4.96727">
        <ele>342.85</ele>
        <time>2016-10-16T08:22:45Z</time>
      </trkpt>
      <trkpt lat="47.24953" lon="4.96707">
        <ele>346.69</ele>
        <time>2016-10-16T08:22:57Z</time>
      </trkpt>
      <trkpt lat="47.24948" lon="4.96681">
        <ele>350.54</ele>
        <time>2016-10-16T08:23:10Z</time>
      </trkpt>
      <trkpt lat="47.24946" lon="4.96671">
        <ele>352.46</ele>
        <time>2016-10-16T08:23:15Z</time>
      </trkpt>
      <trkpt lat="47.24942" lon="4.9665">
        <ele>357.27</ele>
        <time>2016-10-16T08:23:25Z</time>
      </trkpt>
      <trkpt lat="47.24925" lon="4.96626">
        <ele>362.55</ele>
        <time>2016-10-16T08:23:39Z</time>
      </trkpt>
      <trkpt lat="47.2491" lon="4.9661">
        <ele>364.96</ele>
        <time>2016-10-16T08:23:50Z</time>
      </trkpt>
      <trkpt lat="47.24909" lon="4.96609">
        <ele>365.44</ele>
        <time>2016-10-16T08:23:51Z</time>
      </trkpt>
      <trkpt lat="47.24904" lon="4.96595">
        <ele>367.84</ele>
        <time>2016-10-16T08:23:59Z</time>
      </trkpt>
      <trkpt lat="47.24902" lon="4.96584">
        <ele>368.32</ele>
        <time>2016-10-16T08:24:04Z</time>
      </trkpt>
      <trkpt lat="47.24901" lon="4.96577">
        <ele>368.32</ele>
        <time>2016-10-16T08:24:07Z</time>
      </trkpt>
      <trkpt lat="47.2489" lon="4.96552">
        <ele>367.36</ele>
        <time>2016-10-16T08:24:21Z</time>
      </trkpt>
      <trkpt lat="47.24881" lon="4.96527">
        <ele>367.36</ele>
        <time>2016-10-16T08:24:34Z</time>
      </trkpt>
      <trkpt lat="47.24873" lon="4.96501">
        <ele>369.28</ele>
        <time>2016-10-16T08:24:48Z</time>
      </trkpt>
      <trkpt lat="47.24871" lon="4.96483">
        <ele>369.76</ele>
        <time>2016-10-16T08:24:57Z</time>
      </trkpt>
      <trkpt lat="47.2487" lon="4.96479">
        <ele>370.24</ele>
        <time>2016-10-16T08:24:59Z</time>
      </trkpt>
      <trkpt lat="47.24865" lon="4.96458">
        <ele>370.24</ele>
        <time>2016-10-16T08:25:09Z</time>
      </trkpt>
      <trkpt lat="47.24866" lon="4.96445">
        <ele>369.76</ele>
        <time>2016-10-16T08:25:15Z</time>
      </trkpt>
      <trkpt lat="47.24868" lon="4.96418">
        <ele>371.21</ele>
        <time>2016-10-16T08:25:29Z</time>
      </trkpt>
      <trkpt lat="47.24875" lon="4.96394">
        <ele>374.09</ele>
        <time>2016-10-16T08:25:43Z</time>
      </trkpt>
      <trkpt lat="47.24876" lon="4.96392">
        <ele>374.09</ele>
        <time>2016-10-16T08:25:44Z</time>
      </trkpt>
      <trkpt lat="47.24877" lon="4.96387">
        <ele>375.05</ele>
        <time>2016-10-16T08:25:47Z</time>
      </trkpt>
      <trkpt lat="47.24882" lon="4.96377">
        <ele>377.45</ele>
        <time>2016-10-16T08:25:53Z</time>
      </trkpt>
      <trkpt lat="47.24886" lon="4.96367">
        <ele>377.45</ele>
        <time>2016-10-16T08:26:06Z</time>
      </trkpt>
      <trkpt lat="47.24885" lon="4.96366">
        <ele>377.45</ele>
        <time>2016-10-16T08:26:24Z</time>
      </trkpt>
      <trkpt lat="47.24885" lon="4.96367">
        <ele>377.94</ele>
        <time>2016-10-16T08:26:40Z</time>
      </trkpt>
      <trkpt lat="47.24883" lon="4.96368">
        <ele>377.94</ele>
        <time>2016-10-16T08:27:03Z</time>
      </trkpt>
      <trkpt lat="47.24863" lon="4.96366">
        <ele>378.42</ele>
        <time>2016-10-16T08:27:11Z</time>
      </trkpt>
      <trkpt lat="47.24848" lon="4.96365">
        <ele>376.97</ele>
        <time>2016-10-16T08:27:14Z</time>
      </trkpt>
      <trkpt lat="47.24838" lon="4.96363">
        <ele>376.01</ele>
        <time>2016-10-16T08:27:16Z</time>
      </trkpt>
      <trkpt lat="47.24793" lon="4.96344">
        <ele>371.69</ele>
        <time>2016-10-16T08:27:24Z</time>
      </trkpt>
      <trkpt lat="47.24758" lon="4.96296">
        <ele>366.88</ele>
        <time>2016-10-16T08:27:31Z</time>
      </trkpt>
      <trkpt lat="47.24741" lon="4.96269">
        <ele>364.96</ele>
        <time>2016-10-16T08:27:38Z</time>
      </trkpt>
      <trkpt lat="47.2474" lon="4.96269">
        <ele>364.96</ele>
        <time>2016-10-16T08:27:39Z</time>
      </trkpt>
      <trkpt lat="47.24724" lon="4.96259">
        <ele>364.96</ele>
        <time>2016-10-16T08:27:49Z</time>
      </trkpt>
      <trkpt lat="47.24721" lon="4.96256">
        <ele>364.48</ele>
        <time>2016-10-16T08:27:51Z</time>
      </trkpt>
      <trkpt lat="47.24705" lon="4.96238">
        <ele>363.04</ele>
        <time>2016-10-16T08:27:59Z</time>
      </trkpt>
      <trkpt lat="47.24688" lon="4.96206">
        <ele>357.75</ele>
        <time>2016-10-16T08:28:09Z</time>
      </trkpt>
      <trkpt lat="47.24683" lon="4.96191">
        <ele>355.83</ele>
        <time>2016-10-16T08:28:13Z</time>
      </trkpt>
      <trkpt lat="47.24667" lon="4.96163">
        <ele>350.54</ele>
        <time>2016-10-16T08:28:19Z</time>
      </trkpt>
      <trkpt lat="47.24634" lon="4.96151">
        <ele>348.13</ele>
        <time>2016-10-16T08:28:29Z</time>
      </trkpt>
      <trkpt lat="47.24626" lon="4.96161">
        <ele>347.65</ele>
        <time>2016-10-16T08:28:36Z</time>
      </trkpt>
      <trkpt lat="47.24622" lon="4.96167">
        <ele>347.65</ele>
        <time>2016-10-16T08:28:40Z</time>
      </trkpt>
      <trkpt lat="47.24619" lon="4.96175">
        <ele>351.5</ele>
        <time>2016-10-16T08:28:57Z</time>
      </trkpt>
      <trkpt lat="47.24619" lon="4.96175">
        <ele>351.98</ele>
        <time>2016-10-16T08:29:12Z</time>
      </trkpt>
      <trkpt lat="47.24619" lon="4.96173">
        <ele>353.42</ele>
        <time>2016-10-16T08:29:36Z</time>
      </trkpt>
      <trkpt lat="47.24616" lon="4.96181">
        <ele>354.38</ele>
        <time>2016-10-16T08:29:55Z</time>
      </trkpt>
      <trkpt lat="47.24613" lon="4.96205">
        <ele>353.9</ele>
        <time>2016-10-16T08:30:02Z</time>
      </trkpt>
      <trkpt lat="47.24611" lon="4.96214">
        <ele>353.42</ele>
        <time>2016-10-16T08:30:04Z</time>
      </trkpt>
      <trkpt lat="47.24595" lon="4.96273">
        <ele>352.46</ele>
        <time>2016-10-16T08:30:17Z</time>
      </trkpt>
      <trkpt lat="47.24589" lon="4.96321">
        <ele>351.98</ele>
        <time>2016-10-16T08:30:28Z</time>
      </trkpt>
      <trkpt lat="47.24588" lon="4.96329">
        <ele>351.98</ele>
        <time>2016-10-16T08:30:31Z</time>
      </trkpt>
      <trkpt lat="47.24584" lon="4.96385">
        <ele>352.46</ele>
        <time>2016-10-16T08:30:43Z</time>
      </trkpt>
      <trkpt lat="47.24577" lon="4.96453">
        <ele>351.02</ele>
        <time>2016-10-16T08:30:54Z</time>
      </trkpt>
      <trkpt lat="47.2457" lon="4.96493">
        <ele>348.62</ele>
        <time>2016-10-16T08:31:01Z</time>
      </trkpt>
      <trkpt lat="47.24553" lon="4.96496">
        <ele>347.17</ele>
        <time>2016-10-16T08:31:09Z</time>
      </trkpt>
      <trkpt lat="47.24551" lon="4.96493">
        <ele>347.65</ele>
        <time>2016-10-16T08:31:11Z</time>
      </trkpt>
      <trkpt lat="47.24524" lon="4.96487">
        <ele>349.58</ele>
        <time>2016-10-16T08:31:23Z</time>
      </trkpt>
      <trkpt lat="47.2449" lon="4.96504">
        <ele>350.06</ele>
        <time>2016-10-16T08:31:38Z</time>
      </trkpt>
      <trkpt lat="47.24469" lon="4.96516">
        <ele>350.06</ele>
        <time>2016-10-16T08:31:52Z</time>
      </trkpt>
      <trkpt lat="47.24453" lon="4.96518">
        <ele>349.58</ele>
        <time>2016-10-16T08:32:01Z</time>
      </trkpt>
      <trkpt lat="47.24435" lon="4.96517">
        <ele>348.13</ele>
        <time>2016-10-16T08:32:11Z</time>
      </trkpt>
      <trkpt lat="47.24422" lon="4.96512">
        <ele>347.65</ele>
        <time>2016-10-16T08:32:18Z</time>
      </trkpt>
      <trkpt lat="47.24407" lon="4.96501">
        <ele>348.62</ele>
        <time>2016-10-16T08:32:27Z</time>
      </trkpt>
      <trkpt lat="47.24384" lon="4.96476">
        <ele>352.94</ele>
        <time>2016-10-16T08:32:43Z</time>
      </trkpt>
      <trkpt lat="47.24362" lon="4.96446">
        <ele>355.34</ele>
        <time>2016-10-16T08:32:57Z</time>
      </trkpt>
      <trkpt lat="47.24343" lon="4.96412">
        <ele>362.07</ele>
        <time>2016-10-16T08:33:12Z</time>
      </trkpt>
      <trkpt lat="47.24321" lon="4.96382">
        <ele>364.48</ele>
        <time>2016-10-16T08:33:26Z</time>
      </trkpt>
      <trkpt lat="47.24301" lon="4.96356">
        <ele>367.84</ele>
        <time>2016-10-16T08:33:39Z</time>
      </trkpt>
      <trkpt lat="47.24299" lon="4.96353">
        <ele>368.32</ele>
        <time>2016-10-16T08:33:41Z</time>
      </trkpt>
      <trkpt lat="47.24295" lon="4.96351">
        <ele>369.28</ele>
        <time>2016-10-16T08:33:45Z</time>
      </trkpt>
      <trkpt lat="47.24293" lon="4.96354">
        <ele>369.76</ele>
        <time>2016-10-16T08:33:48Z</time>
      </trkpt>
      <trkpt lat="47.24289" lon="4.96353">
        <ele>369.76</ele>
        <time>2016-10-16T08:33:52Z</time>
      </trkpt>
      <trkpt lat="47.24286" lon="4.96355">
        <ele>370.24</ele>
        <time>2016-10-16T08:34:07Z</time>
      </trkpt>
      <trkpt lat="47.2426" lon="4.96361">
        <ele>367.84</ele>
        <time>2016-10-16T08:34:15Z</time>
      </trkpt>
      <trkpt lat="47.24231" lon="4.96344">
        <ele>366.4</ele>
        <time>2016-10-16T08:34:21Z</time>
      </trkpt>
      <trkpt lat="47.24212" lon="4.96341">
        <ele>364.48</ele>
        <time>2016-10-16T08:34:29Z</time>
      </trkpt>
      <trkpt lat="47.2419" lon="4.9633">
        <ele>364.96</ele>
        <time>2016-10-16T08:34:35Z</time>
      </trkpt>
      <trkpt lat="47.24159" lon="4.96316">
        <ele>364.96</ele>
        <time>2016-10-16T08:34:46Z</time>
      </trkpt>
      <trkpt lat="47.24156" lon="4.96312">
        <ele>364</ele>
        <time>2016-10-16T08:34:58Z</time>
      </trkpt>
      <trkpt lat="47.24154" lon="4.96307">
        <ele>364.48</ele>
        <time>2016-10-16T08:35:05Z</time>
      </trkpt>
      <trkpt lat="47.24153" lon="4.96303">
        <ele>364.48</ele>
        <time>2016-10-16T08:35:08Z</time>
      </trkpt>
      <trkpt lat="47.24152" lon="4.96291">
        <ele>364.96</ele>
        <time>2016-10-16T08:35:20Z</time>
      </trkpt>
      <trkpt lat="47.24151" lon="4.96291">
        <ele>364</ele>
        <time>2016-10-16T08:35:33Z</time>
      </trkpt>
      <trkpt lat="47.24149" lon="4.96287">
        <ele>364.96</ele>
        <time>2016-10-16T08:35:36Z</time>
      </trkpt>
      <trkpt lat="47.24145" lon="4.96278">
        <ele>367.36</ele>
        <time>2016-10-16T08:35:41Z</time>
      </trkpt>
      <trkpt lat="47.24137" lon="4.96249">
        <ele>370.24</ele>
        <time>2016-10-16T08:35:56Z</time>
      </trkpt>
      <trkpt lat="47.24137" lon="4.96245">
        <ele>370.24</ele>
        <time>2016-10-16T08:36:15Z</time>
      </trkpt>
      <trkpt lat="47.24135" lon="4.96224">
        <ele>374.09</ele>
        <time>2016-10-16T08:36:28Z</time>
      </trkpt>
      <trkpt lat="47.24133" lon="4.96211">
        <ele>374.57</ele>
        <time>2016-10-16T08:36:45Z</time>
      </trkpt>
      <trkpt lat="47.24125" lon="4.96186">
        <ele>375.53</ele>
        <time>2016-10-16T08:36:50Z</time>
      </trkpt>
      <trkpt lat="47.24102" lon="4.96083">
        <ele>376.01</ele>
        <time>2016-10-16T08:37:00Z</time>
      </trkpt>
      <trkpt lat="47.24093" lon="4.95982">
        <ele>375.53</ele>
        <time>2016-10-16T08:37:09Z</time>
      </trkpt>
      <trkpt lat="47.24091" lon="4.9595">
        <ele>375.53</ele>
        <time>2016-10-16T08:37:12Z</time>
      </trkpt>
      <trkpt lat="47.24088" lon="4.9592">
        <ele>375.05</ele>
        <time>2016-10-16T08:37:16Z</time>
      </trkpt>
      <trkpt lat="47.24084" lon="4.95933">
        <ele>374.09</ele>
        <time>2016-10-16T08:37:23Z</time>
      </trkpt>
      <trkpt lat="47.24082" lon="4.95956">
        <ele>375.05</ele>
        <time>2016-10-16T08:37:27Z</time>
      </trkpt>
      <trkpt lat="47.24081" lon="4.95971">
        <ele>375.53</ele>
        <time>2016-10-16T08:37:29Z</time>
      </trkpt>
      <trkpt lat="47.24061" lon="4.96089">
        <ele>381.3</ele>
        <time>2016-10-16T08:37:42Z</time>
      </trkpt>
      <trkpt lat="47.24058" lon="4.96137">
        <ele>384.18</ele>
        <time>2016-10-16T08:37:47Z</time>
      </trkpt>
      <trkpt lat="47.24064" lon="4.9625">
        <ele>387.55</ele>
        <time>2016-10-16T08:37:58Z</time>
      </trkpt>
      <trkpt lat="47.24062" lon="4.96293">
        <ele>385.15</ele>
        <time>2016-10-16T08:38:02Z</time>
      </trkpt>
      <trkpt lat="47.2406" lon="4.96352">
        <ele>380.82</ele>
        <time>2016-10-16T08:38:10Z</time>
      </trkpt>
      <trkpt lat="47.2406" lon="4.9636">
        <ele>378.9</ele>
        <time>2016-10-16T08:38:12Z</time>
      </trkpt>
      <trkpt lat="47.2405" lon="4.96405">
        <ele>370.24</ele>
        <time>2016-10-16T08:38:18Z</time>
      </trkpt>
      <trkpt lat="47.24056" lon="4.96448">
        <ele>355.34</ele>
        <time>2016-10-16T08:38:23Z</time>
      </trkpt>
      <trkpt lat="47.24057" lon="4.96493">
        <ele>344.29</ele>
        <time>2016-10-16T08:38:28Z</time>
      </trkpt>
      <trkpt lat="47.24056" lon="4.96538">
        <ele>335.16</ele>
        <time>2016-10-16T08:38:36Z</time>
      </trkpt>
      <trkpt lat="47.24053" lon="4.96567">
        <ele>333.71</ele>
        <time>2016-10-16T08:38:40Z</time>
      </trkpt>
      <trkpt lat="47.2405" lon="4.96591">
        <ele>332.27</ele>
        <time>2016-10-16T08:38:45Z</time>
      </trkpt>
      <trkpt lat="47.24049" lon="4.96593">
        <ele>327.95</ele>
        <time>2016-10-16T08:38:57Z</time>
      </trkpt>
      <trkpt lat="47.24033" lon="4.96607">
        <ele>324.58</ele>
        <time>2016-10-16T08:39:10Z</time>
      </trkpt>
      <trkpt lat="47.2401" lon="4.96631">
        <ele>322.66</ele>
        <time>2016-10-16T08:39:16Z</time>
      </trkpt>
      <trkpt lat="47.23982" lon="4.96652">
        <ele>319.78</ele>
        <time>2016-10-16T08:39:21Z</time>
      </trkpt>
      <trkpt lat="47.23946" lon="4.96669">
        <ele>315.93</ele>
        <time>2016-10-16T08:39:27Z</time>
      </trkpt>
      <trkpt lat="47.23933" lon="4.96658">
        <ele>314.97</ele>
        <time>2016-10-16T08:39:30Z</time>
      </trkpt>
      <trkpt lat="47.23903" lon="4.96627">
        <ele>315.93</ele>
        <time>2016-10-16T08:39:43Z</time>
      </trkpt>
      <trkpt lat="47.23891" lon="4.96597">
        <ele>319.3</ele>
        <time>2016-10-16T08:39:54Z</time>
      </trkpt>
      <trkpt lat="47.23887" lon="4.96588">
        <ele>320.26</ele>
        <time>2016-10-16T08:39:58Z</time>
      </trkpt>
      <trkpt lat="47.23874" lon="4.96598">
        <ele>319.78</ele>
        <time>2016-10-16T08:40:06Z</time>
      </trkpt>
      <trkpt lat="47.23863" lon="4.96608">
        <ele>317.85</ele>
        <time>2016-10-16T08:40:17Z</time>
      </trkpt>
      <trkpt lat="47.23859" lon="4.96612">
        <ele>316.89</ele>
        <time>2016-10-16T08:40:28Z</time>
      </trkpt>
      <trkpt lat="47.23855" lon="4.96614">
        <ele>314.97</ele>
        <time>2016-10-16T08:40:39Z</time>
      </trkpt>
      <trkpt lat="47.23848" lon="4.96631">
        <ele>313.05</ele>
        <time>2016-10-16T08:40:48Z</time>
      </trkpt>
      <trkpt lat="47.23847" lon="4.96635">
        <ele>313.05</ele>
        <time>2016-10-16T08:40:50Z</time>
      </trkpt>
      <trkpt lat="47.2383" lon="4.96644">
        <ele>314.01</ele>
        <time>2016-10-16T08:40:57Z</time>
      </trkpt>
      <trkpt lat="47.23798" lon="4.96667">
        <ele>314.49</ele>
        <time>2016-10-16T08:41:10Z</time>
      </trkpt>
      <trkpt lat="47.2378" lon="4.96678">
        <ele>314.01</ele>
        <time>2016-10-16T08:41:18Z</time>
      </trkpt>
      <trkpt lat="47.23775" lon="4.96676">
        <ele>314.01</ele>
        <time>2016-10-16T08:41:21Z</time>
      </trkpt>
      <trkpt lat="47.23772" lon="4.96675">
        <ele>314.49</ele>
        <time>2016-10-16T08:41:28Z</time>
      </trkpt>
      <trkpt lat="47.23795" lon="4.96675">
        <ele>313.53</ele>
        <time>2016-10-16T08:41:38Z</time>
      </trkpt>
      <trkpt lat="47.23805" lon="4.96657">
        <ele>313.53</ele>
        <time>2016-10-16T08:41:44Z</time>
      </trkpt>
      <trkpt lat="47.23798" lon="4.96662">
        <ele>313.05</ele>
        <time>2016-10-16T08:41:51Z</time>
      </trkpt>
      <trkpt lat="47.23776" lon="4.96678">
        <ele>313.53</ele>
        <time>2016-10-16T08:41:59Z</time>
      </trkpt>
      <trkpt lat="47.23767" lon="4.96674">
        <ele>314.49</ele>
        <time>2016-10-16T08:42:02Z</time>
      </trkpt>
      <trkpt lat="47.23737" lon="4.9666">
        <ele>317.85</ele>
        <time>2016-10-16T08:42:16Z</time>
      </trkpt>
      <trkpt lat="47.2371" lon="4.96642">
        <ele>319.78</ele>
        <time>2016-10-16T08:42:29Z</time>
      </trkpt>
      <trkpt lat="47.23665" lon="4.96625">
        <ele>320.26</ele>
        <time>2016-10-16T08:42:43Z</time>
      </trkpt>
      <trkpt lat="47.23627" lon="4.96613">
        <ele>321.22</ele>
        <time>2016-10-16T08:42:55Z</time>
      </trkpt>
      <trkpt lat="47.23582" lon="4.96587">
        <ele>322.18</ele>
        <time>2016-10-16T08:43:09Z</time>
      </trkpt>
      <trkpt lat="47.23519" lon="4.96557">
        <ele>323.14</ele>
        <time>2016-10-16T08:43:26Z</time>
      </trkpt>
      <trkpt lat="47.23499" lon="4.96553">
        <ele>323.14</ele>
        <time>2016-10-16T08:43:31Z</time>
      </trkpt>
      <trkpt lat="47.23444" lon="4.96552">
        <ele>319.78</ele>
        <time>2016-10-16T08:43:42Z</time>
      </trkpt>
      <trkpt lat="47.2339" lon="4.9654">
        <ele>318.33</ele>
        <time>2016-10-16T08:43:52Z</time>
      </trkpt>
      <trkpt lat="47.23344" lon="4.96527">
        <ele>316.89</ele>
        <time>2016-10-16T08:44:00Z</time>
      </trkpt>
      <trkpt lat="47.23324" lon="4.96514">
        <ele>316.41</ele>
        <time>2016-10-16T08:44:04Z</time>
      </trkpt>
      <trkpt lat="47.2328" lon="4.96497">
        <ele>316.41</ele>
        <time>2016-10-16T08:44:15Z</time>
      </trkpt>
      <trkpt lat="47.23207" lon="4.96468">
        <ele>314.49</ele>
        <time>2016-10-16T08:44:29Z</time>
      </trkpt>
      <trkpt lat="47.23191" lon="4.96462">
        <ele>313.53</ele>
        <time>2016-10-16T08:44:32Z</time>
      </trkpt>
      <trkpt lat="47.23163" lon="4.96445">
        <ele>313.05</ele>
        <time>2016-10-16T08:44:38Z</time>
      </trkpt>
      <trkpt lat="47.23145" lon="4.96437">
        <ele>312.09</ele>
        <time>2016-10-16T08:44:42Z</time>
      </trkpt>
      <trkpt lat="47.23128" lon="4.96443">
        <ele>311.12</ele>
        <time>2016-10-16T08:44:47Z</time>
      </trkpt>
      <trkpt lat="47.23098" lon="4.96443">
        <ele>308.72</ele>
        <time>2016-10-16T08:44:54Z</time>
      </trkpt>
      <trkpt lat="47.23074" lon="4.96431">
        <ele>308.24</ele>
        <time>2016-10-16T08:44:59Z</time>
      </trkpt>
      <trkpt lat="47.23063" lon="4.96427">
        <ele>307.76</ele>
        <time>2016-10-16T08:45:02Z</time>
      </trkpt>
      <trkpt lat="47.23052" lon="4.96433">
        <ele>307.76</ele>
        <time>2016-10-16T08:45:07Z</time>
      </trkpt>
      <trkpt lat="47.23031" lon="4.9642">
        <ele>307.28</ele>
        <time>2016-10-16T08:45:14Z</time>
      </trkpt>
      <trkpt lat="47.23006" lon="4.9641">
        <ele>306.8</ele>
        <time>2016-10-16T08:45:20Z</time>
      </trkpt>
      <trkpt lat="47.22984" lon="4.96396">
        <ele>306.8</ele>
        <time>2016-10-16T08:45:26Z</time>
      </trkpt>
      <trkpt lat="47.2296" lon="4.96379">
        <ele>305.84</ele>
        <time>2016-10-16T08:45:32Z</time>
      </trkpt>
      <trkpt lat="47.22914" lon="4.96349">
        <ele>304.39</ele>
        <time>2016-10-16T08:45:42Z</time>
      </trkpt>
      <trkpt lat="47.22885" lon="4.96324">
        <ele>303.91</ele>
        <time>2016-10-16T08:45:49Z</time>
      </trkpt>
      <trkpt lat="47.22871" lon="4.9632">
        <ele>303.43</ele>
        <time>2016-10-16T08:45:52Z</time>
      </trkpt>
      <trkpt lat="47.22858" lon="4.96312">
        <ele>302.47</ele>
        <time>2016-10-16T08:45:55Z</time>
      </trkpt>
      <trkpt lat="47.22834" lon="4.963">
        <ele>301.51</ele>
        <time>2016-10-16T08:46:04Z</time>
      </trkpt>
      <trkpt lat="47.22831" lon="4.96307">
        <ele>301.03</ele>
        <time>2016-10-16T08:46:06Z</time>
      </trkpt>
      <trkpt lat="47.22811" lon="4.96345">
        <ele>296.22</ele>
        <time>2016-10-16T08:46:18Z</time>
      </trkpt>
      <trkpt lat="47.228" lon="4.96341">
        <ele>293.82</ele>
        <time>2016-10-16T08:46:23Z</time>
      </trkpt>
      <trkpt lat="47.22755" lon="4.96301">
        <ele>292.86</ele>
        <time>2016-10-16T08:46:36Z</time>
      </trkpt>
      <trkpt lat="47.22736" lon="4.96284">
        <ele>292.38</ele>
        <time>2016-10-16T08:46:41Z</time>
      </trkpt>
      <trkpt lat="47.2271" lon="4.96301">
        <ele>290.94</ele>
        <time>2016-10-16T08:46:47Z</time>
      </trkpt>
      <trkpt lat="47.22699" lon="4.96295">
        <ele>290.46</ele>
        <time>2016-10-16T08:46:49Z</time>
      </trkpt>
      <trkpt lat="47.22682" lon="4.96278">
        <ele>290.46</ele>
        <time>2016-10-16T08:46:52Z</time>
      </trkpt>
      <trkpt lat="47.22642" lon="4.96254">
        <ele>289.49</ele>
        <time>2016-10-16T08:46:59Z</time>
      </trkpt>
      <trkpt lat="47.22627" lon="4.96239">
        <ele>289.97</ele>
        <time>2016-10-16T08:47:06Z</time>
      </trkpt>
      <trkpt lat="47.22619" lon="4.96207">
        <ele>291.9</ele>
        <time>2016-10-16T08:47:12Z</time>
      </trkpt>
      <trkpt lat="47.22565" lon="4.96126">
        <ele>293.34</ele>
        <time>2016-10-16T08:47:28Z</time>
      </trkpt>
      <trkpt lat="47.22552" lon="4.96112">
        <ele>293.34</ele>
        <time>2016-10-16T08:47:31Z</time>
      </trkpt>
      <trkpt lat="47.22503" lon="4.96042">
        <ele>295.74</ele>
        <time>2016-10-16T08:47:48Z</time>
      </trkpt>
      <trkpt lat="47.22468" lon="4.96011">
        <ele>297.67</ele>
        <time>2016-10-16T08:48:00Z</time>
      </trkpt>
      <trkpt lat="47.22421" lon="4.96006">
        <ele>299.59</ele>
        <time>2016-10-16T08:48:15Z</time>
      </trkpt>
      <trkpt lat="47.22382" lon="4.96031">
        <ele>301.51</ele>
        <time>2016-10-16T08:48:30Z</time>
      </trkpt>
      <trkpt lat="47.22364" lon="4.96068">
        <ele>302.47</ele>
        <time>2016-10-16T08:48:44Z</time>
      </trkpt>
      <trkpt lat="47.22365" lon="4.96115">
        <ele>301.99</ele>
        <time>2016-10-16T08:48:57Z</time>
      </trkpt>
      <trkpt lat="47.22364" lon="4.96163">
        <ele>301.03</ele>
        <time>2016-10-16T08:49:11Z</time>
      </trkpt>
      <trkpt lat="47.22361" lon="4.96175">
        <ele>300.07</ele>
        <time>2016-10-16T08:49:20Z</time>
      </trkpt>
      <trkpt lat="47.22361" lon="4.96177">
        <ele>299.59</ele>
        <time>2016-10-16T08:49:42Z</time>
      </trkpt>
      <trkpt lat="47.22361" lon="4.96176">
        <ele>299.59</ele>
        <time>2016-10-16T08:50:08Z</time>
      </trkpt>
      <trkpt lat="47.22361" lon="4.96175">
        <ele>299.59</ele>
        <time>2016-10-16T08:50:38Z</time>
      </trkpt>
      <trkpt lat="47.22361" lon="4.96176">
        <ele>300.07</ele>
        <time>2016-10-16T08:50:58Z</time>
      </trkpt>
      <trkpt lat="47.22363" lon="4.96182">
        <ele>299.59</ele>
        <time>2016-10-16T08:51:17Z</time>
      </trkpt>
      <trkpt lat="47.22364" lon="4.96181">
        <ele>300.07</ele>
        <time>2016-10-16T08:51:37Z</time>
      </trkpt>
      <trkpt lat="47.22364" lon="4.96182">
        <ele>301.03</ele>
        <time>2016-10-16T08:52:06Z</time>
      </trkpt>
      <trkpt lat="47.22365" lon="4.96182">
        <ele>301.51</ele>
        <time>2016-10-16T08:52:38Z</time>
      </trkpt>
      <trkpt lat="47.22364" lon="4.96182">
        <ele>300.55</ele>
        <time>2016-10-16T08:53:07Z</time>
      </trkpt>
      <trkpt lat="47.22361" lon="4.96202">
        <ele>301.03</ele>
        <time>2016-10-16T08:53:23Z</time>
      </trkpt>
      <trkpt lat="47.22356" lon="4.96252">
        <ele>298.63</ele>
        <time>2016-10-16T08:53:33Z</time>
      </trkpt>
      <trkpt lat="47.2232" lon="4.96322">
        <ele>298.15</ele>
        <time>2016-10-16T08:53:45Z</time>
      </trkpt>
      <trkpt lat="47.22276" lon="4.9639">
        <ele>299.59</ele>
        <time>2016-10-16T08:54:00Z</time>
      </trkpt>
      <trkpt lat="47.2222" lon="4.96435">
        <ele>301.51</ele>
        <time>2016-10-16T08:54:17Z</time>
      </trkpt>
      <trkpt lat="47.22171" lon="4.96461">
        <ele>302.95</ele>
        <time>2016-10-16T08:54:33Z</time>
      </trkpt>
      <trkpt lat="47.2216" lon="4.9647">
        <ele>302.95</ele>
        <time>2016-10-16T08:54:36Z</time>
      </trkpt>
      <trkpt lat="47.22143" lon="4.96479">
        <ele>302.47</ele>
        <time>2016-10-16T08:54:40Z</time>
      </trkpt>
      <trkpt lat="47.22089" lon="4.96479">
        <ele>303.43</ele>
        <time>2016-10-16T08:54:54Z</time>
      </trkpt>
      <trkpt lat="47.22034" lon="4.96476">
        <ele>302.95</ele>
        <time>2016-10-16T08:55:09Z</time>
      </trkpt>
      <trkpt lat="47.21993" lon="4.96439">
        <ele>303.43</ele>
        <time>2016-10-16T08:55:22Z</time>
      </trkpt>
      <trkpt lat="47.21967" lon="4.96443">
        <ele>303.43</ele>
        <time>2016-10-16T08:55:29Z</time>
      </trkpt>
      <trkpt lat="47.21941" lon="4.96446">
        <ele>301.99</ele>
        <time>2016-10-16T08:55:34Z</time>
      </trkpt>
      <trkpt lat="47.21925" lon="4.96443">
        <ele>301.51</ele>
        <time>2016-10-16T08:55:37Z</time>
      </trkpt>
      <trkpt lat="47.21895" lon="4.96437">
        <ele>301.51</ele>
        <time>2016-10-16T08:55:43Z</time>
      </trkpt>
      <trkpt lat="47.21885" lon="4.96436">
        <ele>301.51</ele>
        <time>2016-10-16T08:55:45Z</time>
      </trkpt>
      <trkpt lat="47.21813" lon="4.96445">
        <ele>302.95</ele>
        <time>2016-10-16T08:56:00Z</time>
      </trkpt>
      <trkpt lat="47.21775" lon="4.96428">
        <ele>302.95</ele>
        <time>2016-10-16T08:56:13Z</time>
      </trkpt>
      <trkpt lat="47.21758" lon="4.96434">
        <ele>301.51</ele>
        <time>2016-10-16T08:56:18Z</time>
      </trkpt>
      <trkpt lat="47.21714" lon="4.96424">
        <ele>301.03</ele>
        <time>2016-10-16T08:56:28Z</time>
      </trkpt>
      <trkpt lat="47.21705" lon="4.96421">
        <ele>301.99</ele>
        <time>2016-10-16T08:56:40Z</time>
      </trkpt>
      <trkpt lat="47.21703" lon="4.96421">
        <ele>302.47</ele>
        <time>2016-10-16T08:56:56Z</time>
      </trkpt>
      <trkpt lat="47.217" lon="4.96421">
        <ele>302.47</ele>
        <time>2016-10-16T08:57:09Z</time>
      </trkpt>
      <trkpt lat="47.21697" lon="4.9642">
        <ele>302.95</ele>
        <time>2016-10-16T08:57:31Z</time>
      </trkpt>
      <trkpt lat="47.21696" lon="4.9642">
        <ele>303.43</ele>
        <time>2016-10-16T08:57:47Z</time>
      </trkpt>
      <trkpt lat="47.21681" lon="4.96424">
        <ele>303.43</ele>
        <time>2016-10-16T08:58:00Z</time>
      </trkpt>
      <trkpt lat="47.21679" lon="4.96425">
        <ele>303.43</ele>
        <time>2016-10-16T08:58:01Z</time>
      </trkpt>
      <trkpt lat="47.21664" lon="4.96425">
        <ele>302.47</ele>
        <time>2016-10-16T08:58:05Z</time>
      </trkpt>
      <trkpt lat="47.21603" lon="4.96419">
        <ele>301.99</ele>
        <time>2016-10-16T08:58:19Z</time>
      </trkpt>
      <trkpt lat="47.21542" lon="4.96415">
        <ele>301.99</ele>
        <time>2016-10-16T08:58:33Z</time>
      </trkpt>
      <trkpt lat="47.21469" lon="4.96396">
        <ele>299.59</ele>
        <time>2016-10-16T08:58:49Z</time>
      </trkpt>
      <trkpt lat="47.21443" lon="4.96387">
        <ele>298.63</ele>
        <time>2016-10-16T08:58:54Z</time>
      </trkpt>
      <trkpt lat="47.21427" lon="4.96388">
        <ele>298.15</ele>
        <time>2016-10-16T08:58:57Z</time>
      </trkpt>
      <trkpt lat="47.21353" lon="4.96369">
        <ele>298.63</ele>
        <time>2016-10-16T08:59:12Z</time>
      </trkpt>
      <trkpt lat="47.21301" lon="4.96355">
        <ele>297.67</ele>
        <time>2016-10-16T08:59:22Z</time>
      </trkpt>
      <trkpt lat="47.21275" lon="4.96342">
        <ele>297.18</ele>
        <time>2016-10-16T08:59:28Z</time>
      </trkpt>
      <trkpt lat="47.21245" lon="4.96343">
        <ele>296.7</ele>
        <time>2016-10-16T08:59:34Z</time>
      </trkpt>
      <trkpt lat="47.2121" lon="4.96356">
        <ele>295.26</ele>
        <time>2016-10-16T08:59:40Z</time>
      </trkpt>
      <trkpt lat="47.21183" lon="4.96351">
        <ele>294.78</ele>
        <time>2016-10-16T08:59:45Z</time>
      </trkpt>
      <trkpt lat="47.21147" lon="4.96341">
        <ele>294.78</ele>
        <time>2016-10-16T08:59:52Z</time>
      </trkpt>
      <trkpt lat="47.21092" lon="4.96332">
        <ele>294.3</ele>
        <time>2016-10-16T09:00:04Z</time>
      </trkpt>
      <trkpt lat="47.21063" lon="4.9632">
        <ele>293.82</ele>
        <time>2016-10-16T09:00:10Z</time>
      </trkpt>
      <trkpt lat="47.21038" lon="4.9629">
        <ele>295.26</ele>
        <time>2016-10-16T09:00:19Z</time>
      </trkpt>
      <trkpt lat="47.21017" lon="4.9628">
        <ele>295.26</ele>
        <time>2016-10-16T09:00:24Z</time>
      </trkpt>
      <trkpt lat="47.20974" lon="4.96269">
        <ele>294.78</ele>
        <time>2016-10-16T09:00:36Z</time>
      </trkpt>
      <trkpt lat="47.20968" lon="4.9627">
        <ele>294.78</ele>
        <time>2016-10-16T09:00:38Z</time>
      </trkpt>
      <trkpt lat="47.20954" lon="4.9626">
        <ele>294.78</ele>
        <time>2016-10-16T09:00:47Z</time>
      </trkpt>
      <trkpt lat="47.20956" lon="4.96254">
        <ele>295.74</ele>
        <time>2016-10-16T09:00:51Z</time>
      </trkpt>
      <trkpt lat="47.20959" lon="4.96249">
        <ele>296.7</ele>
        <time>2016-10-16T09:01:00Z</time>
      </trkpt>
      <trkpt lat="47.20968" lon="4.96221">
        <ele>299.11</ele>
        <time>2016-10-16T09:01:13Z</time>
      </trkpt>
      <trkpt lat="47.20971" lon="4.96213">
        <ele>301.99</ele>
        <time>2016-10-16T09:01:17Z</time>
      </trkpt>
      <trkpt lat="47.20975" lon="4.96198">
        <ele>304.88</ele>
        <time>2016-10-16T09:01:24Z</time>
      </trkpt>
      <trkpt lat="47.20983" lon="4.96179">
        <ele>312.09</ele>
        <time>2016-10-16T09:01:37Z</time>
      </trkpt>
      <trkpt lat="47.20991" lon="4.96159">
        <ele>316.41</ele>
        <time>2016-10-16T09:01:50Z</time>
      </trkpt>
      <trkpt lat="47.21" lon="4.96138">
        <ele>317.37</ele>
        <time>2016-10-16T09:02:03Z</time>
      </trkpt>
      <trkpt lat="47.21001" lon="4.96133">
        <ele>318.33</ele>
        <time>2016-10-16T09:02:06Z</time>
      </trkpt>
      <trkpt lat="47.2101" lon="4.96113">
        <ele>318.33</ele>
        <time>2016-10-16T09:02:18Z</time>
      </trkpt>
      <trkpt lat="47.21022" lon="4.96084">
        <ele>322.18</ele>
        <time>2016-10-16T09:02:34Z</time>
      </trkpt>
      <trkpt lat="47.21029" lon="4.96066">
        <ele>324.1</ele>
        <time>2016-10-16T09:02:47Z</time>
      </trkpt>
      <trkpt lat="47.2103" lon="4.96065">
        <ele>325.06</ele>
        <time>2016-10-16T09:02:49Z</time>
      </trkpt>
      <trkpt lat="47.21034" lon="4.96052">
        <ele>325.54</ele>
        <time>2016-10-16T09:03:00Z</time>
      </trkpt>
      <trkpt lat="47.21037" lon="4.96048">
        <ele>325.54</ele>
        <time>2016-10-16T09:03:13Z</time>
      </trkpt>
      <trkpt lat="47.21039" lon="4.96046">
        <ele>326.5</ele>
        <time>2016-10-16T09:03:35Z</time>
      </trkpt>
      <trkpt lat="47.21039" lon="4.96045">
        <ele>326.5</ele>
        <time>2016-10-16T09:04:01Z</time>
      </trkpt>
      <trkpt lat="47.2104" lon="4.96042">
        <ele>324.58</ele>
        <time>2016-10-16T09:04:31Z</time>
      </trkpt>
      <trkpt lat="47.2105" lon="4.96016">
        <ele>325.54</ele>
        <time>2016-10-16T09:04:45Z</time>
      </trkpt>
      <trkpt lat="47.21062" lon="4.95989">
        <ele>328.43</ele>
        <time>2016-10-16T09:05:00Z</time>
      </trkpt>
      <trkpt lat="47.21069" lon="4.95971">
        <ele>328.91</ele>
        <time>2016-10-16T09:05:10Z</time>
      </trkpt>
      <trkpt lat="47.21073" lon="4.95963">
        <ele>329.87</ele>
        <time>2016-10-16T09:05:15Z</time>
      </trkpt>
      <trkpt lat="47.21079" lon="4.95946">
        <ele>332.27</ele>
        <time>2016-10-16T09:05:25Z</time>
      </trkpt>
      <trkpt lat="47.21086" lon="4.95922">
        <ele>337.08</ele>
        <time>2016-10-16T09:05:41Z</time>
      </trkpt>
      <trkpt lat="47.21088" lon="4.95916">
        <ele>338.52</ele>
        <time>2016-10-16T09:05:46Z</time>
      </trkpt>
      <trkpt lat="47.21095" lon="4.95896">
        <ele>339.48</ele>
        <time>2016-10-16T09:05:58Z</time>
      </trkpt>
      <trkpt lat="47.21103" lon="4.95872">
        <ele>339.48</ele>
        <time>2016-10-16T09:06:12Z</time>
      </trkpt>
      <trkpt lat="47.21107" lon="4.95861">
        <ele>339.96</ele>
        <time>2016-10-16T09:06:24Z</time>
      </trkpt>
      <trkpt lat="47.21107" lon="4.95859">
        <ele>341.89</ele>
        <time>2016-10-16T09:06:34Z</time>
      </trkpt>
      <trkpt lat="47.21109" lon="4.95853">
        <ele>344.77</ele>
        <time>2016-10-16T09:06:44Z</time>
      </trkpt>
      <trkpt lat="47.21112" lon="4.9584">
        <ele>348.13</ele>
        <time>2016-10-16T09:06:57Z</time>
      </trkpt>
      <trkpt lat="47.21117" lon="4.95824">
        <ele>351.5</ele>
        <time>2016-10-16T09:07:11Z</time>
      </trkpt>
      <trkpt lat="47.21123" lon="4.95808">
        <ele>352.94</ele>
        <time>2016-10-16T09:07:26Z</time>
      </trkpt>
      <trkpt lat="47.21128" lon="4.95798">
        <ele>356.31</ele>
        <time>2016-10-16T09:07:41Z</time>
      </trkpt>
      <trkpt lat="47.21129" lon="4.95793">
        <ele>356.31</ele>
        <time>2016-10-16T09:07:53Z</time>
      </trkpt>
      <trkpt lat="47.21133" lon="4.95787">
        <ele>356.31</ele>
        <time>2016-10-16T09:08:07Z</time>
      </trkpt>
      <trkpt lat="47.21133" lon="4.95787">
        <ele>355.34</ele>
        <time>2016-10-16T09:08:38Z</time>
      </trkpt>
      <trkpt lat="47.21133" lon="4.95787">
        <ele>354.38</ele>
        <time>2016-10-16T09:09:10Z</time>
      </trkpt>
      <trkpt lat="47.21133" lon="4.95787">
        <ele>354.38</ele>
        <time>2016-10-16T09:09:41Z</time>
      </trkpt>
      <trkpt lat="47.21134" lon="4.95787">
        <ele>352.94</ele>
        <time>2016-10-16T09:10:06Z</time>
      </trkpt>
      <trkpt lat="47.21134" lon="4.95787">
        <ele>352.94</ele>
        <time>2016-10-16T09:10:28Z</time>
      </trkpt>
      <trkpt lat="47.21133" lon="4.95788">
        <ele>352.46</ele>
        <time>2016-10-16T09:10:54Z</time>
      </trkpt>
      <trkpt lat="47.21133" lon="4.95787">
        <ele>352.94</ele>
        <time>2016-10-16T09:11:23Z</time>
      </trkpt>
      <trkpt lat="47.21133" lon="4.95786">
        <ele>353.9</ele>
        <time>2016-10-16T09:11:45Z</time>
      </trkpt>
      <trkpt lat="47.21131" lon="4.95785">
        <ele>353.42</ele>
        <time>2016-10-16T09:12:03Z</time>
      </trkpt>
      <trkpt lat="47.21131" lon="4.95786">
        <ele>353.9</ele>
        <time>2016-10-16T09:12:13Z</time>
      </trkpt>
      <trkpt lat="47.21131" lon="4.95785">
        <ele>354.38</ele>
        <time>2016-10-16T09:12:28Z</time>
      </trkpt>
      <trkpt lat="47.21131" lon="4.95784">
        <ele>354.86</ele>
        <time>2016-10-16T09:12:54Z</time>
      </trkpt>
      <trkpt lat="47.21132" lon="4.95784">
        <ele>356.79</ele>
        <time>2016-10-16T09:13:21Z</time>
      </trkpt>
      <trkpt lat="47.2113" lon="4.95786">
        <ele>359.19</ele>
        <time>2016-10-16T09:13:43Z</time>
      </trkpt>
      <trkpt lat="47.21131" lon="4.95786">
        <ele>358.71</ele>
        <time>2016-10-16T09:14:14Z</time>
      </trkpt>
      <trkpt lat="47.2113" lon="4.95787">
        <ele>356.79</ele>
        <time>2016-10-16T09:14:45Z</time>
      </trkpt>
      <trkpt lat="47.21131" lon="4.95786">
        <ele>356.31</ele>
        <time>2016-10-16T09:15:09Z</time>
      </trkpt>
      <trkpt lat="47.21132" lon="4.95785">
        <ele>356.31</ele>
        <time>2016-10-16T09:15:36Z</time>
      </trkpt>
      <trkpt lat="47.21132" lon="4.95786">
        <ele>358.23</ele>
        <time>2016-10-16T09:16:01Z</time>
      </trkpt>
      <trkpt lat="47.21132" lon="4.95784">
        <ele>358.23</ele>
        <time>2016-10-16T09:16:26Z</time>
      </trkpt>
      <trkpt lat="47.21131" lon="4.95785">
        <ele>357.75</ele>
        <time>2016-10-16T09:16:43Z</time>
      </trkpt>
      <trkpt lat="47.21131" lon="4.95786">
        <ele>358.23</ele>
        <time>2016-10-16T09:16:56Z</time>
      </trkpt>
      <trkpt lat="47.21131" lon="4.95787">
        <ele>357.75</ele>
        <time>2016-10-16T09:17:23Z</time>
      </trkpt>
      <trkpt lat="47.21131" lon="4.95788">
        <ele>356.31</ele>
        <time>2016-10-16T09:17:54Z</time>
      </trkpt>
      <trkpt lat="47.21131" lon="4.95789">
        <ele>355.83</ele>
        <time>2016-10-16T09:18:11Z</time>
      </trkpt>
      <trkpt lat="47.2113" lon="4.95788">
        <ele>356.31</ele>
        <time>2016-10-16T09:18:45Z</time>
      </trkpt>
      <trkpt lat="47.2113" lon="4.95788">
        <ele>356.31</ele>
        <time>2016-10-16T09:19:07Z</time>
      </trkpt>
      <trkpt lat="47.2113" lon="4.95787">
        <ele>358.71</ele>
        <time>2016-10-16T09:19:33Z</time>
      </trkpt>
      <trkpt lat="47.2113" lon="4.95787">
        <ele>359.67</ele>
        <time>2016-10-16T09:19:59Z</time>
      </trkpt>
      <trkpt lat="47.21129" lon="4.95788">
        <ele>358.71</ele>
        <time>2016-10-16T09:20:27Z</time>
      </trkpt>
      <trkpt lat="47.21129" lon="4.95789">
        <ele>358.23</ele>
        <time>2016-10-16T09:20:53Z</time>
      </trkpt>
      <trkpt lat="47.2113" lon="4.95788">
        <ele>358.23</ele>
        <time>2016-10-16T09:21:18Z</time>
      </trkpt>
      <trkpt lat="47.21132" lon="4.95788">
        <ele>359.67</ele>
        <time>2016-10-16T09:21:47Z</time>
      </trkpt>
      <trkpt lat="47.21133" lon="4.95788">
        <ele>359.67</ele>
        <time>2016-10-16T09:22:09Z</time>
      </trkpt>
      <trkpt lat="47.21132" lon="4.95789">
        <ele>359.19</ele>
        <time>2016-10-16T09:22:29Z</time>
      </trkpt>
      <trkpt lat="47.21131" lon="4.95787">
        <ele>358.71</ele>
        <time>2016-10-16T09:22:46Z</time>
      </trkpt>
      <trkpt lat="47.21131" lon="4.95786">
        <ele>358.23</ele>
        <time>2016-10-16T09:23:08Z</time>
      </trkpt>
      <trkpt lat="47.2113" lon="4.95787">
        <ele>358.71</ele>
        <time>2016-10-16T09:23:30Z</time>
      </trkpt>
      <trkpt lat="47.2113" lon="4.95787">
        <ele>358.71</ele>
        <time>2016-10-16T09:23:58Z</time>
      </trkpt>
      <trkpt lat="47.21129" lon="4.95789">
        <ele>358.23</ele>
        <time>2016-10-16T09:24:10Z</time>
      </trkpt>
      <trkpt lat="47.21129" lon="4.95788">
        <ele>357.75</ele>
        <time>2016-10-16T09:24:25Z</time>
      </trkpt>
      <trkpt lat="47.21129" lon="4.95788">
        <ele>357.75</ele>
        <time>2016-10-16T09:24:50Z</time>
      </trkpt>
      <trkpt lat="47.21129" lon="4.95788">
        <ele>357.75</ele>
        <time>2016-10-16T09:25:06Z</time>
      </trkpt>
      <trkpt lat="47.21128" lon="4.95787">
        <ele>357.27</ele>
        <time>2016-10-16T09:25:31Z</time>
      </trkpt>
      <trkpt lat="47.21128" lon="4.95787">
        <ele>355.83</ele>
        <time>2016-10-16T09:25:50Z</time>
      </trkpt>
      <trkpt lat="47.21128" lon="4.95787">
        <ele>357.27</ele>
        <time>2016-10-16T09:26:16Z</time>
      </trkpt>
      <trkpt lat="47.2113" lon="4.95786">
        <ele>357.75</ele>
        <time>2016-10-16T09:26:40Z</time>
      </trkpt>
      <trkpt lat="47.2113" lon="4.95787">
        <ele>356.79</ele>
        <time>2016-10-16T09:27:07Z</time>
      </trkpt>
      <trkpt lat="47.2113" lon="4.95787">
        <ele>356.31</ele>
        <time>2016-10-16T09:27:25Z</time>
      </trkpt>
      <trkpt lat="47.2113" lon="4.95787">
        <ele>356.31</ele>
        <time>2016-10-16T09:27:46Z</time>
      </trkpt>
      <trkpt lat="47.2113" lon="4.95786">
        <ele>357.27</ele>
        <time>2016-10-16T09:28:13Z</time>
      </trkpt>
      <trkpt lat="47.21129" lon="4.95785">
        <ele>357.27</ele>
        <time>2016-10-16T09:28:38Z</time>
      </trkpt>
      <trkpt lat="47.21129" lon="4.95785">
        <ele>356.31</ele>
        <time>2016-10-16T09:29:07Z</time>
      </trkpt>
      <trkpt lat="47.21129" lon="4.95786">
        <ele>356.79</ele>
        <time>2016-10-16T09:29:28Z</time>
      </trkpt>
      <trkpt lat="47.21129" lon="4.95788">
        <ele>357.75</ele>
        <time>2016-10-16T09:29:49Z</time>
      </trkpt>
      <trkpt lat="47.2113" lon="4.95788">
        <ele>356.31</ele>
        <time>2016-10-16T09:30:15Z</time>
      </trkpt>
      <trkpt lat="47.21131" lon="4.95789">
        <ele>357.27</ele>
        <time>2016-10-16T09:30:35Z</time>
      </trkpt>
      <trkpt lat="47.21131" lon="4.95788">
        <ele>357.75</ele>
        <time>2016-10-16T09:30:45Z</time>
      </trkpt>
      <trkpt lat="47.21136" lon="4.95795">
        <ele>356.79</ele>
        <time>2016-10-16T09:30:50Z</time>
      </trkpt>
      <trkpt lat="47.21169" lon="4.95844">
        <ele>355.34</ele>
        <time>2016-10-16T09:31:05Z</time>
      </trkpt>
      <trkpt lat="47.21214" lon="4.95909">
        <ele>352.94</ele>
        <time>2016-10-16T09:31:18Z</time>
      </trkpt>
      <trkpt lat="47.21275" lon="4.95999">
        <ele>351.02</ele>
        <time>2016-10-16T09:31:32Z</time>
      </trkpt>
      <trkpt lat="47.2128" lon="4.96005">
        <ele>351.02</ele>
        <time>2016-10-16T09:31:33Z</time>
      </trkpt>
      <trkpt lat="47.21339" lon="4.96075">
        <ele>349.58</ele>
        <time>2016-10-16T09:31:45Z</time>
      </trkpt>
      <trkpt lat="47.2142" lon="4.96138">
        <ele>344.29</ele>
        <time>2016-10-16T09:31:59Z</time>
      </trkpt>
      <trkpt lat="47.21456" lon="4.96165">
        <ele>342.37</ele>
        <time>2016-10-16T09:32:05Z</time>
      </trkpt>
      <trkpt lat="47.21473" lon="4.96176">
        <ele>341.41</ele>
        <time>2016-10-16T09:32:08Z</time>
      </trkpt>
      <trkpt lat="47.21528" lon="4.96205">
        <ele>340.44</ele>
        <time>2016-10-16T09:32:17Z</time>
      </trkpt>
      <trkpt lat="47.21616" lon="4.96234">
        <ele>339.96</ele>
        <time>2016-10-16T09:32:29Z</time>
      </trkpt>
      <trkpt lat="47.21655" lon="4.96251">
        <ele>339.48</ele>
        <time>2016-10-16T09:32:35Z</time>
      </trkpt>
      <trkpt lat="47.21667" lon="4.96257">
        <ele>339</ele>
        <time>2016-10-16T09:32:37Z</time>
      </trkpt>
      <trkpt lat="47.21699" lon="4.9627">
        <ele>339.48</ele>
        <time>2016-10-16T09:32:46Z</time>
      </trkpt>
      <trkpt lat="47.21712" lon="4.96273">
        <ele>340.44</ele>
        <time>2016-10-16T09:32:51Z</time>
      </trkpt>
      <trkpt lat="47.21788" lon="4.96294">
        <ele>332.75</ele>
        <time>2016-10-16T09:33:03Z</time>
      </trkpt>
      <trkpt lat="47.21875" lon="4.96312">
        <ele>326.99</ele>
        <time>2016-10-16T09:33:17Z</time>
      </trkpt>
      <trkpt lat="47.21965" lon="4.96322">
        <ele>323.62</ele>
        <time>2016-10-16T09:33:30Z</time>
      </trkpt>
      <trkpt lat="47.21986" lon="4.96324">
        <ele>322.66</ele>
        <time>2016-10-16T09:33:33Z</time>
      </trkpt>
      <trkpt lat="47.22089" lon="4.96338">
        <ele>318.33</ele>
        <time>2016-10-16T09:33:47Z</time>
      </trkpt>
      <trkpt lat="47.22104" lon="4.96343">
        <ele>317.85</ele>
        <time>2016-10-16T09:33:49Z</time>
      </trkpt>
      <trkpt lat="47.22129" lon="4.96374">
        <ele>315.45</ele>
        <time>2016-10-16T09:33:54Z</time>
      </trkpt>
      <trkpt lat="47.22155" lon="4.96464">
        <ele>305.36</ele>
        <time>2016-10-16T09:34:03Z</time>
      </trkpt>
      <trkpt lat="47.22166" lon="4.96466">
        <ele>304.39</ele>
        <time>2016-10-16T09:34:09Z</time>
      </trkpt>
      <trkpt lat="47.22189" lon="4.96451">
        <ele>305.36</ele>
        <time>2016-10-16T09:34:22Z</time>
      </trkpt>
      <trkpt lat="47.22232" lon="4.96432">
        <ele>303.43</ele>
        <time>2016-10-16T09:34:36Z</time>
      </trkpt>
      <trkpt lat="47.22236" lon="4.9643">
        <ele>302.95</ele>
        <time>2016-10-16T09:34:37Z</time>
      </trkpt>
      <trkpt lat="47.22299" lon="4.96361">
        <ele>300.07</ele>
        <time>2016-10-16T09:34:49Z</time>
      </trkpt>
      <trkpt lat="47.22344" lon="4.96276">
        <ele>298.15</ele>
        <time>2016-10-16T09:34:59Z</time>
      </trkpt>
      <trkpt lat="47.22359" lon="4.96222">
        <ele>300.07</ele>
        <time>2016-10-16T09:35:05Z</time>
      </trkpt>
      <trkpt lat="47.22363" lon="4.9616">
        <ele>302.95</ele>
        <time>2016-10-16T09:35:18Z</time>
      </trkpt>
      <trkpt lat="47.22364" lon="4.96097">
        <ele>303.43</ele>
        <time>2016-10-16T09:35:32Z</time>
      </trkpt>
      <trkpt lat="47.22366" lon="4.96055">
        <ele>303.91</ele>
        <time>2016-10-16T09:35:42Z</time>
      </trkpt>
      <trkpt lat="47.2239" lon="4.9602">
        <ele>303.43</ele>
        <time>2016-10-16T09:35:56Z</time>
      </trkpt>
      <trkpt lat="47.22394" lon="4.96018">
        <ele>302.47</ele>
        <time>2016-10-16T09:36:10Z</time>
      </trkpt>
      <trkpt lat="47.22394" lon="4.96018">
        <ele>303.43</ele>
        <time>2016-10-16T09:36:30Z</time>
      </trkpt>
      <trkpt lat="47.22394" lon="4.96018">
        <ele>304.39</ele>
        <time>2016-10-16T09:36:56Z</time>
      </trkpt>
      <trkpt lat="47.22399" lon="4.96015">
        <ele>303.91</ele>
        <time>2016-10-16T09:37:23Z</time>
      </trkpt>
      <trkpt lat="47.22448" lon="4.96004">
        <ele>302.47</ele>
        <time>2016-10-16T09:37:34Z</time>
      </trkpt>
      <trkpt lat="47.22453" lon="4.96005">
        <ele>301.99</ele>
        <time>2016-10-16T09:37:35Z</time>
      </trkpt>
      <trkpt lat="47.22464" lon="4.96008">
        <ele>301.51</ele>
        <time>2016-10-16T09:37:37Z</time>
      </trkpt>
      <trkpt lat="47.2252" lon="4.9607">
        <ele>298.63</ele>
        <time>2016-10-16T09:37:50Z</time>
      </trkpt>
      <trkpt lat="47.22569" lon="4.96132">
        <ele>295.26</ele>
        <time>2016-10-16T09:38:02Z</time>
      </trkpt>
      <trkpt lat="47.22604" lon="4.96186">
        <ele>294.3</ele>
        <time>2016-10-16T09:38:12Z</time>
      </trkpt>
      <trkpt lat="47.22613" lon="4.96205">
        <ele>293.82</ele>
        <time>2016-10-16T09:38:15Z</time>
      </trkpt>
      <trkpt lat="47.22625" lon="4.96242">
        <ele>292.86</ele>
        <time>2016-10-16T09:38:20Z</time>
      </trkpt>
      <trkpt lat="47.2267" lon="4.96271">
        <ele>295.26</ele>
        <time>2016-10-16T09:38:30Z</time>
      </trkpt>
      <trkpt lat="47.22691" lon="4.96288">
        <ele>296.22</ele>
        <time>2016-10-16T09:38:35Z</time>
      </trkpt>
      <trkpt lat="47.22702" lon="4.96299">
        <ele>296.7</ele>
        <time>2016-10-16T09:38:38Z</time>
      </trkpt>
      <trkpt lat="47.2272" lon="4.96296">
        <ele>297.67</ele>
        <time>2016-10-16T09:38:43Z</time>
      </trkpt>
      <trkpt lat="47.22729" lon="4.96285">
        <ele>298.15</ele>
        <time>2016-10-16T09:38:46Z</time>
      </trkpt>
      <trkpt lat="47.22746" lon="4.96295">
        <ele>299.11</ele>
        <time>2016-10-16T09:38:51Z</time>
      </trkpt>
      <trkpt lat="47.22796" lon="4.96342">
        <ele>299.59</ele>
        <time>2016-10-16T09:39:04Z</time>
      </trkpt>
      <trkpt lat="47.22825" lon="4.9637">
        <ele>300.55</ele>
        <time>2016-10-16T09:39:11Z</time>
      </trkpt>
      <trkpt lat="47.22869" lon="4.96415">
        <ele>304.39</ele>
        <time>2016-10-16T09:39:25Z</time>
      </trkpt>
      <trkpt lat="47.22887" lon="4.96438">
        <ele>305.36</ele>
        <time>2016-10-16T09:39:31Z</time>
      </trkpt>
      <trkpt lat="47.22915" lon="4.96473">
        <ele>304.88</ele>
        <time>2016-10-16T09:39:38Z</time>
      </trkpt>
      <trkpt lat="47.22932" lon="4.96483">
        <ele>304.88</ele>
        <time>2016-10-16T09:39:42Z</time>
      </trkpt>
      <trkpt lat="47.2296" lon="4.96477">
        <ele>305.84</ele>
        <time>2016-10-16T09:39:48Z</time>
      </trkpt>
      <trkpt lat="47.23008" lon="4.96493">
        <ele>309.2</ele>
        <time>2016-10-16T09:40:02Z</time>
      </trkpt>
      <trkpt lat="47.23056" lon="4.96523">
        <ele>310.64</ele>
        <time>2016-10-16T09:40:16Z</time>
      </trkpt>
      <trkpt lat="47.23088" lon="4.96513">
        <ele>313.53</ele>
        <time>2016-10-16T09:40:26Z</time>
      </trkpt>
      <trkpt lat="47.23115" lon="4.96482">
        <ele>314.01</ele>
        <time>2016-10-16T09:40:38Z</time>
      </trkpt>
      <trkpt lat="47.23136" lon="4.96438">
        <ele>315.45</ele>
        <time>2016-10-16T09:40:51Z</time>
      </trkpt>
      <trkpt lat="47.23186" lon="4.9646">
        <ele>316.89</ele>
        <time>2016-10-16T09:41:07Z</time>
      </trkpt>
      <trkpt lat="47.23233" lon="4.96477">
        <ele>317.85</ele>
        <time>2016-10-16T09:41:20Z</time>
      </trkpt>
      <trkpt lat="47.23284" lon="4.965">
        <ele>318.81</ele>
        <time>2016-10-16T09:41:36Z</time>
      </trkpt>
      <trkpt lat="47.23323" lon="4.96516">
        <ele>318.33</ele>
        <time>2016-10-16T09:41:47Z</time>
      </trkpt>
      <trkpt lat="47.23335" lon="4.96524">
        <ele>318.33</ele>
        <time>2016-10-16T09:41:50Z</time>
      </trkpt>
      <trkpt lat="47.23389" lon="4.96539">
        <ele>320.26</ele>
        <time>2016-10-16T09:42:04Z</time>
      </trkpt>
      <trkpt lat="47.23438" lon="4.96554">
        <ele>322.18</ele>
        <time>2016-10-16T09:42:18Z</time>
      </trkpt>
      <trkpt lat="47.2349" lon="4.96551">
        <ele>324.1</ele>
        <time>2016-10-16T09:42:33Z</time>
      </trkpt>
      <trkpt lat="47.2353" lon="4.96561">
        <ele>325.06</ele>
        <time>2016-10-16T09:42:44Z</time>
      </trkpt>
      <trkpt lat="47.23585" lon="4.96591">
        <ele>323.62</ele>
        <time>2016-10-16T09:42:56Z</time>
      </trkpt>
      <trkpt lat="47.23617" lon="4.96612">
        <ele>322.18</ele>
        <time>2016-10-16T09:43:02Z</time>
      </trkpt>
      <trkpt lat="47.23635" lon="4.96619">
        <ele>321.7</ele>
        <time>2016-10-16T09:43:05Z</time>
      </trkpt>
      <trkpt lat="47.237" lon="4.96642">
        <ele>320.74</ele>
        <time>2016-10-16T09:43:17Z</time>
      </trkpt>
      <trkpt lat="47.2371" lon="4.96644">
        <ele>320.74</ele>
        <time>2016-10-16T09:43:19Z</time>
      </trkpt>
      <trkpt lat="47.23734" lon="4.96659">
        <ele>318.33</ele>
        <time>2016-10-16T09:43:28Z</time>
      </trkpt>
      <trkpt lat="47.23736" lon="4.96665">
        <ele>317.85</ele>
        <time>2016-10-16T09:43:46Z</time>
      </trkpt>
      <trkpt lat="47.2373" lon="4.96709">
        <ele>314.97</ele>
        <time>2016-10-16T09:43:55Z</time>
      </trkpt>
      <trkpt lat="47.23737" lon="4.96717">
        <ele>314.01</ele>
        <time>2016-10-16T09:44:00Z</time>
      </trkpt>
      <trkpt lat="47.23761" lon="4.9673">
        <ele>312.09</ele>
        <time>2016-10-16T09:44:10Z</time>
      </trkpt>
      <trkpt lat="47.23768" lon="4.96735">
        <ele>311.6</ele>
        <time>2016-10-16T09:44:13Z</time>
      </trkpt>
      <trkpt lat="47.23771" lon="4.96748">
        <ele>311.12</ele>
        <time>2016-10-16T09:44:17Z</time>
      </trkpt>
      <trkpt lat="47.23771" lon="4.96769">
        <ele>310.16</ele>
        <time>2016-10-16T09:44:23Z</time>
      </trkpt>
      <trkpt lat="47.23785" lon="4.96774">
        <ele>309.68</ele>
        <time>2016-10-16T09:44:29Z</time>
      </trkpt>
      <trkpt lat="47.23836" lon="4.96787">
        <ele>307.28</ele>
        <time>2016-10-16T09:44:42Z</time>
      </trkpt>
      <trkpt lat="47.23847" lon="4.96794">
        <ele>305.36</ele>
        <time>2016-10-16T09:44:47Z</time>
      </trkpt>
      <trkpt lat="47.2386" lon="4.96793">
        <ele>304.88</ele>
        <time>2016-10-16T09:44:51Z</time>
      </trkpt>
      <trkpt lat="47.23892" lon="4.96778">
        <ele>307.28</ele>
        <time>2016-10-16T09:44:59Z</time>
      </trkpt>
      <trkpt lat="47.23911" lon="4.96779">
        <ele>310.64</ele>
        <time>2016-10-16T09:45:04Z</time>
      </trkpt>
      <trkpt lat="47.23929" lon="4.96769">
        <ele>313.53</ele>
        <time>2016-10-16T09:45:12Z</time>
      </trkpt>
      <trkpt lat="47.23957" lon="4.96773">
        <ele>315.45</ele>
        <time>2016-10-16T09:45:23Z</time>
      </trkpt>
      <trkpt lat="47.23997" lon="4.96781">
        <ele>315.93</ele>
        <time>2016-10-16T09:45:36Z</time>
      </trkpt>
      <trkpt lat="47.2403" lon="4.96789">
        <ele>314.49</ele>
        <time>2016-10-16T09:45:48Z</time>
      </trkpt>
      <trkpt lat="47.2406" lon="4.96811">
        <ele>311.6</ele>
        <time>2016-10-16T09:45:57Z</time>
      </trkpt>
      <trkpt lat="47.24063" lon="4.96819">
        <ele>311.12</ele>
        <time>2016-10-16T09:45:59Z</time>
      </trkpt>
      <trkpt lat="47.2409" lon="4.96833">
        <ele>309.2</ele>
        <time>2016-10-16T09:46:08Z</time>
      </trkpt>
      <trkpt lat="47.2409" lon="4.96854">
        <ele>308.72</ele>
        <time>2016-10-16T09:46:13Z</time>
      </trkpt>
      <trkpt lat="47.2408" lon="4.96922">
        <ele>306.32</ele>
        <time>2016-10-16T09:46:24Z</time>
      </trkpt>
      <trkpt lat="47.2409" lon="4.96928">
        <ele>304.88</ele>
        <time>2016-10-16T09:46:28Z</time>
      </trkpt>
      <trkpt lat="47.24098" lon="4.96928">
        <ele>304.88</ele>
        <time>2016-10-16T09:46:30Z</time>
      </trkpt>
      <trkpt lat="47.24151" lon="4.96941">
        <ele>303.43</ele>
        <time>2016-10-16T09:46:42Z</time>
      </trkpt>
      <trkpt lat="47.24157" lon="4.96981">
        <ele>302.47</ele>
        <time>2016-10-16T09:46:49Z</time>
      </trkpt>
      <trkpt lat="47.24146" lon="4.97071">
        <ele>299.59</ele>
        <time>2016-10-16T09:46:59Z</time>
      </trkpt>
      <trkpt lat="47.24158" lon="4.9707">
        <ele>300.07</ele>
        <time>2016-10-16T09:47:04Z</time>
      </trkpt>
      <trkpt lat="47.2417" lon="4.97063">
        <ele>300.07</ele>
        <time>2016-10-16T09:47:07Z</time>
      </trkpt>
      <trkpt lat="47.24178" lon="4.9706">
        <ele>300.55</ele>
        <time>2016-10-16T09:47:09Z</time>
      </trkpt>
      <trkpt lat="47.24186" lon="4.97058">
        <ele>300.55</ele>
        <time>2016-10-16T09:47:11Z</time>
      </trkpt>
      <trkpt lat="47.24251" lon="4.97061">
        <ele>304.39</ele>
        <time>2016-10-16T09:47:27Z</time>
      </trkpt>
      <trkpt lat="47.24308" lon="4.97038">
        <ele>306.32</ele>
        <time>2016-10-16T09:47:42Z</time>
      </trkpt>
      <trkpt lat="47.24335" lon="4.96997">
        <ele>307.76</ele>
        <time>2016-10-16T09:47:54Z</time>
      </trkpt>
      <trkpt lat="47.24379" lon="4.96966">
        <ele>306.8</ele>
        <time>2016-10-16T09:48:09Z</time>
      </trkpt>
      <trkpt lat="47.24419" lon="4.96941">
        <ele>306.8</ele>
        <time>2016-10-16T09:48:22Z</time>
      </trkpt>
      <trkpt lat="47.24442" lon="4.96943">
        <ele>306.32</ele>
        <time>2016-10-16T09:48:36Z</time>
      </trkpt>
      <trkpt lat="47.24447" lon="4.96946">
        <ele>306.8</ele>
        <time>2016-10-16T09:48:47Z</time>
      </trkpt>
      <trkpt lat="47.2445" lon="4.96948">
        <ele>306.32</ele>
        <time>2016-10-16T09:48:52Z</time>
      </trkpt>
      <trkpt lat="47.24451" lon="4.96957">
        <ele>306.32</ele>
        <time>2016-10-16T09:48:56Z</time>
      </trkpt>
      <trkpt lat="47.24451" lon="4.96964">
        <ele>305.84</ele>
        <time>2016-10-16T09:48:58Z</time>
      </trkpt>
      <trkpt lat="47.24464" lon="4.96971">
        <ele>306.8</ele>
        <time>2016-10-16T09:49:04Z</time>
      </trkpt>
      <trkpt lat="47.24503" lon="4.96974">
        <ele>310.16</ele>
        <time>2016-10-16T09:49:17Z</time>
      </trkpt>
      <trkpt lat="47.24539" lon="4.96992">
        <ele>311.6</ele>
        <time>2016-10-16T09:49:29Z</time>
      </trkpt>
      <trkpt lat="47.24542" lon="4.96992">
        <ele>311.6</ele>
        <time>2016-10-16T09:49:30Z</time>
      </trkpt>
      <trkpt lat="47.24565" lon="4.97007">
        <ele>311.12</ele>
        <time>2016-10-16T09:49:37Z</time>
      </trkpt>
      <trkpt lat="47.24583" lon="4.96986">
        <ele>312.09</ele>
        <time>2016-10-16T09:49:45Z</time>
      </trkpt>
      <trkpt lat="47.24603" lon="4.96934">
        <ele>316.41</ele>
        <time>2016-10-16T09:49:59Z</time>
      </trkpt>
      <trkpt lat="47.24616" lon="4.96894">
        <ele>319.3</ele>
        <time>2016-10-16T09:50:09Z</time>
      </trkpt>
      <trkpt lat="47.24625" lon="4.96888">
        <ele>319.78</ele>
        <time>2016-10-16T09:50:13Z</time>
      </trkpt>
      <trkpt lat="47.24653" lon="4.96871">
        <ele>322.18</ele>
        <time>2016-10-16T09:50:24Z</time>
      </trkpt>
      <trkpt lat="47.247" lon="4.96882">
        <ele>317.37</ele>
        <time>2016-10-16T09:50:32Z</time>
      </trkpt>
      <trkpt lat="47.24723" lon="4.96908">
        <ele>315.45</ele>
        <time>2016-10-16T09:50:36Z</time>
      </trkpt>
      <trkpt lat="47.24789" lon="4.96947">
        <ele>316.41</ele>
        <time>2016-10-16T09:50:47Z</time>
      </trkpt>
      <trkpt lat="47.24799" lon="4.96952">
        <ele>316.89</ele>
        <time>2016-10-16T09:50:49Z</time>
      </trkpt>
      <trkpt lat="47.24809" lon="4.96956">
        <ele>316.89</ele>
        <time>2016-10-16T09:50:51Z</time>
      </trkpt>
      <trkpt lat="47.24877" lon="4.96999">
        <ele>318.81</ele>
        <time>2016-10-16T09:51:07Z</time>
      </trkpt>
      <trkpt lat="47.24927" lon="4.97023">
        <ele>320.26</ele>
        <time>2016-10-16T09:51:22Z</time>
      </trkpt>
      <trkpt lat="47.24988" lon="4.97034">
        <ele>321.7</ele>
        <time>2016-10-16T09:51:39Z</time>
      </trkpt>
      <trkpt lat="47.25002" lon="4.97038">
        <ele>321.7</ele>
        <time>2016-10-16T09:51:44Z</time>
      </trkpt>
      <trkpt lat="47.25008" lon="4.97105">
        <ele>318.81</ele>
        <time>2016-10-16T09:51:54Z</time>
      </trkpt>
      <trkpt lat="47.25031" lon="4.97119">
        <ele>318.33</ele>
        <time>2016-10-16T09:52:01Z</time>
      </trkpt>
      <trkpt lat="47.25057" lon="4.97114">
        <ele>319.3</ele>
        <time>2016-10-16T09:52:07Z</time>
      </trkpt>
      <trkpt lat="47.25131" lon="4.97066">
        <ele>319.78</ele>
        <time>2016-10-16T09:52:23Z</time>
      </trkpt>
      <trkpt lat="47.25183" lon="4.97032">
        <ele>318.33</ele>
        <time>2016-10-16T09:52:33Z</time>
      </trkpt>
      <trkpt lat="47.25209" lon="4.97026">
        <ele>317.37</ele>
        <time>2016-10-16T09:52:38Z</time>
      </trkpt>
      <trkpt lat="47.25241" lon="4.97033">
        <ele>317.85</ele>
        <time>2016-10-16T09:52:45Z</time>
      </trkpt>
      <trkpt lat="47.25286" lon="4.9703">
        <ele>319.3</ele>
        <time>2016-10-16T09:52:54Z</time>
      </trkpt>
      <trkpt lat="47.253" lon="4.97028">
        <ele>320.26</ele>
        <time>2016-10-16T09:52:57Z</time>
      </trkpt>
      <trkpt lat="47.25341" lon="4.97037">
        <ele>324.1</ele>
        <time>2016-10-16T09:53:09Z</time>
      </trkpt>
      <trkpt lat="47.25361" lon="4.97085">
        <ele>324.1</ele>
        <time>2016-10-16T09:53:19Z</time>
      </trkpt>
      <trkpt lat="47.25383" lon="4.97153">
        <ele>322.18</ele>
        <time>2016-10-16T09:53:28Z</time>
      </trkpt>
      <trkpt lat="47.25396" lon="4.97172">
        <ele>321.7</ele>
        <time>2016-10-16T09:53:32Z</time>
      </trkpt>
      <trkpt lat="47.25404" lon="4.97186">
        <ele>321.22</ele>
        <time>2016-10-16T09:53:35Z</time>
      </trkpt>
      <trkpt lat="47.25418" lon="4.97202">
        <ele>321.22</ele>
        <time>2016-10-16T09:53:39Z</time>
      </trkpt>
      <trkpt lat="47.25426" lon="4.97229">
        <ele>319.78</ele>
        <time>2016-10-16T09:53:44Z</time>
      </trkpt>
      <trkpt lat="47.25422" lon="4.97245">
        <ele>318.81</ele>
        <time>2016-10-16T09:53:46Z</time>
      </trkpt>
      <trkpt lat="47.25415" lon="4.97271">
        <ele>316.89</ele>
        <time>2016-10-16T09:53:49Z</time>
      </trkpt>
      <trkpt lat="47.25413" lon="4.97319">
        <ele>314.49</ele>
        <time>2016-10-16T09:53:54Z</time>
      </trkpt>
      <trkpt lat="47.25423" lon="4.97342">
        <ele>313.05</ele>
        <time>2016-10-16T09:53:58Z</time>
      </trkpt>
      <trkpt lat="47.25439" lon="4.97363">
        <ele>313.05</ele>
        <time>2016-10-16T09:54:03Z</time>
      </trkpt>
      <trkpt lat="47.25457" lon="4.97383">
        <ele>313.53</ele>
        <time>2016-10-16T09:54:08Z</time>
      </trkpt>
      <trkpt lat="47.25511" lon="4.97423">
        <ele>314.01</ele>
        <time>2016-10-16T09:54:19Z</time>
      </trkpt>
      <trkpt lat="47.25539" lon="4.97468">
        <ele>312.57</ele>
        <time>2016-10-16T09:54:26Z</time>
      </trkpt>
      <trkpt lat="47.25591" lon="4.97507">
        <ele>312.57</ele>
        <time>2016-10-16T09:54:35Z</time>
      </trkpt>
      <trkpt lat="47.25616" lon="4.97516">
        <ele>313.05</ele>
        <time>2016-10-16T09:54:39Z</time>
      </trkpt>
      <trkpt lat="47.25693" lon="4.97528">
        <ele>314.01</ele>
        <time>2016-10-16T09:54:52Z</time>
      </trkpt>
      <trkpt lat="47.25789" lon="4.97562">
        <ele>311.12</ele>
        <time>2016-10-16T09:55:07Z</time>
      </trkpt>
      <trkpt lat="47.25876" lon="4.97598">
        <ele>309.68</ele>
        <time>2016-10-16T09:55:21Z</time>
      </trkpt>
      <trkpt lat="47.25905" lon="4.97608">
        <ele>309.68</ele>
        <time>2016-10-16T09:55:26Z</time>
      </trkpt>
      <trkpt lat="47.2593" lon="4.97603">
        <ele>309.2</ele>
        <time>2016-10-16T09:55:30Z</time>
      </trkpt>
      <trkpt lat="47.26003" lon="4.97608">
        <ele>309.68</ele>
        <time>2016-10-16T09:55:41Z</time>
      </trkpt>
      <trkpt lat="47.26065" lon="4.97623">
        <ele>309.68</ele>
        <time>2016-10-16T09:55:53Z</time>
      </trkpt>
      <trkpt lat="47.2609" lon="4.97635">
        <ele>309.68</ele>
        <time>2016-10-16T09:55:58Z</time>
      </trkpt>
      <trkpt lat="47.26124" lon="4.97651">
        <ele>311.12</ele>
        <time>2016-10-16T09:56:05Z</time>
      </trkpt>
      <trkpt lat="47.26139" lon="4.97656">
        <ele>311.6</ele>
        <time>2016-10-16T09:56:08Z</time>
      </trkpt>
      <trkpt lat="47.26154" lon="4.97664">
        <ele>312.09</ele>
        <time>2016-10-16T09:56:12Z</time>
      </trkpt>
      <trkpt lat="47.26162" lon="4.97666">
        <ele>312.09</ele>
        <time>2016-10-16T09:56:14Z</time>
      </trkpt>
      <trkpt lat="47.26171" lon="4.97667">
        <ele>312.09</ele>
        <time>2016-10-16T09:56:16Z</time>
      </trkpt>
      <trkpt lat="47.26191" lon="4.97669">
        <ele>312.57</ele>
        <time>2016-10-16T09:56:20Z</time>
      </trkpt>
      <trkpt lat="47.26257" lon="4.97683">
        <ele>312.57</ele>
        <time>2016-10-16T09:56:32Z</time>
      </trkpt>
      <trkpt lat="47.26334" lon="4.97691">
        <ele>311.12</ele>
        <time>2016-10-16T09:56:46Z</time>
      </trkpt>
      <trkpt lat="47.26408" lon="4.97718">
        <ele>306.8</ele>
        <time>2016-10-16T09:56:58Z</time>
      </trkpt>
      <trkpt lat="47.26422" lon="4.97753">
        <ele>304.88</ele>
        <time>2016-10-16T09:57:03Z</time>
      </trkpt>
      <trkpt lat="47.26409" lon="4.97821">
        <ele>301.99</ele>
        <time>2016-10-16T09:57:10Z</time>
      </trkpt>
      <trkpt lat="47.26416" lon="4.97844">
        <ele>301.03</ele>
        <time>2016-10-16T09:57:15Z</time>
      </trkpt>
      <trkpt lat="47.26479" lon="4.97863">
        <ele>301.51</ele>
        <time>2016-10-16T09:57:29Z</time>
      </trkpt>
      <trkpt lat="47.265" lon="4.97875">
        <ele>301.99</ele>
        <time>2016-10-16T09:57:34Z</time>
      </trkpt>
      <trkpt lat="47.26567" lon="4.97895">
        <ele>302.47</ele>
        <time>2016-10-16T09:57:47Z</time>
      </trkpt>
      <trkpt lat="47.26629" lon="4.97914">
        <ele>304.88</ele>
        <time>2016-10-16T09:58:00Z</time>
      </trkpt>
      <trkpt lat="47.26693" lon="4.97947">
        <ele>304.88</ele>
        <time>2016-10-16T09:58:16Z</time>
      </trkpt>
      <trkpt lat="47.26748" lon="4.97978">
        <ele>303.43</ele>
        <time>2016-10-16T09:58:27Z</time>
      </trkpt>
      <trkpt lat="47.26752" lon="4.98019">
        <ele>301.03</ele>
        <time>2016-10-16T09:58:33Z</time>
      </trkpt>
      <trkpt lat="47.26754" lon="4.98044">
        <ele>299.11</ele>
        <time>2016-10-16T09:58:39Z</time>
      </trkpt>
      <trkpt lat="47.26757" lon="4.98045">
        <ele>299.11</ele>
        <time>2016-10-16T09:58:40Z</time>
      </trkpt>
      <trkpt lat="47.26799" lon="4.98064">
        <ele>299.11</ele>
        <time>2016-10-16T09:58:49Z</time>
      </trkpt>
      <trkpt lat="47.26866" lon="4.98095">
        <ele>299.59</ele>
        <time>2016-10-16T09:59:03Z</time>
      </trkpt>
      <trkpt lat="47.26871" lon="4.98082">
        <ele>300.55</ele>
        <time>2016-10-16T09:59:07Z</time>
      </trkpt>
      <trkpt lat="47.26874" lon="4.98066">
        <ele>300.55</ele>
        <time>2016-10-16T09:59:11Z</time>
      </trkpt>
      <trkpt lat="47.26889" lon="4.98003">
        <ele>303.43</ele>
        <time>2016-10-16T09:59:25Z</time>
      </trkpt>
      <trkpt lat="47.26897" lon="4.97946">
        <ele>306.32</ele>
        <time>2016-10-16T09:59:40Z</time>
      </trkpt>
      <trkpt lat="47.26902" lon="4.97881">
        <ele>310.16</ele>
        <time>2016-10-16T09:59:57Z</time>
      </trkpt>
      <trkpt lat="47.26901" lon="4.97862">
        <ele>310.64</ele>
        <time>2016-10-16T10:00:02Z</time>
      </trkpt>
      <trkpt lat="47.26907" lon="4.97856">
        <ele>311.12</ele>
        <time>2016-10-16T10:00:06Z</time>
      </trkpt>
      <trkpt lat="47.26954" lon="4.97875">
        <ele>312.09</ele>
        <time>2016-10-16T10:00:21Z</time>
      </trkpt>
      <trkpt lat="47.26992" lon="4.9789">
        <ele>312.57</ele>
        <time>2016-10-16T10:00:32Z</time>
      </trkpt>
      <trkpt lat="47.27004" lon="4.97901">
        <ele>312.57</ele>
        <time>2016-10-16T10:00:36Z</time>
      </trkpt>
      <trkpt lat="47.27022" lon="4.97933">
        <ele>310.64</ele>
        <time>2016-10-16T10:00:42Z</time>
      </trkpt>
      <trkpt lat="47.27037" lon="4.97944">
        <ele>310.16</ele>
        <time>2016-10-16T10:00:45Z</time>
      </trkpt>
      <trkpt lat="47.2705" lon="4.9796">
        <ele>309.2</ele>
        <time>2016-10-16T10:00:48Z</time>
      </trkpt>
      <trkpt lat="47.2709" lon="4.97972">
        <ele>309.2</ele>
        <time>2016-10-16T10:00:57Z</time>
      </trkpt>
      <trkpt lat="47.27114" lon="4.97965">
        <ele>309.68</ele>
        <time>2016-10-16T10:01:03Z</time>
      </trkpt>
      <trkpt lat="47.27126" lon="4.97967">
        <ele>310.16</ele>
        <time>2016-10-16T10:01:06Z</time>
      </trkpt>
      <trkpt lat="47.27152" lon="4.97978">
        <ele>310.16</ele>
        <time>2016-10-16T10:01:12Z</time>
      </trkpt>
      <trkpt lat="47.2717" lon="4.9799">
        <ele>310.16</ele>
        <time>2016-10-16T10:01:17Z</time>
      </trkpt>
      <trkpt lat="47.27196" lon="4.97998">
        <ele>310.16</ele>
        <time>2016-10-16T10:01:23Z</time>
      </trkpt>
      <trkpt lat="47.27215" lon="4.98">
        <ele>309.68</ele>
        <time>2016-10-16T10:01:27Z</time>
      </trkpt>
      <trkpt lat="47.27259" lon="4.98023">
        <ele>312.09</ele>
        <time>2016-10-16T10:01:39Z</time>
      </trkpt>
      <trkpt lat="47.27263" lon="4.98026">
        <ele>312.09</ele>
        <time>2016-10-16T10:01:40Z</time>
      </trkpt>
      <trkpt lat="47.27291" lon="4.98035">
        <ele>310.64</ele>
        <time>2016-10-16T10:01:46Z</time>
      </trkpt>
      <trkpt lat="47.27307" lon="4.98043">
        <ele>310.64</ele>
        <time>2016-10-16T10:01:49Z</time>
      </trkpt>
      <trkpt lat="47.27317" lon="4.9805">
        <ele>310.64</ele>
        <time>2016-10-16T10:01:51Z</time>
      </trkpt>
      <trkpt lat="47.2737" lon="4.98086">
        <ele>310.64</ele>
        <time>2016-10-16T10:02:03Z</time>
      </trkpt>
      <trkpt lat="47.27377" lon="4.98123">
        <ele>308.24</ele>
        <time>2016-10-16T10:02:09Z</time>
      </trkpt>
      <trkpt lat="47.27365" lon="4.98152">
        <ele>305.36</ele>
        <time>2016-10-16T10:02:13Z</time>
      </trkpt>
      <trkpt lat="47.27384" lon="4.98166">
        <ele>304.39</ele>
        <time>2016-10-16T10:02:20Z</time>
      </trkpt>
      <trkpt lat="47.27394" lon="4.98168">
        <ele>304.39</ele>
        <time>2016-10-16T10:02:23Z</time>
      </trkpt>
      <trkpt lat="47.27441" lon="4.98182">
        <ele>304.88</ele>
        <time>2016-10-16T10:02:38Z</time>
      </trkpt>
      <trkpt lat="47.27459" lon="4.98203">
        <ele>303.91</ele>
        <time>2016-10-16T10:02:44Z</time>
      </trkpt>
      <trkpt lat="47.27476" lon="4.98212">
        <ele>301.99</ele>
        <time>2016-10-16T10:02:48Z</time>
      </trkpt>
      <trkpt lat="47.27499" lon="4.98214">
        <ele>301.03</ele>
        <time>2016-10-16T10:02:52Z</time>
      </trkpt>
      <trkpt lat="47.27533" lon="4.98209">
        <ele>300.55</ele>
        <time>2016-10-16T10:02:58Z</time>
      </trkpt>
      <trkpt lat="47.27556" lon="4.98218">
        <ele>300.07</ele>
        <time>2016-10-16T10:03:02Z</time>
      </trkpt>
      <trkpt lat="47.27598" lon="4.98237">
        <ele>298.63</ele>
        <time>2016-10-16T10:03:09Z</time>
      </trkpt>
      <trkpt lat="47.27612" lon="4.98244">
        <ele>298.15</ele>
        <time>2016-10-16T10:03:12Z</time>
      </trkpt>
      <trkpt lat="47.27662" lon="4.98274">
        <ele>300.07</ele>
        <time>2016-10-16T10:03:27Z</time>
      </trkpt>
      <trkpt lat="47.27682" lon="4.98289">
        <ele>298.63</ele>
        <time>2016-10-16T10:03:38Z</time>
      </trkpt>
      <trkpt lat="47.27683" lon="4.98289">
        <ele>300.07</ele>
        <time>2016-10-16T10:03:57Z</time>
      </trkpt>
      <trkpt lat="47.27684" lon="4.98289">
        <ele>300.07</ele>
        <time>2016-10-16T10:04:15Z</time>
      </trkpt>
      <trkpt lat="47.27683" lon="4.98289">
        <ele>300.07</ele>
        <time>2016-10-16T10:04:34Z</time>
      </trkpt>
      <trkpt lat="47.27683" lon="4.98288">
        <ele>298.63</ele>
        <time>2016-10-16T10:05:01Z</time>
      </trkpt>
      <trkpt lat="47.27683" lon="4.98289">
        <ele>299.11</ele>
        <time>2016-10-16T10:05:25Z</time>
      </trkpt>
      <trkpt lat="47.27683" lon="4.98289">
        <ele>299.11</ele>
        <time>2016-10-16T10:05:37Z</time>
      </trkpt>
      <trkpt lat="47.27687" lon="4.983">
        <ele>298.15</ele>
        <time>2016-10-16T10:05:41Z</time>
      </trkpt>
      <trkpt lat="47.27696" lon="4.98328">
        <ele>296.22</ele>
        <time>2016-10-16T10:05:46Z</time>
      </trkpt>
      <trkpt lat="47.2772" lon="4.98381">
        <ele>292.86</ele>
        <time>2016-10-16T10:05:58Z</time>
      </trkpt>
      <trkpt lat="47.27747" lon="4.98419">
        <ele>293.82</ele>
        <time>2016-10-16T10:06:13Z</time>
      </trkpt>
      <trkpt lat="47.27792" lon="4.98479">
        <ele>292.38</ele>
        <time>2016-10-16T10:06:31Z</time>
      </trkpt>
      <trkpt lat="47.27786" lon="4.98493">
        <ele>291.42</ele>
        <time>2016-10-16T10:06:36Z</time>
      </trkpt>
      <trkpt lat="47.27778" lon="4.98504">
        <ele>290.46</ele>
        <time>2016-10-16T10:06:39Z</time>
      </trkpt>
      <trkpt lat="47.27787" lon="4.98522">
        <ele>289.97</ele>
        <time>2016-10-16T10:06:44Z</time>
      </trkpt>
      <trkpt lat="47.27805" lon="4.98532">
        <ele>290.94</ele>
        <time>2016-10-16T10:06:49Z</time>
      </trkpt>
      <trkpt lat="47.27862" lon="4.98546">
        <ele>292.86</ele>
        <time>2016-10-16T10:07:01Z</time>
      </trkpt>
      <trkpt lat="47.27943" lon="4.98578">
        <ele>295.26</ele>
        <time>2016-10-16T10:07:19Z</time>
      </trkpt>
      <trkpt lat="47.2796" lon="4.98592">
        <ele>294.78</ele>
        <time>2016-10-16T10:07:23Z</time>
      </trkpt>
      <trkpt lat="47.27992" lon="4.98662">
        <ele>293.34</ele>
        <time>2016-10-16T10:07:33Z</time>
      </trkpt>
      <trkpt lat="47.27996" lon="4.98768">
        <ele>292.38</ele>
        <time>2016-10-16T10:07:45Z</time>
      </trkpt>
      <trkpt lat="47.28008" lon="4.98812">
        <ele>291.9</ele>
        <time>2016-10-16T10:07:54Z</time>
      </trkpt>
      <trkpt lat="47.28047" lon="4.98891">
        <ele>289.49</ele>
        <time>2016-10-16T10:08:07Z</time>
      </trkpt>
      <trkpt lat="47.28079" lon="4.98938">
        <ele>289.49</ele>
        <time>2016-10-16T10:08:15Z</time>
      </trkpt>
      <trkpt lat="47.28106" lon="4.9898">
        <ele>289.97</ele>
        <time>2016-10-16T10:08:23Z</time>
      </trkpt>
      <trkpt lat="47.28153" lon="4.99063">
        <ele>290.46</ele>
        <time>2016-10-16T10:08:37Z</time>
      </trkpt>
      <trkpt lat="47.2819" lon="4.99128">
        <ele>290.94</ele>
        <time>2016-10-16T10:08:50Z</time>
      </trkpt>
      <trkpt lat="47.2823" lon="4.99202">
        <ele>289.97</ele>
        <time>2016-10-16T10:09:01Z</time>
      </trkpt>
      <trkpt lat="47.28263" lon="4.99264">
        <ele>289.49</ele>
        <time>2016-10-16T10:09:10Z</time>
      </trkpt>
      <trkpt lat="47.2833" lon="4.99353">
        <ele>290.46</ele>
        <time>2016-10-16T10:09:25Z</time>
      </trkpt>
      <trkpt lat="47.28353" lon="4.99385">
        <ele>290.46</ele>
        <time>2016-10-16T10:09:30Z</time>
      </trkpt>
      <trkpt lat="47.28362" lon="4.99398">
        <ele>290.46</ele>
        <time>2016-10-16T10:09:32Z</time>
      </trkpt>
      <trkpt lat="47.28377" lon="4.99413">
        <ele>290.46</ele>
        <time>2016-10-16T10:09:35Z</time>
      </trkpt>
      <trkpt lat="47.28442" lon="4.99493">
        <ele>290.46</ele>
        <time>2016-10-16T10:09:49Z</time>
      </trkpt>
      <trkpt lat="47.28475" lon="4.99547">
        <ele>289.49</ele>
        <time>2016-10-16T10:09:57Z</time>
      </trkpt>
      <trkpt lat="47.28486" lon="4.99573">
        <ele>289.01</ele>
        <time>2016-10-16T10:10:00Z</time>
      </trkpt>
      <trkpt lat="47.28504" lon="4.996">
        <ele>288.53</ele>
        <time>2016-10-16T10:10:04Z</time>
      </trkpt>
      <trkpt lat="47.28525" lon="4.99618">
        <ele>288.53</ele>
        <time>2016-10-16T10:10:08Z</time>
      </trkpt>
      <trkpt lat="47.28536" lon="4.99625">
        <ele>288.05</ele>
        <time>2016-10-16T10:10:10Z</time>
      </trkpt>
      <trkpt lat="47.28554" lon="4.9967">
        <ele>286.61</ele>
        <time>2016-10-16T10:10:17Z</time>
      </trkpt>
      <trkpt lat="47.28576" lon="4.99692">
        <ele>285.17</ele>
        <time>2016-10-16T10:10:21Z</time>
      </trkpt>
      <trkpt lat="47.28648" lon="4.9973">
        <ele>283.25</ele>
        <time>2016-10-16T10:10:31Z</time>
      </trkpt>
      <trkpt lat="47.28676" lon="4.99746">
        <ele>282.77</ele>
        <time>2016-10-16T10:10:35Z</time>
      </trkpt>
      <trkpt lat="47.28716" lon="4.99778">
        <ele>282.77</ele>
        <time>2016-10-16T10:10:41Z</time>
      </trkpt>
      <trkpt lat="47.28782" lon="4.99823">
        <ele>282.28</ele>
        <time>2016-10-16T10:10:51Z</time>
      </trkpt>
      <trkpt lat="47.28843" lon="4.99848">
        <ele>280.84</ele>
        <time>2016-10-16T10:10:59Z</time>
      </trkpt>
      <trkpt lat="47.28945" lon="4.99891">
        <ele>278.92</ele>
        <time>2016-10-16T10:11:13Z</time>
      </trkpt>
      <trkpt lat="47.29034" lon="4.99948">
        <ele>277.48</ele>
        <time>2016-10-16T10:11:26Z</time>
      </trkpt>
      <trkpt lat="47.29089" lon="4.99989">
        <ele>277.96</ele>
        <time>2016-10-16T10:11:38Z</time>
      </trkpt>
      <trkpt lat="47.29095" lon="4.99994">
        <ele>277.96</ele>
        <time>2016-10-16T10:11:42Z</time>
      </trkpt>
      <trkpt lat="47.29106" lon="4.99998">
        <ele>279.88</ele>
        <time>2016-10-16T10:11:48Z</time>
      </trkpt>
      <trkpt lat="47.29129" lon="5.00007">
        <ele>281.32</ele>
        <time>2016-10-16T10:11:54Z</time>
      </trkpt>
      <trkpt lat="47.29176" lon="5.00025">
        <ele>281.8</ele>
        <time>2016-10-16T10:12:06Z</time>
      </trkpt>
      <trkpt lat="47.29211" lon="5.0004">
        <ele>279.88</ele>
        <time>2016-10-16T10:12:17Z</time>
      </trkpt>
      <trkpt lat="47.29217" lon="5.00024">
        <ele>278.92</ele>
        <time>2016-10-16T10:12:22Z</time>
      </trkpt>
      <trkpt lat="47.29233" lon="4.99968">
        <ele>280.84</ele>
        <time>2016-10-16T10:12:34Z</time>
      </trkpt>
      <trkpt lat="47.29236" lon="4.99945">
        <ele>281.8</ele>
        <time>2016-10-16T10:12:41Z</time>
      </trkpt>
      <trkpt lat="47.29238" lon="4.99934">
        <ele>282.77</ele>
        <time>2016-10-16T10:12:47Z</time>
      </trkpt>
      <trkpt lat="47.29265" lon="4.99948">
        <ele>285.65</ele>
        <time>2016-10-16T10:12:59Z</time>
      </trkpt>
      <trkpt lat="47.29315" lon="4.99961">
        <ele>288.53</ele>
        <time>2016-10-16T10:13:11Z</time>
      </trkpt>
      <trkpt lat="47.29316" lon="4.99961">
        <ele>288.05</ele>
        <time>2016-10-16T10:13:12Z</time>
      </trkpt>
      <trkpt lat="47.29315" lon="4.9998">
        <ele>287.09</ele>
        <time>2016-10-16T10:13:17Z</time>
      </trkpt>
      <trkpt lat="47.2931" lon="5.00011">
        <ele>287.57</ele>
        <time>2016-10-16T10:13:22Z</time>
      </trkpt>
      <trkpt lat="47.29327" lon="5.00021">
        <ele>287.57</ele>
        <time>2016-10-16T10:13:27Z</time>
      </trkpt>
      <trkpt lat="47.29399" lon="5.00029">
        <ele>284.21</ele>
        <time>2016-10-16T10:13:39Z</time>
      </trkpt>
      <trkpt lat="47.29442" lon="5.00034">
        <ele>282.28</ele>
        <time>2016-10-16T10:13:45Z</time>
      </trkpt>
      <trkpt lat="47.29461" lon="5.0003">
        <ele>281.32</ele>
        <time>2016-10-16T10:13:48Z</time>
      </trkpt>
      <trkpt lat="47.29514" lon="5.00046">
        <ele>280.36</ele>
        <time>2016-10-16T10:13:58Z</time>
      </trkpt>
      <trkpt lat="47.29542" lon="5.00054">
        <ele>280.36</ele>
        <time>2016-10-16T10:14:03Z</time>
      </trkpt>
      <trkpt lat="47.29564" lon="5.00054">
        <ele>280.84</ele>
        <time>2016-10-16T10:14:07Z</time>
      </trkpt>
      <trkpt lat="47.29616" lon="5.00057">
        <ele>281.8</ele>
        <time>2016-10-16T10:14:20Z</time>
      </trkpt>
      <trkpt lat="47.29687" lon="5.00078">
        <ele>280.84</ele>
        <time>2016-10-16T10:14:35Z</time>
      </trkpt>
      <trkpt lat="47.2975" lon="5.00094">
        <ele>282.77</ele>
        <time>2016-10-16T10:14:48Z</time>
      </trkpt>
      <trkpt lat="47.29754" lon="5.00095">
        <ele>282.77</ele>
        <time>2016-10-16T10:14:49Z</time>
      </trkpt>
      <trkpt lat="47.29813" lon="5.00113">
        <ele>286.13</ele>
        <time>2016-10-16T10:15:03Z</time>
      </trkpt>
      <trkpt lat="47.29821" lon="5.00114">
        <ele>286.13</ele>
        <time>2016-10-16T10:15:05Z</time>
      </trkpt>
      <trkpt lat="47.29844" lon="5.00122">
        <ele>287.09</ele>
        <time>2016-10-16T10:15:10Z</time>
      </trkpt>
      <trkpt lat="47.29893" lon="5.00129">
        <ele>290.94</ele>
        <time>2016-10-16T10:15:23Z</time>
      </trkpt>
      <trkpt lat="47.29915" lon="5.00125">
        <ele>293.82</ele>
        <time>2016-10-16T10:15:36Z</time>
      </trkpt>
      <trkpt lat="47.2992" lon="5.00124">
        <ele>293.34</ele>
        <time>2016-10-16T10:15:49Z</time>
      </trkpt>
      <trkpt lat="47.2992" lon="5.00124">
        <ele>293.34</ele>
        <time>2016-10-16T10:16:13Z</time>
      </trkpt>
      <trkpt lat="47.29921" lon="5.00124">
        <ele>292.38</ele>
        <time>2016-10-16T10:16:40Z</time>
      </trkpt>
      <trkpt lat="47.2993" lon="5.00122">
        <ele>292.38</ele>
        <time>2016-10-16T10:16:57Z</time>
      </trkpt>
      <trkpt lat="47.29932" lon="5.00122">
        <ele>292.38</ele>
        <time>2016-10-16T10:16:58Z</time>
      </trkpt>
      <trkpt lat="47.29966" lon="5.00121">
        <ele>292.86</ele>
        <time>2016-10-16T10:17:10Z</time>
      </trkpt>
      <trkpt lat="47.30005" lon="5.00125">
        <ele>292.86</ele>
        <time>2016-10-16T10:17:25Z</time>
      </trkpt>
      <trkpt lat="47.3002" lon="5.00128">
        <ele>294.3</ele>
        <time>2016-10-16T10:17:37Z</time>
      </trkpt>
      <trkpt lat="47.30023" lon="5.00129">
        <ele>294.78</ele>
        <time>2016-10-16T10:17:54Z</time>
      </trkpt>
      <trkpt lat="47.3003" lon="5.00133">
        <ele>297.18</ele>
        <time>2016-10-16T10:18:09Z</time>
      </trkpt>
      <trkpt lat="47.30032" lon="5.00135">
        <ele>297.67</ele>
        <time>2016-10-16T10:18:20Z</time>
      </trkpt>
      <trkpt lat="47.30038" lon="5.00143">
        <ele>298.15</ele>
        <time>2016-10-16T10:18:25Z</time>
      </trkpt>
      <trkpt lat="47.30049" lon="5.0015">
        <ele>298.63</ele>
        <time>2016-10-16T10:18:33Z</time>
      </trkpt>
      <trkpt lat="47.30056" lon="5.00157">
        <ele>299.59</ele>
        <time>2016-10-16T10:18:40Z</time>
      </trkpt>
      <trkpt lat="47.30064" lon="5.00168">
        <ele>301.51</ele>
        <time>2016-10-16T10:18:48Z</time>
      </trkpt>
      <trkpt lat="47.30067" lon="5.00169">
        <ele>301.99</ele>
        <time>2016-10-16T10:18:50Z</time>
      </trkpt>
      <trkpt lat="47.30089" lon="5.00196">
        <ele>301.99</ele>
        <time>2016-10-16T10:19:03Z</time>
      </trkpt>
      <trkpt lat="47.3011" lon="5.00217">
        <ele>302.47</ele>
        <time>2016-10-16T10:19:15Z</time>
      </trkpt>
      <trkpt lat="47.30114" lon="5.00221">
        <ele>302.47</ele>
        <time>2016-10-16T10:19:19Z</time>
      </trkpt>
      <trkpt lat="47.30127" lon="5.00233">
        <ele>302.47</ele>
        <time>2016-10-16T10:19:29Z</time>
      </trkpt>
      <trkpt lat="47.30138" lon="5.0024">
        <ele>303.43</ele>
        <time>2016-10-16T10:19:38Z</time>
      </trkpt>
      <trkpt lat="47.30153" lon="5.00245">
        <ele>305.84</ele>
        <time>2016-10-16T10:19:49Z</time>
      </trkpt>
      <trkpt lat="47.30168" lon="5.00265">
        <ele>303.91</ele>
        <time>2016-10-16T10:19:59Z</time>
      </trkpt>
      <trkpt lat="47.30193" lon="5.00268">
        <ele>303.43</ele>
        <time>2016-10-16T10:20:09Z</time>
      </trkpt>
      <trkpt lat="47.302" lon="5.00267">
        <ele>304.39</ele>
        <time>2016-10-16T10:20:12Z</time>
      </trkpt>
      <trkpt lat="47.30212" lon="5.00266">
        <ele>305.36</ele>
        <time>2016-10-16T10:20:18Z</time>
      </trkpt>
      <trkpt lat="47.30248" lon="5.00274">
        <ele>306.32</ele>
        <time>2016-10-16T10:20:34Z</time>
      </trkpt>
      <trkpt lat="47.3028" lon="5.00274">
        <ele>307.28</ele>
        <time>2016-10-16T10:20:48Z</time>
      </trkpt>
      <trkpt lat="47.30302" lon="5.00278">
        <ele>306.32</ele>
        <time>2016-10-16T10:20:59Z</time>
      </trkpt>
      <trkpt lat="47.30306" lon="5.00277">
        <ele>306.8</ele>
        <time>2016-10-16T10:21:01Z</time>
      </trkpt>
      <trkpt lat="47.30317" lon="5.00277">
        <ele>307.76</ele>
        <time>2016-10-16T10:21:06Z</time>
      </trkpt>
      <trkpt lat="47.30336" lon="5.00278">
        <ele>309.68</ele>
        <time>2016-10-16T10:21:16Z</time>
      </trkpt>
      <trkpt lat="47.30366" lon="5.00259">
        <ele>312.57</ele>
        <time>2016-10-16T10:21:28Z</time>
      </trkpt>
      <trkpt lat="47.30401" lon="5.00246">
        <ele>312.57</ele>
        <time>2016-10-16T10:21:43Z</time>
      </trkpt>
      <trkpt lat="47.30427" lon="5.00238">
        <ele>313.53</ele>
        <time>2016-10-16T10:21:56Z</time>
      </trkpt>
      <trkpt lat="47.30435" lon="5.00234">
        <ele>314.49</ele>
        <time>2016-10-16T10:22:00Z</time>
      </trkpt>
      <trkpt lat="47.30448" lon="5.00227">
        <ele>314.97</ele>
        <time>2016-10-16T10:22:08Z</time>
      </trkpt>
      <trkpt lat="47.30451" lon="5.00223">
        <ele>314.97</ele>
        <time>2016-10-16T10:22:11Z</time>
      </trkpt>
      <trkpt lat="47.30454" lon="5.0022">
        <ele>314.49</ele>
        <time>2016-10-16T10:22:14Z</time>
      </trkpt>
      <trkpt lat="47.30458" lon="5.00211">
        <ele>314.49</ele>
        <time>2016-10-16T10:22:27Z</time>
      </trkpt>
      <trkpt lat="47.30459" lon="5.0021">
        <ele>314.01</ele>
        <time>2016-10-16T10:22:44Z</time>
      </trkpt>
      <trkpt lat="47.30452" lon="5.00205">
        <ele>314.01</ele>
        <time>2016-10-16T10:22:49Z</time>
      </trkpt>
      <trkpt lat="47.30422" lon="5.00186">
        <ele>318.81</ele>
        <time>2016-10-16T10:23:03Z</time>
      </trkpt>
      <trkpt lat="47.30393" lon="5.00175">
        <ele>320.74</ele>
        <time>2016-10-16T10:23:15Z</time>
      </trkpt>
      <trkpt lat="47.30367" lon="5.00159">
        <ele>326.5</ele>
        <time>2016-10-16T10:23:27Z</time>
      </trkpt>
      <trkpt lat="47.30339" lon="5.00142">
        <ele>328.91</ele>
        <time>2016-10-16T10:23:41Z</time>
      </trkpt>
      <trkpt lat="47.30316" lon="5.00127">
        <ele>327.95</ele>
        <time>2016-10-16T10:23:53Z</time>
      </trkpt>
      <trkpt lat="47.30292" lon="5.00112">
        <ele>330.83</ele>
        <time>2016-10-16T10:24:07Z</time>
      </trkpt>
      <trkpt lat="47.30268" lon="5.00099">
        <ele>331.31</ele>
        <time>2016-10-16T10:24:18Z</time>
      </trkpt>
      <trkpt lat="47.30267" lon="5.00084">
        <ele>330.83</ele>
        <time>2016-10-16T10:24:23Z</time>
      </trkpt>
      <trkpt lat="47.3027" lon="5.00064">
        <ele>330.83</ele>
        <time>2016-10-16T10:24:34Z</time>
      </trkpt>
      <trkpt lat="47.3027" lon="5.00064">
        <ele>328.43</ele>
        <time>2016-10-16T10:24:50Z</time>
      </trkpt>
      <trkpt lat="47.30269" lon="5.00064">
        <ele>325.54</ele>
        <time>2016-10-16T10:25:21Z</time>
      </trkpt>
      <trkpt lat="47.30269" lon="5.00064">
        <ele>325.54</ele>
        <time>2016-10-16T10:25:23Z</time>
      </trkpt>
    </trkseg>
  </trk>
  <trk>
    <name><![CDATA[Current Track: 24 DEC 2016 08:25]]></name>
    <trkseg>
      <trkpt lat="47.38205" lon="5.06515">
        <ele>301.03</ele>
        <time>2016-12-24T07:25:03Z</time>
      </trkpt>
      <trkpt lat="47.38203" lon="5.06517">
        <ele>300.07</ele>
        <time>2016-12-24T07:25:29Z</time>
      </trkpt>
      <trkpt lat="47.38206" lon="5.06518">
        <ele>300.07</ele>
        <time>2016-12-24T07:25:53Z</time>
      </trkpt>
      <trkpt lat="47.38204" lon="5.06517">
        <ele>297.18</ele>
        <time>2016-12-24T07:26:13Z</time>
      </trkpt>
      <trkpt lat="47.38205" lon="5.06522">
        <ele>299.11</ele>
        <time>2016-12-24T07:26:43Z</time>
      </trkpt>
      <trkpt lat="47.38205" lon="5.06521">
        <ele>300.07</ele>
        <time>2016-12-24T07:26:54Z</time>
      </trkpt>
    </trkseg>
  </trk>
  <trk>
    <name><![CDATA[Current Track: 27 DEC 2016 15:34]]></name>
    <trkseg>
      <trkpt lat="47.18984" lon="5.29009">
        <ele>171.25</ele>
        <time>2016-12-27T14:34:06Z</time>
      </trkpt>
      <trkpt lat="47.18982" lon="5.29007">
        <ele>177.98</ele>
        <time>2016-12-27T14:34:39Z</time>
      </trkpt>
      <trkpt lat="47.18984" lon="5.29008">
        <ele>177.5</ele>
        <time>2016-12-27T14:35:18Z</time>
      </trkpt>
      <trkpt lat="47.18984" lon="5.29002">
        <ele>177.98</ele>
        <time>2016-12-27T14:35:51Z</time>
      </trkpt>
      <trkpt lat="47.1898" lon="5.28999">
        <ele>181.35</ele>
        <time>2016-12-27T14:36:31Z</time>
      </trkpt>
      <trkpt lat="47.18982" lon="5.29">
        <ele>181.35</ele>
        <time>2016-12-27T14:37:00Z</time>
      </trkpt>
    </trkseg>
  </trk>
  <trk>
    <name><![CDATA[Current Track: 28 DEC 2016 13:22]]></name>
    <trkseg>
      <trkpt lat="47.36905" lon="5.02556">
        <ele>264.5</ele>
        <time>2016-12-28T12:22:30Z</time>
      </trkpt>
      <trkpt lat="47.36907" lon="5.02555">
        <ele>259.21</ele>
        <time>2016-12-28T12:22:52Z</time>
      </trkpt>
      <trkpt lat="47.36906" lon="5.02556">
        <ele>260.17</ele>
        <time>2016-12-28T12:23:20Z</time>
      </trkpt>
      <trkpt lat="47.36906" lon="5.02557">
        <ele>261.62</ele>
        <time>2016-12-28T12:23:47Z</time>
      </trkpt>
      <trkpt lat="47.36905" lon="5.02555">
        <ele>261.62</ele>
        <time>2016-12-28T12:24:16Z</time>
      </trkpt>
      <trkpt lat="47.36905" lon="5.02557">
        <ele>262.1</ele>
        <time>2016-12-28T12:24:54Z</time>
      </trkpt>
      <trkpt lat="47.36904" lon="5.02557">
        <ele>262.1</ele>
        <time>2016-12-28T12:25:41Z</time>
      </trkpt>
      <trkpt lat="47.36905" lon="5.02557">
        <ele>262.58</ele>
        <time>2016-12-28T12:26:23Z</time>
      </trkpt>
      <trkpt lat="47.36905" lon="5.02556">
        <ele>264.02</ele>
        <time>2016-12-28T12:26:58Z</time>
      </trkpt>
      <trkpt lat="47.36905" lon="5.02556">
        <ele>263.54</ele>
        <time>2016-12-28T12:27:17Z</time>
      </trkpt>
      <trkpt lat="47.36906" lon="5.02557">
        <ele>262.1</ele>
        <time>2016-12-28T12:27:45Z</time>
      </trkpt>
      <trkpt lat="47.36906" lon="5.02557">
        <ele>261.62</ele>
        <time>2016-12-28T12:28:31Z</time>
      </trkpt>
      <trkpt lat="47.36906" lon="5.02556">
        <ele>262.58</ele>
        <time>2016-12-28T12:29:24Z</time>
      </trkpt>
      <trkpt lat="47.36907" lon="5.02564">
        <ele>262.58</ele>
        <time>2016-12-28T12:29:41Z</time>
      </trkpt>
      <trkpt lat="47.36906" lon="5.02565">
        <ele>262.1</ele>
        <time>2016-12-28T12:29:57Z</time>
      </trkpt>
      <trkpt lat="47.36907" lon="5.02567">
        <ele>261.62</ele>
        <time>2016-12-28T12:30:07Z</time>
      </trkpt>
      <trkpt lat="47.36911" lon="5.02567">
        <ele>262.58</ele>
        <time>2016-12-28T12:30:14Z</time>
      </trkpt>
      <trkpt lat="47.3691" lon="5.02567">
        <ele>262.1</ele>
        <time>2016-12-28T12:30:30Z</time>
      </trkpt>
      <trkpt lat="47.36911" lon="5.02566">
        <ele>262.58</ele>
        <time>2016-12-28T12:30:57Z</time>
      </trkpt>
      <trkpt lat="47.36911" lon="5.02566">
        <ele>262.1</ele>
        <time>2016-12-28T12:31:21Z</time>
      </trkpt>
      <trkpt lat="47.36911" lon="5.02567">
        <ele>262.58</ele>
        <time>2016-12-28T12:31:37Z</time>
      </trkpt>
      <trkpt lat="47.36912" lon="5.02567">
        <ele>262.1</ele>
        <time>2016-12-28T12:31:59Z</time>
      </trkpt>
      <trkpt lat="47.36911" lon="5.02566">
        <ele>263.54</ele>
        <time>2016-12-28T12:32:21Z</time>
      </trkpt>
      <trkpt lat="47.36911" lon="5.02565">
        <ele>265.46</ele>
        <time>2016-12-28T12:32:48Z</time>
      </trkpt>
      <trkpt lat="47.3691" lon="5.02564">
        <ele>266.9</ele>
        <time>2016-12-28T12:33:12Z</time>
      </trkpt>
      <trkpt lat="47.3691" lon="5.02564">
        <ele>268.83</ele>
        <time>2016-12-28T12:33:44Z</time>
      </trkpt>
      <trkpt lat="47.3691" lon="5.02563">
        <ele>270.75</ele>
        <time>2016-12-28T12:34:08Z</time>
      </trkpt>
      <trkpt lat="47.36909" lon="5.02564">
        <ele>271.23</ele>
        <time>2016-12-28T12:34:11Z</time>
      </trkpt>
      <trkpt lat="47.36905" lon="5.02572">
        <ele>271.71</ele>
        <time>2016-12-28T12:34:16Z</time>
      </trkpt>
      <trkpt lat="47.36915" lon="5.02561">
        <ele>273.63</ele>
        <time>2016-12-28T12:34:28Z</time>
      </trkpt>
      <trkpt lat="47.36916" lon="5.02567">
        <ele>274.59</ele>
        <time>2016-12-28T12:34:35Z</time>
      </trkpt>
      <trkpt lat="47.36916" lon="5.02567">
        <ele>274.59</ele>
        <time>2016-12-28T12:34:59Z</time>
      </trkpt>
      <trkpt lat="47.36916" lon="5.02567">
        <ele>274.11</ele>
        <time>2016-12-28T12:35:01Z</time>
      </trkpt>
      <trkpt lat="47.36911" lon="5.02566">
        <ele>273.63</ele>
        <time>2016-12-28T12:35:13Z</time>
      </trkpt>
      <trkpt lat="47.36911" lon="5.02566">
        <ele>274.11</ele>
        <time>2016-12-28T12:35:37Z</time>
      </trkpt>
      <trkpt lat="47.36914" lon="5.0257">
        <ele>274.11</ele>
        <time>2016-12-28T12:35:42Z</time>
      </trkpt>
      <trkpt lat="47.36923" lon="5.02562">
        <ele>274.11</ele>
        <time>2016-12-28T12:35:47Z</time>
      </trkpt>
      <trkpt lat="47.36927" lon="5.02551">
        <ele>274.59</ele>
        <time>2016-12-28T12:35:51Z</time>
      </trkpt>
      <trkpt lat="47.36959" lon="5.0254">
        <ele>274.59</ele>
        <time>2016-12-28T12:36:04Z</time>
      </trkpt>
      <trkpt lat="47.36998" lon="5.0254">
        <ele>274.11</ele>
        <time>2016-12-28T12:36:15Z</time>
      </trkpt>
      <trkpt lat="47.37035" lon="5.02522">
        <ele>274.59</ele>
        <time>2016-12-28T12:36:25Z</time>
      </trkpt>
      <trkpt lat="47.37065" lon="5.02525">
        <ele>273.63</ele>
        <time>2016-12-28T12:36:32Z</time>
      </trkpt>
      <trkpt lat="47.37137" lon="5.02541">
        <ele>273.63</ele>
        <time>2016-12-28T12:36:49Z</time>
      </trkpt>
      <trkpt lat="47.37222" lon="5.02558">
        <ele>273.63</ele>
        <time>2016-12-28T12:37:10Z</time>
      </trkpt>
      <trkpt lat="47.37233" lon="5.02555">
        <ele>273.63</ele>
        <time>2016-12-28T12:37:13Z</time>
      </trkpt>
      <trkpt lat="47.37292" lon="5.02561">
        <ele>272.19</ele>
        <time>2016-12-28T12:37:28Z</time>
      </trkpt>
      <trkpt lat="47.37306" lon="5.02552">
        <ele>272.67</ele>
        <time>2016-12-28T12:37:32Z</time>
      </trkpt>
      <trkpt lat="47.37345" lon="5.02506">
        <ele>274.11</ele>
        <time>2016-12-28T12:37:47Z</time>
      </trkpt>
      <trkpt lat="47.37383" lon="5.02469">
        <ele>277</ele>
        <time>2016-12-28T12:38:05Z</time>
      </trkpt>
      <trkpt lat="47.37427" lon="5.02442">
        <ele>279.4</ele>
        <time>2016-12-28T12:38:22Z</time>
      </trkpt>
      <trkpt lat="47.37477" lon="5.02414">
        <ele>281.8</ele>
        <time>2016-12-28T12:38:40Z</time>
      </trkpt>
      <trkpt lat="47.37531" lon="5.0239">
        <ele>280.36</ele>
        <time>2016-12-28T12:38:57Z</time>
      </trkpt>
      <trkpt lat="47.37577" lon="5.02369">
        <ele>279.88</ele>
        <time>2016-12-28T12:39:12Z</time>
      </trkpt>
      <trkpt lat="47.37575" lon="5.02357">
        <ele>281.32</ele>
        <time>2016-12-28T12:39:16Z</time>
      </trkpt>
      <trkpt lat="47.37529" lon="5.02329">
        <ele>285.65</ele>
        <time>2016-12-28T12:39:33Z</time>
      </trkpt>
      <trkpt lat="47.37479" lon="5.02311">
        <ele>288.53</ele>
        <time>2016-12-28T12:39:51Z</time>
      </trkpt>
      <trkpt lat="47.37432" lon="5.02285">
        <ele>289.97</ele>
        <time>2016-12-28T12:40:09Z</time>
      </trkpt>
      <trkpt lat="47.37389" lon="5.0225">
        <ele>292.86</ele>
        <time>2016-12-28T12:40:26Z</time>
      </trkpt>
      <trkpt lat="47.3735" lon="5.02223">
        <ele>297.18</ele>
        <time>2016-12-28T12:40:41Z</time>
      </trkpt>
      <trkpt lat="47.37304" lon="5.0217">
        <ele>299.59</ele>
        <time>2016-12-28T12:41:01Z</time>
      </trkpt>
      <trkpt lat="47.37268" lon="5.02108">
        <ele>302.95</ele>
        <time>2016-12-28T12:41:20Z</time>
      </trkpt>
      <trkpt lat="47.37236" lon="5.02063">
        <ele>304.39</ele>
        <time>2016-12-28T12:41:35Z</time>
      </trkpt>
      <trkpt lat="47.37194" lon="5.02005">
        <ele>306.32</ele>
        <time>2016-12-28T12:41:54Z</time>
      </trkpt>
      <trkpt lat="47.37151" lon="5.01978">
        <ele>305.36</ele>
        <time>2016-12-28T12:42:10Z</time>
      </trkpt>
      <trkpt lat="47.37135" lon="5.0197">
        <ele>304.88</ele>
        <time>2016-12-28T12:42:15Z</time>
      </trkpt>
      <trkpt lat="47.37106" lon="5.01969">
        <ele>302.95</ele>
        <time>2016-12-28T12:42:21Z</time>
      </trkpt>
      <trkpt lat="47.37083" lon="5.01967">
        <ele>301.99</ele>
        <time>2016-12-28T12:42:25Z</time>
      </trkpt>
      <trkpt lat="47.3706" lon="5.01961">
        <ele>301.99</ele>
        <time>2016-12-28T12:42:29Z</time>
      </trkpt>
      <trkpt lat="47.37034" lon="5.01958">
        <ele>301.51</ele>
        <time>2016-12-28T12:42:34Z</time>
      </trkpt>
      <trkpt lat="47.3702" lon="5.01938">
        <ele>302.95</ele>
        <time>2016-12-28T12:42:39Z</time>
      </trkpt>
      <trkpt lat="47.37025" lon="5.01916">
        <ele>303.43</ele>
        <time>2016-12-28T12:42:47Z</time>
      </trkpt>
      <trkpt lat="47.37019" lon="5.01904">
        <ele>301.51</ele>
        <time>2016-12-28T12:42:55Z</time>
      </trkpt>
      <trkpt lat="47.37018" lon="5.01896">
        <ele>300.55</ele>
        <time>2016-12-28T12:42:59Z</time>
      </trkpt>
      <trkpt lat="47.37018" lon="5.01882">
        <ele>299.11</ele>
        <time>2016-12-28T12:43:02Z</time>
      </trkpt>
      <trkpt lat="47.37023" lon="5.01849">
        <ele>294.3</ele>
        <time>2016-12-28T12:43:09Z</time>
      </trkpt>
      <trkpt lat="47.37023" lon="5.01834">
        <ele>293.82</ele>
        <time>2016-12-28T12:43:13Z</time>
      </trkpt>
      <trkpt lat="47.37026" lon="5.01815">
        <ele>295.74</ele>
        <time>2016-12-28T12:43:26Z</time>
      </trkpt>
      <trkpt lat="47.37028" lon="5.01806">
        <ele>299.59</ele>
        <time>2016-12-28T12:43:41Z</time>
      </trkpt>
      <trkpt lat="47.37032" lon="5.01796">
        <ele>304.88</ele>
        <time>2016-12-28T12:43:57Z</time>
      </trkpt>
      <trkpt lat="47.37035" lon="5.01778">
        <ele>308.24</ele>
        <time>2016-12-28T12:44:14Z</time>
      </trkpt>
      <trkpt lat="47.3704" lon="5.01768">
        <ele>309.2</ele>
        <time>2016-12-28T12:44:29Z</time>
      </trkpt>
      <trkpt lat="47.37043" lon="5.01757">
        <ele>311.12</ele>
        <time>2016-12-28T12:44:43Z</time>
      </trkpt>
      <trkpt lat="47.37044" lon="5.01749">
        <ele>312.09</ele>
        <time>2016-12-28T12:44:55Z</time>
      </trkpt>
      <trkpt lat="47.37044" lon="5.01747">
        <ele>312.57</ele>
        <time>2016-12-28T12:44:56Z</time>
      </trkpt>
      <trkpt lat="47.3705" lon="5.01727">
        <ele>314.49</ele>
        <time>2016-12-28T12:45:08Z</time>
      </trkpt>
      <trkpt lat="47.37051" lon="5.01713">
        <ele>314.49</ele>
        <time>2016-12-28T12:45:14Z</time>
      </trkpt>
      <trkpt lat="47.37055" lon="5.017">
        <ele>315.45</ele>
        <time>2016-12-28T12:45:20Z</time>
      </trkpt>
      <trkpt lat="47.37053" lon="5.01693">
        <ele>314.01</ele>
        <time>2016-12-28T12:45:33Z</time>
      </trkpt>
      <trkpt lat="47.37053" lon="5.01694">
        <ele>314.01</ele>
        <time>2016-12-28T12:45:51Z</time>
      </trkpt>
      <trkpt lat="47.37053" lon="5.01694">
        <ele>314.01</ele>
        <time>2016-12-28T12:46:14Z</time>
      </trkpt>
      <trkpt lat="47.37053" lon="5.01693">
        <ele>315.93</ele>
        <time>2016-12-28T12:46:47Z</time>
      </trkpt>
      <trkpt lat="47.37053" lon="5.01695">
        <ele>316.41</ele>
        <time>2016-12-28T12:47:07Z</time>
      </trkpt>
      <trkpt lat="47.37054" lon="5.01695">
        <ele>316.89</ele>
        <time>2016-12-28T12:47:35Z</time>
      </trkpt>
      <trkpt lat="47.37054" lon="5.01693">
        <ele>317.37</ele>
        <time>2016-12-28T12:47:56Z</time>
      </trkpt>
      <trkpt lat="47.37053" lon="5.01692">
        <ele>317.37</ele>
        <time>2016-12-28T12:48:19Z</time>
      </trkpt>
      <trkpt lat="47.37054" lon="5.01699">
        <ele>316.41</ele>
        <time>2016-12-28T12:48:23Z</time>
      </trkpt>
      <trkpt lat="47.37082" lon="5.0173">
        <ele>314.97</ele>
        <time>2016-12-28T12:48:39Z</time>
      </trkpt>
      <trkpt lat="47.37105" lon="5.01744">
        <ele>315.45</ele>
        <time>2016-12-28T12:48:49Z</time>
      </trkpt>
      <trkpt lat="47.3711" lon="5.01746">
        <ele>315.93</ele>
        <time>2016-12-28T12:48:52Z</time>
      </trkpt>
      <trkpt lat="47.37116" lon="5.01753">
        <ele>315.93</ele>
        <time>2016-12-28T12:48:55Z</time>
      </trkpt>
      <trkpt lat="47.37132" lon="5.01766">
        <ele>315.93</ele>
        <time>2016-12-28T12:48:59Z</time>
      </trkpt>
      <trkpt lat="47.37151" lon="5.01779">
        <ele>315.45</ele>
        <time>2016-12-28T12:49:04Z</time>
      </trkpt>
      <trkpt lat="47.37156" lon="5.01815">
        <ele>314.01</ele>
        <time>2016-12-28T12:49:10Z</time>
      </trkpt>
      <trkpt lat="47.37161" lon="5.01856">
        <ele>312.09</ele>
        <time>2016-12-28T12:49:17Z</time>
      </trkpt>
      <trkpt lat="47.3717" lon="5.01866">
        <ele>310.64</ele>
        <time>2016-12-28T12:49:22Z</time>
      </trkpt>
      <trkpt lat="47.37203" lon="5.01873">
        <ele>312.09</ele>
        <time>2016-12-28T12:49:33Z</time>
      </trkpt>
      <trkpt lat="47.37235" lon="5.01872">
        <ele>320.74</ele>
        <time>2016-12-28T12:49:47Z</time>
      </trkpt>
      <trkpt lat="47.37264" lon="5.01872">
        <ele>322.66</ele>
        <time>2016-12-28T12:50:01Z</time>
      </trkpt>
      <trkpt lat="47.37282" lon="5.01872">
        <ele>323.14</ele>
        <time>2016-12-28T12:50:11Z</time>
      </trkpt>
      <trkpt lat="47.37291" lon="5.01832">
        <ele>320.26</ele>
        <time>2016-12-28T12:50:23Z</time>
      </trkpt>
      <trkpt lat="47.37299" lon="5.01764">
        <ele>314.97</ele>
        <time>2016-12-28T12:50:39Z</time>
      </trkpt>
      <trkpt lat="47.373" lon="5.01751">
        <ele>314.01</ele>
        <time>2016-12-28T12:50:44Z</time>
      </trkpt>
      <trkpt lat="47.37304" lon="5.0174">
        <ele>314.97</ele>
        <time>2016-12-28T12:50:50Z</time>
      </trkpt>
      <trkpt lat="47.37306" lon="5.01729">
        <ele>317.37</ele>
        <time>2016-12-28T12:51:02Z</time>
      </trkpt>
      <trkpt lat="47.3731" lon="5.01723">
        <ele>318.81</ele>
        <time>2016-12-28T12:51:16Z</time>
      </trkpt>
      <trkpt lat="47.3731" lon="5.01724">
        <ele>319.3</ele>
        <time>2016-12-28T12:51:21Z</time>
      </trkpt>
      <trkpt lat="47.37316" lon="5.01727">
        <ele>321.7</ele>
        <time>2016-12-28T12:51:27Z</time>
      </trkpt>
      <trkpt lat="47.3732" lon="5.01726">
        <ele>323.62</ele>
        <time>2016-12-28T12:51:43Z</time>
      </trkpt>
      <trkpt lat="47.37321" lon="5.01726">
        <ele>326.02</ele>
        <time>2016-12-28T12:52:07Z</time>
      </trkpt>
      <trkpt lat="47.37321" lon="5.01725">
        <ele>326.02</ele>
        <time>2016-12-28T12:52:28Z</time>
      </trkpt>
      <trkpt lat="47.37322" lon="5.01726">
        <ele>326.99</ele>
        <time>2016-12-28T12:53:02Z</time>
      </trkpt>
      <trkpt lat="47.37323" lon="5.01725">
        <ele>327.47</ele>
        <time>2016-12-28T12:53:26Z</time>
      </trkpt>
      <trkpt lat="47.37322" lon="5.01725">
        <ele>326.99</ele>
        <time>2016-12-28T12:53:50Z</time>
      </trkpt>
      <trkpt lat="47.37326" lon="5.0173">
        <ele>327.47</ele>
        <time>2016-12-28T12:54:25Z</time>
      </trkpt>
      <trkpt lat="47.37327" lon="5.01731">
        <ele>327.95</ele>
        <time>2016-12-28T12:54:26Z</time>
      </trkpt>
      <trkpt lat="47.37349" lon="5.01744">
        <ele>329.39</ele>
        <time>2016-12-28T12:54:38Z</time>
      </trkpt>
      <trkpt lat="47.37385" lon="5.01753">
        <ele>331.79</ele>
        <time>2016-12-28T12:54:52Z</time>
      </trkpt>
      <trkpt lat="47.3742" lon="5.01765">
        <ele>332.27</ele>
        <time>2016-12-28T12:55:03Z</time>
      </trkpt>
      <trkpt lat="47.37442" lon="5.01776">
        <ele>333.23</ele>
        <time>2016-12-28T12:55:08Z</time>
      </trkpt>
      <trkpt lat="47.37453" lon="5.0178">
        <ele>333.23</ele>
        <time>2016-12-28T12:55:10Z</time>
      </trkpt>
      <trkpt lat="47.37463" lon="5.01781">
        <ele>332.75</ele>
        <time>2016-12-28T12:55:12Z</time>
      </trkpt>
      <trkpt lat="47.37485" lon="5.01783">
        <ele>332.75</ele>
        <time>2016-12-28T12:55:17Z</time>
      </trkpt>
      <trkpt lat="47.37502" lon="5.0179">
        <ele>332.75</ele>
        <time>2016-12-28T12:55:21Z</time>
      </trkpt>
      <trkpt lat="47.37524" lon="5.0181">
        <ele>331.79</ele>
        <time>2016-12-28T12:55:26Z</time>
      </trkpt>
      <trkpt lat="47.37539" lon="5.0182">
        <ele>331.31</ele>
        <time>2016-12-28T12:55:29Z</time>
      </trkpt>
      <trkpt lat="47.37562" lon="5.01837">
        <ele>329.39</ele>
        <time>2016-12-28T12:55:33Z</time>
      </trkpt>
      <trkpt lat="47.37585" lon="5.0185">
        <ele>327.47</ele>
        <time>2016-12-28T12:55:37Z</time>
      </trkpt>
      <trkpt lat="47.37598" lon="5.01871">
        <ele>322.18</ele>
        <time>2016-12-28T12:55:44Z</time>
      </trkpt>
      <trkpt lat="47.37607" lon="5.0188">
        <ele>319.78</ele>
        <time>2016-12-28T12:55:48Z</time>
      </trkpt>
      <trkpt lat="47.37624" lon="5.01888">
        <ele>318.81</ele>
        <time>2016-12-28T12:55:52Z</time>
      </trkpt>
      <trkpt lat="47.37669" lon="5.01899">
        <ele>316.41</ele>
        <time>2016-12-28T12:56:01Z</time>
      </trkpt>
      <trkpt lat="47.3769" lon="5.01906">
        <ele>314.49</ele>
        <time>2016-12-28T12:56:06Z</time>
      </trkpt>
      <trkpt lat="47.37718" lon="5.01895">
        <ele>314.97</ele>
        <time>2016-12-28T12:56:13Z</time>
      </trkpt>
      <trkpt lat="47.3774" lon="5.01893">
        <ele>315.45</ele>
        <time>2016-12-28T12:56:18Z</time>
      </trkpt>
      <trkpt lat="47.37761" lon="5.01894">
        <ele>315.93</ele>
        <time>2016-12-28T12:56:23Z</time>
      </trkpt>
      <trkpt lat="47.37803" lon="5.01906">
        <ele>314.01</ele>
        <time>2016-12-28T12:56:35Z</time>
      </trkpt>
      <trkpt lat="47.37827" lon="5.01906">
        <ele>314.01</ele>
        <time>2016-12-28T12:56:45Z</time>
      </trkpt>
      <trkpt lat="47.37835" lon="5.01908">
        <ele>314.01</ele>
        <time>2016-12-28T12:56:47Z</time>
      </trkpt>
      <trkpt lat="47.37852" lon="5.01907">
        <ele>314.49</ele>
        <time>2016-12-28T12:56:51Z</time>
      </trkpt>
      <trkpt lat="47.37932" lon="5.01904">
        <ele>313.05</ele>
        <time>2016-12-28T12:57:09Z</time>
      </trkpt>
      <trkpt lat="47.37971" lon="5.01903">
        <ele>312.57</ele>
        <time>2016-12-28T12:57:19Z</time>
      </trkpt>
      <trkpt lat="47.37979" lon="5.01901">
        <ele>312.09</ele>
        <time>2016-12-28T12:57:21Z</time>
      </trkpt>
      <trkpt lat="47.38003" lon="5.01899">
        <ele>310.64</ele>
        <time>2016-12-28T12:57:27Z</time>
      </trkpt>
      <trkpt lat="47.38007" lon="5.01885">
        <ele>310.16</ele>
        <time>2016-12-28T12:57:31Z</time>
      </trkpt>
      <trkpt lat="47.38005" lon="5.0182">
        <ele>310.16</ele>
        <time>2016-12-28T12:57:45Z</time>
      </trkpt>
      <trkpt lat="47.37998" lon="5.01751">
        <ele>312.57</ele>
        <time>2016-12-28T12:58:01Z</time>
      </trkpt>
      <trkpt lat="47.37987" lon="5.01694">
        <ele>315.45</ele>
        <time>2016-12-28T12:58:15Z</time>
      </trkpt>
      <trkpt lat="47.37983" lon="5.01674">
        <ele>315.93</ele>
        <time>2016-12-28T12:58:20Z</time>
      </trkpt>
      <trkpt lat="47.37984" lon="5.01669">
        <ele>315.93</ele>
        <time>2016-12-28T12:58:23Z</time>
      </trkpt>
      <trkpt lat="47.38001" lon="5.01659">
        <ele>318.81</ele>
        <time>2016-12-28T12:58:32Z</time>
      </trkpt>
      <trkpt lat="47.38016" lon="5.01682">
        <ele>319.78</ele>
        <time>2016-12-28T12:58:41Z</time>
      </trkpt>
      <trkpt lat="47.38028" lon="5.01689">
        <ele>319.78</ele>
        <time>2016-12-28T12:58:49Z</time>
      </trkpt>
      <trkpt lat="47.38042" lon="5.01694">
        <ele>318.81</ele>
        <time>2016-12-28T12:58:54Z</time>
      </trkpt>
      <trkpt lat="47.38047" lon="5.017">
        <ele>317.85</ele>
        <time>2016-12-28T12:58:56Z</time>
      </trkpt>
      <trkpt lat="47.38056" lon="5.01712">
        <ele>314.97</ele>
        <time>2016-12-28T12:59:03Z</time>
      </trkpt>
      <trkpt lat="47.3808" lon="5.01725">
        <ele>316.41</ele>
        <time>2016-12-28T12:59:12Z</time>
      </trkpt>
      <trkpt lat="47.38082" lon="5.01726">
        <ele>316.41</ele>
        <time>2016-12-28T12:59:13Z</time>
      </trkpt>
      <trkpt lat="47.38094" lon="5.01742">
        <ele>315.93</ele>
        <time>2016-12-28T12:59:19Z</time>
      </trkpt>
      <trkpt lat="47.38097" lon="5.01783">
        <ele>317.85</ele>
        <time>2016-12-28T12:59:29Z</time>
      </trkpt>
      <trkpt lat="47.38099" lon="5.01788">
        <ele>317.85</ele>
        <time>2016-12-28T12:59:30Z</time>
      </trkpt>
      <trkpt lat="47.38114" lon="5.01817">
        <ele>320.74</ele>
        <time>2016-12-28T12:59:39Z</time>
      </trkpt>
      <trkpt lat="47.38123" lon="5.0182">
        <ele>321.7</ele>
        <time>2016-12-28T12:59:43Z</time>
      </trkpt>
      <trkpt lat="47.3813" lon="5.01806">
        <ele>322.18</ele>
        <time>2016-12-28T12:59:48Z</time>
      </trkpt>
      <trkpt lat="47.38162" lon="5.01797">
        <ele>325.54</ele>
        <time>2016-12-28T12:59:59Z</time>
      </trkpt>
      <trkpt lat="47.38165" lon="5.01795">
        <ele>326.02</ele>
        <time>2016-12-28T13:00:00Z</time>
      </trkpt>
      <trkpt lat="47.3817" lon="5.01767">
        <ele>316.89</ele>
        <time>2016-12-28T13:00:08Z</time>
      </trkpt>
      <trkpt lat="47.38164" lon="5.01749">
        <ele>315.45</ele>
        <time>2016-12-28T13:00:12Z</time>
      </trkpt>
      <trkpt lat="47.38161" lon="5.01739">
        <ele>314.97</ele>
        <time>2016-12-28T13:00:14Z</time>
      </trkpt>
      <trkpt lat="47.38148" lon="5.01716">
        <ele>313.53</ele>
        <time>2016-12-28T13:00:19Z</time>
      </trkpt>
      <trkpt lat="47.38129" lon="5.0171">
        <ele>310.64</ele>
        <time>2016-12-28T13:00:24Z</time>
      </trkpt>
      <trkpt lat="47.38108" lon="5.01695">
        <ele>308.24</ele>
        <time>2016-12-28T13:00:31Z</time>
      </trkpt>
      <trkpt lat="47.38099" lon="5.01673">
        <ele>304.88</ele>
        <time>2016-12-28T13:00:37Z</time>
      </trkpt>
      <trkpt lat="47.38097" lon="5.01646">
        <ele>304.39</ele>
        <time>2016-12-28T13:00:44Z</time>
      </trkpt>
      <trkpt lat="47.38099" lon="5.01631">
        <ele>306.32</ele>
        <time>2016-12-28T13:00:48Z</time>
      </trkpt>
      <trkpt lat="47.38112" lon="5.01614">
        <ele>309.68</ele>
        <time>2016-12-28T13:00:55Z</time>
      </trkpt>
      <trkpt lat="47.38118" lon="5.01606">
        <ele>307.28</ele>
        <time>2016-12-28T13:01:09Z</time>
      </trkpt>
      <trkpt lat="47.38118" lon="5.01604">
        <ele>309.68</ele>
        <time>2016-12-28T13:01:49Z</time>
      </trkpt>
      <trkpt lat="47.38119" lon="5.01603">
        <ele>310.64</ele>
        <time>2016-12-28T13:02:18Z</time>
      </trkpt>
      <trkpt lat="47.38119" lon="5.01607">
        <ele>309.68</ele>
        <time>2016-12-28T13:02:51Z</time>
      </trkpt>
      <trkpt lat="47.38119" lon="5.01607">
        <ele>308.24</ele>
        <time>2016-12-28T13:03:25Z</time>
      </trkpt>
      <trkpt lat="47.38119" lon="5.01607">
        <ele>307.28</ele>
        <time>2016-12-28T13:03:55Z</time>
      </trkpt>
      <trkpt lat="47.38119" lon="5.01607">
        <ele>306.32</ele>
        <time>2016-12-28T13:04:29Z</time>
      </trkpt>
      <trkpt lat="47.3813" lon="5.01556">
        <ele>303.43</ele>
        <time>2016-12-28T13:04:42Z</time>
      </trkpt>
      <trkpt lat="47.38141" lon="5.0152">
        <ele>298.63</ele>
        <time>2016-12-28T13:04:51Z</time>
      </trkpt>
      <trkpt lat="47.38142" lon="5.01515">
        <ele>298.15</ele>
        <time>2016-12-28T13:04:52Z</time>
      </trkpt>
      <trkpt lat="47.38133" lon="5.01481">
        <ele>294.78</ele>
        <time>2016-12-28T13:05:00Z</time>
      </trkpt>
      <trkpt lat="47.38129" lon="5.01473">
        <ele>294.3</ele>
        <time>2016-12-28T13:05:02Z</time>
      </trkpt>
      <trkpt lat="47.38116" lon="5.01452">
        <ele>291.42</ele>
        <time>2016-12-28T13:05:10Z</time>
      </trkpt>
      <trkpt lat="47.38114" lon="5.01443">
        <ele>290.46</ele>
        <time>2016-12-28T13:05:12Z</time>
      </trkpt>
      <trkpt lat="47.38104" lon="5.01419">
        <ele>290.94</ele>
        <time>2016-12-28T13:05:19Z</time>
      </trkpt>
      <trkpt lat="47.38106" lon="5.014">
        <ele>293.82</ele>
        <time>2016-12-28T13:05:23Z</time>
      </trkpt>
      <trkpt lat="47.38113" lon="5.01388">
        <ele>294.78</ele>
        <time>2016-12-28T13:05:28Z</time>
      </trkpt>
      <trkpt lat="47.38114" lon="5.01361">
        <ele>296.22</ele>
        <time>2016-12-28T13:05:38Z</time>
      </trkpt>
      <trkpt lat="47.38116" lon="5.01347">
        <ele>298.63</ele>
        <time>2016-12-28T13:05:42Z</time>
      </trkpt>
      <trkpt lat="47.38118" lon="5.01341">
        <ele>300.55</ele>
        <time>2016-12-28T13:05:44Z</time>
      </trkpt>
      <trkpt lat="47.38124" lon="5.01313">
        <ele>305.84</ele>
        <time>2016-12-28T13:05:58Z</time>
      </trkpt>
      <trkpt lat="47.38125" lon="5.01307">
        <ele>305.84</ele>
        <time>2016-12-28T13:06:01Z</time>
      </trkpt>
      <trkpt lat="47.3813" lon="5.01262">
        <ele>310.16</ele>
        <time>2016-12-28T13:06:15Z</time>
      </trkpt>
      <trkpt lat="47.3813" lon="5.01257">
        <ele>310.64</ele>
        <time>2016-12-28T13:06:17Z</time>
      </trkpt>
      <trkpt lat="47.38136" lon="5.01243">
        <ele>311.12</ele>
        <time>2016-12-28T13:06:25Z</time>
      </trkpt>
      <trkpt lat="47.38154" lon="5.01239">
        <ele>312.57</ele>
        <time>2016-12-28T13:06:35Z</time>
      </trkpt>
      <trkpt lat="47.38162" lon="5.01223">
        <ele>313.53</ele>
        <time>2016-12-28T13:06:42Z</time>
      </trkpt>
      <trkpt lat="47.38161" lon="5.01192">
        <ele>309.2</ele>
        <time>2016-12-28T13:06:55Z</time>
      </trkpt>
      <trkpt lat="47.38166" lon="5.01157">
        <ele>306.32</ele>
        <time>2016-12-28T13:07:05Z</time>
      </trkpt>
      <trkpt lat="47.38164" lon="5.01134">
        <ele>307.28</ele>
        <time>2016-12-28T13:07:14Z</time>
      </trkpt>
      <trkpt lat="47.38162" lon="5.01125">
        <ele>307.76</ele>
        <time>2016-12-28T13:07:17Z</time>
      </trkpt>
      <trkpt lat="47.38155" lon="5.01096">
        <ele>307.28</ele>
        <time>2016-12-28T13:07:30Z</time>
      </trkpt>
      <trkpt lat="47.38154" lon="5.0109">
        <ele>307.76</ele>
        <time>2016-12-28T13:07:33Z</time>
      </trkpt>
      <trkpt lat="47.3815" lon="5.01074">
        <ele>307.28</ele>
        <time>2016-12-28T13:07:40Z</time>
      </trkpt>
      <trkpt lat="47.38152" lon="5.01033">
        <ele>309.68</ele>
        <time>2016-12-28T13:07:53Z</time>
      </trkpt>
      <trkpt lat="47.38153" lon="5.01028">
        <ele>309.68</ele>
        <time>2016-12-28T13:07:55Z</time>
      </trkpt>
      <trkpt lat="47.38161" lon="5.01">
        <ele>312.57</ele>
        <time>2016-12-28T13:08:07Z</time>
      </trkpt>
      <trkpt lat="47.38181" lon="5.00959">
        <ele>317.85</ele>
        <time>2016-12-28T13:08:22Z</time>
      </trkpt>
      <trkpt lat="47.38185" lon="5.00943">
        <ele>318.81</ele>
        <time>2016-12-28T13:08:28Z</time>
      </trkpt>
      <trkpt lat="47.38188" lon="5.00904">
        <ele>323.14</ele>
        <time>2016-12-28T13:08:41Z</time>
      </trkpt>
      <trkpt lat="47.38189" lon="5.00886">
        <ele>325.06</ele>
        <time>2016-12-28T13:08:49Z</time>
      </trkpt>
      <trkpt lat="47.38188" lon="5.00881">
        <ele>326.5</ele>
        <time>2016-12-28T13:08:52Z</time>
      </trkpt>
      <trkpt lat="47.38186" lon="5.00863">
        <ele>326.5</ele>
        <time>2016-12-28T13:09:00Z</time>
      </trkpt>
      <trkpt lat="47.38179" lon="5.0083">
        <ele>327.47</ele>
        <time>2016-12-28T13:09:15Z</time>
      </trkpt>
      <trkpt lat="47.38179" lon="5.00802">
        <ele>327.47</ele>
        <time>2016-12-28T13:09:26Z</time>
      </trkpt>
      <trkpt lat="47.38179" lon="5.00796">
        <ele>327.95</ele>
        <time>2016-12-28T13:09:28Z</time>
      </trkpt>
      <trkpt lat="47.38185" lon="5.0077">
        <ele>330.35</ele>
        <time>2016-12-28T13:09:38Z</time>
      </trkpt>
      <trkpt lat="47.38185" lon="5.00765">
        <ele>330.83</ele>
        <time>2016-12-28T13:09:40Z</time>
      </trkpt>
      <trkpt lat="47.38188" lon="5.00734">
        <ele>335.64</ele>
        <time>2016-12-28T13:09:53Z</time>
      </trkpt>
      <trkpt lat="47.38192" lon="5.00702">
        <ele>346.21</ele>
        <time>2016-12-28T13:10:06Z</time>
      </trkpt>
      <trkpt lat="47.38196" lon="5.00685">
        <ele>350.06</ele>
        <time>2016-12-28T13:10:17Z</time>
      </trkpt>
      <trkpt lat="47.38207" lon="5.00659">
        <ele>353.42</ele>
        <time>2016-12-28T13:10:32Z</time>
      </trkpt>
      <trkpt lat="47.38211" lon="5.00643">
        <ele>352.46</ele>
        <time>2016-12-28T13:10:41Z</time>
      </trkpt>
      <trkpt lat="47.38211" lon="5.00637">
        <ele>351.98</ele>
        <time>2016-12-28T13:10:44Z</time>
      </trkpt>
      <trkpt lat="47.38208" lon="5.00632">
        <ele>351.98</ele>
        <time>2016-12-28T13:10:47Z</time>
      </trkpt>
      <trkpt lat="47.38196" lon="5.00608">
        <ele>354.38</ele>
        <time>2016-12-28T13:11:00Z</time>
      </trkpt>
      <trkpt lat="47.38191" lon="5.00602">
        <ele>353.9</ele>
        <time>2016-12-28T13:11:04Z</time>
      </trkpt>
      <trkpt lat="47.38188" lon="5.00599">
        <ele>353.42</ele>
        <time>2016-12-28T13:11:06Z</time>
      </trkpt>
      <trkpt lat="47.38168" lon="5.00581">
        <ele>352.94</ele>
        <time>2016-12-28T13:11:20Z</time>
      </trkpt>
      <trkpt lat="47.38151" lon="5.00564">
        <ele>352.94</ele>
        <time>2016-12-28T13:11:32Z</time>
      </trkpt>
      <trkpt lat="47.38149" lon="5.00559">
        <ele>353.9</ele>
        <time>2016-12-28T13:11:34Z</time>
      </trkpt>
      <trkpt lat="47.38146" lon="5.00551">
        <ele>356.79</ele>
        <time>2016-12-28T13:11:37Z</time>
      </trkpt>
      <trkpt lat="47.38139" lon="5.00521">
        <ele>364.48</ele>
        <time>2016-12-28T13:11:48Z</time>
      </trkpt>
      <trkpt lat="47.38134" lon="5.00497">
        <ele>368.32</ele>
        <time>2016-12-28T13:11:57Z</time>
      </trkpt>
      <trkpt lat="47.38129" lon="5.00474">
        <ele>365.44</ele>
        <time>2016-12-28T13:12:09Z</time>
      </trkpt>
      <trkpt lat="47.38129" lon="5.00464">
        <ele>365.92</ele>
        <time>2016-12-28T13:12:12Z</time>
      </trkpt>
      <trkpt lat="47.38128" lon="5.00444">
        <ele>367.36</ele>
        <time>2016-12-28T13:12:20Z</time>
      </trkpt>
      <trkpt lat="47.38132" lon="5.00412">
        <ele>371.21</ele>
        <time>2016-12-28T13:12:32Z</time>
      </trkpt>
      <trkpt lat="47.38131" lon="5.00396">
        <ele>371.21</ele>
        <time>2016-12-28T13:12:38Z</time>
      </trkpt>
      <trkpt lat="47.38131" lon="5.00392">
        <ele>371.69</ele>
        <time>2016-12-28T13:12:40Z</time>
      </trkpt>
      <trkpt lat="47.38133" lon="5.00367">
        <ele>373.13</ele>
        <time>2016-12-28T13:12:49Z</time>
      </trkpt>
      <trkpt lat="47.38136" lon="5.00345">
        <ele>375.05</ele>
        <time>2016-12-28T13:12:57Z</time>
      </trkpt>
      <trkpt lat="47.3814" lon="5.00333">
        <ele>376.49</ele>
        <time>2016-12-28T13:13:02Z</time>
      </trkpt>
      <trkpt lat="47.38141" lon="5.00318">
        <ele>377.94</ele>
        <time>2016-12-28T13:13:07Z</time>
      </trkpt>
      <trkpt lat="47.38143" lon="5.00307">
        <ele>378.42</ele>
        <time>2016-12-28T13:13:12Z</time>
      </trkpt>
      <trkpt lat="47.38146" lon="5.00296">
        <ele>378.9</ele>
        <time>2016-12-28T13:13:16Z</time>
      </trkpt>
      <trkpt lat="47.38153" lon="5.0028">
        <ele>379.38</ele>
        <time>2016-12-28T13:13:22Z</time>
      </trkpt>
      <trkpt lat="47.38153" lon="5.00265">
        <ele>378.42</ele>
        <time>2016-12-28T13:13:27Z</time>
      </trkpt>
      <trkpt lat="47.38154" lon="5.00245">
        <ele>377.94</ele>
        <time>2016-12-28T13:13:35Z</time>
      </trkpt>
      <trkpt lat="47.38149" lon="5.00224">
        <ele>378.42</ele>
        <time>2016-12-28T13:13:45Z</time>
      </trkpt>
      <trkpt lat="47.38149" lon="5.00207">
        <ele>378.42</ele>
        <time>2016-12-28T13:13:52Z</time>
      </trkpt>
      <trkpt lat="47.38149" lon="5.00203">
        <ele>378.42</ele>
        <time>2016-12-28T13:13:54Z</time>
      </trkpt>
      <trkpt lat="47.38146" lon="5.00196">
        <ele>378.42</ele>
        <time>2016-12-28T13:13:58Z</time>
      </trkpt>
      <trkpt lat="47.38151" lon="5.0018">
        <ele>378.9</ele>
        <time>2016-12-28T13:14:05Z</time>
      </trkpt>
      <trkpt lat="47.38152" lon="5.00159">
        <ele>378.42</ele>
        <time>2016-12-28T13:14:12Z</time>
      </trkpt>
      <trkpt lat="47.38152" lon="5.0015">
        <ele>377.94</ele>
        <time>2016-12-28T13:14:15Z</time>
      </trkpt>
      <trkpt lat="47.38141" lon="5.0012">
        <ele>384.18</ele>
        <time>2016-12-28T13:14:25Z</time>
      </trkpt>
      <trkpt lat="47.38143" lon="5.00096">
        <ele>385.63</ele>
        <time>2016-12-28T13:14:34Z</time>
      </trkpt>
      <trkpt lat="47.38144" lon="5.0009">
        <ele>385.63</ele>
        <time>2016-12-28T13:14:37Z</time>
      </trkpt>
      <trkpt lat="47.38145" lon="5.00083">
        <ele>386.11</ele>
        <time>2016-12-28T13:14:40Z</time>
      </trkpt>
      <trkpt lat="47.3815" lon="5.00076">
        <ele>387.07</ele>
        <time>2016-12-28T13:14:44Z</time>
      </trkpt>
      <trkpt lat="47.38156" lon="5.00064">
        <ele>388.51</ele>
        <time>2016-12-28T13:14:49Z</time>
      </trkpt>
      <trkpt lat="47.38162" lon="5.00056">
        <ele>389.47</ele>
        <time>2016-12-28T13:14:52Z</time>
      </trkpt>
      <trkpt lat="47.38187" lon="5.00044">
        <ele>389.95</ele>
        <time>2016-12-28T13:15:04Z</time>
      </trkpt>
      <trkpt lat="47.38218" lon="5.00024">
        <ele>394.76</ele>
        <time>2016-12-28T13:15:16Z</time>
      </trkpt>
      <trkpt lat="47.3822" lon="5.00023">
        <ele>395.72</ele>
        <time>2016-12-28T13:15:17Z</time>
      </trkpt>
      <trkpt lat="47.38226" lon="5.00017">
        <ele>397.64</ele>
        <time>2016-12-28T13:15:32Z</time>
      </trkpt>
      <trkpt lat="47.38226" lon="5.00015">
        <ele>397.64</ele>
        <time>2016-12-28T13:15:57Z</time>
      </trkpt>
      <trkpt lat="47.38226" lon="5.00014">
        <ele>397.64</ele>
        <time>2016-12-28T13:16:13Z</time>
      </trkpt>
      <trkpt lat="47.38226" lon="5.00006">
        <ele>395.72</ele>
        <time>2016-12-28T13:16:18Z</time>
      </trkpt>
      <trkpt lat="47.38213" lon="4.9998">
        <ele>394.76</ele>
        <time>2016-12-28T13:16:32Z</time>
      </trkpt>
      <trkpt lat="47.38198" lon="4.99953">
        <ele>399.57</ele>
        <time>2016-12-28T13:16:42Z</time>
      </trkpt>
      <trkpt lat="47.38193" lon="4.99944">
        <ele>400.53</ele>
        <time>2016-12-28T13:16:46Z</time>
      </trkpt>
      <trkpt lat="47.38175" lon="4.99914">
        <ele>398.6</ele>
        <time>2016-12-28T13:16:58Z</time>
      </trkpt>
      <trkpt lat="47.38171" lon="4.99909">
        <ele>398.6</ele>
        <time>2016-12-28T13:17:00Z</time>
      </trkpt>
      <trkpt lat="47.38166" lon="4.999">
        <ele>398.6</ele>
        <time>2016-12-28T13:17:04Z</time>
      </trkpt>
      <trkpt lat="47.38153" lon="4.99878">
        <ele>399.08</ele>
        <time>2016-12-28T13:17:12Z</time>
      </trkpt>
      <trkpt lat="47.38135" lon="4.9985">
        <ele>398.6</ele>
        <time>2016-12-28T13:17:24Z</time>
      </trkpt>
      <trkpt lat="47.38135" lon="4.99841">
        <ele>397.64</ele>
        <time>2016-12-28T13:17:29Z</time>
      </trkpt>
      <trkpt lat="47.38135" lon="4.99838">
        <ele>397.64</ele>
        <time>2016-12-28T13:17:31Z</time>
      </trkpt>
      <trkpt lat="47.38135" lon="4.9983">
        <ele>395.72</ele>
        <time>2016-12-28T13:17:36Z</time>
      </trkpt>
      <trkpt lat="47.38138" lon="4.99813">
        <ele>393.32</ele>
        <time>2016-12-28T13:17:52Z</time>
      </trkpt>
      <trkpt lat="47.38145" lon="4.99798">
        <ele>392.84</ele>
        <time>2016-12-28T13:17:59Z</time>
      </trkpt>
      <trkpt lat="47.38166" lon="4.99754">
        <ele>392.36</ele>
        <time>2016-12-28T13:18:13Z</time>
      </trkpt>
      <trkpt lat="47.38188" lon="4.99708">
        <ele>388.99</ele>
        <time>2016-12-28T13:18:27Z</time>
      </trkpt>
      <trkpt lat="47.38213" lon="4.99661">
        <ele>384.66</ele>
        <time>2016-12-28T13:18:41Z</time>
      </trkpt>
      <trkpt lat="47.38243" lon="4.99618">
        <ele>386.11</ele>
        <time>2016-12-28T13:18:54Z</time>
      </trkpt>
      <trkpt lat="47.3827" lon="4.9958">
        <ele>391.39</ele>
        <time>2016-12-28T13:19:05Z</time>
      </trkpt>
      <trkpt lat="47.38297" lon="4.99539">
        <ele>396.68</ele>
        <time>2016-12-28T13:19:18Z</time>
      </trkpt>
      <trkpt lat="47.38324" lon="4.99478">
        <ele>395.24</ele>
        <time>2016-12-28T13:19:32Z</time>
      </trkpt>
      <trkpt lat="47.38312" lon="4.99446">
        <ele>391.87</ele>
        <time>2016-12-28T13:19:41Z</time>
      </trkpt>
      <trkpt lat="47.38287" lon="4.99422">
        <ele>388.99</ele>
        <time>2016-12-28T13:19:52Z</time>
      </trkpt>
      <trkpt lat="47.38284" lon="4.99419">
        <ele>388.03</ele>
        <time>2016-12-28T13:20:00Z</time>
      </trkpt>
      <trkpt lat="47.38277" lon="4.99415">
        <ele>388.03</ele>
        <time>2016-12-28T13:20:06Z</time>
      </trkpt>
      <trkpt lat="47.38246" lon="4.99405">
        <ele>388.51</ele>
        <time>2016-12-28T13:20:18Z</time>
      </trkpt>
      <trkpt lat="47.38245" lon="4.99402">
        <ele>388.99</ele>
        <time>2016-12-28T13:20:19Z</time>
      </trkpt>
      <trkpt lat="47.38261" lon="4.99351">
        <ele>386.59</ele>
        <time>2016-12-28T13:20:32Z</time>
      </trkpt>
      <trkpt lat="47.38267" lon="4.99309">
        <ele>386.59</ele>
        <time>2016-12-28T13:20:43Z</time>
      </trkpt>
      <trkpt lat="47.38259" lon="4.99301">
        <ele>386.11</ele>
        <time>2016-12-28T13:20:47Z</time>
      </trkpt>
      <trkpt lat="47.38235" lon="4.9928">
        <ele>387.07</ele>
        <time>2016-12-28T13:20:56Z</time>
      </trkpt>
      <trkpt lat="47.38226" lon="4.99264">
        <ele>386.11</ele>
        <time>2016-12-28T13:21:01Z</time>
      </trkpt>
      <trkpt lat="47.3819" lon="4.99198">
        <ele>381.78</ele>
        <time>2016-12-28T13:21:16Z</time>
      </trkpt>
      <trkpt lat="47.38156" lon="4.99133">
        <ele>376.49</ele>
        <time>2016-12-28T13:21:31Z</time>
      </trkpt>
      <trkpt lat="47.38126" lon="4.99099">
        <ele>370.24</ele>
        <time>2016-12-28T13:21:41Z</time>
      </trkpt>
      <trkpt lat="47.38093" lon="4.99072">
        <ele>363.52</ele>
        <time>2016-12-28T13:21:52Z</time>
      </trkpt>
      <trkpt lat="47.38053" lon="4.99039">
        <ele>359.19</ele>
        <time>2016-12-28T13:22:05Z</time>
      </trkpt>
      <trkpt lat="47.38012" lon="4.99006">
        <ele>358.71</ele>
        <time>2016-12-28T13:22:19Z</time>
      </trkpt>
      <trkpt lat="47.37982" lon="4.98979">
        <ele>358.71</ele>
        <time>2016-12-28T13:22:31Z</time>
      </trkpt>
      <trkpt lat="47.3798" lon="4.98977">
        <ele>358.71</ele>
        <time>2016-12-28T13:22:32Z</time>
      </trkpt>
      <trkpt lat="47.37992" lon="4.98946">
        <ele>362.07</ele>
        <time>2016-12-28T13:22:39Z</time>
      </trkpt>
      <trkpt lat="47.38008" lon="4.98918">
        <ele>363.04</ele>
        <time>2016-12-28T13:22:47Z</time>
      </trkpt>
      <trkpt lat="47.38029" lon="4.9888">
        <ele>362.07</ele>
        <time>2016-12-28T13:22:56Z</time>
      </trkpt>
      <trkpt lat="47.38031" lon="4.98874">
        <ele>366.88</ele>
        <time>2016-12-28T13:23:07Z</time>
      </trkpt>
      <trkpt lat="47.38033" lon="4.98868">
        <ele>376.97</ele>
        <time>2016-12-28T13:23:28Z</time>
      </trkpt>
      <trkpt lat="47.38037" lon="4.98861">
        <ele>376.97</ele>
        <time>2016-12-28T13:23:32Z</time>
      </trkpt>
      <trkpt lat="47.38053" lon="4.98833">
        <ele>376.01</ele>
        <time>2016-12-28T13:23:38Z</time>
      </trkpt>
      <trkpt lat="47.38075" lon="4.98796">
        <ele>373.61</ele>
        <time>2016-12-28T13:23:48Z</time>
      </trkpt>
      <trkpt lat="47.38097" lon="4.9876">
        <ele>367.84</ele>
        <time>2016-12-28T13:24:00Z</time>
      </trkpt>
      <trkpt lat="47.38114" lon="4.98733">
        <ele>363.04</ele>
        <time>2016-12-28T13:24:09Z</time>
      </trkpt>
      <trkpt lat="47.38121" lon="4.98727">
        <ele>359.67</ele>
        <time>2016-12-28T13:24:15Z</time>
      </trkpt>
      <trkpt lat="47.38143" lon="4.98745">
        <ele>357.27</ele>
        <time>2016-12-28T13:24:26Z</time>
      </trkpt>
      <trkpt lat="47.38148" lon="4.98746">
        <ele>356.31</ele>
        <time>2016-12-28T13:24:42Z</time>
      </trkpt>
      <trkpt lat="47.38153" lon="4.98747">
        <ele>356.79</ele>
        <time>2016-12-28T13:25:06Z</time>
      </trkpt>
      <trkpt lat="47.38177" lon="4.98774">
        <ele>351.98</ele>
        <time>2016-12-28T13:25:17Z</time>
      </trkpt>
      <trkpt lat="47.38194" lon="4.98789">
        <ele>348.62</ele>
        <time>2016-12-28T13:25:23Z</time>
      </trkpt>
      <trkpt lat="47.38216" lon="4.98806">
        <ele>346.69</ele>
        <time>2016-12-28T13:25:28Z</time>
      </trkpt>
      <trkpt lat="47.38232" lon="4.9882">
        <ele>344.77</ele>
        <time>2016-12-28T13:25:32Z</time>
      </trkpt>
      <trkpt lat="47.38274" lon="4.98846">
        <ele>343.33</ele>
        <time>2016-12-28T13:25:44Z</time>
      </trkpt>
      <trkpt lat="47.38311" lon="4.98881">
        <ele>342.85</ele>
        <time>2016-12-28T13:25:56Z</time>
      </trkpt>
      <trkpt lat="47.38344" lon="4.98922">
        <ele>338.52</ele>
        <time>2016-12-28T13:26:09Z</time>
      </trkpt>
      <trkpt lat="47.3835" lon="4.98928">
        <ele>337.56</ele>
        <time>2016-12-28T13:26:11Z</time>
      </trkpt>
      <trkpt lat="47.38386" lon="4.98953">
        <ele>331.79</ele>
        <time>2016-12-28T13:26:20Z</time>
      </trkpt>
      <trkpt lat="47.38423" lon="4.98986">
        <ele>325.06</ele>
        <time>2016-12-28T13:26:31Z</time>
      </trkpt>
      <trkpt lat="47.38437" lon="4.98987">
        <ele>325.06</ele>
        <time>2016-12-28T13:26:34Z</time>
      </trkpt>
      <trkpt lat="47.38458" lon="4.9899">
        <ele>326.02</ele>
        <time>2016-12-28T13:26:38Z</time>
      </trkpt>
      <trkpt lat="47.38481" lon="4.98985">
        <ele>327.47</ele>
        <time>2016-12-28T13:26:42Z</time>
      </trkpt>
      <trkpt lat="47.38506" lon="4.9895">
        <ele>329.87</ele>
        <time>2016-12-28T13:26:51Z</time>
      </trkpt>
      <trkpt lat="47.38523" lon="4.98922">
        <ele>332.27</ele>
        <time>2016-12-28T13:27:02Z</time>
      </trkpt>
      <trkpt lat="47.38538" lon="4.98911">
        <ele>335.64</ele>
        <time>2016-12-28T13:27:14Z</time>
      </trkpt>
      <trkpt lat="47.38552" lon="4.98902">
        <ele>337.56</ele>
        <time>2016-12-28T13:27:26Z</time>
      </trkpt>
      <trkpt lat="47.38562" lon="4.98897">
        <ele>338.52</ele>
        <time>2016-12-28T13:27:35Z</time>
      </trkpt>
      <trkpt lat="47.38573" lon="4.98898">
        <ele>338.04</ele>
        <time>2016-12-28T13:27:43Z</time>
      </trkpt>
      <trkpt lat="47.38595" lon="4.9891">
        <ele>343.33</ele>
        <time>2016-12-28T13:27:58Z</time>
      </trkpt>
      <trkpt lat="47.38624" lon="4.9894">
        <ele>346.21</ele>
        <time>2016-12-28T13:28:16Z</time>
      </trkpt>
      <trkpt lat="47.38644" lon="4.98972">
        <ele>346.21</ele>
        <time>2016-12-28T13:28:28Z</time>
      </trkpt>
      <trkpt lat="47.38645" lon="4.98982">
        <ele>346.21</ele>
        <time>2016-12-28T13:28:30Z</time>
      </trkpt>
      <trkpt lat="47.38651" lon="4.99015">
        <ele>345.25</ele>
        <time>2016-12-28T13:28:35Z</time>
      </trkpt>
      <trkpt lat="47.38686" lon="4.99065">
        <ele>344.77</ele>
        <time>2016-12-28T13:28:47Z</time>
      </trkpt>
      <trkpt lat="47.38725" lon="4.99094">
        <ele>344.77</ele>
        <time>2016-12-28T13:29:04Z</time>
      </trkpt>
      <trkpt lat="47.38728" lon="4.99102">
        <ele>345.73</ele>
        <time>2016-12-28T13:29:14Z</time>
      </trkpt>
      <trkpt lat="47.38736" lon="4.99112">
        <ele>345.25</ele>
        <time>2016-12-28T13:29:25Z</time>
      </trkpt>
      <trkpt lat="47.38743" lon="4.99113">
        <ele>345.25</ele>
        <time>2016-12-28T13:29:30Z</time>
      </trkpt>
      <trkpt lat="47.38752" lon="4.99117">
        <ele>343.33</ele>
        <time>2016-12-28T13:29:36Z</time>
      </trkpt>
      <trkpt lat="47.38757" lon="4.99114">
        <ele>342.37</ele>
        <time>2016-12-28T13:29:48Z</time>
      </trkpt>
      <trkpt lat="47.38765" lon="4.99107">
        <ele>342.85</ele>
        <time>2016-12-28T13:29:55Z</time>
      </trkpt>
      <trkpt lat="47.38783" lon="4.99088">
        <ele>348.13</ele>
        <time>2016-12-28T13:30:08Z</time>
      </trkpt>
      <trkpt lat="47.38791" lon="4.99076">
        <ele>351.98</ele>
        <time>2016-12-28T13:30:21Z</time>
      </trkpt>
      <trkpt lat="47.38793" lon="4.99075">
        <ele>352.46</ele>
        <time>2016-12-28T13:30:33Z</time>
      </trkpt>
      <trkpt lat="47.38807" lon="4.99084">
        <ele>353.9</ele>
        <time>2016-12-28T13:30:45Z</time>
      </trkpt>
      <trkpt lat="47.38816" lon="4.99088">
        <ele>353.42</ele>
        <time>2016-12-28T13:30:51Z</time>
      </trkpt>
      <trkpt lat="47.38831" lon="4.99107">
        <ele>353.9</ele>
        <time>2016-12-28T13:31:00Z</time>
      </trkpt>
      <trkpt lat="47.38843" lon="4.99109">
        <ele>355.34</ele>
        <time>2016-12-28T13:31:06Z</time>
      </trkpt>
      <trkpt lat="47.38868" lon="4.99138">
        <ele>353.9</ele>
        <time>2016-12-28T13:31:22Z</time>
      </trkpt>
      <trkpt lat="47.38902" lon="4.99192">
        <ele>350.54</ele>
        <time>2016-12-28T13:31:38Z</time>
      </trkpt>
      <trkpt lat="47.38944" lon="4.99227">
        <ele>351.5</ele>
        <time>2016-12-28T13:31:52Z</time>
      </trkpt>
      <trkpt lat="47.38993" lon="4.99261">
        <ele>350.54</ele>
        <time>2016-12-28T13:32:07Z</time>
      </trkpt>
      <trkpt lat="47.39039" lon="4.99322">
        <ele>348.13</ele>
        <time>2016-12-28T13:32:22Z</time>
      </trkpt>
      <trkpt lat="47.39078" lon="4.99363">
        <ele>348.62</ele>
        <time>2016-12-28T13:32:35Z</time>
      </trkpt>
      <trkpt lat="47.39114" lon="4.99406">
        <ele>349.1</ele>
        <time>2016-12-28T13:32:51Z</time>
      </trkpt>
      <trkpt lat="47.39155" lon="4.99434">
        <ele>349.1</ele>
        <time>2016-12-28T13:33:08Z</time>
      </trkpt>
      <trkpt lat="47.39167" lon="4.99428">
        <ele>351.02</ele>
        <time>2016-12-28T13:33:15Z</time>
      </trkpt>
      <trkpt lat="47.39179" lon="4.99447">
        <ele>350.06</ele>
        <time>2016-12-28T13:33:26Z</time>
      </trkpt>
      <trkpt lat="47.39189" lon="4.99459">
        <ele>348.13</ele>
        <time>2016-12-28T13:33:31Z</time>
      </trkpt>
      <trkpt lat="47.39216" lon="4.99481">
        <ele>343.33</ele>
        <time>2016-12-28T13:33:43Z</time>
      </trkpt>
      <trkpt lat="47.39244" lon="4.99467">
        <ele>345.73</ele>
        <time>2016-12-28T13:33:58Z</time>
      </trkpt>
      <trkpt lat="47.39272" lon="4.99454">
        <ele>349.58</ele>
        <time>2016-12-28T13:34:11Z</time>
      </trkpt>
      <trkpt lat="47.39298" lon="4.9945">
        <ele>353.9</ele>
        <time>2016-12-28T13:34:24Z</time>
      </trkpt>
      <trkpt lat="47.39334" lon="4.99463">
        <ele>358.23</ele>
        <time>2016-12-28T13:34:39Z</time>
      </trkpt>
      <trkpt lat="47.39344" lon="4.99482">
        <ele>358.23</ele>
        <time>2016-12-28T13:34:50Z</time>
      </trkpt>
      <trkpt lat="47.39344" lon="4.99482">
        <ele>358.23</ele>
        <time>2016-12-28T13:35:25Z</time>
      </trkpt>
      <trkpt lat="47.39344" lon="4.99482">
        <ele>358.23</ele>
        <time>2016-12-28T13:35:58Z</time>
      </trkpt>
      <trkpt lat="47.39344" lon="4.99481">
        <ele>358.71</ele>
        <time>2016-12-28T13:36:46Z</time>
      </trkpt>
      <trkpt lat="47.39344" lon="4.99481">
        <ele>359.19</ele>
        <time>2016-12-28T13:37:05Z</time>
      </trkpt>
      <trkpt lat="47.39344" lon="4.99482">
        <ele>359.19</ele>
        <time>2016-12-28T13:37:10Z</time>
      </trkpt>
      <trkpt lat="47.39344" lon="4.99496">
        <ele>358.71</ele>
        <time>2016-12-28T13:37:15Z</time>
      </trkpt>
      <trkpt lat="47.39358" lon="4.99598">
        <ele>353.9</ele>
        <time>2016-12-28T13:37:32Z</time>
      </trkpt>
      <trkpt lat="47.39392" lon="4.99698">
        <ele>350.54</ele>
        <time>2016-12-28T13:37:47Z</time>
      </trkpt>
      <trkpt lat="47.39402" lon="4.99714">
        <ele>350.06</ele>
        <time>2016-12-28T13:37:50Z</time>
      </trkpt>
      <trkpt lat="47.39446" lon="4.99787">
        <ele>347.65</ele>
        <time>2016-12-28T13:38:05Z</time>
      </trkpt>
      <trkpt lat="47.39457" lon="4.99806">
        <ele>346.69</ele>
        <time>2016-12-28T13:38:09Z</time>
      </trkpt>
      <trkpt lat="47.39469" lon="4.9983">
        <ele>346.21</ele>
        <time>2016-12-28T13:38:14Z</time>
      </trkpt>
      <trkpt lat="47.39528" lon="4.99961">
        <ele>341.89</ele>
        <time>2016-12-28T13:38:36Z</time>
      </trkpt>
      <trkpt lat="47.39567" lon="5.00037">
        <ele>337.56</ele>
        <time>2016-12-28T13:38:47Z</time>
      </trkpt>
      <trkpt lat="47.39619" lon="5.00125">
        <ele>333.71</ele>
        <time>2016-12-28T13:39:00Z</time>
      </trkpt>
      <trkpt lat="47.39632" lon="5.00153">
        <ele>332.27</ele>
        <time>2016-12-28T13:39:04Z</time>
      </trkpt>
      <trkpt lat="47.3968" lon="5.002">
        <ele>330.35</ele>
        <time>2016-12-28T13:39:13Z</time>
      </trkpt>
      <trkpt lat="47.39697" lon="5.00227">
        <ele>330.35</ele>
        <time>2016-12-28T13:39:17Z</time>
      </trkpt>
      <trkpt lat="47.39753" lon="5.00351">
        <ele>328.91</ele>
        <time>2016-12-28T13:39:36Z</time>
      </trkpt>
      <trkpt lat="47.39774" lon="5.00403">
        <ele>326.99</ele>
        <time>2016-12-28T13:39:44Z</time>
      </trkpt>
      <trkpt lat="47.39804" lon="5.00551">
        <ele>319.3</ele>
        <time>2016-12-28T13:40:00Z</time>
      </trkpt>
      <trkpt lat="47.39828" lon="5.00673">
        <ele>314.49</ele>
        <time>2016-12-28T13:40:12Z</time>
      </trkpt>
      <trkpt lat="47.3984" lon="5.00705">
        <ele>314.01</ele>
        <time>2016-12-28T13:40:16Z</time>
      </trkpt>
      <trkpt lat="47.39897" lon="5.00797">
        <ele>312.57</ele>
        <time>2016-12-28T13:40:30Z</time>
      </trkpt>
      <trkpt lat="47.3992" lon="5.00859">
        <ele>309.68</ele>
        <time>2016-12-28T13:40:37Z</time>
      </trkpt>
      <trkpt lat="47.3996" lon="5.00972">
        <ele>306.8</ele>
        <time>2016-12-28T13:40:52Z</time>
      </trkpt>
      <trkpt lat="47.40005" lon="5.01099">
        <ele>303.43</ele>
        <time>2016-12-28T13:41:09Z</time>
      </trkpt>
      <trkpt lat="47.40027" lon="5.01165">
        <ele>303.43</ele>
        <time>2016-12-28T13:41:19Z</time>
      </trkpt>
      <trkpt lat="47.40066" lon="5.01252">
        <ele>302.95</ele>
        <time>2016-12-28T13:41:36Z</time>
      </trkpt>
      <trkpt lat="47.4007" lon="5.01254">
        <ele>303.91</ele>
        <time>2016-12-28T13:41:43Z</time>
      </trkpt>
      <trkpt lat="47.40091" lon="5.01294">
        <ele>303.43</ele>
        <time>2016-12-28T13:41:54Z</time>
      </trkpt>
      <trkpt lat="47.40124" lon="5.01344">
        <ele>302.47</ele>
        <time>2016-12-28T13:42:06Z</time>
      </trkpt>
      <trkpt lat="47.40138" lon="5.01339">
        <ele>302.95</ele>
        <time>2016-12-28T13:42:12Z</time>
      </trkpt>
      <trkpt lat="47.40162" lon="5.01255">
        <ele>307.76</ele>
        <time>2016-12-28T13:42:31Z</time>
      </trkpt>
      <trkpt lat="47.4017" lon="5.01194">
        <ele>310.16</ele>
        <time>2016-12-28T13:42:46Z</time>
      </trkpt>
      <trkpt lat="47.40178" lon="5.01126">
        <ele>313.53</ele>
        <time>2016-12-28T13:43:02Z</time>
      </trkpt>
      <trkpt lat="47.40195" lon="5.01077">
        <ele>315.45</ele>
        <time>2016-12-28T13:43:16Z</time>
      </trkpt>
      <trkpt lat="47.40206" lon="5.01031">
        <ele>316.89</ele>
        <time>2016-12-28T13:43:29Z</time>
      </trkpt>
      <trkpt lat="47.40237" lon="5.00975">
        <ele>319.3</ele>
        <time>2016-12-28T13:43:46Z</time>
      </trkpt>
      <trkpt lat="47.40261" lon="5.00915">
        <ele>323.14</ele>
        <time>2016-12-28T13:44:03Z</time>
      </trkpt>
      <trkpt lat="47.40286" lon="5.00863">
        <ele>325.54</ele>
        <time>2016-12-28T13:44:20Z</time>
      </trkpt>
      <trkpt lat="47.40312" lon="5.00829">
        <ele>328.43</ele>
        <time>2016-12-28T13:44:36Z</time>
      </trkpt>
      <trkpt lat="47.40339" lon="5.00793">
        <ele>330.83</ele>
        <time>2016-12-28T13:44:52Z</time>
      </trkpt>
      <trkpt lat="47.40343" lon="5.00788">
        <ele>330.83</ele>
        <time>2016-12-28T13:44:54Z</time>
      </trkpt>
      <trkpt lat="47.40344" lon="5.00782">
        <ele>331.31</ele>
        <time>2016-12-28T13:44:57Z</time>
      </trkpt>
      <trkpt lat="47.40356" lon="5.008">
        <ele>329.87</ele>
        <time>2016-12-28T13:45:06Z</time>
      </trkpt>
      <trkpt lat="47.40368" lon="5.00816">
        <ele>328.43</ele>
        <time>2016-12-28T13:45:12Z</time>
      </trkpt>
      <trkpt lat="47.40373" lon="5.00819">
        <ele>327.95</ele>
        <time>2016-12-28T13:45:14Z</time>
      </trkpt>
      <trkpt lat="47.40393" lon="5.00848">
        <ele>322.66</ele>
        <time>2016-12-28T13:45:22Z</time>
      </trkpt>
      <trkpt lat="47.40395" lon="5.00854">
        <ele>322.18</ele>
        <time>2016-12-28T13:45:23Z</time>
      </trkpt>
      <trkpt lat="47.40417" lon="5.00879">
        <ele>320.26</ele>
        <time>2016-12-28T13:45:32Z</time>
      </trkpt>
      <trkpt lat="47.40419" lon="5.0088">
        <ele>320.26</ele>
        <time>2016-12-28T13:45:34Z</time>
      </trkpt>
      <trkpt lat="47.40404" lon="5.00911">
        <ele>321.22</ele>
        <time>2016-12-28T13:45:44Z</time>
      </trkpt>
      <trkpt lat="47.40406" lon="5.00924">
        <ele>320.74</ele>
        <time>2016-12-28T13:45:48Z</time>
      </trkpt>
      <trkpt lat="47.40409" lon="5.0094">
        <ele>319.3</ele>
        <time>2016-12-28T13:45:52Z</time>
      </trkpt>
      <trkpt lat="47.40422" lon="5.00955">
        <ele>317.85</ele>
        <time>2016-12-28T13:46:00Z</time>
      </trkpt>
      <trkpt lat="47.40427" lon="5.00977">
        <ele>315.93</ele>
        <time>2016-12-28T13:46:07Z</time>
      </trkpt>
      <trkpt lat="47.40441" lon="5.00982">
        <ele>313.53</ele>
        <time>2016-12-28T13:46:13Z</time>
      </trkpt>
      <trkpt lat="47.40454" lon="5.00989">
        <ele>310.64</ele>
        <time>2016-12-28T13:46:20Z</time>
      </trkpt>
      <trkpt lat="47.40449" lon="5.0103">
        <ele>310.64</ele>
        <time>2016-12-28T13:46:28Z</time>
      </trkpt>
      <trkpt lat="47.40451" lon="5.01057">
        <ele>309.2</ele>
        <time>2016-12-28T13:46:34Z</time>
      </trkpt>
      <trkpt lat="47.40457" lon="5.01062">
        <ele>305.36</ele>
        <time>2016-12-28T13:46:41Z</time>
      </trkpt>
      <trkpt lat="47.40457" lon="5.01065">
        <ele>302.47</ele>
        <time>2016-12-28T13:46:59Z</time>
      </trkpt>
      <trkpt lat="47.40458" lon="5.01064">
        <ele>299.11</ele>
        <time>2016-12-28T13:47:30Z</time>
      </trkpt>
      <trkpt lat="47.40458" lon="5.01064">
        <ele>298.63</ele>
        <time>2016-12-28T13:47:35Z</time>
      </trkpt>
      <trkpt lat="47.40469" lon="5.01023">
        <ele>298.63</ele>
        <time>2016-12-28T13:47:47Z</time>
      </trkpt>
      <trkpt lat="47.40494" lon="5.00955">
        <ele>298.15</ele>
        <time>2016-12-28T13:48:03Z</time>
      </trkpt>
      <trkpt lat="47.40518" lon="5.00876">
        <ele>297.67</ele>
        <time>2016-12-28T13:48:19Z</time>
      </trkpt>
      <trkpt lat="47.40542" lon="5.00781">
        <ele>298.15</ele>
        <time>2016-12-28T13:48:36Z</time>
      </trkpt>
      <trkpt lat="47.40564" lon="5.00703">
        <ele>298.63</ele>
        <time>2016-12-28T13:48:51Z</time>
      </trkpt>
      <trkpt lat="47.40599" lon="5.00625">
        <ele>298.15</ele>
        <time>2016-12-28T13:49:08Z</time>
      </trkpt>
      <trkpt lat="47.4063" lon="5.00566">
        <ele>297.18</ele>
        <time>2016-12-28T13:49:22Z</time>
      </trkpt>
      <trkpt lat="47.40659" lon="5.0048">
        <ele>299.11</ele>
        <time>2016-12-28T13:49:39Z</time>
      </trkpt>
      <trkpt lat="47.40676" lon="5.00387">
        <ele>300.07</ele>
        <time>2016-12-28T13:49:55Z</time>
      </trkpt>
      <trkpt lat="47.40678" lon="5.00354">
        <ele>299.59</ele>
        <time>2016-12-28T13:50:00Z</time>
      </trkpt>
      <trkpt lat="47.40683" lon="5.00324">
        <ele>300.07</ele>
        <time>2016-12-28T13:50:05Z</time>
      </trkpt>
      <trkpt lat="47.40696" lon="5.00278">
        <ele>300.07</ele>
        <time>2016-12-28T13:50:13Z</time>
      </trkpt>
      <trkpt lat="47.40703" lon="5.00261">
        <ele>300.07</ele>
        <time>2016-12-28T13:50:16Z</time>
      </trkpt>
      <trkpt lat="47.40709" lon="5.00236">
        <ele>300.07</ele>
        <time>2016-12-28T13:50:20Z</time>
      </trkpt>
      <trkpt lat="47.40723" lon="5.00149">
        <ele>301.51</ele>
        <time>2016-12-28T13:50:33Z</time>
      </trkpt>
      <trkpt lat="47.40723" lon="5.001">
        <ele>301.51</ele>
        <time>2016-12-28T13:50:40Z</time>
      </trkpt>
      <trkpt lat="47.40705" lon="4.99982">
        <ele>301.51</ele>
        <time>2016-12-28T13:50:58Z</time>
      </trkpt>
      <trkpt lat="47.40683" lon="4.99855">
        <ele>300.55</ele>
        <time>2016-12-28T13:51:18Z</time>
      </trkpt>
      <trkpt lat="47.4068" lon="4.99827">
        <ele>299.59</ele>
        <time>2016-12-28T13:51:22Z</time>
      </trkpt>
      <trkpt lat="47.40672" lon="4.99693">
        <ele>301.51</ele>
        <time>2016-12-28T13:51:43Z</time>
      </trkpt>
      <trkpt lat="47.40669" lon="4.99652">
        <ele>301.51</ele>
        <time>2016-12-28T13:51:50Z</time>
      </trkpt>
      <trkpt lat="47.40675" lon="4.99583">
        <ele>303.91</ele>
        <time>2016-12-28T13:52:04Z</time>
      </trkpt>
      <trkpt lat="47.40684" lon="4.9953">
        <ele>304.88</ele>
        <time>2016-12-28T13:52:20Z</time>
      </trkpt>
      <trkpt lat="47.40685" lon="4.99481">
        <ele>311.6</ele>
        <time>2016-12-28T13:52:36Z</time>
      </trkpt>
      <trkpt lat="47.40682" lon="4.99456">
        <ele>314.49</ele>
        <time>2016-12-28T13:52:44Z</time>
      </trkpt>
      <trkpt lat="47.40679" lon="4.99443">
        <ele>315.45</ele>
        <time>2016-12-28T13:52:49Z</time>
      </trkpt>
      <trkpt lat="47.40671" lon="4.99402">
        <ele>317.85</ele>
        <time>2016-12-28T13:53:05Z</time>
      </trkpt>
      <trkpt lat="47.4067" lon="4.99372">
        <ele>319.78</ele>
        <time>2016-12-28T13:53:19Z</time>
      </trkpt>
      <trkpt lat="47.40671" lon="4.9937">
        <ele>320.26</ele>
        <time>2016-12-28T13:53:20Z</time>
      </trkpt>
      <trkpt lat="47.4067" lon="4.99336">
        <ele>324.58</ele>
        <time>2016-12-28T13:53:36Z</time>
      </trkpt>
      <trkpt lat="47.40665" lon="4.99307">
        <ele>326.02</ele>
        <time>2016-12-28T13:53:51Z</time>
      </trkpt>
      <trkpt lat="47.40664" lon="4.99305">
        <ele>326.02</ele>
        <time>2016-12-28T13:53:52Z</time>
      </trkpt>
      <trkpt lat="47.40662" lon="4.99281">
        <ele>325.06</ele>
        <time>2016-12-28T13:54:04Z</time>
      </trkpt>
      <trkpt lat="47.4066" lon="4.99267">
        <ele>327.95</ele>
        <time>2016-12-28T13:54:11Z</time>
      </trkpt>
      <trkpt lat="47.40666" lon="4.99235">
        <ele>329.39</ele>
        <time>2016-12-28T13:54:28Z</time>
      </trkpt>
      <trkpt lat="47.40666" lon="4.99229">
        <ele>328.43</ele>
        <time>2016-12-28T13:54:32Z</time>
      </trkpt>
      <trkpt lat="47.40665" lon="4.99205">
        <ele>324.1</ele>
        <time>2016-12-28T13:54:46Z</time>
      </trkpt>
      <trkpt lat="47.40665" lon="4.99182">
        <ele>317.85</ele>
        <time>2016-12-28T13:55:01Z</time>
      </trkpt>
      <trkpt lat="47.40666" lon="4.9917">
        <ele>315.93</ele>
        <time>2016-12-28T13:55:07Z</time>
      </trkpt>
      <trkpt lat="47.40658" lon="4.99164">
        <ele>315.93</ele>
        <time>2016-12-28T13:55:14Z</time>
      </trkpt>
      <trkpt lat="47.40642" lon="4.9916">
        <ele>322.18</ele>
        <time>2016-12-28T13:55:29Z</time>
      </trkpt>
      <trkpt lat="47.40629" lon="4.99162">
        <ele>328.43</ele>
        <time>2016-12-28T13:55:42Z</time>
      </trkpt>
      <trkpt lat="47.40608" lon="4.99166">
        <ele>336.6</ele>
        <time>2016-12-28T13:55:59Z</time>
      </trkpt>
      <trkpt lat="47.40599" lon="4.99164">
        <ele>340.92</ele>
        <time>2016-12-28T13:56:10Z</time>
      </trkpt>
      <trkpt lat="47.40592" lon="4.99164">
        <ele>348.62</ele>
        <time>2016-12-28T13:56:22Z</time>
      </trkpt>
      <trkpt lat="47.40586" lon="4.99163">
        <ele>354.38</ele>
        <time>2016-12-28T13:56:36Z</time>
      </trkpt>
      <trkpt lat="47.4058" lon="4.99164">
        <ele>358.23</ele>
        <time>2016-12-28T13:56:51Z</time>
      </trkpt>
      <trkpt lat="47.40573" lon="4.99165">
        <ele>363.52</ele>
        <time>2016-12-28T13:57:06Z</time>
      </trkpt>
      <trkpt lat="47.40566" lon="4.99167">
        <ele>366.88</ele>
        <time>2016-12-28T13:57:18Z</time>
      </trkpt>
      <trkpt lat="47.40563" lon="4.99169">
        <ele>367.36</ele>
        <time>2016-12-28T13:57:31Z</time>
      </trkpt>
      <trkpt lat="47.40547" lon="4.99173">
        <ele>370.73</ele>
        <time>2016-12-28T13:57:44Z</time>
      </trkpt>
      <trkpt lat="47.40528" lon="4.99174">
        <ele>372.17</ele>
        <time>2016-12-28T13:57:59Z</time>
      </trkpt>
      <trkpt lat="47.40512" lon="4.99159">
        <ele>372.65</ele>
        <time>2016-12-28T13:58:13Z</time>
      </trkpt>
      <trkpt lat="47.40506" lon="4.99152">
        <ele>372.17</ele>
        <time>2016-12-28T13:58:20Z</time>
      </trkpt>
      <trkpt lat="47.40505" lon="4.99148">
        <ele>371.69</ele>
        <time>2016-12-28T13:58:22Z</time>
      </trkpt>
      <trkpt lat="47.40501" lon="4.99139">
        <ele>370.73</ele>
        <time>2016-12-28T13:58:29Z</time>
      </trkpt>
      <trkpt lat="47.40499" lon="4.99127">
        <ele>371.69</ele>
        <time>2016-12-28T13:58:38Z</time>
      </trkpt>
      <trkpt lat="47.40501" lon="4.99119">
        <ele>372.65</ele>
        <time>2016-12-28T13:58:50Z</time>
      </trkpt>
      <trkpt lat="47.40504" lon="4.99109">
        <ele>375.05</ele>
        <time>2016-12-28T13:59:03Z</time>
      </trkpt>
      <trkpt lat="47.40505" lon="4.99106">
        <ele>376.01</ele>
        <time>2016-12-28T13:59:14Z</time>
      </trkpt>
      <trkpt lat="47.40508" lon="4.99095">
        <ele>380.34</ele>
        <time>2016-12-28T13:59:29Z</time>
      </trkpt>
      <trkpt lat="47.40509" lon="4.99082">
        <ele>382.74</ele>
        <time>2016-12-28T13:59:42Z</time>
      </trkpt>
      <trkpt lat="47.40507" lon="4.99076">
        <ele>382.74</ele>
        <time>2016-12-28T13:59:46Z</time>
      </trkpt>
      <trkpt lat="47.40502" lon="4.99052">
        <ele>385.15</ele>
        <time>2016-12-28T14:00:00Z</time>
      </trkpt>
      <trkpt lat="47.40498" lon="4.99027">
        <ele>388.99</ele>
        <time>2016-12-28T14:00:15Z</time>
      </trkpt>
      <trkpt lat="47.40492" lon="4.99011">
        <ele>389.95</ele>
        <time>2016-12-28T14:00:25Z</time>
      </trkpt>
      <trkpt lat="47.40489" lon="4.99002">
        <ele>390.91</ele>
        <time>2016-12-28T14:00:31Z</time>
      </trkpt>
      <trkpt lat="47.40487" lon="4.98986">
        <ele>394.28</ele>
        <time>2016-12-28T14:00:44Z</time>
      </trkpt>
      <trkpt lat="47.40487" lon="4.98972">
        <ele>397.16</ele>
        <time>2016-12-28T14:01:03Z</time>
      </trkpt>
      <trkpt lat="47.40488" lon="4.98958">
        <ele>398.12</ele>
        <time>2016-12-28T14:01:15Z</time>
      </trkpt>
      <trkpt lat="47.40489" lon="4.98949">
        <ele>398.6</ele>
        <time>2016-12-28T14:01:30Z</time>
      </trkpt>
      <trkpt lat="47.40489" lon="4.98937">
        <ele>399.08</ele>
        <time>2016-12-28T14:01:46Z</time>
      </trkpt>
      <trkpt lat="47.40488" lon="4.98921">
        <ele>401.49</ele>
        <time>2016-12-28T14:01:59Z</time>
      </trkpt>
      <trkpt lat="47.4049" lon="4.98912">
        <ele>404.37</ele>
        <time>2016-12-28T14:02:11Z</time>
      </trkpt>
      <trkpt lat="47.40492" lon="4.98905">
        <ele>407.74</ele>
        <time>2016-12-28T14:02:21Z</time>
      </trkpt>
      <trkpt lat="47.40495" lon="4.98891">
        <ele>411.1</ele>
        <time>2016-12-28T14:02:35Z</time>
      </trkpt>
      <trkpt lat="47.40499" lon="4.98882">
        <ele>412.54</ele>
        <time>2016-12-28T14:02:42Z</time>
      </trkpt>
      <trkpt lat="47.40504" lon="4.98871">
        <ele>413.98</ele>
        <time>2016-12-28T14:02:56Z</time>
      </trkpt>
      <trkpt lat="47.40511" lon="4.9886">
        <ele>416.39</ele>
        <time>2016-12-28T14:03:11Z</time>
      </trkpt>
      <trkpt lat="47.40516" lon="4.98856">
        <ele>417.35</ele>
        <time>2016-12-28T14:03:27Z</time>
      </trkpt>
      <trkpt lat="47.40523" lon="4.98849">
        <ele>420.23</ele>
        <time>2016-12-28T14:03:41Z</time>
      </trkpt>
      <trkpt lat="47.4053" lon="4.98843">
        <ele>419.75</ele>
        <time>2016-12-28T14:03:54Z</time>
      </trkpt>
      <trkpt lat="47.40538" lon="4.98838">
        <ele>419.75</ele>
        <time>2016-12-28T14:04:09Z</time>
      </trkpt>
      <trkpt lat="47.40547" lon="4.98832">
        <ele>421.68</ele>
        <time>2016-12-28T14:04:22Z</time>
      </trkpt>
      <trkpt lat="47.4056" lon="4.98823">
        <ele>425.04</ele>
        <time>2016-12-28T14:04:37Z</time>
      </trkpt>
      <trkpt lat="47.40566" lon="4.98816">
        <ele>426.48</ele>
        <time>2016-12-28T14:04:50Z</time>
      </trkpt>
      <trkpt lat="47.40569" lon="4.98808">
        <ele>427.92</ele>
        <time>2016-12-28T14:05:04Z</time>
      </trkpt>
      <trkpt lat="47.40573" lon="4.98791">
        <ele>431.29</ele>
        <time>2016-12-28T14:05:17Z</time>
      </trkpt>
      <trkpt lat="47.40576" lon="4.98778">
        <ele>430.81</ele>
        <time>2016-12-28T14:05:33Z</time>
      </trkpt>
      <trkpt lat="47.40576" lon="4.98764">
        <ele>429.85</ele>
        <time>2016-12-28T14:05:43Z</time>
      </trkpt>
      <trkpt lat="47.40575" lon="4.98751">
        <ele>429.37</ele>
        <time>2016-12-28T14:05:56Z</time>
      </trkpt>
      <trkpt lat="47.40572" lon="4.98735">
        <ele>432.25</ele>
        <time>2016-12-28T14:06:09Z</time>
      </trkpt>
      <trkpt lat="47.40573" lon="4.98723">
        <ele>434.65</ele>
        <time>2016-12-28T14:06:24Z</time>
      </trkpt>
      <trkpt lat="47.40572" lon="4.98718">
        <ele>434.17</ele>
        <time>2016-12-28T14:06:34Z</time>
      </trkpt>
      <trkpt lat="47.40569" lon="4.9871">
        <ele>434.65</ele>
        <time>2016-12-28T14:06:38Z</time>
      </trkpt>
      <trkpt lat="47.40565" lon="4.98693">
        <ele>435.61</ele>
        <time>2016-12-28T14:06:46Z</time>
      </trkpt>
      <trkpt lat="47.40564" lon="4.98687">
        <ele>436.1</ele>
        <time>2016-12-28T14:06:49Z</time>
      </trkpt>
      <trkpt lat="47.40561" lon="4.98658">
        <ele>436.58</ele>
        <time>2016-12-28T14:07:02Z</time>
      </trkpt>
      <trkpt lat="47.4056" lon="4.98641">
        <ele>438.02</ele>
        <time>2016-12-28T14:07:10Z</time>
      </trkpt>
      <trkpt lat="47.4056" lon="4.98635">
        <ele>438.98</ele>
        <time>2016-12-28T14:07:13Z</time>
      </trkpt>
      <trkpt lat="47.40559" lon="4.98616">
        <ele>439.46</ele>
        <time>2016-12-28T14:07:23Z</time>
      </trkpt>
      <trkpt lat="47.40558" lon="4.98606">
        <ele>439.46</ele>
        <time>2016-12-28T14:07:28Z</time>
      </trkpt>
      <trkpt lat="47.40559" lon="4.98596">
        <ele>440.42</ele>
        <time>2016-12-28T14:07:33Z</time>
      </trkpt>
      <trkpt lat="47.40558" lon="4.98589">
        <ele>441.38</ele>
        <time>2016-12-28T14:07:37Z</time>
      </trkpt>
      <trkpt lat="47.40558" lon="4.98565">
        <ele>445.23</ele>
        <time>2016-12-28T14:07:52Z</time>
      </trkpt>
      <trkpt lat="47.40561" lon="4.98545">
        <ele>446.19</ele>
        <time>2016-12-28T14:08:04Z</time>
      </trkpt>
      <trkpt lat="47.40562" lon="4.98537">
        <ele>448.11</ele>
        <time>2016-12-28T14:08:09Z</time>
      </trkpt>
      <trkpt lat="47.40567" lon="4.98517">
        <ele>449.55</ele>
        <time>2016-12-28T14:08:22Z</time>
      </trkpt>
      <trkpt lat="47.40567" lon="4.98503">
        <ele>451</ele>
        <time>2016-12-28T14:08:36Z</time>
      </trkpt>
      <trkpt lat="47.40565" lon="4.98494">
        <ele>451.48</ele>
        <time>2016-12-28T14:08:51Z</time>
      </trkpt>
      <trkpt lat="47.40563" lon="4.98479">
        <ele>458.69</ele>
        <time>2016-12-28T14:09:02Z</time>
      </trkpt>
      <trkpt lat="47.4056" lon="4.98461">
        <ele>456.76</ele>
        <time>2016-12-28T14:09:15Z</time>
      </trkpt>
      <trkpt lat="47.40558" lon="4.98449">
        <ele>457.72</ele>
        <time>2016-12-28T14:09:28Z</time>
      </trkpt>
      <trkpt lat="47.40557" lon="4.98443">
        <ele>457.24</ele>
        <time>2016-12-28T14:09:46Z</time>
      </trkpt>
      <trkpt lat="47.40556" lon="4.98443">
        <ele>457.24</ele>
        <time>2016-12-28T14:10:02Z</time>
      </trkpt>
      <trkpt lat="47.40557" lon="4.98442">
        <ele>457.24</ele>
        <time>2016-12-28T14:10:24Z</time>
      </trkpt>
      <trkpt lat="47.40558" lon="4.98441">
        <ele>456.28</ele>
        <time>2016-12-28T14:10:55Z</time>
      </trkpt>
      <trkpt lat="47.40558" lon="4.98442">
        <ele>456.76</ele>
        <time>2016-12-28T14:11:29Z</time>
      </trkpt>
      <trkpt lat="47.40557" lon="4.98442">
        <ele>456.28</ele>
        <time>2016-12-28T14:11:54Z</time>
      </trkpt>
      <trkpt lat="47.40558" lon="4.98443">
        <ele>455.8</ele>
        <time>2016-12-28T14:12:25Z</time>
      </trkpt>
      <trkpt lat="47.40557" lon="4.98443">
        <ele>456.76</ele>
        <time>2016-12-28T14:12:41Z</time>
      </trkpt>
      <trkpt lat="47.40557" lon="4.98441">
        <ele>456.28</ele>
        <time>2016-12-28T14:12:45Z</time>
      </trkpt>
      <trkpt lat="47.40538" lon="4.98414">
        <ele>456.76</ele>
        <time>2016-12-28T14:12:59Z</time>
      </trkpt>
      <trkpt lat="47.40515" lon="4.98387">
        <ele>457.24</ele>
        <time>2016-12-28T14:13:13Z</time>
      </trkpt>
      <trkpt lat="47.40483" lon="4.98354">
        <ele>459.17</ele>
        <time>2016-12-28T14:13:28Z</time>
      </trkpt>
      <trkpt lat="47.40448" lon="4.98305">
        <ele>458.69</ele>
        <time>2016-12-28T14:13:44Z</time>
      </trkpt>
      <trkpt lat="47.40425" lon="4.9826">
        <ele>458.21</ele>
        <time>2016-12-28T14:13:57Z</time>
      </trkpt>
      <trkpt lat="47.404" lon="4.98208">
        <ele>458.69</ele>
        <time>2016-12-28T14:14:12Z</time>
      </trkpt>
      <trkpt lat="47.40382" lon="4.98171">
        <ele>457.72</ele>
        <time>2016-12-28T14:14:23Z</time>
      </trkpt>
      <trkpt lat="47.40382" lon="4.98153">
        <ele>457.24</ele>
        <time>2016-12-28T14:14:28Z</time>
      </trkpt>
      <trkpt lat="47.40396" lon="4.98098">
        <ele>452.92</ele>
        <time>2016-12-28T14:14:41Z</time>
      </trkpt>
      <trkpt lat="47.40414" lon="4.98063">
        <ele>449.55</ele>
        <time>2016-12-28T14:14:48Z</time>
      </trkpt>
      <trkpt lat="47.40429" lon="4.98042">
        <ele>447.63</ele>
        <time>2016-12-28T14:14:52Z</time>
      </trkpt>
      <trkpt lat="47.40453" lon="4.98018">
        <ele>445.23</ele>
        <time>2016-12-28T14:14:57Z</time>
      </trkpt>
      <trkpt lat="47.40473" lon="4.97999">
        <ele>441.86</ele>
        <time>2016-12-28T14:15:06Z</time>
      </trkpt>
      <trkpt lat="47.40482" lon="4.97991">
        <ele>441.38</ele>
        <time>2016-12-28T14:15:11Z</time>
      </trkpt>
      <trkpt lat="47.40489" lon="4.97988">
        <ele>442.82</ele>
        <time>2016-12-28T14:15:23Z</time>
      </trkpt>
      <trkpt lat="47.40487" lon="4.97988">
        <ele>443.31</ele>
        <time>2016-12-28T14:15:26Z</time>
      </trkpt>
      <trkpt lat="47.40479" lon="4.9799">
        <ele>445.71</ele>
        <time>2016-12-28T14:15:30Z</time>
      </trkpt>
      <trkpt lat="47.40469" lon="4.97992">
        <ele>446.67</ele>
        <time>2016-12-28T14:15:33Z</time>
      </trkpt>
      <trkpt lat="47.40463" lon="4.97996">
        <ele>448.59</ele>
        <time>2016-12-28T14:15:40Z</time>
      </trkpt>
      <trkpt lat="47.40461" lon="4.97994">
        <ele>449.55</ele>
        <time>2016-12-28T14:15:43Z</time>
      </trkpt>
      <trkpt lat="47.40459" lon="4.9798">
        <ele>447.15</ele>
        <time>2016-12-28T14:15:49Z</time>
      </trkpt>
      <trkpt lat="47.40454" lon="4.97976">
        <ele>444.75</ele>
        <time>2016-12-28T14:15:56Z</time>
      </trkpt>
      <trkpt lat="47.40447" lon="4.97979">
        <ele>444.75</ele>
        <time>2016-12-28T14:16:01Z</time>
      </trkpt>
      <trkpt lat="47.4044" lon="4.97977">
        <ele>445.71</ele>
        <time>2016-12-28T14:16:05Z</time>
      </trkpt>
      <trkpt lat="47.40432" lon="4.97977">
        <ele>446.19</ele>
        <time>2016-12-28T14:16:07Z</time>
      </trkpt>
      <trkpt lat="47.40414" lon="4.97979">
        <ele>446.19</ele>
        <time>2016-12-28T14:16:11Z</time>
      </trkpt>
      <trkpt lat="47.40396" lon="4.97979">
        <ele>445.23</ele>
        <time>2016-12-28T14:16:14Z</time>
      </trkpt>
      <trkpt lat="47.40335" lon="4.97992">
        <ele>441.86</ele>
        <time>2016-12-28T14:16:24Z</time>
      </trkpt>
      <trkpt lat="47.40263" lon="4.98016">
        <ele>436.58</ele>
        <time>2016-12-28T14:16:35Z</time>
      </trkpt>
      <trkpt lat="47.40205" lon="4.98027">
        <ele>432.25</ele>
        <time>2016-12-28T14:16:44Z</time>
      </trkpt>
      <trkpt lat="47.40147" lon="4.98022">
        <ele>424.56</ele>
        <time>2016-12-28T14:16:54Z</time>
      </trkpt>
      <trkpt lat="47.40099" lon="4.98021">
        <ele>416.39</ele>
        <time>2016-12-28T14:17:04Z</time>
      </trkpt>
      <trkpt lat="47.40065" lon="4.98028">
        <ele>406.29</ele>
        <time>2016-12-28T14:17:14Z</time>
      </trkpt>
      <trkpt lat="47.40053" lon="4.98032">
        <ele>403.41</ele>
        <time>2016-12-28T14:17:17Z</time>
      </trkpt>
      <trkpt lat="47.40022" lon="4.98037">
        <ele>397.64</ele>
        <time>2016-12-28T14:17:23Z</time>
      </trkpt>
      <trkpt lat="47.39981" lon="4.98041">
        <ele>393.32</ele>
        <time>2016-12-28T14:17:29Z</time>
      </trkpt>
      <trkpt lat="47.39951" lon="4.98053">
        <ele>388.03</ele>
        <time>2016-12-28T14:17:34Z</time>
      </trkpt>
      <trkpt lat="47.39929" lon="4.98065">
        <ele>384.66</ele>
        <time>2016-12-28T14:17:41Z</time>
      </trkpt>
      <trkpt lat="47.39927" lon="4.98069">
        <ele>384.18</ele>
        <time>2016-12-28T14:17:42Z</time>
      </trkpt>
      <trkpt lat="47.39876" lon="4.9811">
        <ele>381.3</ele>
        <time>2016-12-28T14:17:52Z</time>
      </trkpt>
      <trkpt lat="47.39863" lon="4.9812">
        <ele>380.82</ele>
        <time>2016-12-28T14:17:54Z</time>
      </trkpt>
      <trkpt lat="47.39822" lon="4.98141">
        <ele>374.57</ele>
        <time>2016-12-28T14:18:02Z</time>
      </trkpt>
      <trkpt lat="47.39804" lon="4.98155">
        <ele>364.48</ele>
        <time>2016-12-28T14:18:12Z</time>
      </trkpt>
      <trkpt lat="47.39794" lon="4.98161">
        <ele>346.69</ele>
        <time>2016-12-28T14:18:35Z</time>
      </trkpt>
      <trkpt lat="47.39791" lon="4.98158">
        <ele>340.44</ele>
        <time>2016-12-28T14:19:05Z</time>
      </trkpt>
      <trkpt lat="47.39793" lon="4.98157">
        <ele>339.96</ele>
        <time>2016-12-28T14:19:26Z</time>
      </trkpt>
      <trkpt lat="47.39793" lon="4.98157">
        <ele>336.12</ele>
        <time>2016-12-28T14:19:51Z</time>
      </trkpt>
      <trkpt lat="47.39787" lon="4.98138">
        <ele>336.12</ele>
        <time>2016-12-28T14:20:00Z</time>
      </trkpt>
      <trkpt lat="47.39783" lon="4.98087">
        <ele>339</ele>
        <time>2016-12-28T14:20:11Z</time>
      </trkpt>
      <trkpt lat="47.3978" lon="4.98042">
        <ele>341.41</ele>
        <time>2016-12-28T14:20:22Z</time>
      </trkpt>
      <trkpt lat="47.39779" lon="4.98036">
        <ele>342.37</ele>
        <time>2016-12-28T14:20:24Z</time>
      </trkpt>
      <trkpt lat="47.3978" lon="4.98019">
        <ele>343.33</ele>
        <time>2016-12-28T14:20:29Z</time>
      </trkpt>
      <trkpt lat="47.39779" lon="4.97965">
        <ele>342.85</ele>
        <time>2016-12-28T14:20:41Z</time>
      </trkpt>
      <trkpt lat="47.39779" lon="4.97913">
        <ele>338.52</ele>
        <time>2016-12-28T14:20:53Z</time>
      </trkpt>
      <trkpt lat="47.39761" lon="4.97863">
        <ele>334.2</ele>
        <time>2016-12-28T14:21:06Z</time>
      </trkpt>
      <trkpt lat="47.39721" lon="4.97815">
        <ele>336.12</ele>
        <time>2016-12-28T14:21:21Z</time>
      </trkpt>
      <trkpt lat="47.39683" lon="4.97782">
        <ele>344.29</ele>
        <time>2016-12-28T14:21:34Z</time>
      </trkpt>
      <trkpt lat="47.39648" lon="4.97759">
        <ele>351.02</ele>
        <time>2016-12-28T14:21:46Z</time>
      </trkpt>
      <trkpt lat="47.39643" lon="4.97756">
        <ele>350.54</ele>
        <time>2016-12-28T14:21:57Z</time>
      </trkpt>
      <trkpt lat="47.39642" lon="4.97751">
        <ele>346.21</ele>
        <time>2016-12-28T14:22:19Z</time>
      </trkpt>
      <trkpt lat="47.39629" lon="4.97742">
        <ele>348.13</ele>
        <time>2016-12-28T14:22:35Z</time>
      </trkpt>
      <trkpt lat="47.39627" lon="4.97741">
        <ele>348.62</ele>
        <time>2016-12-28T14:22:37Z</time>
      </trkpt>
      <trkpt lat="47.39595" lon="4.97712">
        <ele>350.06</ele>
        <time>2016-12-28T14:22:50Z</time>
      </trkpt>
      <trkpt lat="47.39563" lon="4.9768">
        <ele>351.5</ele>
        <time>2016-12-28T14:23:04Z</time>
      </trkpt>
      <trkpt lat="47.39525" lon="4.97636">
        <ele>351.5</ele>
        <time>2016-12-28T14:23:20Z</time>
      </trkpt>
      <trkpt lat="47.39489" lon="4.97581">
        <ele>347.17</ele>
        <time>2016-12-28T14:23:35Z</time>
      </trkpt>
      <trkpt lat="47.39467" lon="4.97533">
        <ele>346.21</ele>
        <time>2016-12-28T14:23:47Z</time>
      </trkpt>
      <trkpt lat="47.39443" lon="4.97489">
        <ele>351.02</ele>
        <time>2016-12-28T14:24:00Z</time>
      </trkpt>
      <trkpt lat="47.39417" lon="4.97448">
        <ele>355.34</ele>
        <time>2016-12-28T14:24:13Z</time>
      </trkpt>
      <trkpt lat="47.39402" lon="4.97423">
        <ele>354.86</ele>
        <time>2016-12-28T14:24:21Z</time>
      </trkpt>
      <trkpt lat="47.39383" lon="4.97391">
        <ele>354.38</ele>
        <time>2016-12-28T14:24:31Z</time>
      </trkpt>
      <trkpt lat="47.39372" lon="4.97378">
        <ele>351.02</ele>
        <time>2016-12-28T14:24:43Z</time>
      </trkpt>
      <trkpt lat="47.39369" lon="4.97378">
        <ele>351.5</ele>
        <time>2016-12-28T14:25:08Z</time>
      </trkpt>
      <trkpt lat="47.3937" lon="4.97378">
        <ele>351.98</ele>
        <time>2016-12-28T14:25:37Z</time>
      </trkpt>
      <trkpt lat="47.39371" lon="4.97377">
        <ele>351.02</ele>
        <time>2016-12-28T14:26:06Z</time>
      </trkpt>
      <trkpt lat="47.39369" lon="4.97375">
        <ele>351.5</ele>
        <time>2016-12-28T14:26:28Z</time>
      </trkpt>
      <trkpt lat="47.39369" lon="4.97375">
        <ele>351.5</ele>
        <time>2016-12-28T14:26:31Z</time>
      </trkpt>
      <trkpt lat="47.39363" lon="4.9735">
        <ele>353.42</ele>
        <time>2016-12-28T14:26:40Z</time>
      </trkpt>
      <trkpt lat="47.39348" lon="4.97326">
        <ele>359.19</ele>
        <time>2016-12-28T14:26:50Z</time>
      </trkpt>
      <trkpt lat="47.39337" lon="4.9732">
        <ele>363.04</ele>
        <time>2016-12-28T14:26:57Z</time>
      </trkpt>
      <trkpt lat="47.39316" lon="4.97309">
        <ele>363.52</ele>
        <time>2016-12-28T14:27:08Z</time>
      </trkpt>
      <trkpt lat="47.39297" lon="4.97305">
        <ele>365.44</ele>
        <time>2016-12-28T14:27:20Z</time>
      </trkpt>
      <trkpt lat="47.39295" lon="4.97304">
        <ele>364.96</ele>
        <time>2016-12-28T14:27:30Z</time>
      </trkpt>
      <trkpt lat="47.39283" lon="4.97298">
        <ele>364.48</ele>
        <time>2016-12-28T14:27:43Z</time>
      </trkpt>
      <trkpt lat="47.39259" lon="4.97289">
        <ele>368.32</ele>
        <time>2016-12-28T14:27:56Z</time>
      </trkpt>
      <trkpt lat="47.39237" lon="4.97279">
        <ele>370.73</ele>
        <time>2016-12-28T14:28:10Z</time>
      </trkpt>
      <trkpt lat="47.39225" lon="4.97269">
        <ele>372.17</ele>
        <time>2016-12-28T14:28:21Z</time>
      </trkpt>
      <trkpt lat="47.39232" lon="4.97254">
        <ele>370.24</ele>
        <time>2016-12-28T14:28:35Z</time>
      </trkpt>
      <trkpt lat="47.39235" lon="4.97251">
        <ele>369.28</ele>
        <time>2016-12-28T14:28:39Z</time>
      </trkpt>
      <trkpt lat="47.3924" lon="4.97247">
        <ele>368.8</ele>
        <time>2016-12-28T14:28:44Z</time>
      </trkpt>
      <trkpt lat="47.39244" lon="4.9724">
        <ele>367.36</ele>
        <time>2016-12-28T14:28:49Z</time>
      </trkpt>
      <trkpt lat="47.39254" lon="4.97228">
        <ele>367.36</ele>
        <time>2016-12-28T14:29:02Z</time>
      </trkpt>
      <trkpt lat="47.39258" lon="4.97224">
        <ele>367.36</ele>
        <time>2016-12-28T14:29:06Z</time>
      </trkpt>
      <trkpt lat="47.39265" lon="4.97217">
        <ele>368.32</ele>
        <time>2016-12-28T14:29:13Z</time>
      </trkpt>
      <trkpt lat="47.3928" lon="4.97206">
        <ele>369.76</ele>
        <time>2016-12-28T14:29:28Z</time>
      </trkpt>
      <trkpt lat="47.39289" lon="4.97196">
        <ele>370.73</ele>
        <time>2016-12-28T14:29:39Z</time>
      </trkpt>
      <trkpt lat="47.39293" lon="4.97176">
        <ele>371.21</ele>
        <time>2016-12-28T14:29:53Z</time>
      </trkpt>
      <trkpt lat="47.39292" lon="4.97156">
        <ele>374.57</ele>
        <time>2016-12-28T14:30:06Z</time>
      </trkpt>
      <trkpt lat="47.39291" lon="4.97145">
        <ele>376.97</ele>
        <time>2016-12-28T14:30:19Z</time>
      </trkpt>
      <trkpt lat="47.39288" lon="4.97138">
        <ele>377.45</ele>
        <time>2016-12-28T14:30:31Z</time>
      </trkpt>
      <trkpt lat="47.39285" lon="4.97124">
        <ele>379.86</ele>
        <time>2016-12-28T14:30:42Z</time>
      </trkpt>
      <trkpt lat="47.39278" lon="4.97102">
        <ele>383.22</ele>
        <time>2016-12-28T14:30:56Z</time>
      </trkpt>
      <trkpt lat="47.39268" lon="4.97082">
        <ele>387.55</ele>
        <time>2016-12-28T14:31:10Z</time>
      </trkpt>
      <trkpt lat="47.39257" lon="4.97063">
        <ele>389.95</ele>
        <time>2016-12-28T14:31:24Z</time>
      </trkpt>
      <trkpt lat="47.39248" lon="4.97045">
        <ele>391.87</ele>
        <time>2016-12-28T14:31:35Z</time>
      </trkpt>
      <trkpt lat="47.39245" lon="4.97019">
        <ele>393.32</ele>
        <time>2016-12-28T14:31:48Z</time>
      </trkpt>
      <trkpt lat="47.39246" lon="4.96999">
        <ele>392.84</ele>
        <time>2016-12-28T14:31:57Z</time>
      </trkpt>
      <trkpt lat="47.39253" lon="4.96967">
        <ele>393.32</ele>
        <time>2016-12-28T14:32:12Z</time>
      </trkpt>
      <trkpt lat="47.39253" lon="4.96966">
        <ele>393.32</ele>
        <time>2016-12-28T14:32:13Z</time>
      </trkpt>
      <trkpt lat="47.39254" lon="4.96952">
        <ele>394.28</ele>
        <time>2016-12-28T14:32:20Z</time>
      </trkpt>
      <trkpt lat="47.39255" lon="4.96937">
        <ele>394.76</ele>
        <time>2016-12-28T14:32:27Z</time>
      </trkpt>
      <trkpt lat="47.39256" lon="4.96911">
        <ele>396.2</ele>
        <time>2016-12-28T14:32:39Z</time>
      </trkpt>
      <trkpt lat="47.39252" lon="4.96899">
        <ele>397.16</ele>
        <time>2016-12-28T14:32:44Z</time>
      </trkpt>
      <trkpt lat="47.39251" lon="4.96892">
        <ele>398.12</ele>
        <time>2016-12-28T14:32:47Z</time>
      </trkpt>
      <trkpt lat="47.39251" lon="4.96882">
        <ele>399.57</ele>
        <time>2016-12-28T14:32:52Z</time>
      </trkpt>
      <trkpt lat="47.39251" lon="4.96868">
        <ele>401.97</ele>
        <time>2016-12-28T14:32:59Z</time>
      </trkpt>
      <trkpt lat="47.39248" lon="4.96851">
        <ele>403.41</ele>
        <time>2016-12-28T14:33:07Z</time>
      </trkpt>
      <trkpt lat="47.39245" lon="4.96837">
        <ele>404.37</ele>
        <time>2016-12-28T14:33:14Z</time>
      </trkpt>
      <trkpt lat="47.39243" lon="4.96827">
        <ele>404.85</ele>
        <time>2016-12-28T14:33:19Z</time>
      </trkpt>
      <trkpt lat="47.39241" lon="4.96817">
        <ele>405.33</ele>
        <time>2016-12-28T14:33:24Z</time>
      </trkpt>
      <trkpt lat="47.39237" lon="4.96798">
        <ele>407.74</ele>
        <time>2016-12-28T14:33:34Z</time>
      </trkpt>
      <trkpt lat="47.39236" lon="4.96791">
        <ele>407.74</ele>
        <time>2016-12-28T14:33:38Z</time>
      </trkpt>
      <trkpt lat="47.39226" lon="4.96761">
        <ele>408.7</ele>
        <time>2016-12-28T14:33:51Z</time>
      </trkpt>
      <trkpt lat="47.39208" lon="4.96725">
        <ele>411.58</ele>
        <time>2016-12-28T14:34:06Z</time>
      </trkpt>
      <trkpt lat="47.39205" lon="4.96717">
        <ele>412.06</ele>
        <time>2016-12-28T14:34:10Z</time>
      </trkpt>
      <trkpt lat="47.3919" lon="4.96677">
        <ele>413.5</ele>
        <time>2016-12-28T14:34:25Z</time>
      </trkpt>
      <trkpt lat="47.39179" lon="4.96647">
        <ele>416.39</ele>
        <time>2016-12-28T14:34:37Z</time>
      </trkpt>
      <trkpt lat="47.3916" lon="4.9662">
        <ele>419.27</ele>
        <time>2016-12-28T14:34:50Z</time>
      </trkpt>
      <trkpt lat="47.39136" lon="4.96585">
        <ele>420.23</ele>
        <time>2016-12-28T14:35:05Z</time>
      </trkpt>
      <trkpt lat="47.39117" lon="4.96557">
        <ele>422.16</ele>
        <time>2016-12-28T14:35:17Z</time>
      </trkpt>
      <trkpt lat="47.39105" lon="4.96518">
        <ele>422.16</ele>
        <time>2016-12-28T14:35:30Z</time>
      </trkpt>
      <trkpt lat="47.39091" lon="4.96476">
        <ele>422.64</ele>
        <time>2016-12-28T14:35:43Z</time>
      </trkpt>
      <trkpt lat="47.39091" lon="4.96428">
        <ele>421.68</ele>
        <time>2016-12-28T14:35:57Z</time>
      </trkpt>
      <trkpt lat="47.39092" lon="4.96419">
        <ele>421.19</ele>
        <time>2016-12-28T14:36:00Z</time>
      </trkpt>
      <trkpt lat="47.39093" lon="4.96402">
        <ele>421.19</ele>
        <time>2016-12-28T14:36:06Z</time>
      </trkpt>
      <trkpt lat="47.39094" lon="4.96391">
        <ele>421.68</ele>
        <time>2016-12-28T14:36:11Z</time>
      </trkpt>
      <trkpt lat="47.39096" lon="4.96372">
        <ele>425.04</ele>
        <time>2016-12-28T14:36:19Z</time>
      </trkpt>
      <trkpt lat="47.39093" lon="4.96352">
        <ele>425.52</ele>
        <time>2016-12-28T14:36:26Z</time>
      </trkpt>
      <trkpt lat="47.39093" lon="4.96314">
        <ele>428.89</ele>
        <time>2016-12-28T14:36:41Z</time>
      </trkpt>
      <trkpt lat="47.39093" lon="4.96311">
        <ele>428.89</ele>
        <time>2016-12-28T14:36:42Z</time>
      </trkpt>
      <trkpt lat="47.39092" lon="4.96284">
        <ele>428.4</ele>
        <time>2016-12-28T14:36:54Z</time>
      </trkpt>
      <trkpt lat="47.3909" lon="4.96271">
        <ele>428.4</ele>
        <time>2016-12-28T14:36:58Z</time>
      </trkpt>
      <trkpt lat="47.39087" lon="4.96252">
        <ele>427.92</ele>
        <time>2016-12-28T14:37:05Z</time>
      </trkpt>
      <trkpt lat="47.3909" lon="4.96235">
        <ele>427.44</ele>
        <time>2016-12-28T14:37:12Z</time>
      </trkpt>
      <trkpt lat="47.3909" lon="4.96227">
        <ele>426.96</ele>
        <time>2016-12-28T14:37:15Z</time>
      </trkpt>
      <trkpt lat="47.39089" lon="4.96213">
        <ele>426.48</ele>
        <time>2016-12-28T14:37:20Z</time>
      </trkpt>
      <trkpt lat="47.39088" lon="4.96209">
        <ele>426.48</ele>
        <time>2016-12-28T14:37:22Z</time>
      </trkpt>
      <trkpt lat="47.39082" lon="4.96173">
        <ele>426</ele>
        <time>2016-12-28T14:37:34Z</time>
      </trkpt>
      <trkpt lat="47.39073" lon="4.96128">
        <ele>426.48</ele>
        <time>2016-12-28T14:37:47Z</time>
      </trkpt>
      <trkpt lat="47.39067" lon="4.96074">
        <ele>425.52</ele>
        <time>2016-12-28T14:38:01Z</time>
      </trkpt>
      <trkpt lat="47.39047" lon="4.96023">
        <ele>427.92</ele>
        <time>2016-12-28T14:38:15Z</time>
      </trkpt>
      <trkpt lat="47.39044" lon="4.95979">
        <ele>428.89</ele>
        <time>2016-12-28T14:38:25Z</time>
      </trkpt>
      <trkpt lat="47.39037" lon="4.95934">
        <ele>432.73</ele>
        <time>2016-12-28T14:38:35Z</time>
      </trkpt>
      <trkpt lat="47.39038" lon="4.95884">
        <ele>438.98</ele>
        <time>2016-12-28T14:38:50Z</time>
      </trkpt>
      <trkpt lat="47.39037" lon="4.95844">
        <ele>440.42</ele>
        <time>2016-12-28T14:39:02Z</time>
      </trkpt>
      <trkpt lat="47.39039" lon="4.95812">
        <ele>439.94</ele>
        <time>2016-12-28T14:39:12Z</time>
      </trkpt>
      <trkpt lat="47.39025" lon="4.95758">
        <ele>439.94</ele>
        <time>2016-12-28T14:39:28Z</time>
      </trkpt>
      <trkpt lat="47.39015" lon="4.95709">
        <ele>440.42</ele>
        <time>2016-12-28T14:39:41Z</time>
      </trkpt>
      <trkpt lat="47.38998" lon="4.95662">
        <ele>445.71</ele>
        <time>2016-12-28T14:39:53Z</time>
      </trkpt>
      <trkpt lat="47.3899" lon="4.95633">
        <ele>450.03</ele>
        <time>2016-12-28T14:40:04Z</time>
      </trkpt>
      <trkpt lat="47.38989" lon="4.95631">
        <ele>451</ele>
        <time>2016-12-28T14:40:28Z</time>
      </trkpt>
      <trkpt lat="47.38988" lon="4.95629">
        <ele>451</ele>
        <time>2016-12-28T14:40:58Z</time>
      </trkpt>
      <trkpt lat="47.38986" lon="4.95629">
        <ele>451.48</ele>
        <time>2016-12-28T14:41:31Z</time>
      </trkpt>
      <trkpt lat="47.38985" lon="4.95622">
        <ele>452.44</ele>
        <time>2016-12-28T14:41:55Z</time>
      </trkpt>
      <trkpt lat="47.38984" lon="4.95607">
        <ele>454.36</ele>
        <time>2016-12-28T14:42:02Z</time>
      </trkpt>
      <trkpt lat="47.38982" lon="4.95578">
        <ele>455.32</ele>
        <time>2016-12-28T14:42:13Z</time>
      </trkpt>
      <trkpt lat="47.38984" lon="4.95555">
        <ele>453.4</ele>
        <time>2016-12-28T14:42:21Z</time>
      </trkpt>
      <trkpt lat="47.38983" lon="4.95523">
        <ele>451</ele>
        <time>2016-12-28T14:42:31Z</time>
      </trkpt>
      <trkpt lat="47.38986" lon="4.95488">
        <ele>449.55</ele>
        <time>2016-12-28T14:42:44Z</time>
      </trkpt>
      <trkpt lat="47.38987" lon="4.95465">
        <ele>447.63</ele>
        <time>2016-12-28T14:42:52Z</time>
      </trkpt>
      <trkpt lat="47.38988" lon="4.95423">
        <ele>449.07</ele>
        <time>2016-12-28T14:43:04Z</time>
      </trkpt>
      <trkpt lat="47.38994" lon="4.95385">
        <ele>454.36</ele>
        <time>2016-12-28T14:43:16Z</time>
      </trkpt>
      <trkpt lat="47.39011" lon="4.95344">
        <ele>457.24</ele>
        <time>2016-12-28T14:43:32Z</time>
      </trkpt>
      <trkpt lat="47.39023" lon="4.95306">
        <ele>459.17</ele>
        <time>2016-12-28T14:43:48Z</time>
      </trkpt>
      <trkpt lat="47.39027" lon="4.95261">
        <ele>460.61</ele>
        <time>2016-12-28T14:44:03Z</time>
      </trkpt>
      <trkpt lat="47.39028" lon="4.95214">
        <ele>463.01</ele>
        <time>2016-12-28T14:44:19Z</time>
      </trkpt>
      <trkpt lat="47.39028" lon="4.95168">
        <ele>463.97</ele>
        <time>2016-12-28T14:44:35Z</time>
      </trkpt>
      <trkpt lat="47.39025" lon="4.95151">
        <ele>466.38</ele>
        <time>2016-12-28T14:44:50Z</time>
      </trkpt>
      <trkpt lat="47.39026" lon="4.95151">
        <ele>466.38</ele>
        <time>2016-12-28T14:45:04Z</time>
      </trkpt>
      <trkpt lat="47.39025" lon="4.95111">
        <ele>467.34</ele>
        <time>2016-12-28T14:45:17Z</time>
      </trkpt>
      <trkpt lat="47.39021" lon="4.95058">
        <ele>469.26</ele>
        <time>2016-12-28T14:45:31Z</time>
      </trkpt>
      <trkpt lat="47.39018" lon="4.95025">
        <ele>471.18</ele>
        <time>2016-12-28T14:45:44Z</time>
      </trkpt>
      <trkpt lat="47.39018" lon="4.95024">
        <ele>471.18</ele>
        <time>2016-12-28T14:45:47Z</time>
      </trkpt>
      <trkpt lat="47.3902" lon="4.94974">
        <ele>474.07</ele>
        <time>2016-12-28T14:46:01Z</time>
      </trkpt>
      <trkpt lat="47.39035" lon="4.94917">
        <ele>475.03</ele>
        <time>2016-12-28T14:46:18Z</time>
      </trkpt>
      <trkpt lat="47.39055" lon="4.94873">
        <ele>475.51</ele>
        <time>2016-12-28T14:46:32Z</time>
      </trkpt>
      <trkpt lat="47.39069" lon="4.94833">
        <ele>481.28</ele>
        <time>2016-12-28T14:46:44Z</time>
      </trkpt>
      <trkpt lat="47.39079" lon="4.94789">
        <ele>483.68</ele>
        <time>2016-12-28T14:46:59Z</time>
      </trkpt>
      <trkpt lat="47.39083" lon="4.94749">
        <ele>482.72</ele>
        <time>2016-12-28T14:47:12Z</time>
      </trkpt>
      <trkpt lat="47.39087" lon="4.9471">
        <ele>481.76</ele>
        <time>2016-12-28T14:47:24Z</time>
      </trkpt>
      <trkpt lat="47.39091" lon="4.94665">
        <ele>483.2</ele>
        <time>2016-12-28T14:47:37Z</time>
      </trkpt>
      <trkpt lat="47.39095" lon="4.9461">
        <ele>486.08</ele>
        <time>2016-12-28T14:47:53Z</time>
      </trkpt>
      <trkpt lat="47.391" lon="4.9456">
        <ele>487.05</ele>
        <time>2016-12-28T14:48:06Z</time>
      </trkpt>
      <trkpt lat="47.39103" lon="4.94499">
        <ele>487.05</ele>
        <time>2016-12-28T14:48:22Z</time>
      </trkpt>
      <trkpt lat="47.39106" lon="4.94455">
        <ele>488.97</ele>
        <time>2016-12-28T14:48:35Z</time>
      </trkpt>
      <trkpt lat="47.39114" lon="4.944">
        <ele>490.89</ele>
        <time>2016-12-28T14:48:50Z</time>
      </trkpt>
      <trkpt lat="47.39132" lon="4.94337">
        <ele>494.74</ele>
        <time>2016-12-28T14:49:09Z</time>
      </trkpt>
      <trkpt lat="47.39135" lon="4.94331">
        <ele>495.22</ele>
        <time>2016-12-28T14:49:13Z</time>
      </trkpt>
      <trkpt lat="47.39136" lon="4.94322">
        <ele>496.18</ele>
        <time>2016-12-28T14:49:28Z</time>
      </trkpt>
      <trkpt lat="47.39137" lon="4.94323">
        <ele>495.7</ele>
        <time>2016-12-28T14:49:54Z</time>
      </trkpt>
      <trkpt lat="47.39138" lon="4.94323">
        <ele>496.66</ele>
        <time>2016-12-28T14:50:17Z</time>
      </trkpt>
      <trkpt lat="47.39138" lon="4.94322">
        <ele>497.62</ele>
        <time>2016-12-28T14:50:53Z</time>
      </trkpt>
      <trkpt lat="47.39138" lon="4.94322">
        <ele>497.62</ele>
        <time>2016-12-28T14:50:56Z</time>
      </trkpt>
      <trkpt lat="47.3914" lon="4.94321">
        <ele>497.62</ele>
        <time>2016-12-28T14:50:59Z</time>
      </trkpt>
      <trkpt lat="47.3915" lon="4.94329">
        <ele>498.1</ele>
        <time>2016-12-28T14:51:07Z</time>
      </trkpt>
      <trkpt lat="47.39191" lon="4.94354">
        <ele>500.5</ele>
        <time>2016-12-28T14:51:24Z</time>
      </trkpt>
      <trkpt lat="47.39214" lon="4.94381">
        <ele>500.98</ele>
        <time>2016-12-28T14:51:36Z</time>
      </trkpt>
      <trkpt lat="47.39237" lon="4.94426">
        <ele>504.35</ele>
        <time>2016-12-28T14:51:50Z</time>
      </trkpt>
      <trkpt lat="47.39268" lon="4.94472">
        <ele>501.95</ele>
        <time>2016-12-28T14:52:05Z</time>
      </trkpt>
      <trkpt lat="47.39299" lon="4.94482">
        <ele>501.95</ele>
        <time>2016-12-28T14:52:19Z</time>
      </trkpt>
      <trkpt lat="47.39337" lon="4.94496">
        <ele>502.91</ele>
        <time>2016-12-28T14:52:36Z</time>
      </trkpt>
      <trkpt lat="47.39363" lon="4.94483">
        <ele>502.91</ele>
        <time>2016-12-28T14:52:48Z</time>
      </trkpt>
      <trkpt lat="47.39403" lon="4.94482">
        <ele>504.35</ele>
        <time>2016-12-28T14:53:03Z</time>
      </trkpt>
      <trkpt lat="47.39445" lon="4.94471">
        <ele>503.39</ele>
        <time>2016-12-28T14:53:16Z</time>
      </trkpt>
      <trkpt lat="47.39466" lon="4.94466">
        <ele>500.5</ele>
        <time>2016-12-28T14:53:21Z</time>
      </trkpt>
      <trkpt lat="47.39492" lon="4.94494">
        <ele>495.7</ele>
        <time>2016-12-28T14:53:30Z</time>
      </trkpt>
      <trkpt lat="47.39492" lon="4.94501">
        <ele>495.22</ele>
        <time>2016-12-28T14:53:32Z</time>
      </trkpt>
      <trkpt lat="47.39493" lon="4.94508">
        <ele>494.26</ele>
        <time>2016-12-28T14:53:34Z</time>
      </trkpt>
      <trkpt lat="47.39517" lon="4.94564">
        <ele>494.26</ele>
        <time>2016-12-28T14:53:46Z</time>
      </trkpt>
      <trkpt lat="47.39536" lon="4.9462">
        <ele>497.14</ele>
        <time>2016-12-28T14:53:58Z</time>
      </trkpt>
      <trkpt lat="47.39546" lon="4.94656">
        <ele>500.02</ele>
        <time>2016-12-28T14:54:09Z</time>
      </trkpt>
      <trkpt lat="47.39564" lon="4.94684">
        <ele>502.43</ele>
        <time>2016-12-28T14:54:19Z</time>
      </trkpt>
      <trkpt lat="47.3959" lon="4.94709">
        <ele>505.31</ele>
        <time>2016-12-28T14:54:30Z</time>
      </trkpt>
      <trkpt lat="47.39616" lon="4.9473">
        <ele>507.71</ele>
        <time>2016-12-28T14:54:42Z</time>
      </trkpt>
      <trkpt lat="47.39647" lon="4.9476">
        <ele>509.16</ele>
        <time>2016-12-28T14:54:55Z</time>
      </trkpt>
      <trkpt lat="47.39671" lon="4.94779">
        <ele>511.56</ele>
        <time>2016-12-28T14:55:06Z</time>
      </trkpt>
      <trkpt lat="47.39679" lon="4.94775">
        <ele>511.56</ele>
        <time>2016-12-28T14:55:10Z</time>
      </trkpt>
      <trkpt lat="47.39682" lon="4.94771">
        <ele>511.56</ele>
        <time>2016-12-28T14:55:12Z</time>
      </trkpt>
      <trkpt lat="47.3971" lon="4.94791">
        <ele>513.48</ele>
        <time>2016-12-28T14:55:23Z</time>
      </trkpt>
      <trkpt lat="47.39736" lon="4.94812">
        <ele>513.96</ele>
        <time>2016-12-28T14:55:35Z</time>
      </trkpt>
      <trkpt lat="47.39762" lon="4.94831">
        <ele>515.4</ele>
        <time>2016-12-28T14:55:47Z</time>
      </trkpt>
      <trkpt lat="47.39791" lon="4.9485">
        <ele>515.88</ele>
        <time>2016-12-28T14:55:59Z</time>
      </trkpt>
      <trkpt lat="47.39825" lon="4.94873">
        <ele>515.88</ele>
        <time>2016-12-28T14:56:11Z</time>
      </trkpt>
      <trkpt lat="47.39846" lon="4.94881">
        <ele>514.44</ele>
        <time>2016-12-28T14:56:17Z</time>
      </trkpt>
      <trkpt lat="47.39881" lon="4.94896">
        <ele>512.04</ele>
        <time>2016-12-28T14:56:28Z</time>
      </trkpt>
      <trkpt lat="47.3991" lon="4.94915">
        <ele>511.56</ele>
        <time>2016-12-28T14:56:39Z</time>
      </trkpt>
      <trkpt lat="47.39948" lon="4.94952">
        <ele>512.52</ele>
        <time>2016-12-28T14:56:52Z</time>
      </trkpt>
      <trkpt lat="47.39981" lon="4.95004">
        <ele>512.52</ele>
        <time>2016-12-28T14:57:05Z</time>
      </trkpt>
      <trkpt lat="47.39996" lon="4.95062">
        <ele>512.52</ele>
        <time>2016-12-28T14:57:17Z</time>
      </trkpt>
      <trkpt lat="47.40013" lon="4.95121">
        <ele>514.44</ele>
        <time>2016-12-28T14:57:29Z</time>
      </trkpt>
      <trkpt lat="47.40024" lon="4.95165">
        <ele>519.25</ele>
        <time>2016-12-28T14:57:42Z</time>
      </trkpt>
      <trkpt lat="47.40026" lon="4.95181">
        <ele>519.73</ele>
        <time>2016-12-28T14:57:54Z</time>
      </trkpt>
      <trkpt lat="47.40023" lon="4.95182">
        <ele>519.25</ele>
        <time>2016-12-28T14:58:23Z</time>
      </trkpt>
      <trkpt lat="47.40022" lon="4.95183">
        <ele>517.81</ele>
        <time>2016-12-28T14:58:43Z</time>
      </trkpt>
      <trkpt lat="47.40021" lon="4.95183">
        <ele>517.81</ele>
        <time>2016-12-28T14:59:09Z</time>
      </trkpt>
      <trkpt lat="47.4002" lon="4.95185">
        <ele>517.81</ele>
        <time>2016-12-28T14:59:11Z</time>
      </trkpt>
      <trkpt lat="47.40015" lon="4.95191">
        <ele>517.33</ele>
        <time>2016-12-28T14:59:16Z</time>
      </trkpt>
      <trkpt lat="47.40014" lon="4.95207">
        <ele>518.29</ele>
        <time>2016-12-28T14:59:21Z</time>
      </trkpt>
      <trkpt lat="47.40005" lon="4.95254">
        <ele>518.29</ele>
        <time>2016-12-28T14:59:34Z</time>
      </trkpt>
      <trkpt lat="47.39994" lon="4.95291">
        <ele>517.33</ele>
        <time>2016-12-28T14:59:42Z</time>
      </trkpt>
      <trkpt lat="47.39994" lon="4.9531">
        <ele>516.85</ele>
        <time>2016-12-28T14:59:46Z</time>
      </trkpt>
      <trkpt lat="47.39992" lon="4.95337">
        <ele>515.4</ele>
        <time>2016-12-28T14:59:52Z</time>
      </trkpt>
      <trkpt lat="47.39981" lon="4.95396">
        <ele>513.96</ele>
        <time>2016-12-28T15:00:04Z</time>
      </trkpt>
      <trkpt lat="47.39976" lon="4.95448">
        <ele>512.04</ele>
        <time>2016-12-28T15:00:14Z</time>
      </trkpt>
      <trkpt lat="47.39965" lon="4.95504">
        <ele>509.16</ele>
        <time>2016-12-28T15:00:24Z</time>
      </trkpt>
      <trkpt lat="47.3996" lon="4.95541">
        <ele>504.83</ele>
        <time>2016-12-28T15:00:31Z</time>
      </trkpt>
      <trkpt lat="47.39952" lon="4.95567">
        <ele>504.35</ele>
        <time>2016-12-28T15:00:36Z</time>
      </trkpt>
      <trkpt lat="47.39927" lon="4.95626">
        <ele>502.91</ele>
        <time>2016-12-28T15:00:47Z</time>
      </trkpt>
      <trkpt lat="47.39915" lon="4.95657">
        <ele>500.98</ele>
        <time>2016-12-28T15:00:52Z</time>
      </trkpt>
      <trkpt lat="47.39899" lon="4.95734">
        <ele>494.74</ele>
        <time>2016-12-28T15:01:04Z</time>
      </trkpt>
      <trkpt lat="47.39897" lon="4.95737">
        <ele>494.26</ele>
        <time>2016-12-28T15:01:06Z</time>
      </trkpt>
      <trkpt lat="47.39863" lon="4.9571">
        <ele>492.33</ele>
        <time>2016-12-28T15:01:17Z</time>
      </trkpt>
      <trkpt lat="47.39851" lon="4.95701">
        <ele>491.85</ele>
        <time>2016-12-28T15:01:20Z</time>
      </trkpt>
      <trkpt lat="47.39807" lon="4.95663">
        <ele>489.93</ele>
        <time>2016-12-28T15:01:31Z</time>
      </trkpt>
      <trkpt lat="47.39789" lon="4.95647">
        <ele>489.93</ele>
        <time>2016-12-28T15:01:35Z</time>
      </trkpt>
      <trkpt lat="47.39747" lon="4.95611">
        <ele>487.05</ele>
        <time>2016-12-28T15:01:46Z</time>
      </trkpt>
      <trkpt lat="47.39731" lon="4.95598">
        <ele>484.64</ele>
        <time>2016-12-28T15:01:51Z</time>
      </trkpt>
      <trkpt lat="47.39708" lon="4.95619">
        <ele>479.84</ele>
        <time>2016-12-28T15:01:59Z</time>
      </trkpt>
      <trkpt lat="47.39707" lon="4.95624">
        <ele>478.87</ele>
        <time>2016-12-28T15:02:00Z</time>
      </trkpt>
      <trkpt lat="47.39708" lon="4.95655">
        <ele>474.55</ele>
        <time>2016-12-28T15:02:05Z</time>
      </trkpt>
      <trkpt lat="47.39709" lon="4.95698">
        <ele>468.78</ele>
        <time>2016-12-28T15:02:14Z</time>
      </trkpt>
      <trkpt lat="47.39717" lon="4.95718">
        <ele>465.9</ele>
        <time>2016-12-28T15:02:20Z</time>
      </trkpt>
      <trkpt lat="47.39707" lon="4.95743">
        <ele>462.05</ele>
        <time>2016-12-28T15:02:27Z</time>
      </trkpt>
      <trkpt lat="47.39696" lon="4.95746">
        <ele>461.09</ele>
        <time>2016-12-28T15:02:29Z</time>
      </trkpt>
      <trkpt lat="47.39656" lon="4.95742">
        <ele>458.21</ele>
        <time>2016-12-28T15:02:38Z</time>
      </trkpt>
      <trkpt lat="47.39644" lon="4.95738">
        <ele>457.72</ele>
        <time>2016-12-28T15:02:41Z</time>
      </trkpt>
      <trkpt lat="47.39625" lon="4.95741">
        <ele>457.24</ele>
        <time>2016-12-28T15:02:45Z</time>
      </trkpt>
      <trkpt lat="47.39605" lon="4.95757">
        <ele>455.8</ele>
        <time>2016-12-28T15:02:50Z</time>
      </trkpt>
      <trkpt lat="47.39595" lon="4.95773">
        <ele>453.4</ele>
        <time>2016-12-28T15:02:54Z</time>
      </trkpt>
      <trkpt lat="47.39584" lon="4.95791">
        <ele>450.03</ele>
        <time>2016-12-28T15:03:06Z</time>
      </trkpt>
      <trkpt lat="47.3958" lon="4.95801">
        <ele>450.03</ele>
        <time>2016-12-28T15:03:14Z</time>
      </trkpt>
      <trkpt lat="47.39579" lon="4.95819">
        <ele>452.92</ele>
        <time>2016-12-28T15:03:22Z</time>
      </trkpt>
      <trkpt lat="47.39576" lon="4.95851">
        <ele>456.28</ele>
        <time>2016-12-28T15:03:37Z</time>
      </trkpt>
      <trkpt lat="47.39582" lon="4.95876">
        <ele>461.09</ele>
        <time>2016-12-28T15:03:51Z</time>
      </trkpt>
      <trkpt lat="47.39588" lon="4.95895">
        <ele>464.93</ele>
        <time>2016-12-28T15:04:03Z</time>
      </trkpt>
      <trkpt lat="47.39598" lon="4.95922">
        <ele>465.42</ele>
        <time>2016-12-28T15:04:16Z</time>
      </trkpt>
      <trkpt lat="47.396" lon="4.95931">
        <ele>465.42</ele>
        <time>2016-12-28T15:04:20Z</time>
      </trkpt>
      <trkpt lat="47.396" lon="4.95935">
        <ele>465.9</ele>
        <time>2016-12-28T15:04:22Z</time>
      </trkpt>
      <trkpt lat="47.39602" lon="4.95944">
        <ele>466.38</ele>
        <time>2016-12-28T15:04:35Z</time>
      </trkpt>
      <trkpt lat="47.39601" lon="4.95945">
        <ele>463.97</ele>
        <time>2016-12-28T15:04:56Z</time>
      </trkpt>
      <trkpt lat="47.39601" lon="4.95946">
        <ele>462.05</ele>
        <time>2016-12-28T15:05:25Z</time>
      </trkpt>
      <trkpt lat="47.39601" lon="4.95945">
        <ele>461.09</ele>
        <time>2016-12-28T15:05:55Z</time>
      </trkpt>
      <trkpt lat="47.39601" lon="4.95946">
        <ele>461.57</ele>
        <time>2016-12-28T15:06:04Z</time>
      </trkpt>
      <trkpt lat="47.39581" lon="4.95975">
        <ele>458.21</ele>
        <time>2016-12-28T15:06:14Z</time>
      </trkpt>
      <trkpt lat="47.39561" lon="4.95994">
        <ele>453.88</ele>
        <time>2016-12-28T15:06:19Z</time>
      </trkpt>
      <trkpt lat="47.3955" lon="4.96001">
        <ele>452.44</ele>
        <time>2016-12-28T15:06:21Z</time>
      </trkpt>
      <trkpt lat="47.39537" lon="4.96012">
        <ele>450.03</ele>
        <time>2016-12-28T15:06:24Z</time>
      </trkpt>
      <trkpt lat="47.39517" lon="4.96026">
        <ele>446.67</ele>
        <time>2016-12-28T15:06:28Z</time>
      </trkpt>
      <trkpt lat="47.39495" lon="4.96025">
        <ele>443.31</ele>
        <time>2016-12-28T15:06:32Z</time>
      </trkpt>
      <trkpt lat="47.39485" lon="4.96024">
        <ele>442.34</ele>
        <time>2016-12-28T15:06:34Z</time>
      </trkpt>
      <trkpt lat="47.39463" lon="4.96031">
        <ele>438.98</ele>
        <time>2016-12-28T15:06:40Z</time>
      </trkpt>
      <trkpt lat="47.39454" lon="4.9603">
        <ele>438.02</ele>
        <time>2016-12-28T15:06:44Z</time>
      </trkpt>
      <trkpt lat="47.3943" lon="4.96037">
        <ele>434.65</ele>
        <time>2016-12-28T15:06:53Z</time>
      </trkpt>
      <trkpt lat="47.39416" lon="4.96047">
        <ele>431.29</ele>
        <time>2016-12-28T15:06:59Z</time>
      </trkpt>
      <trkpt lat="47.39404" lon="4.96049">
        <ele>428.89</ele>
        <time>2016-12-28T15:07:03Z</time>
      </trkpt>
      <trkpt lat="47.39391" lon="4.96053">
        <ele>426</ele>
        <time>2016-12-28T15:07:07Z</time>
      </trkpt>
      <trkpt lat="47.39374" lon="4.96043">
        <ele>417.83</ele>
        <time>2016-12-28T15:07:18Z</time>
      </trkpt>
      <trkpt lat="47.39369" lon="4.96042">
        <ele>415.91</ele>
        <time>2016-12-28T15:07:22Z</time>
      </trkpt>
      <trkpt lat="47.39359" lon="4.96042">
        <ele>412.06</ele>
        <time>2016-12-28T15:07:28Z</time>
      </trkpt>
      <trkpt lat="47.39353" lon="4.96027">
        <ele>407.74</ele>
        <time>2016-12-28T15:07:35Z</time>
      </trkpt>
      <trkpt lat="47.39348" lon="4.96008">
        <ele>401.49</ele>
        <time>2016-12-28T15:07:45Z</time>
      </trkpt>
      <trkpt lat="47.39347" lon="4.96005">
        <ele>400.53</ele>
        <time>2016-12-28T15:08:10Z</time>
      </trkpt>
      <trkpt lat="47.39347" lon="4.96002">
        <ele>399.57</ele>
        <time>2016-12-28T15:08:23Z</time>
      </trkpt>
      <trkpt lat="47.39347" lon="4.95995">
        <ele>399.08</ele>
        <time>2016-12-28T15:08:37Z</time>
      </trkpt>
      <trkpt lat="47.39348" lon="4.95991">
        <ele>398.12</ele>
        <time>2016-12-28T15:08:50Z</time>
      </trkpt>
      <trkpt lat="47.39348" lon="4.95988">
        <ele>397.16</ele>
        <time>2016-12-28T15:09:04Z</time>
      </trkpt>
      <trkpt lat="47.39348" lon="4.95987">
        <ele>396.68</ele>
        <time>2016-12-28T15:09:19Z</time>
      </trkpt>
      <trkpt lat="47.39348" lon="4.95987">
        <ele>395.72</ele>
        <time>2016-12-28T15:09:31Z</time>
      </trkpt>
      <trkpt lat="47.39328" lon="4.95991">
        <ele>392.36</ele>
        <time>2016-12-28T15:09:39Z</time>
      </trkpt>
      <trkpt lat="47.39325" lon="4.9599">
        <ele>388.99</ele>
        <time>2016-12-28T15:09:53Z</time>
      </trkpt>
      <trkpt lat="47.39322" lon="4.95988">
        <ele>387.55</ele>
        <time>2016-12-28T15:10:15Z</time>
      </trkpt>
      <trkpt lat="47.3932" lon="4.95988">
        <ele>387.07</ele>
        <time>2016-12-28T15:10:38Z</time>
      </trkpt>
      <trkpt lat="47.3932" lon="4.95988">
        <ele>387.55</ele>
        <time>2016-12-28T15:10:58Z</time>
      </trkpt>
      <trkpt lat="47.39318" lon="4.95987">
        <ele>386.59</ele>
        <time>2016-12-28T15:11:26Z</time>
      </trkpt>
      <trkpt lat="47.39319" lon="4.95989">
        <ele>385.63</ele>
        <time>2016-12-28T15:11:46Z</time>
      </trkpt>
      <trkpt lat="47.39319" lon="4.95988">
        <ele>386.11</ele>
        <time>2016-12-28T15:11:55Z</time>
      </trkpt>
      <trkpt lat="47.39304" lon="4.96029">
        <ele>385.63</ele>
        <time>2016-12-28T15:12:06Z</time>
      </trkpt>
      <trkpt lat="47.39297" lon="4.96075">
        <ele>384.66</ele>
        <time>2016-12-28T15:12:14Z</time>
      </trkpt>
      <trkpt lat="47.39298" lon="4.961">
        <ele>384.66</ele>
        <time>2016-12-28T15:12:18Z</time>
      </trkpt>
      <trkpt lat="47.39299" lon="4.96113">
        <ele>384.66</ele>
        <time>2016-12-28T15:12:20Z</time>
      </trkpt>
      <trkpt lat="47.39296" lon="4.96138">
        <ele>384.18</ele>
        <time>2016-12-28T15:12:23Z</time>
      </trkpt>
      <trkpt lat="47.39294" lon="4.96194">
        <ele>383.22</ele>
        <time>2016-12-28T15:12:31Z</time>
      </trkpt>
      <trkpt lat="47.39296" lon="4.96238">
        <ele>382.74</ele>
        <time>2016-12-28T15:12:36Z</time>
      </trkpt>
      <trkpt lat="47.3929" lon="4.96317">
        <ele>381.3</ele>
        <time>2016-12-28T15:12:44Z</time>
      </trkpt>
      <trkpt lat="47.39291" lon="4.96355">
        <ele>379.86</ele>
        <time>2016-12-28T15:12:48Z</time>
      </trkpt>
      <trkpt lat="47.39316" lon="4.96477">
        <ele>377.94</ele>
        <time>2016-12-28T15:13:01Z</time>
      </trkpt>
      <trkpt lat="47.39336" lon="4.96557">
        <ele>379.38</ele>
        <time>2016-12-28T15:13:11Z</time>
      </trkpt>
      <trkpt lat="47.39365" lon="4.96632">
        <ele>378.9</ele>
        <time>2016-12-28T15:13:20Z</time>
      </trkpt>
      <trkpt lat="47.39419" lon="4.96748">
        <ele>374.57</ele>
        <time>2016-12-28T15:13:34Z</time>
      </trkpt>
      <trkpt lat="47.39444" lon="4.96836">
        <ele>366.88</ele>
        <time>2016-12-28T15:13:45Z</time>
      </trkpt>
      <trkpt lat="47.39446" lon="4.96861">
        <ele>365.44</ele>
        <time>2016-12-28T15:13:49Z</time>
      </trkpt>
      <trkpt lat="47.39444" lon="4.96905">
        <ele>363.52</ele>
        <time>2016-12-28T15:13:56Z</time>
      </trkpt>
      <trkpt lat="47.39446" lon="4.96944">
        <ele>362.07</ele>
        <time>2016-12-28T15:14:02Z</time>
      </trkpt>
      <trkpt lat="47.39441" lon="4.96986">
        <ele>360.15</ele>
        <time>2016-12-28T15:14:08Z</time>
      </trkpt>
      <trkpt lat="47.39423" lon="4.9706">
        <ele>359.19</ele>
        <time>2016-12-28T15:14:18Z</time>
      </trkpt>
      <trkpt lat="47.39415" lon="4.97088">
        <ele>358.23</ele>
        <time>2016-12-28T15:14:22Z</time>
      </trkpt>
      <trkpt lat="47.39407" lon="4.97116">
        <ele>357.75</ele>
        <time>2016-12-28T15:14:26Z</time>
      </trkpt>
      <trkpt lat="47.39399" lon="4.97156">
        <ele>357.27</ele>
        <time>2016-12-28T15:14:32Z</time>
      </trkpt>
      <trkpt lat="47.39379" lon="4.97222">
        <ele>355.34</ele>
        <time>2016-12-28T15:14:44Z</time>
      </trkpt>
      <trkpt lat="47.39379" lon="4.97226">
        <ele>355.83</ele>
        <time>2016-12-28T15:14:45Z</time>
      </trkpt>
      <trkpt lat="47.39363" lon="4.97271">
        <ele>353.9</ele>
        <time>2016-12-28T15:14:53Z</time>
      </trkpt>
      <trkpt lat="47.39359" lon="4.97293">
        <ele>353.9</ele>
        <time>2016-12-28T15:14:56Z</time>
      </trkpt>
      <trkpt lat="47.3936" lon="4.97316">
        <ele>353.42</ele>
        <time>2016-12-28T15:14:59Z</time>
      </trkpt>
      <trkpt lat="47.39372" lon="4.97359">
        <ele>352.46</ele>
        <time>2016-12-28T15:15:05Z</time>
      </trkpt>
      <trkpt lat="47.39401" lon="4.97413">
        <ele>351.98</ele>
        <time>2016-12-28T15:15:15Z</time>
      </trkpt>
      <trkpt lat="47.39448" lon="4.97489">
        <ele>350.54</ele>
        <time>2016-12-28T15:15:29Z</time>
      </trkpt>
      <trkpt lat="47.39456" lon="4.97501">
        <ele>350.54</ele>
        <time>2016-12-28T15:15:31Z</time>
      </trkpt>
      <trkpt lat="47.39503" lon="4.97602">
        <ele>350.06</ele>
        <time>2016-12-28T15:15:46Z</time>
      </trkpt>
      <trkpt lat="47.39565" lon="4.97678">
        <ele>348.62</ele>
        <time>2016-12-28T15:16:00Z</time>
      </trkpt>
      <trkpt lat="47.39606" lon="4.97722">
        <ele>345.73</ele>
        <time>2016-12-28T15:16:09Z</time>
      </trkpt>
      <trkpt lat="47.39624" lon="4.97738">
        <ele>345.25</ele>
        <time>2016-12-28T15:16:13Z</time>
      </trkpt>
      <trkpt lat="47.39654" lon="4.9776">
        <ele>343.81</ele>
        <time>2016-12-28T15:16:19Z</time>
      </trkpt>
      <trkpt lat="47.39724" lon="4.97818">
        <ele>340.92</ele>
        <time>2016-12-28T15:16:33Z</time>
      </trkpt>
      <trkpt lat="47.39748" lon="4.97843">
        <ele>340.44</ele>
        <time>2016-12-28T15:16:39Z</time>
      </trkpt>
      <trkpt lat="47.39765" lon="4.97867">
        <ele>341.41</ele>
        <time>2016-12-28T15:16:44Z</time>
      </trkpt>
      <trkpt lat="47.39771" lon="4.97878">
        <ele>340.92</ele>
        <time>2016-12-28T15:16:46Z</time>
      </trkpt>
      <trkpt lat="47.39776" lon="4.97911">
        <ele>340.44</ele>
        <time>2016-12-28T15:16:51Z</time>
      </trkpt>
      <trkpt lat="47.39774" lon="4.97939">
        <ele>338.52</ele>
        <time>2016-12-28T15:16:55Z</time>
      </trkpt>
      <trkpt lat="47.39772" lon="4.97959">
        <ele>337.56</ele>
        <time>2016-12-28T15:16:58Z</time>
      </trkpt>
      <trkpt lat="47.39771" lon="4.98016">
        <ele>335.16</ele>
        <time>2016-12-28T15:17:10Z</time>
      </trkpt>
      <trkpt lat="47.39774" lon="4.98029">
        <ele>335.16</ele>
        <time>2016-12-28T15:17:14Z</time>
      </trkpt>
      <trkpt lat="47.39775" lon="4.98047">
        <ele>334.68</ele>
        <time>2016-12-28T15:17:17Z</time>
      </trkpt>
      <trkpt lat="47.39779" lon="4.98075">
        <ele>334.68</ele>
        <time>2016-12-28T15:17:21Z</time>
      </trkpt>
      <trkpt lat="47.39798" lon="4.98172">
        <ele>336.12</ele>
        <time>2016-12-28T15:17:33Z</time>
      </trkpt>
      <trkpt lat="47.3981" lon="4.98238">
        <ele>337.56</ele>
        <time>2016-12-28T15:17:41Z</time>
      </trkpt>
      <trkpt lat="47.39813" lon="4.98269">
        <ele>338.52</ele>
        <time>2016-12-28T15:17:45Z</time>
      </trkpt>
      <trkpt lat="47.3982" lon="4.9829">
        <ele>339</ele>
        <time>2016-12-28T15:17:48Z</time>
      </trkpt>
      <trkpt lat="47.39837" lon="4.9835">
        <ele>338.52</ele>
        <time>2016-12-28T15:17:55Z</time>
      </trkpt>
      <trkpt lat="47.39846" lon="4.98394">
        <ele>336.6</ele>
        <time>2016-12-28T15:18:00Z</time>
      </trkpt>
      <trkpt lat="47.39862" lon="4.98448">
        <ele>336.12</ele>
        <time>2016-12-28T15:18:07Z</time>
      </trkpt>
      <trkpt lat="47.39896" lon="4.98535">
        <ele>334.2</ele>
        <time>2016-12-28T15:18:18Z</time>
      </trkpt>
      <trkpt lat="47.39954" lon="4.98631">
        <ele>336.6</ele>
        <time>2016-12-28T15:18:32Z</time>
      </trkpt>
      <trkpt lat="47.40015" lon="4.98746">
        <ele>337.08</ele>
        <time>2016-12-28T15:18:47Z</time>
      </trkpt>
      <trkpt lat="47.40022" lon="4.98763">
        <ele>336.6</ele>
        <time>2016-12-28T15:18:49Z</time>
      </trkpt>
      <trkpt lat="47.40033" lon="4.98816">
        <ele>335.16</ele>
        <time>2016-12-28T15:18:55Z</time>
      </trkpt>
      <trkpt lat="47.40044" lon="4.98859">
        <ele>334.2</ele>
        <time>2016-12-28T15:19:00Z</time>
      </trkpt>
      <trkpt lat="47.40068" lon="4.98915">
        <ele>332.75</ele>
        <time>2016-12-28T15:19:07Z</time>
      </trkpt>
      <trkpt lat="47.40074" lon="4.98931">
        <ele>332.27</ele>
        <time>2016-12-28T15:19:09Z</time>
      </trkpt>
      <trkpt lat="47.40092" lon="4.9897">
        <ele>330.83</ele>
        <time>2016-12-28T15:19:14Z</time>
      </trkpt>
      <trkpt lat="47.40125" lon="4.99057">
        <ele>328.91</ele>
        <time>2016-12-28T15:19:25Z</time>
      </trkpt>
      <trkpt lat="47.40159" lon="4.99111">
        <ele>329.39</ele>
        <time>2016-12-28T15:19:34Z</time>
      </trkpt>
      <trkpt lat="47.40187" lon="4.99148">
        <ele>328.91</ele>
        <time>2016-12-28T15:19:42Z</time>
      </trkpt>
      <trkpt lat="47.40248" lon="4.9922">
        <ele>329.39</ele>
        <time>2016-12-28T15:19:56Z</time>
      </trkpt>
      <trkpt lat="47.40268" lon="4.99243">
        <ele>327.47</ele>
        <time>2016-12-28T15:20:00Z</time>
      </trkpt>
      <trkpt lat="47.40344" lon="4.99307">
        <ele>324.58</ele>
        <time>2016-12-28T15:20:15Z</time>
      </trkpt>
      <trkpt lat="47.40393" lon="4.9935">
        <ele>322.18</ele>
        <time>2016-12-28T15:20:28Z</time>
      </trkpt>
      <trkpt lat="47.40399" lon="4.99357">
        <ele>321.7</ele>
        <time>2016-12-28T15:20:30Z</time>
      </trkpt>
      <trkpt lat="47.40428" lon="4.99384">
        <ele>319.3</ele>
        <time>2016-12-28T15:20:38Z</time>
      </trkpt>
      <trkpt lat="47.40443" lon="4.99396">
        <ele>319.3</ele>
        <time>2016-12-28T15:20:42Z</time>
      </trkpt>
      <trkpt lat="47.40511" lon="4.99455">
        <ele>314.49</ele>
        <time>2016-12-28T15:21:00Z</time>
      </trkpt>
      <trkpt lat="47.40563" lon="4.99508">
        <ele>313.53</ele>
        <time>2016-12-28T15:21:14Z</time>
      </trkpt>
      <trkpt lat="47.40608" lon="4.99557">
        <ele>311.12</ele>
        <time>2016-12-28T15:21:27Z</time>
      </trkpt>
      <trkpt lat="47.4064" lon="4.99614">
        <ele>306.8</ele>
        <time>2016-12-28T15:21:39Z</time>
      </trkpt>
      <trkpt lat="47.40658" lon="4.99693">
        <ele>303.91</ele>
        <time>2016-12-28T15:21:53Z</time>
      </trkpt>
      <trkpt lat="47.40672" lon="4.9976">
        <ele>304.39</ele>
        <time>2016-12-28T15:22:06Z</time>
      </trkpt>
      <trkpt lat="47.4068" lon="4.99827">
        <ele>302.95</ele>
        <time>2016-12-28T15:22:19Z</time>
      </trkpt>
      <trkpt lat="47.40682" lon="4.99851">
        <ele>302.95</ele>
        <time>2016-12-28T15:22:23Z</time>
      </trkpt>
      <trkpt lat="47.40702" lon="4.99966">
        <ele>302.47</ele>
        <time>2016-12-28T15:22:41Z</time>
      </trkpt>
      <trkpt lat="47.40708" lon="5.00005">
        <ele>301.99</ele>
        <time>2016-12-28T15:22:47Z</time>
      </trkpt>
      <trkpt lat="47.40722" lon="5.00112">
        <ele>303.43</ele>
        <time>2016-12-28T15:23:03Z</time>
      </trkpt>
      <trkpt lat="47.4072" lon="5.00148">
        <ele>302.95</ele>
        <time>2016-12-28T15:23:09Z</time>
      </trkpt>
      <trkpt lat="47.40717" lon="5.00162">
        <ele>302.47</ele>
        <time>2016-12-28T15:23:11Z</time>
      </trkpt>
      <trkpt lat="47.4071" lon="5.00204">
        <ele>300.55</ele>
        <time>2016-12-28T15:23:17Z</time>
      </trkpt>
      <trkpt lat="47.40703" lon="5.00252">
        <ele>299.59</ele>
        <time>2016-12-28T15:23:25Z</time>
      </trkpt>
      <trkpt lat="47.40682" lon="5.00329">
        <ele>298.15</ele>
        <time>2016-12-28T15:23:38Z</time>
      </trkpt>
      <trkpt lat="47.4068" lon="5.00336">
        <ele>297.67</ele>
        <time>2016-12-28T15:23:39Z</time>
      </trkpt>
      <trkpt lat="47.40673" lon="5.00405">
        <ele>298.15</ele>
        <time>2016-12-28T15:23:50Z</time>
      </trkpt>
      <trkpt lat="47.40657" lon="5.00499">
        <ele>299.11</ele>
        <time>2016-12-28T15:24:05Z</time>
      </trkpt>
      <trkpt lat="47.40654" lon="5.0051">
        <ele>299.11</ele>
        <time>2016-12-28T15:24:07Z</time>
      </trkpt>
      <trkpt lat="47.40614" lon="5.00603">
        <ele>298.63</ele>
        <time>2016-12-28T15:24:23Z</time>
      </trkpt>
      <trkpt lat="47.40573" lon="5.0069">
        <ele>298.63</ele>
        <time>2016-12-28T15:24:39Z</time>
      </trkpt>
      <trkpt lat="47.40542" lon="5.0079">
        <ele>298.63</ele>
        <time>2016-12-28T15:24:55Z</time>
      </trkpt>
      <trkpt lat="47.40517" lon="5.00895">
        <ele>299.59</ele>
        <time>2016-12-28T15:25:12Z</time>
      </trkpt>
      <trkpt lat="47.40476" lon="5.01008">
        <ele>297.67</ele>
        <time>2016-12-28T15:25:31Z</time>
      </trkpt>
      <trkpt lat="47.40446" lon="5.01107">
        <ele>298.15</ele>
        <time>2016-12-28T15:25:47Z</time>
      </trkpt>
      <trkpt lat="47.4043" lon="5.01135">
        <ele>297.67</ele>
        <time>2016-12-28T15:25:52Z</time>
      </trkpt>
      <trkpt lat="47.40353" lon="5.01244">
        <ele>296.22</ele>
        <time>2016-12-28T15:26:14Z</time>
      </trkpt>
      <trkpt lat="47.40297" lon="5.01339">
        <ele>296.7</ele>
        <time>2016-12-28T15:26:33Z</time>
      </trkpt>
      <trkpt lat="47.40251" lon="5.01437">
        <ele>296.7</ele>
        <time>2016-12-28T15:26:51Z</time>
      </trkpt>
      <trkpt lat="47.40208" lon="5.0152">
        <ele>296.22</ele>
        <time>2016-12-28T15:27:07Z</time>
      </trkpt>
      <trkpt lat="47.40205" lon="5.01525">
        <ele>295.74</ele>
        <time>2016-12-28T15:27:08Z</time>
      </trkpt>
      <trkpt lat="47.40162" lon="5.01569">
        <ele>294.3</ele>
        <time>2016-12-28T15:27:22Z</time>
      </trkpt>
      <trkpt lat="47.40118" lon="5.01604">
        <ele>294.78</ele>
        <time>2016-12-28T15:27:34Z</time>
      </trkpt>
      <trkpt lat="47.40067" lon="5.01651">
        <ele>291.9</ele>
        <time>2016-12-28T15:27:47Z</time>
      </trkpt>
      <trkpt lat="47.40014" lon="5.01716">
        <ele>292.38</ele>
        <time>2016-12-28T15:28:03Z</time>
      </trkpt>
      <trkpt lat="47.39949" lon="5.01785">
        <ele>290.94</ele>
        <time>2016-12-28T15:28:20Z</time>
      </trkpt>
      <trkpt lat="47.39899" lon="5.0184">
        <ele>290.94</ele>
        <time>2016-12-28T15:28:36Z</time>
      </trkpt>
      <trkpt lat="47.39883" lon="5.01842">
        <ele>290.94</ele>
        <time>2016-12-28T15:28:46Z</time>
      </trkpt>
      <trkpt lat="47.39884" lon="5.01844">
        <ele>294.3</ele>
        <time>2016-12-28T15:29:11Z</time>
      </trkpt>
      <trkpt lat="47.39882" lon="5.01842">
        <ele>294.3</ele>
        <time>2016-12-28T15:29:47Z</time>
      </trkpt>
      <trkpt lat="47.39882" lon="5.01842">
        <ele>294.3</ele>
        <time>2016-12-28T15:29:52Z</time>
      </trkpt>
      <trkpt lat="47.39877" lon="5.01798">
        <ele>294.3</ele>
        <time>2016-12-28T15:30:04Z</time>
      </trkpt>
      <trkpt lat="47.39864" lon="5.01726">
        <ele>294.3</ele>
        <time>2016-12-28T15:30:19Z</time>
      </trkpt>
      <trkpt lat="47.39855" lon="5.01659">
        <ele>298.15</ele>
        <time>2016-12-28T15:30:34Z</time>
      </trkpt>
      <trkpt lat="47.39851" lon="5.01574">
        <ele>299.59</ele>
        <time>2016-12-28T15:30:52Z</time>
      </trkpt>
      <trkpt lat="47.39842" lon="5.01505">
        <ele>296.7</ele>
        <time>2016-12-28T15:31:07Z</time>
      </trkpt>
      <trkpt lat="47.39829" lon="5.01432">
        <ele>296.7</ele>
        <time>2016-12-28T15:31:24Z</time>
      </trkpt>
      <trkpt lat="47.39819" lon="5.01349">
        <ele>297.18</ele>
        <time>2016-12-28T15:31:43Z</time>
      </trkpt>
      <trkpt lat="47.39814" lon="5.01283">
        <ele>297.18</ele>
        <time>2016-12-28T15:31:57Z</time>
      </trkpt>
      <trkpt lat="47.3981" lon="5.01218">
        <ele>297.18</ele>
        <time>2016-12-28T15:32:11Z</time>
      </trkpt>
      <trkpt lat="47.39797" lon="5.01163">
        <ele>298.15</ele>
        <time>2016-12-28T15:32:23Z</time>
      </trkpt>
      <trkpt lat="47.39778" lon="5.01111">
        <ele>303.43</ele>
        <time>2016-12-28T15:32:35Z</time>
      </trkpt>
      <trkpt lat="47.39749" lon="5.01062">
        <ele>305.36</ele>
        <time>2016-12-28T15:32:49Z</time>
      </trkpt>
      <trkpt lat="47.39716" lon="5.01028">
        <ele>307.76</ele>
        <time>2016-12-28T15:33:01Z</time>
      </trkpt>
      <trkpt lat="47.39695" lon="5.0099">
        <ele>308.24</ele>
        <time>2016-12-28T15:33:11Z</time>
      </trkpt>
      <trkpt lat="47.39675" lon="5.00935">
        <ele>309.68</ele>
        <time>2016-12-28T15:33:24Z</time>
      </trkpt>
      <trkpt lat="47.39661" lon="5.0088">
        <ele>313.05</ele>
        <time>2016-12-28T15:33:38Z</time>
      </trkpt>
      <trkpt lat="47.39654" lon="5.00835">
        <ele>311.6</ele>
        <time>2016-12-28T15:33:49Z</time>
      </trkpt>
      <trkpt lat="47.39652" lon="5.00821">
        <ele>311.6</ele>
        <time>2016-12-28T15:33:52Z</time>
      </trkpt>
      <trkpt lat="47.39649" lon="5.00814">
        <ele>312.09</ele>
        <time>2016-12-28T15:33:54Z</time>
      </trkpt>
      <trkpt lat="47.39643" lon="5.00772">
        <ele>313.53</ele>
        <time>2016-12-28T15:34:06Z</time>
      </trkpt>
      <trkpt lat="47.39618" lon="5.00723">
        <ele>314.97</ele>
        <time>2016-12-28T15:34:17Z</time>
      </trkpt>
      <trkpt lat="47.39598" lon="5.00682">
        <ele>320.26</ele>
        <time>2016-12-28T15:34:28Z</time>
      </trkpt>
      <trkpt lat="47.39595" lon="5.00675">
        <ele>321.7</ele>
        <time>2016-12-28T15:34:32Z</time>
      </trkpt>
      <trkpt lat="47.3959" lon="5.0068">
        <ele>321.22</ele>
        <time>2016-12-28T15:34:42Z</time>
      </trkpt>
      <trkpt lat="47.39593" lon="5.00698">
        <ele>322.18</ele>
        <time>2016-12-28T15:34:50Z</time>
      </trkpt>
      <trkpt lat="47.39596" lon="5.00732">
        <ele>326.02</ele>
        <time>2016-12-28T15:35:04Z</time>
      </trkpt>
      <trkpt lat="47.39595" lon="5.00755">
        <ele>328.43</ele>
        <time>2016-12-28T15:35:12Z</time>
      </trkpt>
      <trkpt lat="47.39591" lon="5.00769">
        <ele>326.5</ele>
        <time>2016-12-28T15:35:17Z</time>
      </trkpt>
      <trkpt lat="47.3959" lon="5.00786">
        <ele>326.02</ele>
        <time>2016-12-28T15:35:22Z</time>
      </trkpt>
      <trkpt lat="47.39589" lon="5.00803">
        <ele>324.1</ele>
        <time>2016-12-28T15:35:27Z</time>
      </trkpt>
      <trkpt lat="47.39592" lon="5.00853">
        <ele>326.99</ele>
        <time>2016-12-28T15:35:41Z</time>
      </trkpt>
      <trkpt lat="47.39593" lon="5.00903">
        <ele>332.27</ele>
        <time>2016-12-28T15:35:54Z</time>
      </trkpt>
      <trkpt lat="47.39594" lon="5.00954">
        <ele>336.12</ele>
        <time>2016-12-28T15:36:07Z</time>
      </trkpt>
      <trkpt lat="47.39591" lon="5.00992">
        <ele>334.68</ele>
        <time>2016-12-28T15:36:18Z</time>
      </trkpt>
      <trkpt lat="47.39592" lon="5.01012">
        <ele>332.27</ele>
        <time>2016-12-28T15:36:25Z</time>
      </trkpt>
      <trkpt lat="47.39578" lon="5.01026">
        <ele>328.43</ele>
        <time>2016-12-28T15:36:35Z</time>
      </trkpt>
      <trkpt lat="47.39564" lon="5.0105">
        <ele>326.5</ele>
        <time>2016-12-28T15:36:50Z</time>
      </trkpt>
      <trkpt lat="47.39548" lon="5.01041">
        <ele>326.99</ele>
        <time>2016-12-28T15:37:03Z</time>
      </trkpt>
      <trkpt lat="47.39539" lon="5.01051">
        <ele>327.47</ele>
        <time>2016-12-28T15:37:11Z</time>
      </trkpt>
      <trkpt lat="47.39535" lon="5.01055">
        <ele>326.99</ele>
        <time>2016-12-28T15:37:14Z</time>
      </trkpt>
      <trkpt lat="47.3953" lon="5.01053">
        <ele>327.95</ele>
        <time>2016-12-28T15:37:18Z</time>
      </trkpt>
      <trkpt lat="47.39521" lon="5.01057">
        <ele>328.91</ele>
        <time>2016-12-28T15:37:25Z</time>
      </trkpt>
      <trkpt lat="47.39519" lon="5.01057">
        <ele>329.39</ele>
        <time>2016-12-28T15:37:27Z</time>
      </trkpt>
      <trkpt lat="47.39511" lon="5.01055">
        <ele>331.31</ele>
        <time>2016-12-28T15:37:42Z</time>
      </trkpt>
      <trkpt lat="47.3951" lon="5.01055">
        <ele>332.27</ele>
        <time>2016-12-28T15:38:10Z</time>
      </trkpt>
      <trkpt lat="47.39511" lon="5.01055">
        <ele>332.27</ele>
        <time>2016-12-28T15:38:36Z</time>
      </trkpt>
      <trkpt lat="47.39512" lon="5.01054">
        <ele>333.23</ele>
        <time>2016-12-28T15:39:01Z</time>
      </trkpt>
      <trkpt lat="47.39512" lon="5.01053">
        <ele>333.71</ele>
        <time>2016-12-28T15:39:32Z</time>
      </trkpt>
      <trkpt lat="47.39512" lon="5.01054">
        <ele>333.71</ele>
        <time>2016-12-28T15:39:47Z</time>
      </trkpt>
      <trkpt lat="47.39512" lon="5.01055">
        <ele>334.68</ele>
        <time>2016-12-28T15:40:06Z</time>
      </trkpt>
      <trkpt lat="47.39511" lon="5.01052">
        <ele>335.16</ele>
        <time>2016-12-28T15:40:19Z</time>
      </trkpt>
      <trkpt lat="47.39492" lon="5.01023">
        <ele>337.08</ele>
        <time>2016-12-28T15:40:33Z</time>
      </trkpt>
      <trkpt lat="47.39477" lon="5.00978">
        <ele>342.37</ele>
        <time>2016-12-28T15:40:45Z</time>
      </trkpt>
      <trkpt lat="47.39459" lon="5.00924">
        <ele>345.25</ele>
        <time>2016-12-28T15:41:00Z</time>
      </trkpt>
      <trkpt lat="47.39443" lon="5.0088">
        <ele>346.69</ele>
        <time>2016-12-28T15:41:14Z</time>
      </trkpt>
      <trkpt lat="47.39432" lon="5.00867">
        <ele>346.69</ele>
        <time>2016-12-28T15:41:20Z</time>
      </trkpt>
      <trkpt lat="47.39413" lon="5.00819">
        <ele>346.21</ele>
        <time>2016-12-28T15:41:32Z</time>
      </trkpt>
      <trkpt lat="47.39392" lon="5.00789">
        <ele>347.17</ele>
        <time>2016-12-28T15:41:45Z</time>
      </trkpt>
      <trkpt lat="47.39373" lon="5.0076">
        <ele>348.62</ele>
        <time>2016-12-28T15:41:59Z</time>
      </trkpt>
      <trkpt lat="47.3936" lon="5.00736">
        <ele>350.06</ele>
        <time>2016-12-28T15:42:12Z</time>
      </trkpt>
      <trkpt lat="47.3934" lon="5.00706">
        <ele>351.98</ele>
        <time>2016-12-28T15:42:29Z</time>
      </trkpt>
      <trkpt lat="47.39318" lon="5.00672">
        <ele>355.34</ele>
        <time>2016-12-28T15:42:44Z</time>
      </trkpt>
      <trkpt lat="47.39296" lon="5.00636">
        <ele>364</ele>
        <time>2016-12-28T15:43:00Z</time>
      </trkpt>
      <trkpt lat="47.3928" lon="5.0061">
        <ele>370.24</ele>
        <time>2016-12-28T15:43:12Z</time>
      </trkpt>
      <trkpt lat="47.39263" lon="5.00579">
        <ele>376.49</ele>
        <time>2016-12-28T15:43:24Z</time>
      </trkpt>
      <trkpt lat="47.39239" lon="5.00542">
        <ele>383.7</ele>
        <time>2016-12-28T15:43:38Z</time>
      </trkpt>
      <trkpt lat="47.39216" lon="5.00509">
        <ele>386.59</ele>
        <time>2016-12-28T15:43:50Z</time>
      </trkpt>
      <trkpt lat="47.392" lon="5.00479">
        <ele>389.47</ele>
        <time>2016-12-28T15:44:01Z</time>
      </trkpt>
      <trkpt lat="47.39177" lon="5.00443">
        <ele>391.39</ele>
        <time>2016-12-28T15:44:14Z</time>
      </trkpt>
      <trkpt lat="47.39154" lon="5.00406">
        <ele>392.84</ele>
        <time>2016-12-28T15:44:27Z</time>
      </trkpt>
      <trkpt lat="47.3913" lon="5.00369">
        <ele>394.76</ele>
        <time>2016-12-28T15:44:40Z</time>
      </trkpt>
      <trkpt lat="47.39111" lon="5.0034">
        <ele>395.24</ele>
        <time>2016-12-28T15:44:52Z</time>
      </trkpt>
      <trkpt lat="47.39092" lon="5.00308">
        <ele>395.72</ele>
        <time>2016-12-28T15:45:04Z</time>
      </trkpt>
      <trkpt lat="47.39072" lon="5.00276">
        <ele>397.16</ele>
        <time>2016-12-28T15:45:16Z</time>
      </trkpt>
      <trkpt lat="47.39047" lon="5.00236">
        <ele>401.49</ele>
        <time>2016-12-28T15:45:30Z</time>
      </trkpt>
      <trkpt lat="47.39016" lon="5.00188">
        <ele>400.05</ele>
        <time>2016-12-28T15:45:44Z</time>
      </trkpt>
      <trkpt lat="47.38992" lon="5.00151">
        <ele>400.05</ele>
        <time>2016-12-28T15:45:57Z</time>
      </trkpt>
      <trkpt lat="47.38961" lon="5.00103">
        <ele>401.49</ele>
        <time>2016-12-28T15:46:13Z</time>
      </trkpt>
      <trkpt lat="47.38931" lon="5.00057">
        <ele>400.53</ele>
        <time>2016-12-28T15:46:27Z</time>
      </trkpt>
      <trkpt lat="47.38894" lon="4.99999">
        <ele>401.49</ele>
        <time>2016-12-28T15:46:42Z</time>
      </trkpt>
      <trkpt lat="47.38868" lon="4.99956">
        <ele>401.97</ele>
        <time>2016-12-28T15:46:53Z</time>
      </trkpt>
      <trkpt lat="47.38859" lon="4.99945">
        <ele>401.01</ele>
        <time>2016-12-28T15:46:59Z</time>
      </trkpt>
      <trkpt lat="47.38851" lon="4.99938">
        <ele>393.32</ele>
        <time>2016-12-28T15:47:10Z</time>
      </trkpt>
      <trkpt lat="47.38848" lon="4.99936">
        <ele>385.63</ele>
        <time>2016-12-28T15:47:31Z</time>
      </trkpt>
      <trkpt lat="47.38847" lon="4.99937">
        <ele>384.66</ele>
        <time>2016-12-28T15:47:52Z</time>
      </trkpt>
      <trkpt lat="47.38847" lon="4.99937">
        <ele>384.66</ele>
        <time>2016-12-28T15:48:15Z</time>
      </trkpt>
      <trkpt lat="47.38848" lon="4.99936">
        <ele>384.66</ele>
        <time>2016-12-28T15:48:37Z</time>
      </trkpt>
      <trkpt lat="47.3884" lon="4.99944">
        <ele>382.26</ele>
        <time>2016-12-28T15:49:00Z</time>
      </trkpt>
      <trkpt lat="47.38838" lon="4.99948">
        <ele>381.3</ele>
        <time>2016-12-28T15:49:03Z</time>
      </trkpt>
      <trkpt lat="47.38819" lon="4.9997">
        <ele>377.94</ele>
        <time>2016-12-28T15:49:15Z</time>
      </trkpt>
      <trkpt lat="47.38793" lon="5.00004">
        <ele>376.49</ele>
        <time>2016-12-28T15:49:31Z</time>
      </trkpt>
      <trkpt lat="47.38777" lon="5.00026">
        <ele>379.86</ele>
        <time>2016-12-28T15:49:42Z</time>
      </trkpt>
      <trkpt lat="47.38761" lon="5.00047">
        <ele>383.22</ele>
        <time>2016-12-28T15:49:51Z</time>
      </trkpt>
      <trkpt lat="47.38745" lon="5.00073">
        <ele>384.66</ele>
        <time>2016-12-28T15:50:03Z</time>
      </trkpt>
      <trkpt lat="47.38728" lon="5.00097">
        <ele>380.82</ele>
        <time>2016-12-28T15:50:14Z</time>
      </trkpt>
      <trkpt lat="47.38725" lon="5.00102">
        <ele>380.82</ele>
        <time>2016-12-28T15:50:17Z</time>
      </trkpt>
      <trkpt lat="47.38714" lon="5.00116">
        <ele>381.3</ele>
        <time>2016-12-28T15:50:23Z</time>
      </trkpt>
      <trkpt lat="47.38689" lon="5.00152">
        <ele>386.59</ele>
        <time>2016-12-28T15:50:35Z</time>
      </trkpt>
      <trkpt lat="47.38659" lon="5.00193">
        <ele>392.36</ele>
        <time>2016-12-28T15:50:48Z</time>
      </trkpt>
      <trkpt lat="47.38638" lon="5.00224">
        <ele>393.32</ele>
        <time>2016-12-28T15:50:59Z</time>
      </trkpt>
      <trkpt lat="47.38617" lon="5.00256">
        <ele>395.24</ele>
        <time>2016-12-28T15:51:08Z</time>
      </trkpt>
      <trkpt lat="47.38584" lon="5.00299">
        <ele>394.76</ele>
        <time>2016-12-28T15:51:20Z</time>
      </trkpt>
      <trkpt lat="47.38555" lon="5.0034">
        <ele>397.16</ele>
        <time>2016-12-28T15:51:30Z</time>
      </trkpt>
      <trkpt lat="47.3854" lon="5.00362">
        <ele>397.64</ele>
        <time>2016-12-28T15:51:38Z</time>
      </trkpt>
      <trkpt lat="47.3852" lon="5.00387">
        <ele>396.2</ele>
        <time>2016-12-28T15:51:46Z</time>
      </trkpt>
      <trkpt lat="47.38511" lon="5.00395">
        <ele>394.28</ele>
        <time>2016-12-28T15:51:49Z</time>
      </trkpt>
      <trkpt lat="47.38487" lon="5.00398">
        <ele>388.99</ele>
        <time>2016-12-28T15:51:55Z</time>
      </trkpt>
      <trkpt lat="47.38468" lon="5.00371">
        <ele>389.95</ele>
        <time>2016-12-28T15:52:09Z</time>
      </trkpt>
      <trkpt lat="47.38447" lon="5.0034">
        <ele>396.2</ele>
        <time>2016-12-28T15:52:23Z</time>
      </trkpt>
      <trkpt lat="47.38425" lon="5.00304">
        <ele>400.53</ele>
        <time>2016-12-28T15:52:37Z</time>
      </trkpt>
      <trkpt lat="47.38411" lon="5.00276">
        <ele>407.26</ele>
        <time>2016-12-28T15:52:49Z</time>
      </trkpt>
      <trkpt lat="47.38393" lon="5.00243">
        <ele>414.95</ele>
        <time>2016-12-28T15:53:03Z</time>
      </trkpt>
      <trkpt lat="47.38382" lon="5.00218">
        <ele>415.91</ele>
        <time>2016-12-28T15:53:16Z</time>
      </trkpt>
      <trkpt lat="47.38361" lon="5.00187">
        <ele>419.27</ele>
        <time>2016-12-28T15:53:26Z</time>
      </trkpt>
      <trkpt lat="47.38339" lon="5.00147">
        <ele>421.68</ele>
        <time>2016-12-28T15:53:41Z</time>
      </trkpt>
      <trkpt lat="47.38337" lon="5.00144">
        <ele>422.16</ele>
        <time>2016-12-28T15:53:42Z</time>
      </trkpt>
      <trkpt lat="47.38329" lon="5.00132">
        <ele>421.19</ele>
        <time>2016-12-28T15:53:46Z</time>
      </trkpt>
      <trkpt lat="47.38313" lon="5.00112">
        <ele>421.68</ele>
        <time>2016-12-28T15:53:50Z</time>
      </trkpt>
      <trkpt lat="47.38298" lon="5.00092">
        <ele>422.16</ele>
        <time>2016-12-28T15:53:56Z</time>
      </trkpt>
      <trkpt lat="47.38291" lon="5.00081">
        <ele>422.16</ele>
        <time>2016-12-28T15:54:00Z</time>
      </trkpt>
      <trkpt lat="47.38274" lon="5.00056">
        <ele>421.19</ele>
        <time>2016-12-28T15:54:08Z</time>
      </trkpt>
      <trkpt lat="47.38261" lon="5.00038">
        <ele>421.19</ele>
        <time>2016-12-28T15:54:16Z</time>
      </trkpt>
      <trkpt lat="47.38245" lon="5.00029">
        <ele>418.31</ele>
        <time>2016-12-28T15:54:21Z</time>
      </trkpt>
      <trkpt lat="47.38205" lon="5.00035">
        <ele>411.58</ele>
        <time>2016-12-28T15:54:34Z</time>
      </trkpt>
      <trkpt lat="47.38174" lon="5.00043">
        <ele>413.5</ele>
        <time>2016-12-28T15:54:44Z</time>
      </trkpt>
      <trkpt lat="47.38166" lon="5.00052">
        <ele>412.06</ele>
        <time>2016-12-28T15:54:48Z</time>
      </trkpt>
      <trkpt lat="47.38156" lon="5.00066">
        <ele>410.14</ele>
        <time>2016-12-28T15:54:52Z</time>
      </trkpt>
      <trkpt lat="47.3815" lon="5.0009">
        <ele>407.74</ele>
        <time>2016-12-28T15:54:57Z</time>
      </trkpt>
      <trkpt lat="47.38149" lon="5.00106">
        <ele>405.81</ele>
        <time>2016-12-28T15:55:01Z</time>
      </trkpt>
      <trkpt lat="47.38151" lon="5.00125">
        <ele>401.01</ele>
        <time>2016-12-28T15:55:05Z</time>
      </trkpt>
      <trkpt lat="47.38148" lon="5.00167">
        <ele>397.16</ele>
        <time>2016-12-28T15:55:14Z</time>
      </trkpt>
      <trkpt lat="47.38151" lon="5.002">
        <ele>393.8</ele>
        <time>2016-12-28T15:55:21Z</time>
      </trkpt>
      <trkpt lat="47.38157" lon="5.00263">
        <ele>391.87</ele>
        <time>2016-12-28T15:55:32Z</time>
      </trkpt>
      <trkpt lat="47.38147" lon="5.00294">
        <ele>389.47</ele>
        <time>2016-12-28T15:55:37Z</time>
      </trkpt>
      <trkpt lat="47.38143" lon="5.00321">
        <ele>387.55</ele>
        <time>2016-12-28T15:55:41Z</time>
      </trkpt>
      <trkpt lat="47.38137" lon="5.00353">
        <ele>385.63</ele>
        <time>2016-12-28T15:55:45Z</time>
      </trkpt>
      <trkpt lat="47.38137" lon="5.00384">
        <ele>383.7</ele>
        <time>2016-12-28T15:55:49Z</time>
      </trkpt>
      <trkpt lat="47.38132" lon="5.00414">
        <ele>381.3</ele>
        <time>2016-12-28T15:55:54Z</time>
      </trkpt>
      <trkpt lat="47.38131" lon="5.00432">
        <ele>378.9</ele>
        <time>2016-12-28T15:55:57Z</time>
      </trkpt>
      <trkpt lat="47.38136" lon="5.00482">
        <ele>374.09</ele>
        <time>2016-12-28T15:56:04Z</time>
      </trkpt>
      <trkpt lat="47.38137" lon="5.00496">
        <ele>372.17</ele>
        <time>2016-12-28T15:56:06Z</time>
      </trkpt>
      <trkpt lat="47.38142" lon="5.00527">
        <ele>368.32</ele>
        <time>2016-12-28T15:56:11Z</time>
      </trkpt>
      <trkpt lat="47.38149" lon="5.00548">
        <ele>366.88</ele>
        <time>2016-12-28T15:56:15Z</time>
      </trkpt>
      <trkpt lat="47.38169" lon="5.00568">
        <ele>365.44</ele>
        <time>2016-12-28T15:56:20Z</time>
      </trkpt>
      <trkpt lat="47.38185" lon="5.00585">
        <ele>362.55</ele>
        <time>2016-12-28T15:56:24Z</time>
      </trkpt>
      <trkpt lat="47.38201" lon="5.0061">
        <ele>361.59</ele>
        <time>2016-12-28T15:56:28Z</time>
      </trkpt>
      <trkpt lat="47.38206" lon="5.00654">
        <ele>358.71</ele>
        <time>2016-12-28T15:56:35Z</time>
      </trkpt>
      <trkpt lat="47.38201" lon="5.00666">
        <ele>358.23</ele>
        <time>2016-12-28T15:56:37Z</time>
      </trkpt>
      <trkpt lat="47.38195" lon="5.00691">
        <ele>356.79</ele>
        <time>2016-12-28T15:56:40Z</time>
      </trkpt>
      <trkpt lat="47.38189" lon="5.00734">
        <ele>354.86</ele>
        <time>2016-12-28T15:56:44Z</time>
      </trkpt>
      <trkpt lat="47.38187" lon="5.0081">
        <ele>350.54</ele>
        <time>2016-12-28T15:56:52Z</time>
      </trkpt>
      <trkpt lat="47.38187" lon="5.0082">
        <ele>350.06</ele>
        <time>2016-12-28T15:56:53Z</time>
      </trkpt>
      <trkpt lat="47.38192" lon="5.00875">
        <ele>347.17</ele>
        <time>2016-12-28T15:56:58Z</time>
      </trkpt>
      <trkpt lat="47.38191" lon="5.00907">
        <ele>345.25</ele>
        <time>2016-12-28T15:57:01Z</time>
      </trkpt>
      <trkpt lat="47.38172" lon="5.00958">
        <ele>339.96</ele>
        <time>2016-12-28T15:57:07Z</time>
      </trkpt>
      <trkpt lat="47.38164" lon="5.00977">
        <ele>339.48</ele>
        <time>2016-12-28T15:57:09Z</time>
      </trkpt>
      <trkpt lat="47.38157" lon="5.0103">
        <ele>339</ele>
        <time>2016-12-28T15:57:14Z</time>
      </trkpt>
      <trkpt lat="47.38162" lon="5.01073">
        <ele>338.04</ele>
        <time>2016-12-28T15:57:18Z</time>
      </trkpt>
      <trkpt lat="47.38169" lon="5.01152">
        <ele>336.6</ele>
        <time>2016-12-28T15:57:25Z</time>
      </trkpt>
      <trkpt lat="47.38164" lon="5.01205">
        <ele>332.75</ele>
        <time>2016-12-28T15:57:33Z</time>
      </trkpt>
      <trkpt lat="47.38163" lon="5.01216">
        <ele>331.79</ele>
        <time>2016-12-28T15:57:35Z</time>
      </trkpt>
      <trkpt lat="47.38149" lon="5.01231">
        <ele>327.95</ele>
        <time>2016-12-28T15:57:40Z</time>
      </trkpt>
      <trkpt lat="47.38143" lon="5.01231">
        <ele>326.02</ele>
        <time>2016-12-28T15:57:42Z</time>
      </trkpt>
      <trkpt lat="47.38134" lon="5.01246">
        <ele>324.58</ele>
        <time>2016-12-28T15:57:51Z</time>
      </trkpt>
      <trkpt lat="47.38133" lon="5.01251">
        <ele>323.14</ele>
        <time>2016-12-28T15:58:15Z</time>
      </trkpt>
      <trkpt lat="47.3813" lon="5.01287">
        <ele>321.7</ele>
        <time>2016-12-28T15:58:27Z</time>
      </trkpt>
      <trkpt lat="47.3813" lon="5.0129">
        <ele>321.7</ele>
        <time>2016-12-28T15:58:29Z</time>
      </trkpt>
      <trkpt lat="47.38128" lon="5.01296">
        <ele>321.7</ele>
        <time>2016-12-28T15:58:32Z</time>
      </trkpt>
      <trkpt lat="47.38127" lon="5.0131">
        <ele>322.18</ele>
        <time>2016-12-28T15:58:36Z</time>
      </trkpt>
      <trkpt lat="47.38123" lon="5.01324">
        <ele>322.18</ele>
        <time>2016-12-28T15:58:39Z</time>
      </trkpt>
      <trkpt lat="47.38117" lon="5.01358">
        <ele>323.62</ele>
        <time>2016-12-28T15:58:47Z</time>
      </trkpt>
      <trkpt lat="47.38104" lon="5.01396">
        <ele>323.14</ele>
        <time>2016-12-28T15:58:54Z</time>
      </trkpt>
      <trkpt lat="47.38112" lon="5.01427">
        <ele>321.7</ele>
        <time>2016-12-28T15:59:00Z</time>
      </trkpt>
      <trkpt lat="47.38117" lon="5.0145">
        <ele>319.3</ele>
        <time>2016-12-28T15:59:04Z</time>
      </trkpt>
      <trkpt lat="47.38129" lon="5.01465">
        <ele>317.37</ele>
        <time>2016-12-28T15:59:08Z</time>
      </trkpt>
      <trkpt lat="47.38142" lon="5.01515">
        <ele>310.16</ele>
        <time>2016-12-28T15:59:18Z</time>
      </trkpt>
      <trkpt lat="47.3814" lon="5.0153">
        <ele>309.68</ele>
        <time>2016-12-28T15:59:21Z</time>
      </trkpt>
      <trkpt lat="47.3812" lon="5.01604">
        <ele>308.72</ele>
        <time>2016-12-28T15:59:40Z</time>
      </trkpt>
      <trkpt lat="47.38115" lon="5.01613">
        <ele>308.72</ele>
        <time>2016-12-28T15:59:43Z</time>
      </trkpt>
      <trkpt lat="47.38095" lon="5.01632">
        <ele>308.72</ele>
        <time>2016-12-28T15:59:54Z</time>
      </trkpt>
      <trkpt lat="47.38091" lon="5.01645">
        <ele>308.72</ele>
        <time>2016-12-28T16:00:01Z</time>
      </trkpt>
      <trkpt lat="47.38096" lon="5.01659">
        <ele>309.2</ele>
        <time>2016-12-28T16:00:06Z</time>
      </trkpt>
      <trkpt lat="47.38105" lon="5.01688">
        <ele>309.2</ele>
        <time>2016-12-28T16:00:13Z</time>
      </trkpt>
      <trkpt lat="47.38117" lon="5.017">
        <ele>309.68</ele>
        <time>2016-12-28T16:00:17Z</time>
      </trkpt>
      <trkpt lat="47.38139" lon="5.0171">
        <ele>310.16</ele>
        <time>2016-12-28T16:00:23Z</time>
      </trkpt>
      <trkpt lat="47.38165" lon="5.01761">
        <ele>309.2</ele>
        <time>2016-12-28T16:00:35Z</time>
      </trkpt>
      <trkpt lat="47.38171" lon="5.01787">
        <ele>307.28</ele>
        <time>2016-12-28T16:00:40Z</time>
      </trkpt>
      <trkpt lat="47.38159" lon="5.01803">
        <ele>305.84</ele>
        <time>2016-12-28T16:00:46Z</time>
      </trkpt>
      <trkpt lat="47.38137" lon="5.01807">
        <ele>305.36</ele>
        <time>2016-12-28T16:00:53Z</time>
      </trkpt>
      <trkpt lat="47.38123" lon="5.01828">
        <ele>304.88</ele>
        <time>2016-12-28T16:01:00Z</time>
      </trkpt>
      <trkpt lat="47.38115" lon="5.01835">
        <ele>304.88</ele>
        <time>2016-12-28T16:01:03Z</time>
      </trkpt>
      <trkpt lat="47.38112" lon="5.01845">
        <ele>304.39</ele>
        <time>2016-12-28T16:01:18Z</time>
      </trkpt>
      <trkpt lat="47.38111" lon="5.01847">
        <ele>302.95</ele>
        <time>2016-12-28T16:01:30Z</time>
      </trkpt>
      <trkpt lat="47.38103" lon="5.01846">
        <ele>302.47</ele>
        <time>2016-12-28T16:01:36Z</time>
      </trkpt>
      <trkpt lat="47.38069" lon="5.01814">
        <ele>303.43</ele>
        <time>2016-12-28T16:01:52Z</time>
      </trkpt>
      <trkpt lat="47.38049" lon="5.01782">
        <ele>306.8</ele>
        <time>2016-12-28T16:02:05Z</time>
      </trkpt>
      <trkpt lat="47.38033" lon="5.01771">
        <ele>309.68</ele>
        <time>2016-12-28T16:02:12Z</time>
      </trkpt>
      <trkpt lat="47.38025" lon="5.01777">
        <ele>310.64</ele>
        <time>2016-12-28T16:02:17Z</time>
      </trkpt>
      <trkpt lat="47.38004" lon="5.01819">
        <ele>309.68</ele>
        <time>2016-12-28T16:02:32Z</time>
      </trkpt>
      <trkpt lat="47.38007" lon="5.01888">
        <ele>305.84</ele>
        <time>2016-12-28T16:02:44Z</time>
      </trkpt>
      <trkpt lat="47.37998" lon="5.01902">
        <ele>304.88</ele>
        <time>2016-12-28T16:02:49Z</time>
      </trkpt>
      <trkpt lat="47.37951" lon="5.01904">
        <ele>306.8</ele>
        <time>2016-12-28T16:03:03Z</time>
      </trkpt>
      <trkpt lat="47.37911" lon="5.01903">
        <ele>307.76</ele>
        <time>2016-12-28T16:03:16Z</time>
      </trkpt>
      <trkpt lat="47.37853" lon="5.01907">
        <ele>307.28</ele>
        <time>2016-12-28T16:03:33Z</time>
      </trkpt>
      <trkpt lat="47.37804" lon="5.01906">
        <ele>306.32</ele>
        <time>2016-12-28T16:03:47Z</time>
      </trkpt>
      <trkpt lat="47.3778" lon="5.01894">
        <ele>306.8</ele>
        <time>2016-12-28T16:03:55Z</time>
      </trkpt>
      <trkpt lat="47.3771" lon="5.01899">
        <ele>305.84</ele>
        <time>2016-12-28T16:04:12Z</time>
      </trkpt>
      <trkpt lat="47.37676" lon="5.01903">
        <ele>304.88</ele>
        <time>2016-12-28T16:04:22Z</time>
      </trkpt>
      <trkpt lat="47.37671" lon="5.01901">
        <ele>305.36</ele>
        <time>2016-12-28T16:04:23Z</time>
      </trkpt>
      <trkpt lat="47.37634" lon="5.01892">
        <ele>306.32</ele>
        <time>2016-12-28T16:04:32Z</time>
      </trkpt>
      <trkpt lat="47.37604" lon="5.01876">
        <ele>307.76</ele>
        <time>2016-12-28T16:04:42Z</time>
      </trkpt>
      <trkpt lat="47.37596" lon="5.01852">
        <ele>309.2</ele>
        <time>2016-12-28T16:04:51Z</time>
      </trkpt>
      <trkpt lat="47.37594" lon="5.0185">
        <ele>309.2</ele>
        <time>2016-12-28T16:04:52Z</time>
      </trkpt>
      <trkpt lat="47.37554" lon="5.01824">
        <ele>306.8</ele>
        <time>2016-12-28T16:05:07Z</time>
      </trkpt>
      <trkpt lat="47.3752" lon="5.01796">
        <ele>309.2</ele>
        <time>2016-12-28T16:05:20Z</time>
      </trkpt>
      <trkpt lat="47.3748" lon="5.01782">
        <ele>311.12</ele>
        <time>2016-12-28T16:05:35Z</time>
      </trkpt>
      <trkpt lat="47.3744" lon="5.01771">
        <ele>313.53</ele>
        <time>2016-12-28T16:05:49Z</time>
      </trkpt>
      <trkpt lat="47.37399" lon="5.01758">
        <ele>315.93</ele>
        <time>2016-12-28T16:06:03Z</time>
      </trkpt>
      <trkpt lat="47.37357" lon="5.01749">
        <ele>318.81</ele>
        <time>2016-12-28T16:06:17Z</time>
      </trkpt>
      <trkpt lat="47.37323" lon="5.0173">
        <ele>320.26</ele>
        <time>2016-12-28T16:06:30Z</time>
      </trkpt>
      <trkpt lat="47.37315" lon="5.0172">
        <ele>321.22</ele>
        <time>2016-12-28T16:06:35Z</time>
      </trkpt>
      <trkpt lat="47.37311" lon="5.0172">
        <ele>321.7</ele>
        <time>2016-12-28T16:06:43Z</time>
      </trkpt>
      <trkpt lat="47.37308" lon="5.01737">
        <ele>320.26</ele>
        <time>2016-12-28T16:06:49Z</time>
      </trkpt>
      <trkpt lat="47.37304" lon="5.01746">
        <ele>319.3</ele>
        <time>2016-12-28T16:06:51Z</time>
      </trkpt>
      <trkpt lat="47.37297" lon="5.01788">
        <ele>316.89</ele>
        <time>2016-12-28T16:06:57Z</time>
      </trkpt>
      <trkpt lat="47.37295" lon="5.01811">
        <ele>315.93</ele>
        <time>2016-12-28T16:07:00Z</time>
      </trkpt>
      <trkpt lat="47.37286" lon="5.01867">
        <ele>313.53</ele>
        <time>2016-12-28T16:07:10Z</time>
      </trkpt>
      <trkpt lat="47.37277" lon="5.01873">
        <ele>312.57</ele>
        <time>2016-12-28T16:07:14Z</time>
      </trkpt>
      <trkpt lat="47.3721" lon="5.01874">
        <ele>307.76</ele>
        <time>2016-12-28T16:07:26Z</time>
      </trkpt>
      <trkpt lat="47.37203" lon="5.01875">
        <ele>307.28</ele>
        <time>2016-12-28T16:07:27Z</time>
      </trkpt>
      <trkpt lat="47.37166" lon="5.01869">
        <ele>305.84</ele>
        <time>2016-12-28T16:07:34Z</time>
      </trkpt>
      <trkpt lat="47.37159" lon="5.0183">
        <ele>303.91</ele>
        <time>2016-12-28T16:07:43Z</time>
      </trkpt>
      <trkpt lat="47.37158" lon="5.01795">
        <ele>301.99</ele>
        <time>2016-12-28T16:07:47Z</time>
      </trkpt>
      <trkpt lat="47.37143" lon="5.01773">
        <ele>300.07</ele>
        <time>2016-12-28T16:07:56Z</time>
      </trkpt>
      <trkpt lat="47.37128" lon="5.01763">
        <ele>298.63</ele>
        <time>2016-12-28T16:08:04Z</time>
      </trkpt>
      <trkpt lat="47.37123" lon="5.01757">
        <ele>298.15</ele>
        <time>2016-12-28T16:08:08Z</time>
      </trkpt>
      <trkpt lat="47.37087" lon="5.01735">
        <ele>302.47</ele>
        <time>2016-12-28T16:08:24Z</time>
      </trkpt>
      <trkpt lat="47.37066" lon="5.01723">
        <ele>307.76</ele>
        <time>2016-12-28T16:08:36Z</time>
      </trkpt>
      <trkpt lat="47.37058" lon="5.01723">
        <ele>307.28</ele>
        <time>2016-12-28T16:08:42Z</time>
      </trkpt>
      <trkpt lat="47.37054" lon="5.01733">
        <ele>306.8</ele>
        <time>2016-12-28T16:08:46Z</time>
      </trkpt>
      <trkpt lat="47.37038" lon="5.01776">
        <ele>306.32</ele>
        <time>2016-12-28T16:08:57Z</time>
      </trkpt>
      <trkpt lat="47.37036" lon="5.01791">
        <ele>306.8</ele>
        <time>2016-12-28T16:09:07Z</time>
      </trkpt>
      <trkpt lat="47.37035" lon="5.01797">
        <ele>307.28</ele>
        <time>2016-12-28T16:09:29Z</time>
      </trkpt>
      <trkpt lat="47.37033" lon="5.01801">
        <ele>307.28</ele>
        <time>2016-12-28T16:09:34Z</time>
      </trkpt>
      <trkpt lat="47.37026" lon="5.01822">
        <ele>306.8</ele>
        <time>2016-12-28T16:09:41Z</time>
      </trkpt>
      <trkpt lat="47.37024" lon="5.01851">
        <ele>305.84</ele>
        <time>2016-12-28T16:09:45Z</time>
      </trkpt>
      <trkpt lat="47.37025" lon="5.01863">
        <ele>305.36</ele>
        <time>2016-12-28T16:09:47Z</time>
      </trkpt>
      <trkpt lat="47.37018" lon="5.01877">
        <ele>305.84</ele>
        <time>2016-12-28T16:09:53Z</time>
      </trkpt>
      <trkpt lat="47.37019" lon="5.01895">
        <ele>307.28</ele>
        <time>2016-12-28T16:10:05Z</time>
      </trkpt>
      <trkpt lat="47.37019" lon="5.01904">
        <ele>308.72</ele>
        <time>2016-12-28T16:10:13Z</time>
      </trkpt>
      <trkpt lat="47.37023" lon="5.01911">
        <ele>307.28</ele>
        <time>2016-12-28T16:10:25Z</time>
      </trkpt>
      <trkpt lat="47.37023" lon="5.01918">
        <ele>307.28</ele>
        <time>2016-12-28T16:10:29Z</time>
      </trkpt>
      <trkpt lat="47.37024" lon="5.01933">
        <ele>306.8</ele>
        <time>2016-12-28T16:10:46Z</time>
      </trkpt>
      <trkpt lat="47.37023" lon="5.01948">
        <ele>306.8</ele>
        <time>2016-12-28T16:10:50Z</time>
      </trkpt>
      <trkpt lat="47.37031" lon="5.01972">
        <ele>305.84</ele>
        <time>2016-12-28T16:10:55Z</time>
      </trkpt>
      <trkpt lat="47.3703" lon="5.02007">
        <ele>304.88</ele>
        <time>2016-12-28T16:11:02Z</time>
      </trkpt>
      <trkpt lat="47.37052" lon="5.02032">
        <ele>298.15</ele>
        <time>2016-12-28T16:11:11Z</time>
      </trkpt>
      <trkpt lat="47.37042" lon="5.02041">
        <ele>297.67</ele>
        <time>2016-12-28T16:11:15Z</time>
      </trkpt>
      <trkpt lat="47.37007" lon="5.02054">
        <ele>294.3</ele>
        <time>2016-12-28T16:11:24Z</time>
      </trkpt>
      <trkpt lat="47.36958" lon="5.02071">
        <ele>291.42</ele>
        <time>2016-12-28T16:11:33Z</time>
      </trkpt>
      <trkpt lat="47.36935" lon="5.02075">
        <ele>289.01</ele>
        <time>2016-12-28T16:11:41Z</time>
      </trkpt>
      <trkpt lat="47.36925" lon="5.02102">
        <ele>287.09</ele>
        <time>2016-12-28T16:11:53Z</time>
      </trkpt>
      <trkpt lat="47.36925" lon="5.02105">
        <ele>287.09</ele>
        <time>2016-12-28T16:11:54Z</time>
      </trkpt>
      <trkpt lat="47.36922" lon="5.0211">
        <ele>286.61</ele>
        <time>2016-12-28T16:11:57Z</time>
      </trkpt>
      <trkpt lat="47.36912" lon="5.02136">
        <ele>286.13</ele>
        <time>2016-12-28T16:12:05Z</time>
      </trkpt>
      <trkpt lat="47.36911" lon="5.02181">
        <ele>283.25</ele>
        <time>2016-12-28T16:12:15Z</time>
      </trkpt>
      <trkpt lat="47.36911" lon="5.02237">
        <ele>279.4</ele>
        <time>2016-12-28T16:12:26Z</time>
      </trkpt>
      <trkpt lat="47.36906" lon="5.0227">
        <ele>277</ele>
        <time>2016-12-28T16:12:33Z</time>
      </trkpt>
      <trkpt lat="47.369" lon="5.02292">
        <ele>276.04</ele>
        <time>2016-12-28T16:12:37Z</time>
      </trkpt>
      <trkpt lat="47.36893" lon="5.02318">
        <ele>275.07</ele>
        <time>2016-12-28T16:12:42Z</time>
      </trkpt>
      <trkpt lat="47.36895" lon="5.02392">
        <ele>274.11</ele>
        <time>2016-12-28T16:12:56Z</time>
      </trkpt>
      <trkpt lat="47.36903" lon="5.02433">
        <ele>273.63</ele>
        <time>2016-12-28T16:13:04Z</time>
      </trkpt>
      <trkpt lat="47.36952" lon="5.02477">
        <ele>271.71</ele>
        <time>2016-12-28T16:13:18Z</time>
      </trkpt>
      <trkpt lat="47.36974" lon="5.02501">
        <ele>273.63</ele>
        <time>2016-12-28T16:13:26Z</time>
      </trkpt>
      <trkpt lat="47.36968" lon="5.02523">
        <ele>273.15</ele>
        <time>2016-12-28T16:13:31Z</time>
      </trkpt>
      <trkpt lat="47.36924" lon="5.02557">
        <ele>273.63</ele>
        <time>2016-12-28T16:13:45Z</time>
      </trkpt>
      <trkpt lat="47.36911" lon="5.02566">
        <ele>273.15</ele>
        <time>2016-12-28T16:13:54Z</time>
      </trkpt>
      <trkpt lat="47.36907" lon="5.02561">
        <ele>273.15</ele>
        <time>2016-12-28T16:14:02Z</time>
      </trkpt>
      <trkpt lat="47.36907" lon="5.02558">
        <ele>273.63</ele>
        <time>2016-12-28T16:14:13Z</time>
      </trkpt>
      <trkpt lat="47.36907" lon="5.02556">
        <ele>272.19</ele>
        <time>2016-12-28T16:14:57Z</time>
      </trkpt>
      <trkpt lat="47.36907" lon="5.0256">
        <ele>272.67</ele>
        <time>2016-12-28T16:15:33Z</time>
      </trkpt>
      <trkpt lat="47.36908" lon="5.02559">
        <ele>273.15</ele>
        <time>2016-12-28T16:16:12Z</time>
      </trkpt>
      <trkpt lat="47.36906" lon="5.02558">
        <ele>272.19</ele>
        <time>2016-12-28T16:16:47Z</time>
      </trkpt>
      <trkpt lat="47.36908" lon="5.02557">
        <ele>273.63</ele>
        <time>2016-12-28T16:17:18Z</time>
      </trkpt>
    </trkseg>
  </trk>
</gpx>